<?xml version='1.0' encoding='UTF-8'?><gpx version="1.1" creator="JPX - https://github.com/jenetics/jpx" xmlns="http://www.topografix.com/GPX/1/1"><trk><trkseg><trkpt lat="45.72351556830377" lon="11.769031740758287"><ele>93.0</ele><time>2026-03-22T10:50:44Z</time></trkpt><trkpt lat="45.72344948917128" lon="11.768970776835916"><ele>93.0</ele><time>2026-03-22T10:50:47Z</time></trkpt><trkpt lat="45.72342935341241" lon="11.768850200918738"><ele>93.0</ele><time>2026-03-22T10:50:50Z</time></trkpt><trkpt lat="45.72346096373814" lon="11.76872905706178"><ele>93.0</ele><time>2026-03-22T10:50:52Z</time></trkpt><trkpt lat="45.72350797561074" lon="11.768547572827172"><ele>93.0</ele><time>2026-03-22T10:50:53.999Z</time></trkpt><trkpt lat="45.723531204095096" lon="11.768451232297695"><ele>93.16666666666667</ele><time>2026-03-22T10:50:54.999Z</time></trkpt><trkpt lat="45.723552873464584" lon="11.76834737844207"><ele>93.33333333333333</ele><time>2026-03-22T10:50:55.999Z</time></trkpt><trkpt lat="45.72357758635355" lon="11.768249973228883"><ele>93.5</ele><time>2026-03-22T10:50:56.999Z</time></trkpt><trkpt lat="45.72360206323187" lon="11.768148252029759"><ele>93.66666666666666</ele><time>2026-03-22T10:50:57.999Z</time></trkpt><trkpt lat="45.72362684715139" lon="11.768028351854733"><ele>93.83333333333333</ele><time>2026-03-22T10:50:58.999Z</time></trkpt><trkpt lat="45.72365152567173" lon="11.767906523432574"><ele>94.0</ele><time>2026-03-22T10:50:59.999Z</time></trkpt><trkpt lat="45.723677341738714" lon="11.767776128325321"><ele>93.80000000000001</ele><time>2026-03-22T10:51:00.999Z</time></trkpt><trkpt lat="45.72370422216926" lon="11.767641922155628"><ele>93.60000000000001</ele><time>2026-03-22T10:51:01.999Z</time></trkpt><trkpt lat="45.72373029227945" lon="11.767507555617263"><ele>93.4</ele><time>2026-03-22T10:51:02.999Z</time></trkpt><trkpt lat="45.7237518289083" lon="11.767384590226092"><ele>93.2</ele><time>2026-03-22T10:51:03.999Z</time></trkpt><trkpt lat="45.72377293480539" lon="11.767267443811084"><ele>93.0</ele><time>2026-03-22T10:51:04.999Z</time></trkpt><trkpt lat="45.72379013899961" lon="11.76714694836296"><ele>93.0</ele><time>2026-03-22T10:51:05.999Z</time></trkpt><trkpt lat="45.723812004312975" lon="11.767027678834445"><ele>93.0</ele><time>2026-03-22T10:51:06.999Z</time></trkpt><trkpt lat="45.72383223017833" lon="11.766920246927734"><ele>93.0</ele><time>2026-03-22T10:51:07.999Z</time></trkpt><trkpt lat="45.72384809600429" lon="11.766811300737238"><ele>93.0</ele><time>2026-03-22T10:51:08.999Z</time></trkpt><trkpt lat="45.723859569726145" lon="11.766713890640345"><ele>93.0</ele><time>2026-03-22T10:51:09.999Z</time></trkpt><trkpt lat="45.72387407212333" lon="11.766614061326262"><ele>93.0</ele><time>2026-03-22T10:51:10.999Z</time></trkpt><trkpt lat="45.7238886767352" lon="11.766514500776399"><ele>93.00000000000001</ele><time>2026-03-22T10:51:11.999Z</time></trkpt><trkpt lat="45.72390009765389" lon="11.76642102669711"><ele>93.0</ele><time>2026-03-22T10:51:12.999Z</time></trkpt><trkpt lat="45.72391293168519" lon="11.766322828264368"><ele>93.0</ele><time>2026-03-22T10:51:13.999Z</time></trkpt><trkpt lat="45.72392405020608" lon="11.766227217143403"><ele>93.0</ele><time>2026-03-22T10:51:14.999Z</time></trkpt><trkpt lat="45.723936571378424" lon="11.766124706183644"><ele>93.0</ele><time>2026-03-22T10:51:15.999Z</time></trkpt><trkpt lat="45.72394766009388" lon="11.766015287243583"><ele>93.00000000000001</ele><time>2026-03-22T10:51:16.999Z</time></trkpt><trkpt lat="45.723965043006366" lon="11.765905840330786"><ele>93.0</ele><time>2026-03-22T10:51:17.999Z</time></trkpt><trkpt lat="45.72399075451516" lon="11.76579038657712"><ele>92.83333333333333</ele><time>2026-03-22T10:51:18.999Z</time></trkpt><trkpt lat="45.7240089151788" lon="11.765688257477317"><ele>92.66666666666667</ele><time>2026-03-22T10:51:19.999Z</time></trkpt><trkpt lat="45.72403233221476" lon="11.765580028982646"><ele>92.5</ele><time>2026-03-22T10:51:20.999Z</time></trkpt><trkpt lat="45.72405182317854" lon="11.765469749029995"><ele>92.33333333333334</ele><time>2026-03-22T10:51:21.999Z</time></trkpt><trkpt lat="45.72407035124202" lon="11.765365601610478"><ele>92.16666666666667</ele><time>2026-03-22T10:51:22.999Z</time></trkpt><trkpt lat="45.72408993903621" lon="11.765275741894067"><ele>92.0</ele><time>2026-03-22T10:51:23.999Z</time></trkpt><trkpt lat="45.72412241089767" lon="11.76514125341539"><ele>92.5</ele><time>2026-03-22T10:51:25.999Z</time></trkpt><trkpt lat="45.72413929765382" lon="11.765048256685406"><ele>93.0</ele><time>2026-03-22T10:51:27.999Z</time></trkpt><trkpt lat="45.72414525854628" lon="11.764916046676648"><ele>93.5</ele><time>2026-03-22T10:51:36.999Z</time></trkpt><trkpt lat="45.72417262870252" lon="11.764776543209203"><ele>94.0</ele><time>2026-03-22T10:51:39.999Z</time></trkpt><trkpt lat="45.724201757304705" lon="11.764619123571533"><ele>94.5</ele><time>2026-03-22T10:51:41.999Z</time></trkpt><trkpt lat="45.72421857530256" lon="11.764522989580046"><ele>95.0</ele><time>2026-03-22T10:51:42.999Z</time></trkpt><trkpt lat="45.72424923430904" lon="11.764343242311496"><ele>95.0</ele><time>2026-03-22T10:51:44.999Z</time></trkpt><trkpt lat="45.72426286767793" lon="11.764242908001153"><ele>95.0</ele><time>2026-03-22T10:51:45.999Z</time></trkpt><trkpt lat="45.72428221232176" lon="11.764147675807418"><ele>95.0</ele><time>2026-03-22T10:51:46.999Z</time></trkpt><trkpt lat="45.724300246837245" lon="11.764051681660264"><ele>95.0</ele><time>2026-03-22T10:51:47.999Z</time></trkpt><trkpt lat="45.724322189113074" lon="11.763961621891527"><ele>95.0</ele><time>2026-03-22T10:51:48.999Z</time></trkpt><trkpt lat="45.72434065977825" lon="11.763873673437898"><ele>95.0</ele><time>2026-03-22T10:51:49.999Z</time></trkpt><trkpt lat="45.72435862444472" lon="11.763786435426843"><ele>95.0</ele><time>2026-03-22T10:51:50.999Z</time></trkpt><trkpt lat="45.72438189527814" lon="11.763635860460157"><ele>95.0</ele><time>2026-03-22T10:51:52.999Z</time></trkpt><trkpt lat="45.72439888171485" lon="11.76353839624866"><ele>95.0</ele><time>2026-03-22T10:51:54.999Z</time></trkpt><trkpt lat="45.72442172955019" lon="11.763444645115314"><ele>95.0</ele><time>2026-03-22T10:52:33Z</time></trkpt><trkpt lat="45.72444059013468" lon="11.76334622949098"><ele>95.0</ele><time>2026-03-22T10:52:35Z</time></trkpt><trkpt lat="45.724444606280606" lon="11.76323359885762"><ele>95.0</ele><time>2026-03-22T10:52:37Z</time></trkpt><trkpt lat="45.72443982624493" lon="11.763050600104437"><ele>95.0</ele><time>2026-03-22T10:52:39Z</time></trkpt><trkpt lat="45.724434632181364" lon="11.76284223752495"><ele>95.0</ele><time>2026-03-22T10:52:41Z</time></trkpt><trkpt lat="45.72443017730235" lon="11.762714732134326"><ele>95.0</ele><time>2026-03-22T10:52:42Z</time></trkpt><trkpt lat="45.72442457541367" lon="11.76256707771184"><ele>95.0</ele><time>2026-03-22T10:52:43Z</time></trkpt><trkpt lat="45.724420072356075" lon="11.762423068057378"><ele>95.0</ele><time>2026-03-22T10:52:44Z</time></trkpt><trkpt lat="45.72442314521348" lon="11.762279398832145"><ele>95.0</ele><time>2026-03-22T10:52:45Z</time></trkpt><trkpt lat="45.72441776975273" lon="11.762128657629377"><ele>95.5</ele><time>2026-03-22T10:52:46Z</time></trkpt><trkpt lat="45.72441525492089" lon="11.761959111680797"><ele>96.0</ele><time>2026-03-22T10:52:46.999Z</time></trkpt><trkpt lat="45.72441079092642" lon="11.761781360569035"><ele>96.5</ele><time>2026-03-22T10:52:47.999Z</time></trkpt><trkpt lat="45.72440799964266" lon="11.761594435417559"><ele>97.0</ele><time>2026-03-22T10:52:48.999Z</time></trkpt><trkpt lat="45.72440829540476" lon="11.761408697348985"><ele>97.0</ele><time>2026-03-22T10:52:49.999Z</time></trkpt><trkpt lat="45.724408134940816" lon="11.761216960842686"><ele>97.0</ele><time>2026-03-22T10:52:50.999Z</time></trkpt><trkpt lat="45.72440280152655" lon="11.761031154724334"><ele>97.0</ele><time>2026-03-22T10:52:51.999Z</time></trkpt><trkpt lat="45.7243989174258" lon="11.760843606699769"><ele>97.0</ele><time>2026-03-22T10:52:52.999Z</time></trkpt><trkpt lat="45.72440026422705" lon="11.760653003829116"><ele>96.8</ele><time>2026-03-22T10:52:53.999Z</time></trkpt><trkpt lat="45.724403257760265" lon="11.760474292686435"><ele>96.6</ele><time>2026-03-22T10:52:54.999Z</time></trkpt><trkpt lat="45.72440459168092" lon="11.760313654424852"><ele>96.39999999999999</ele><time>2026-03-22T10:52:55.999Z</time></trkpt><trkpt lat="45.724401227446805" lon="11.760167262298877"><ele>96.19999999999999</ele><time>2026-03-22T10:52:56.999Z</time></trkpt><trkpt lat="45.72440408968269" lon="11.7600328536156"><ele>96.0</ele><time>2026-03-22T10:52:57.999Z</time></trkpt><trkpt lat="45.72442058296953" lon="11.759906424836709"><ele>96.0</ele><time>2026-03-22T10:52:58.999Z</time></trkpt><trkpt lat="45.724441833616325" lon="11.759784096294233"><ele>96.0</ele><time>2026-03-22T10:52:59.999Z</time></trkpt><trkpt lat="45.72444086990521" lon="11.75965220138309"><ele>96.0</ele><time>2026-03-22T10:53:00.999Z</time></trkpt><trkpt lat="45.724418129476014" lon="11.759501856378373"><ele>96.0</ele><time>2026-03-22T10:53:01.999Z</time></trkpt><trkpt lat="45.724402928703284" lon="11.759339989302331"><ele>96.0</ele><time>2026-03-22T10:53:02.999Z</time></trkpt><trkpt lat="45.72440718049574" lon="11.759145548080458"><ele>95.33333333333333</ele><time>2026-03-22T10:53:03.999Z</time></trkpt><trkpt lat="45.7244102909592" lon="11.758944208191515"><ele>94.66666666666666</ele><time>2026-03-22T10:53:04.999Z</time></trkpt><trkpt lat="45.7244107871666" lon="11.758723765725522"><ele>94.0</ele><time>2026-03-22T10:53:05.999Z</time></trkpt><trkpt lat="45.724411569100006" lon="11.75849545258237"><ele>94.0</ele><time>2026-03-22T10:53:06.999Z</time></trkpt><trkpt lat="45.72441251313913" lon="11.758253544561157"><ele>94.0</ele><time>2026-03-22T10:53:07.999Z</time></trkpt><trkpt lat="45.724418149022966" lon="11.757992648421869"><ele>94.0</ele><time>2026-03-22T10:53:08.999Z</time></trkpt><trkpt lat="45.724425956258145" lon="11.757729168332801"><ele>94.33333333333333</ele><time>2026-03-22T10:53:09.999Z</time></trkpt><trkpt lat="45.72442926449566" lon="11.75747409702712"><ele>94.66666666666667</ele><time>2026-03-22T10:53:10.999Z</time></trkpt><trkpt lat="45.724433121229275" lon="11.757222953792116"><ele>95.0</ele><time>2026-03-22T10:53:11.999Z</time></trkpt><trkpt lat="45.72443611287113" lon="11.75697043882309"><ele>95.33333333333334</ele><time>2026-03-22T10:53:12.999Z</time></trkpt><trkpt lat="45.72443488480228" lon="11.756733620802189"><ele>95.66666666666667</ele><time>2026-03-22T10:53:13.999Z</time></trkpt><trkpt lat="45.724440756813735" lon="11.756494054248249"><ele>96.0</ele><time>2026-03-22T10:53:14.999Z</time></trkpt><trkpt lat="45.72444475576912" lon="11.756252856244416"><ele>96.0</ele><time>2026-03-22T10:53:15.999Z</time></trkpt><trkpt lat="45.72444554536276" lon="11.756015301055092"><ele>96.0</ele><time>2026-03-22T10:53:16.999Z</time></trkpt><trkpt lat="45.72444876591843" lon="11.755780279747517"><ele>96.0</ele><time>2026-03-22T10:53:17.999Z</time></trkpt><trkpt lat="45.7244561881767" lon="11.755535274566817"><ele>96.0</ele><time>2026-03-22T10:53:18.999Z</time></trkpt><trkpt lat="45.724460001920555" lon="11.75529527928954"><ele>96.0</ele><time>2026-03-22T10:53:19.999Z</time></trkpt><trkpt lat="45.72446386358137" lon="11.755073503192612"><ele>96.0</ele><time>2026-03-22T10:53:20.999Z</time></trkpt><trkpt lat="45.72447178232727" lon="11.75485586740289"><ele>96.0</ele><time>2026-03-22T10:53:21.999Z</time></trkpt><trkpt lat="45.724482792691646" lon="11.754638758898226"><ele>96.0</ele><time>2026-03-22T10:53:22.999Z</time></trkpt><trkpt lat="45.72449309628056" lon="11.754429460872053"><ele>96.0</ele><time>2026-03-22T10:53:23.999Z</time></trkpt><trkpt lat="45.72449779158708" lon="11.754205444850392"><ele>96.0</ele><time>2026-03-22T10:53:24.999Z</time></trkpt><trkpt lat="45.72449437352988" lon="11.753977540498928"><ele>96.0</ele><time>2026-03-22T10:53:25.999Z</time></trkpt><trkpt lat="45.72447945392622" lon="11.753752916761794"><ele>96.0</ele><time>2026-03-22T10:53:26.999Z</time></trkpt><trkpt lat="45.72446411602332" lon="11.75351557754251"><ele>96.0</ele><time>2026-03-22T10:53:27.999Z</time></trkpt><trkpt lat="45.724441435276674" lon="11.75328362899153"><ele>96.0</ele><time>2026-03-22T10:53:28.999Z</time></trkpt><trkpt lat="45.72441652551122" lon="11.753062152693007"><ele>96.0</ele><time>2026-03-22T10:53:29.999Z</time></trkpt><trkpt lat="45.72439062827666" lon="11.752841818532842"><ele>96.0</ele><time>2026-03-22T10:53:30.999Z</time></trkpt><trkpt lat="45.72436706788709" lon="11.75262719416161"><ele>96.0</ele><time>2026-03-22T10:53:31.999Z</time></trkpt><trkpt lat="45.72434061432313" lon="11.752412537086803"><ele>96.0</ele><time>2026-03-22T10:53:32.999Z</time></trkpt><trkpt lat="45.724312530850796" lon="11.752203087338726"><ele>96.0</ele><time>2026-03-22T10:53:33.999Z</time></trkpt><trkpt lat="45.72427977094285" lon="11.751995947702742"><ele>96.0</ele><time>2026-03-22T10:53:34.999Z</time></trkpt><trkpt lat="45.7242435547584" lon="11.751790848935485"><ele>96.0</ele><time>2026-03-22T10:53:35.999Z</time></trkpt><trkpt lat="45.72420091149947" lon="11.751595908881235"><ele>96.0</ele><time>2026-03-22T10:53:36.999Z</time></trkpt><trkpt lat="45.724158836943175" lon="11.751402125653847"><ele>96.0</ele><time>2026-03-22T10:53:37.999Z</time></trkpt><trkpt lat="45.72411632838514" lon="11.751202095444"><ele>96.0</ele><time>2026-03-22T10:53:38.999Z</time></trkpt><trkpt lat="45.72407424211826" lon="11.751002783706488"><ele>96.0</ele><time>2026-03-22T10:53:39.999Z</time></trkpt><trkpt lat="45.72403385892277" lon="11.75079957963346"><ele>96.0</ele><time>2026-03-22T10:53:40.999Z</time></trkpt><trkpt lat="45.723993949576816" lon="11.75059850412848"><ele>96.0</ele><time>2026-03-22T10:53:41.999Z</time></trkpt><trkpt lat="45.72396023364411" lon="11.750404378633702"><ele>96.0</ele><time>2026-03-22T10:53:42.999Z</time></trkpt><trkpt lat="45.7239239246046" lon="11.750207831686787"><ele>96.0</ele><time>2026-03-22T10:53:43.999Z</time></trkpt><trkpt lat="45.723885485492175" lon="11.750011562850489"><ele>96.0</ele><time>2026-03-22T10:53:44.999Z</time></trkpt><trkpt lat="45.723850540488286" lon="11.749818387207357"><ele>96.0</ele><time>2026-03-22T10:53:45.999Z</time></trkpt><trkpt lat="45.72381641586424" lon="11.749622758632466"><ele>96.0</ele><time>2026-03-22T10:53:46.999Z</time></trkpt><trkpt lat="45.72377854012431" lon="11.749416560690744"><ele>96.0</ele><time>2026-03-22T10:53:47.999Z</time></trkpt><trkpt lat="45.72373891471422" lon="11.749211061230291"><ele>96.0</ele><time>2026-03-22T10:53:48.999Z</time></trkpt><trkpt lat="45.72369959626927" lon="11.74899720884491"><ele>97.0</ele><time>2026-03-22T10:53:49.999Z</time></trkpt><trkpt lat="45.72365851569404" lon="11.748784713024387"><ele>98.0</ele><time>2026-03-22T10:53:50.999Z</time></trkpt><trkpt lat="45.72361184321488" lon="11.748560031476758"><ele>99.0</ele><time>2026-03-22T10:53:51.999Z</time></trkpt><trkpt lat="45.72356088806153" lon="11.748302208165555"><ele>99.0</ele><time>2026-03-22T10:53:52.999Z</time></trkpt><trkpt lat="45.723515001354436" lon="11.748015142946981"><ele>99.0</ele><time>2026-03-22T10:53:53.999Z</time></trkpt><trkpt lat="45.72348725557157" lon="11.74771426466982"><ele>99.0</ele><time>2026-03-22T10:53:54.999Z</time></trkpt><trkpt lat="45.72347166894864" lon="11.747401382597065"><ele>99.33333333333334</ele><time>2026-03-22T10:53:55.999Z</time></trkpt><trkpt lat="45.723465020515086" lon="11.747106930639989"><ele>99.66666666666667</ele><time>2026-03-22T10:53:56.999Z</time></trkpt><trkpt lat="45.723466191572676" lon="11.746833863654256"><ele>100.0</ele><time>2026-03-22T10:53:57.999Z</time></trkpt><trkpt lat="45.72347388128052" lon="11.746581836625115"><ele>100.0</ele><time>2026-03-22T10:53:58.999Z</time></trkpt><trkpt lat="45.72347330854654" lon="11.746360929024778"><ele>100.0</ele><time>2026-03-22T10:53:59.999Z</time></trkpt><trkpt lat="45.72347283951613" lon="11.746146579696996"><ele>100.0</ele><time>2026-03-22T10:54:00.999Z</time></trkpt><trkpt lat="45.72347498809974" lon="11.745938962306438"><ele>100.0</ele><time>2026-03-22T10:54:02Z</time></trkpt><trkpt lat="45.723480848151546" lon="11.745747213452082"><ele>100.0</ele><time>2026-03-22T10:54:03Z</time></trkpt><trkpt lat="45.723488086837285" lon="11.745557853878504"><ele>100.0</ele><time>2026-03-22T10:54:04Z</time></trkpt><trkpt lat="45.7234887412064" lon="11.745388946636313"><ele>100.0</ele><time>2026-03-22T10:54:05Z</time></trkpt><trkpt lat="45.72348181818299" lon="11.745213080481776"><ele>100.0</ele><time>2026-03-22T10:54:06Z</time></trkpt><trkpt lat="45.723473590158385" lon="11.745055197808208"><ele>99.2</ele><time>2026-03-22T10:54:07Z</time></trkpt><trkpt lat="45.72347573280923" lon="11.74489848708485"><ele>98.4</ele><time>2026-03-22T10:54:08Z</time></trkpt><trkpt lat="45.72348191515579" lon="11.744737736493272"><ele>97.6</ele><time>2026-03-22T10:54:09Z</time></trkpt><trkpt lat="45.72348250980698" lon="11.744582646957753"><ele>96.8</ele><time>2026-03-22T10:54:10Z</time></trkpt><trkpt lat="45.72347686313559" lon="11.744443739995466"><ele>96.0</ele><time>2026-03-22T10:54:11Z</time></trkpt><trkpt lat="45.72346585436004" lon="11.744311878687162"><ele>96.0</ele><time>2026-03-22T10:54:12Z</time></trkpt><trkpt lat="45.72345096876564" lon="11.744190891026868"><ele>96.0</ele><time>2026-03-22T10:54:13Z</time></trkpt><trkpt lat="45.72343731012634" lon="11.744082682068209"><ele>96.0</ele><time>2026-03-22T10:54:14Z</time></trkpt><trkpt lat="45.723426125746066" lon="11.743968886800117"><ele>96.0</ele><time>2026-03-22T10:54:15Z</time></trkpt><trkpt lat="45.72340645323512" lon="11.74386044520362"><ele>96.0</ele><time>2026-03-22T10:54:16Z</time></trkpt><trkpt lat="45.72338411619478" lon="11.743754458623851"><ele>96.0</ele><time>2026-03-22T10:54:17Z</time></trkpt><trkpt lat="45.72336462348538" lon="11.743660686775337"><ele>96.0</ele><time>2026-03-22T10:54:18Z</time></trkpt><trkpt lat="45.7233574963673" lon="11.743560014981608"><ele>96.0</ele><time>2026-03-22T10:54:19Z</time></trkpt><trkpt lat="45.723371677121584" lon="11.743464054130445"><ele>96.0</ele><time>2026-03-22T10:54:20Z</time></trkpt><trkpt lat="45.723394905196656" lon="11.743294940788237"><ele>96.0</ele><time>2026-03-22T10:54:22Z</time></trkpt><trkpt lat="45.723338499628916" lon="11.74314104669012"><ele>96.0</ele><time>2026-03-22T10:54:24Z</time></trkpt><trkpt lat="45.72328268702119" lon="11.743084124121246"><ele>96.0</ele><time>2026-03-22T10:54:25Z</time></trkpt><trkpt lat="45.72319888880536" lon="11.743062123777737"><ele>96.0</ele><time>2026-03-22T10:54:26Z</time></trkpt><trkpt lat="45.723122746541286" lon="11.742941509191299"><ele>96.0</ele><time>2026-03-22T10:54:27Z</time></trkpt><trkpt lat="45.723046644293476" lon="11.742815049773544"><ele>96.0</ele><time>2026-03-22T10:54:28Z</time></trkpt><trkpt lat="45.72296472020917" lon="11.742628097599017"><ele>96.0</ele><time>2026-03-22T10:54:29Z</time></trkpt><trkpt lat="45.72286321484525" lon="11.742408621628668"><ele>95.66666666666667</ele><time>2026-03-22T10:54:30Z</time></trkpt><trkpt lat="45.72274902957925" lon="11.7421760382464"><ele>95.33333333333334</ele><time>2026-03-22T10:54:31Z</time></trkpt><trkpt lat="45.72264203870562" lon="11.741958309854853"><ele>95.0</ele><time>2026-03-22T10:54:32Z</time></trkpt><trkpt lat="45.72253506113107" lon="11.741737711753933"><ele>95.0</ele><time>2026-03-22T10:54:33Z</time></trkpt><trkpt lat="45.72243063642778" lon="11.741509491602697"><ele>95.0</ele><time>2026-03-22T10:54:34Z</time></trkpt><trkpt lat="45.72234630638611" lon="11.741265863703585"><ele>95.0</ele><time>2026-03-22T10:54:35Z</time></trkpt><trkpt lat="45.722276528948946" lon="11.741009285698267"><ele>95.0</ele><time>2026-03-22T10:54:36Z</time></trkpt><trkpt lat="45.72222097729752" lon="11.740732301737472"><ele>95.0</ele><time>2026-03-22T10:54:37Z</time></trkpt><trkpt lat="45.72217495918022" lon="11.740447866073918"><ele>95.0</ele><time>2026-03-22T10:54:38Z</time></trkpt><trkpt lat="45.72214110080458" lon="11.740153339295038"><ele>94.66666666666667</ele><time>2026-03-22T10:54:39Z</time></trkpt><trkpt lat="45.72210480505058" lon="11.739851063139005"><ele>94.33333333333333</ele><time>2026-03-22T10:54:40Z</time></trkpt><trkpt lat="45.72205970078859" lon="11.73956686918682"><ele>94.0</ele><time>2026-03-22T10:54:41Z</time></trkpt><trkpt lat="45.72201937905706" lon="11.739285596106372"><ele>93.66666666666666</ele><time>2026-03-22T10:54:42Z</time></trkpt><trkpt lat="45.72198008089175" lon="11.739005089308023"><ele>93.33333333333333</ele><time>2026-03-22T10:54:43Z</time></trkpt><trkpt lat="45.72193847579256" lon="11.738711898426232"><ele>93.0</ele><time>2026-03-22T10:54:44Z</time></trkpt><trkpt lat="45.72189965859544" lon="11.738422975936105"><ele>92.66666666666667</ele><time>2026-03-22T10:54:45Z</time></trkpt><trkpt lat="45.72186019147358" lon="11.738125180081612"><ele>92.33333333333334</ele><time>2026-03-22T10:54:46Z</time></trkpt><trkpt lat="45.72181747123477" lon="11.73781912116588"><ele>92.0</ele><time>2026-03-22T10:54:47Z</time></trkpt><trkpt lat="45.72177073900839" lon="11.737527930174862"><ele>92.0</ele><time>2026-03-22T10:54:48Z</time></trkpt><trkpt lat="45.7217282612873" lon="11.73725068466002"><ele>92.0</ele><time>2026-03-22T10:54:49Z</time></trkpt><trkpt lat="45.72168178028551" lon="11.736973180109057"><ele>92.0</ele><time>2026-03-22T10:54:50Z</time></trkpt><trkpt lat="45.72162474254784" lon="11.736692021155829"><ele>92.66666666666667</ele><time>2026-03-22T10:54:51Z</time></trkpt><trkpt lat="45.72157761562832" lon="11.736413141672646"><ele>93.33333333333333</ele><time>2026-03-22T10:54:52Z</time></trkpt><trkpt lat="45.72153287232676" lon="11.736137297677095"><ele>94.0</ele><time>2026-03-22T10:54:53Z</time></trkpt><trkpt lat="45.721487432990706" lon="11.735862171265106"><ele>94.0</ele><time>2026-03-22T10:54:54Z</time></trkpt><trkpt lat="45.72144525314459" lon="11.73559878408316"><ele>94.0</ele><time>2026-03-22T10:54:55Z</time></trkpt><trkpt lat="45.72139902587339" lon="11.735330805722727"><ele>94.0</ele><time>2026-03-22T10:54:56Z</time></trkpt><trkpt lat="45.721354298753894" lon="11.735069135943927"><ele>93.66666666666666</ele><time>2026-03-22T10:54:57Z</time></trkpt><trkpt lat="45.72130850804261" lon="11.734813339885244"><ele>93.33333333333333</ele><time>2026-03-22T10:54:58Z</time></trkpt><trkpt lat="45.72126825969425" lon="11.734561958114094"><ele>93.0</ele><time>2026-03-22T10:54:59Z</time></trkpt><trkpt lat="45.721226831320735" lon="11.734328592132975"><ele>92.75</ele><time>2026-03-22T10:55:00Z</time></trkpt><trkpt lat="45.72119217420276" lon="11.734119427919127"><ele>92.5</ele><time>2026-03-22T10:55:01Z</time></trkpt><trkpt lat="45.7211565100632" lon="11.733916732841632"><ele>92.25</ele><time>2026-03-22T10:55:02Z</time></trkpt><trkpt lat="45.72112439304435" lon="11.733730585820208"><ele>92.0</ele><time>2026-03-22T10:55:03Z</time></trkpt><trkpt lat="45.721091315776036" lon="11.73356506576616"><ele>92.16666666666667</ele><time>2026-03-22T10:55:04Z</time></trkpt><trkpt lat="45.72106245787949" lon="11.733424225475673"><ele>92.33333333333334</ele><time>2026-03-22T10:55:05Z</time></trkpt><trkpt lat="45.72104912860966" lon="11.73329611584619"><ele>92.5</ele><time>2026-03-22T10:55:05.999Z</time></trkpt><trkpt lat="45.721069110853435" lon="11.733178728013907"><ele>92.66666666666667</ele><time>2026-03-22T10:55:06.999Z</time></trkpt><trkpt lat="45.721105401420594" lon="11.733076768057096"><ele>92.83333333333333</ele><time>2026-03-22T10:55:07.999Z</time></trkpt><trkpt lat="45.72113225285636" lon="11.732987442536169"><ele>93.0</ele><time>2026-03-22T10:55:08.999Z</time></trkpt><trkpt lat="45.72112168438432" lon="11.732890937922617"><ele>93.0</ele><time>2026-03-22T10:55:09.999Z</time></trkpt><trkpt lat="45.72098034590888" lon="11.732748690301355"><ele>93.0</ele><time>2026-03-22T10:55:11.999Z</time></trkpt><trkpt lat="45.720906099172" lon="11.73267762545543"><ele>93.0</ele><time>2026-03-22T10:55:12.999Z</time></trkpt><trkpt lat="45.720895374568045" lon="11.732470656674204"><ele>93.0</ele><time>2026-03-22T10:55:13.999Z</time></trkpt><trkpt lat="45.72087274338078" lon="11.73228033294922"><ele>92.66666666666667</ele><time>2026-03-22T10:55:14.999Z</time></trkpt><trkpt lat="45.720835555875475" lon="11.732048638189015"><ele>92.33333333333334</ele><time>2026-03-22T10:55:15.999Z</time></trkpt><trkpt lat="45.72079028116787" lon="11.731794376717799"><ele>92.0</ele><time>2026-03-22T10:55:16.999Z</time></trkpt><trkpt lat="45.72074854839416" lon="11.731527172454458"><ele>92.0</ele><time>2026-03-22T10:55:17.999Z</time></trkpt><trkpt lat="45.7207142541944" lon="11.73128739290235"><ele>92.0</ele><time>2026-03-22T10:55:18.999Z</time></trkpt><trkpt lat="45.72068628524977" lon="11.731043773775832"><ele>92.0</ele><time>2026-03-22T10:55:19.999Z</time></trkpt><trkpt lat="45.720668713483256" lon="11.730800001435748"><ele>91.66666666666667</ele><time>2026-03-22T10:55:20.999Z</time></trkpt><trkpt lat="45.72065862186117" lon="11.730564474161822"><ele>91.33333333333333</ele><time>2026-03-22T10:55:21.999Z</time></trkpt><trkpt lat="45.72065593878169" lon="11.730325167039876"><ele>91.0</ele><time>2026-03-22T10:55:22.999Z</time></trkpt><trkpt lat="45.72065605159453" lon="11.730104389075159"><ele>91.0</ele><time>2026-03-22T10:55:23.999Z</time></trkpt><trkpt lat="45.720658343190934" lon="11.729889076658088"><ele>91.0</ele><time>2026-03-22T10:55:24.999Z</time></trkpt><trkpt lat="45.720663864385585" lon="11.729676973577531"><ele>91.0</ele><time>2026-03-22T10:55:25.999Z</time></trkpt><trkpt lat="45.720673690922375" lon="11.729472709986707"><ele>91.0</ele><time>2026-03-22T10:55:26.999Z</time></trkpt><trkpt lat="45.72067761960943" lon="11.729267163620937"><ele>91.25</ele><time>2026-03-22T10:55:27.999Z</time></trkpt><trkpt lat="45.72067939783409" lon="11.729072811819357"><ele>91.5</ele><time>2026-03-22T10:55:28.999Z</time></trkpt><trkpt lat="45.720684014107505" lon="11.72887855272542"><ele>91.75</ele><time>2026-03-22T10:55:29.999Z</time></trkpt><trkpt lat="45.72069083303652" lon="11.72868201952343"><ele>92.0</ele><time>2026-03-22T10:55:30.999Z</time></trkpt><trkpt lat="45.72070031725581" lon="11.72849306718836"><ele>92.0</ele><time>2026-03-22T10:55:31.999Z</time></trkpt><trkpt lat="45.720711071160515" lon="11.7283060806068"><ele>92.0</ele><time>2026-03-22T10:55:32.999Z</time></trkpt><trkpt lat="45.720719274560665" lon="11.728118010935217"><ele>92.0</ele><time>2026-03-22T10:55:33.999Z</time></trkpt><trkpt lat="45.7207329672266" lon="11.727937294824356"><ele>92.0</ele><time>2026-03-22T10:55:34.999Z</time></trkpt><trkpt lat="45.72073980576883" lon="11.727755525547048"><ele>91.5</ele><time>2026-03-22T10:55:35.999Z</time></trkpt><trkpt lat="45.72073861994772" lon="11.727573862755055"><ele>91.0</ele><time>2026-03-22T10:55:36.999Z</time></trkpt><trkpt lat="45.720734461116294" lon="11.72739061673751"><ele>90.5</ele><time>2026-03-22T10:55:37.999Z</time></trkpt><trkpt lat="45.72073388655492" lon="11.727212082648483"><ele>90.0</ele><time>2026-03-22T10:55:38.999Z</time></trkpt><trkpt lat="45.72074039560464" lon="11.727027237633463"><ele>90.25</ele><time>2026-03-22T10:55:39.999Z</time></trkpt><trkpt lat="45.72075366522357" lon="11.726841829944705"><ele>90.5</ele><time>2026-03-22T10:55:40.999Z</time></trkpt><trkpt lat="45.72076798576064" lon="11.726654144176084"><ele>90.75</ele><time>2026-03-22T10:55:41.999Z</time></trkpt><trkpt lat="45.72078378397965" lon="11.726468346856947"><ele>91.0</ele><time>2026-03-22T10:55:42.999Z</time></trkpt><trkpt lat="45.72079887468899" lon="11.726287084588842"><ele>91.0</ele><time>2026-03-22T10:55:43.999Z</time></trkpt><trkpt lat="45.720811648269354" lon="11.726105154887309"><ele>91.0</ele><time>2026-03-22T10:55:44.999Z</time></trkpt><trkpt lat="45.720820446117436" lon="11.725919343540031"><ele>91.0</ele><time>2026-03-22T10:55:45.999Z</time></trkpt><trkpt lat="45.72081950179785" lon="11.725732593071186"><ele>91.0</ele><time>2026-03-22T10:55:46.999Z</time></trkpt><trkpt lat="45.720801729675806" lon="11.725550472247093"><ele>90.33333333333333</ele><time>2026-03-22T10:55:47.999Z</time></trkpt><trkpt lat="45.720763966003155" lon="11.725359847018275"><ele>89.66666666666667</ele><time>2026-03-22T10:55:48.999Z</time></trkpt><trkpt lat="45.720697745139375" lon="11.725150464518828"><ele>89.0</ele><time>2026-03-22T10:55:49.999Z</time></trkpt><trkpt lat="45.72060912220214" lon="11.724909704867759"><ele>88.66666666666667</ele><time>2026-03-22T10:55:50.999Z</time></trkpt><trkpt lat="45.72053522109247" lon="11.724640225239908"><ele>88.33333333333333</ele><time>2026-03-22T10:55:51.999Z</time></trkpt><trkpt lat="45.72043841123881" lon="11.724411936839306"><ele>88.0</ele><time>2026-03-22T10:55:52.999Z</time></trkpt><trkpt lat="45.72037340095161" lon="11.724186587862942"><ele>88.0</ele><time>2026-03-22T10:55:53.999Z</time></trkpt><trkpt lat="45.72030039417568" lon="11.723964373306565"><ele>88.0</ele><time>2026-03-22T10:55:54.999Z</time></trkpt><trkpt lat="45.720220360902935" lon="11.723756154818332"><ele>88.0</ele><time>2026-03-22T10:55:55.999Z</time></trkpt><trkpt lat="45.720145377014816" lon="11.723550715265251"><ele>87.75</ele><time>2026-03-22T10:55:56.999Z</time></trkpt><trkpt lat="45.72007977804386" lon="11.72336322182145"><ele>87.5</ele><time>2026-03-22T10:55:57.999Z</time></trkpt><trkpt lat="45.72001499984735" lon="11.72317842766795"><ele>87.25</ele><time>2026-03-22T10:55:58.999Z</time></trkpt><trkpt lat="45.7199493921191" lon="11.722994748746755"><ele>87.0</ele><time>2026-03-22T10:55:59.999Z</time></trkpt><trkpt lat="45.7198846763275" lon="11.722817575981175"><ele>86.75</ele><time>2026-03-22T10:56:00.999Z</time></trkpt><trkpt lat="45.719822942046726" lon="11.722641392719241"><ele>86.5</ele><time>2026-03-22T10:56:01.999Z</time></trkpt><trkpt lat="45.71976396013495" lon="11.722465614238157"><ele>86.25</ele><time>2026-03-22T10:56:02.999Z</time></trkpt><trkpt lat="45.71970582099013" lon="11.722291578950355"><ele>86.0</ele><time>2026-03-22T10:56:03.999Z</time></trkpt><trkpt lat="45.71964634158005" lon="11.722121990623867"><ele>86.0</ele><time>2026-03-22T10:56:04.999Z</time></trkpt><trkpt lat="45.7195881219705" lon="11.72196313862761"><ele>86.0</ele><time>2026-03-22T10:56:05.999Z</time></trkpt><trkpt lat="45.719527171182044" lon="11.721795983646732"><ele>86.0</ele><time>2026-03-22T10:56:06.999Z</time></trkpt><trkpt lat="45.71946438325764" lon="11.721622450225377"><ele>86.0</ele><time>2026-03-22T10:56:08Z</time></trkpt><trkpt lat="45.71940771307819" lon="11.72145567580313"><ele>86.25</ele><time>2026-03-22T10:56:09Z</time></trkpt><trkpt lat="45.71935165398188" lon="11.72130021040286"><ele>86.5</ele><time>2026-03-22T10:56:10Z</time></trkpt><trkpt lat="45.71929595122566" lon="11.721146918704038"><ele>86.75</ele><time>2026-03-22T10:56:11Z</time></trkpt><trkpt lat="45.71924544443643" lon="11.720994820677715"><ele>87.0</ele><time>2026-03-22T10:56:12Z</time></trkpt><trkpt lat="45.71919973714643" lon="11.720850076777538"><ele>87.0</ele><time>2026-03-22T10:56:13Z</time></trkpt><trkpt lat="45.71916319982746" lon="11.720738835883706"><ele>87.0</ele><time>2026-03-22T10:56:14Z</time></trkpt><trkpt lat="45.71914144548572" lon="11.720653014146933"><ele>87.0</ele><time>2026-03-22T10:56:15Z</time></trkpt><trkpt lat="45.719107268780355" lon="11.720511254748574"><ele>87.0</ele><time>2026-03-22T10:56:17Z</time></trkpt><trkpt lat="45.71910888128996" lon="11.72036761802585"><ele>87.0</ele><time>2026-03-22T10:56:19Z</time></trkpt><trkpt lat="45.71913149829756" lon="11.720264701357785"><ele>87.0</ele><time>2026-03-22T10:56:20Z</time></trkpt><trkpt lat="45.71914858212303" lon="11.720163150158376"><ele>87.0</ele><time>2026-03-22T10:56:21Z</time></trkpt><trkpt lat="45.71914228371128" lon="11.720066033581148"><ele>87.0</ele><time>2026-03-22T10:56:22Z</time></trkpt><trkpt lat="45.719107205813586" lon="11.719989190450557"><ele>87.0</ele><time>2026-03-22T10:56:23Z</time></trkpt><trkpt lat="45.719048412754056" lon="11.719950268661448"><ele>87.0</ele><time>2026-03-22T10:56:24Z</time></trkpt><trkpt lat="45.71897862919567" lon="11.719951412406962"><ele>87.0</ele><time>2026-03-22T10:56:25Z</time></trkpt><trkpt lat="45.71890671589311" lon="11.72000648785879"><ele>87.0</ele><time>2026-03-22T10:56:26Z</time></trkpt><trkpt lat="45.71882512716431" lon="11.720061678571948"><ele>87.0</ele><time>2026-03-22T10:56:27Z</time></trkpt><trkpt lat="45.718729257253685" lon="11.720067943526782"><ele>87.0</ele><time>2026-03-22T10:56:28Z</time></trkpt><trkpt lat="45.71863745139496" lon="11.719992879884753"><ele>87.0</ele><time>2026-03-22T10:56:29Z</time></trkpt><trkpt lat="45.71851038357074" lon="11.719914174545153"><ele>87.0</ele><time>2026-03-22T10:56:30Z</time></trkpt><trkpt lat="45.718387014631524" lon="11.719799472045048"><ele>87.0</ele><time>2026-03-22T10:56:31Z</time></trkpt><trkpt lat="45.718256232445775" lon="11.719687048193784"><ele>87.33333333333333</ele><time>2026-03-22T10:56:32Z</time></trkpt><trkpt lat="45.71811716935081" lon="11.719570417987875"><ele>87.66666666666666</ele><time>2026-03-22T10:56:33Z</time></trkpt><trkpt lat="45.71796889969927" lon="11.719453855092993"><ele>88.0</ele><time>2026-03-22T10:56:34Z</time></trkpt><trkpt lat="45.71780883767719" lon="11.719314741085586"><ele>87.0</ele><time>2026-03-22T10:56:35Z</time></trkpt><trkpt lat="45.71765426361648" lon="11.719187004906019"><ele>86.0</ele><time>2026-03-22T10:56:36Z</time></trkpt><trkpt lat="45.71748655012664" lon="11.719051128413666"><ele>85.0</ele><time>2026-03-22T10:56:37Z</time></trkpt><trkpt lat="45.71731331458939" lon="11.718909029973249"><ele>85.0</ele><time>2026-03-22T10:56:38Z</time></trkpt><trkpt lat="45.71713453422465" lon="11.718762547910945"><ele>85.0</ele><time>2026-03-22T10:56:39Z</time></trkpt><trkpt lat="45.71694672866784" lon="11.718603969173232"><ele>85.0</ele><time>2026-03-22T10:56:40Z</time></trkpt><trkpt lat="45.71675206598452" lon="11.718462602847174"><ele>84.66666666666666</ele><time>2026-03-22T10:56:41Z</time></trkpt><trkpt lat="45.71655909614444" lon="11.718332914599841"><ele>84.33333333333333</ele><time>2026-03-22T10:56:42Z</time></trkpt><trkpt lat="45.71635687479871" lon="11.718188916916388"><ele>84.0</ele><time>2026-03-22T10:56:43Z</time></trkpt><trkpt lat="45.71615084055375" lon="11.718049339476547"><ele>84.5</ele><time>2026-03-22T10:56:44Z</time></trkpt><trkpt lat="45.71594139947122" lon="11.717911755982149"><ele>85.0</ele><time>2026-03-22T10:56:45Z</time></trkpt><trkpt lat="45.71573275246121" lon="11.717776364226102"><ele>84.66666666666666</ele><time>2026-03-22T10:56:46Z</time></trkpt><trkpt lat="45.71552632139702" lon="11.717636634615902"><ele>84.33333333333333</ele><time>2026-03-22T10:56:47Z</time></trkpt><trkpt lat="45.71532566312842" lon="11.71750549848569"><ele>84.0</ele><time>2026-03-22T10:56:48Z</time></trkpt><trkpt lat="45.71512992752765" lon="11.717376314906177"><ele>83.66666666666667</ele><time>2026-03-22T10:56:49Z</time></trkpt><trkpt lat="45.71494558533446" lon="11.717251919398409"><ele>83.33333333333334</ele><time>2026-03-22T10:56:50Z</time></trkpt><trkpt lat="45.7147546190972" lon="11.71712531397468"><ele>83.0</ele><time>2026-03-22T10:56:51Z</time></trkpt><trkpt lat="45.71456172355098" lon="11.716998478825168"><ele>83.33333333333334</ele><time>2026-03-22T10:56:52Z</time></trkpt><trkpt lat="45.71437829227881" lon="11.716876504593126"><ele>83.66666666666667</ele><time>2026-03-22T10:56:53Z</time></trkpt><trkpt lat="45.71419991740146" lon="11.716737332100742"><ele>84.0</ele><time>2026-03-22T10:56:54Z</time></trkpt><trkpt lat="45.71402455694861" lon="11.71659273247304"><ele>84.0</ele><time>2026-03-22T10:56:55Z</time></trkpt><trkpt lat="45.71386475262962" lon="11.716457353790227"><ele>84.0</ele><time>2026-03-22T10:56:56Z</time></trkpt><trkpt lat="45.71371735609254" lon="11.716326970058255"><ele>84.0</ele><time>2026-03-22T10:56:57Z</time></trkpt><trkpt lat="45.713571746334125" lon="11.716190682535641"><ele>84.0</ele><time>2026-03-22T10:56:58Z</time></trkpt><trkpt lat="45.71342542844989" lon="11.716071989495742"><ele>84.0</ele><time>2026-03-22T10:56:59Z</time></trkpt><trkpt lat="45.7132773389789" lon="11.71594513948711"><ele>84.0</ele><time>2026-03-22T10:57:00Z</time></trkpt><trkpt lat="45.71313656610191" lon="11.715824986919113"><ele>84.0</ele><time>2026-03-22T10:57:01Z</time></trkpt><trkpt lat="45.71299294077304" lon="11.715700726285014"><ele>84.0</ele><time>2026-03-22T10:57:02Z</time></trkpt><trkpt lat="45.71285236162548" lon="11.715569993427147"><ele>84.0</ele><time>2026-03-22T10:57:03Z</time></trkpt><trkpt lat="45.71271855653361" lon="11.715426621419377"><ele>83.33333333333333</ele><time>2026-03-22T10:57:04Z</time></trkpt><trkpt lat="45.71258668618046" lon="11.715275209068825"><ele>82.66666666666666</ele><time>2026-03-22T10:57:05Z</time></trkpt><trkpt lat="45.71245731554838" lon="11.71511566463625"><ele>82.0</ele><time>2026-03-22T10:57:06Z</time></trkpt><trkpt lat="45.71232229062906" lon="11.714969408137613"><ele>81.66666666666666</ele><time>2026-03-22T10:57:07Z</time></trkpt><trkpt lat="45.712173531850944" lon="11.714851827574527"><ele>81.33333333333333</ele><time>2026-03-22T10:57:08Z</time></trkpt><trkpt lat="45.71200333592488" lon="11.714767863687387"><ele>81.0</ele><time>2026-03-22T10:57:09Z</time></trkpt><trkpt lat="45.71182201401091" lon="11.71470969472859"><ele>81.66666666666667</ele><time>2026-03-22T10:57:10Z</time></trkpt><trkpt lat="45.71164393517546" lon="11.714668982727384"><ele>82.33333333333334</ele><time>2026-03-22T10:57:11Z</time></trkpt><trkpt lat="45.71146495663381" lon="11.714613072254405"><ele>83.0</ele><time>2026-03-22T10:57:12Z</time></trkpt><trkpt lat="45.711296257653345" lon="11.714559263515746"><ele>83.0</ele><time>2026-03-22T10:57:13Z</time></trkpt><trkpt lat="45.71112027909115" lon="11.714490226926127"><ele>83.0</ele><time>2026-03-22T10:57:14Z</time></trkpt><trkpt lat="45.710943024417276" lon="11.71441010147943"><ele>83.0</ele><time>2026-03-22T10:57:15Z</time></trkpt><trkpt lat="45.71076604021693" lon="11.714310465540173"><ele>83.0</ele><time>2026-03-22T10:57:16Z</time></trkpt><trkpt lat="45.710560694182156" lon="11.714195597527334"><ele>83.0</ele><time>2026-03-22T10:57:17Z</time></trkpt><trkpt lat="45.71034897281252" lon="11.714047060278734"><ele>82.5</ele><time>2026-03-22T10:57:18Z</time></trkpt><trkpt lat="45.71012506344447" lon="11.713912517609911"><ele>82.0</ele><time>2026-03-22T10:57:19Z</time></trkpt><trkpt lat="45.70989744330628" lon="11.713774934724634"><ele>82.0</ele><time>2026-03-22T10:57:20Z</time></trkpt><trkpt lat="45.70966533691729" lon="11.713621082838442"><ele>82.0</ele><time>2026-03-22T10:57:21Z</time></trkpt><trkpt lat="45.70943319833714" lon="11.713462940683995"><ele>81.5</ele><time>2026-03-22T10:57:22Z</time></trkpt><trkpt lat="45.70919161412904" lon="11.713307036736524"><ele>81.0</ele><time>2026-03-22T10:57:23Z</time></trkpt><trkpt lat="45.70895479008693" lon="11.713141750383478"><ele>81.0</ele><time>2026-03-22T10:57:24Z</time></trkpt><trkpt lat="45.70871350844998" lon="11.712978664306192"><ele>81.0</ele><time>2026-03-22T10:57:25Z</time></trkpt><trkpt lat="45.708485568165706" lon="11.712821559762496"><ele>81.0</ele><time>2026-03-22T10:57:26Z</time></trkpt><trkpt lat="45.70827665861553" lon="11.71267956307823"><ele>81.0</ele><time>2026-03-22T10:57:26.999Z</time></trkpt><trkpt lat="45.708070679850394" lon="11.71253120521186"><ele>81.0</ele><time>2026-03-22T10:57:27.999Z</time></trkpt><trkpt lat="45.70787036539961" lon="11.712375645894088"><ele>81.0</ele><time>2026-03-22T10:57:28.999Z</time></trkpt><trkpt lat="45.70767750618997" lon="11.712208526950278"><ele>81.0</ele><time>2026-03-22T10:57:29.999Z</time></trkpt><trkpt lat="45.70749343671244" lon="11.712032174676965"><ele>81.0</ele><time>2026-03-22T10:57:30.999Z</time></trkpt><trkpt lat="45.707327379167886" lon="11.711881692084262"><ele>81.0</ele><time>2026-03-22T10:57:31.999Z</time></trkpt><trkpt lat="45.7071766391795" lon="11.711753266086326"><ele>81.0</ele><time>2026-03-22T10:57:32.999Z</time></trkpt><trkpt lat="45.70703475496248" lon="11.711638985901072"><ele>81.0</ele><time>2026-03-22T10:57:33.999Z</time></trkpt><trkpt lat="45.706894953267685" lon="11.711536958931713"><ele>81.0</ele><time>2026-03-22T10:57:34.999Z</time></trkpt><trkpt lat="45.70674062977483" lon="11.71144193583235"><ele>80.0</ele><time>2026-03-22T10:57:35.999Z</time></trkpt><trkpt lat="45.70658208312621" lon="11.711356750565367"><ele>79.0</ele><time>2026-03-22T10:57:36.999Z</time></trkpt><trkpt lat="45.70641487817625" lon="11.711276589964795"><ele>78.0</ele><time>2026-03-22T10:57:37.999Z</time></trkpt><trkpt lat="45.706232831398616" lon="11.711201007710171"><ele>78.0</ele><time>2026-03-22T10:57:38.999Z</time></trkpt><trkpt lat="45.70604865642927" lon="11.711144439645052"><ele>78.0</ele><time>2026-03-22T10:57:39.999Z</time></trkpt><trkpt lat="45.705848673995696" lon="11.711089888847965"><ele>78.0</ele><time>2026-03-22T10:57:40.999Z</time></trkpt><trkpt lat="45.705645373351445" lon="11.711029415375593"><ele>77.66666666666667</ele><time>2026-03-22T10:57:41.999Z</time></trkpt><trkpt lat="45.70543601203516" lon="11.710962459079125"><ele>77.33333333333334</ele><time>2026-03-22T10:57:42.999Z</time></trkpt><trkpt lat="45.705220707835316" lon="11.710898563624214"><ele>77.0</ele><time>2026-03-22T10:57:43.999Z</time></trkpt><trkpt lat="45.70500258500276" lon="11.710830384730528"><ele>77.0</ele><time>2026-03-22T10:57:44.999Z</time></trkpt><trkpt lat="45.7047761093421" lon="11.710762355215689"><ele>77.0</ele><time>2026-03-22T10:57:45.999Z</time></trkpt><trkpt lat="45.704556736611906" lon="11.710701544459976"><ele>77.66666666666667</ele><time>2026-03-22T10:57:46.999Z</time></trkpt><trkpt lat="45.704350830541664" lon="11.710641645613943"><ele>78.33333333333333</ele><time>2026-03-22T10:57:47.999Z</time></trkpt><trkpt lat="45.70414958281755" lon="11.710586236341035"><ele>79.0</ele><time>2026-03-22T10:57:48.999Z</time></trkpt><trkpt lat="45.70395670911127" lon="11.71052652895175"><ele>79.0</ele><time>2026-03-22T10:57:49.999Z</time></trkpt><trkpt lat="45.70376270437022" lon="11.710445938010404"><ele>79.0</ele><time>2026-03-22T10:57:50.999Z</time></trkpt><trkpt lat="45.70357174352746" lon="11.710352175681319"><ele>79.0</ele><time>2026-03-22T10:57:51.999Z</time></trkpt><trkpt lat="45.7033703053094" lon="11.71024930464935"><ele>79.33333333333333</ele><time>2026-03-22T10:57:52.999Z</time></trkpt><trkpt lat="45.70317733685255" lon="11.710149350585018"><ele>79.66666666666667</ele><time>2026-03-22T10:57:53.999Z</time></trkpt><trkpt lat="45.70299595944992" lon="11.710063863422928"><ele>80.0</ele><time>2026-03-22T10:57:54.999Z</time></trkpt><trkpt lat="45.702828282081285" lon="11.709980796401249"><ele>79.33333333333334</ele><time>2026-03-22T10:57:55.999Z</time></trkpt><trkpt lat="45.702679718739056" lon="11.709899079886794"><ele>78.66666666666667</ele><time>2026-03-22T10:57:56.999Z</time></trkpt><trkpt lat="45.702528530935375" lon="11.709799861406236"><ele>78.0</ele><time>2026-03-22T10:57:57.999Z</time></trkpt><trkpt lat="45.70239149140064" lon="11.70963977315918"><ele>78.0</ele><time>2026-03-22T10:57:58.999Z</time></trkpt><trkpt lat="45.70225339377864" lon="11.709464807359637"><ele>78.0</ele><time>2026-03-22T10:57:59.999Z</time></trkpt><trkpt lat="45.70210084703307" lon="11.709305548050155"><ele>78.0</ele><time>2026-03-22T10:58:00.999Z</time></trkpt><trkpt lat="45.70194109984886" lon="11.709175740530185"><ele>77.66666666666667</ele><time>2026-03-22T10:58:01.999Z</time></trkpt><trkpt lat="45.70177533508179" lon="11.709080654681106"><ele>77.33333333333334</ele><time>2026-03-22T10:58:02.999Z</time></trkpt><trkpt lat="45.70161931649408" lon="11.709017172417479"><ele>77.0</ele><time>2026-03-22T10:58:03.999Z</time></trkpt><trkpt lat="45.70144756625743" lon="11.708982196902117"><ele>77.0</ele><time>2026-03-22T10:58:04.999Z</time></trkpt><trkpt lat="45.70127105985134" lon="11.708979771671506"><ele>77.0</ele><time>2026-03-22T10:58:05.999Z</time></trkpt><trkpt lat="45.701075696888296" lon="11.709007660214658"><ele>77.0</ele><time>2026-03-22T10:58:06.999Z</time></trkpt><trkpt lat="45.70086374953968" lon="11.709012703445906"><ele>77.0</ele><time>2026-03-22T10:58:07.999Z</time></trkpt><trkpt lat="45.7006781497241" lon="11.709033019163233"><ele>77.0</ele><time>2026-03-22T10:58:08.999Z</time></trkpt><trkpt lat="45.70050227858806" lon="11.709068275597804"><ele>77.0</ele><time>2026-03-22T10:58:09.999Z</time></trkpt><trkpt lat="45.70032362308264" lon="11.70908603455743"><ele>76.66666666666667</ele><time>2026-03-22T10:58:10.999Z</time></trkpt><trkpt lat="45.70014145317544" lon="11.709096612060389"><ele>76.33333333333333</ele><time>2026-03-22T10:58:11.999Z</time></trkpt><trkpt lat="45.69998187059173" lon="11.709060480671983"><ele>76.0</ele><time>2026-03-22T10:58:12.999Z</time></trkpt><trkpt lat="45.69983165696191" lon="11.709046371600442"><ele>76.0</ele><time>2026-03-22T10:58:14Z</time></trkpt><trkpt lat="45.6996935026651" lon="11.709011486985133"><ele>76.0</ele><time>2026-03-22T10:58:15Z</time></trkpt><trkpt lat="45.699553722576326" lon="11.708979659094785"><ele>76.0</ele><time>2026-03-22T10:58:16Z</time></trkpt><trkpt lat="45.69940928326953" lon="11.708958764517975"><ele>76.0</ele><time>2026-03-22T10:58:17Z</time></trkpt><trkpt lat="45.69926084165921" lon="11.708941998985381"><ele>76.0</ele><time>2026-03-22T10:58:18Z</time></trkpt><trkpt lat="45.699105014827005" lon="11.708921330907096"><ele>76.0</ele><time>2026-03-22T10:58:19Z</time></trkpt><trkpt lat="45.698946500777005" lon="11.708895518998105"><ele>76.0</ele><time>2026-03-22T10:58:20Z</time></trkpt><trkpt lat="45.69878773987375" lon="11.708875057953895"><ele>76.0</ele><time>2026-03-22T10:58:21Z</time></trkpt><trkpt lat="45.69862782436921" lon="11.708861425705244"><ele>76.0</ele><time>2026-03-22T10:58:22Z</time></trkpt><trkpt lat="45.69847527101561" lon="11.70881219902935"><ele>76.0</ele><time>2026-03-22T10:58:23Z</time></trkpt><trkpt lat="45.6983077388379" lon="11.708767969894712"><ele>76.0</ele><time>2026-03-22T10:58:24Z</time></trkpt><trkpt lat="45.698140767243096" lon="11.70871391508727"><ele>76.0</ele><time>2026-03-22T10:58:25Z</time></trkpt><trkpt lat="45.697980211164634" lon="11.708679185034532"><ele>76.0</ele><time>2026-03-22T10:58:26Z</time></trkpt><trkpt lat="45.69783901405573" lon="11.708623606278522"><ele>76.0</ele><time>2026-03-22T10:58:27Z</time></trkpt><trkpt lat="45.69773461463911" lon="11.708577191789768"><ele>76.0</ele><time>2026-03-22T10:58:28Z</time></trkpt><trkpt lat="45.697654559552525" lon="11.708546477539288"><ele>76.0</ele><time>2026-03-22T10:58:29Z</time></trkpt><trkpt lat="45.697577447680395" lon="11.708525476230363"><ele>76.0</ele><time>2026-03-22T10:58:31Z</time></trkpt><trkpt lat="45.69748844814586" lon="11.708486195733485"><ele>76.0</ele><time>2026-03-22T10:58:58Z</time></trkpt><trkpt lat="45.69732705124196" lon="11.708419198374155"><ele>76.0</ele><time>2026-03-22T10:59:00Z</time></trkpt><trkpt lat="45.69720529589534" lon="11.708384197282292"><ele>76.0</ele><time>2026-03-22T10:59:01Z</time></trkpt><trkpt lat="45.697056592206785" lon="11.708352008666694"><ele>76.0</ele><time>2026-03-22T10:59:02Z</time></trkpt><trkpt lat="45.69688899387062" lon="11.708332709194899"><ele>76.0</ele><time>2026-03-22T10:59:03Z</time></trkpt><trkpt lat="45.696708134156935" lon="11.708312929630116"><ele>76.0</ele><time>2026-03-22T10:59:04Z</time></trkpt><trkpt lat="45.69651248223649" lon="11.708286032890767"><ele>76.0</ele><time>2026-03-22T10:59:05Z</time></trkpt><trkpt lat="45.69632957763089" lon="11.708256075065677"><ele>76.0</ele><time>2026-03-22T10:59:06Z</time></trkpt><trkpt lat="45.69614434124418" lon="11.708232449834634"><ele>75.66666666666666</ele><time>2026-03-22T10:59:07Z</time></trkpt><trkpt lat="45.695955981470846" lon="11.708203118901693"><ele>75.33333333333333</ele><time>2026-03-22T10:59:08Z</time></trkpt><trkpt lat="45.69576730057412" lon="11.708174457434712"><ele>75.0</ele><time>2026-03-22T10:59:09Z</time></trkpt><trkpt lat="45.6955768287015" lon="11.708146802814314"><ele>75.0</ele><time>2026-03-22T10:59:10Z</time></trkpt><trkpt lat="45.69539505363708" lon="11.708119775823382"><ele>75.0</ele><time>2026-03-22T10:59:11Z</time></trkpt><trkpt lat="45.69521136788576" lon="11.708103564877769"><ele>75.0</ele><time>2026-03-22T10:59:12Z</time></trkpt><trkpt lat="45.69502285790573" lon="11.708082553609074"><ele>74.66666666666667</ele><time>2026-03-22T10:59:13Z</time></trkpt><trkpt lat="45.69482780494351" lon="11.70806129270445"><ele>74.33333333333334</ele><time>2026-03-22T10:59:14Z</time></trkpt><trkpt lat="45.69462675202721" lon="11.708036583288806"><ele>74.0</ele><time>2026-03-22T10:59:15Z</time></trkpt><trkpt lat="45.69443394115021" lon="11.708017096371714"><ele>73.66666666666667</ele><time>2026-03-22T10:59:16Z</time></trkpt><trkpt lat="45.694236201112815" lon="11.707995664324581"><ele>73.33333333333333</ele><time>2026-03-22T10:59:17Z</time></trkpt><trkpt lat="45.69403913483685" lon="11.707966448645314"><ele>73.0</ele><time>2026-03-22T10:59:18Z</time></trkpt><trkpt lat="45.69384955941573" lon="11.707935399991126"><ele>73.0</ele><time>2026-03-22T10:59:19Z</time></trkpt><trkpt lat="45.69366115487446" lon="11.707900633366364"><ele>73.0</ele><time>2026-03-22T10:59:20Z</time></trkpt><trkpt lat="45.69347905170882" lon="11.70785833103163"><ele>73.0</ele><time>2026-03-22T10:59:21Z</time></trkpt><trkpt lat="45.69329324514785" lon="11.707818913846511"><ele>73.0</ele><time>2026-03-22T10:59:22Z</time></trkpt><trkpt lat="45.693108763442076" lon="11.707782214172937"><ele>73.0</ele><time>2026-03-22T10:59:23Z</time></trkpt><trkpt lat="45.69293343176721" lon="11.707705428611357"><ele>73.0</ele><time>2026-03-22T10:59:24Z</time></trkpt><trkpt lat="45.69275716049673" lon="11.707657895845971"><ele>73.0</ele><time>2026-03-22T10:59:25Z</time></trkpt><trkpt lat="45.692586305460246" lon="11.707578108504444"><ele>73.0</ele><time>2026-03-22T10:59:26Z</time></trkpt><trkpt lat="45.69241622822716" lon="11.707472435408597"><ele>73.0</ele><time>2026-03-22T10:59:27Z</time></trkpt><trkpt lat="45.692242837702025" lon="11.707377133093406"><ele>73.0</ele><time>2026-03-22T10:59:28Z</time></trkpt><trkpt lat="45.69206139323225" lon="11.707292035878332"><ele>73.0</ele><time>2026-03-22T10:59:29Z</time></trkpt><trkpt lat="45.69188023842603" lon="11.707186554077298"><ele>73.0</ele><time>2026-03-22T10:59:30Z</time></trkpt><trkpt lat="45.69169673570024" lon="11.707085828685747"><ele>73.33333333333333</ele><time>2026-03-22T10:59:31Z</time></trkpt><trkpt lat="45.691507425145396" lon="11.706977080631393"><ele>73.66666666666667</ele><time>2026-03-22T10:59:32Z</time></trkpt><trkpt lat="45.691314623837144" lon="11.706876171698344"><ele>74.0</ele><time>2026-03-22T10:59:33Z</time></trkpt><trkpt lat="45.69112117270042" lon="11.706766833487217"><ele>73.33333333333334</ele><time>2026-03-22T10:59:34Z</time></trkpt><trkpt lat="45.69092591740082" lon="11.706655012487957"><ele>72.66666666666667</ele><time>2026-03-22T10:59:35Z</time></trkpt><trkpt lat="45.690721160464676" lon="11.706547840339347"><ele>72.0</ele><time>2026-03-22T10:59:36Z</time></trkpt><trkpt lat="45.69051670453689" lon="11.706428445503892"><ele>72.0</ele><time>2026-03-22T10:59:37Z</time></trkpt><trkpt lat="45.69033345479135" lon="11.706334515182098"><ele>72.0</ele><time>2026-03-22T10:59:38Z</time></trkpt><trkpt lat="45.69015689328269" lon="11.706244607428268"><ele>72.0</ele><time>2026-03-22T10:59:39Z</time></trkpt><trkpt lat="45.68999365525242" lon="11.706150448740056"><ele>72.33333333333333</ele><time>2026-03-22T10:59:40Z</time></trkpt><trkpt lat="45.689832932537946" lon="11.706051265321246"><ele>72.66666666666666</ele><time>2026-03-22T10:59:41Z</time></trkpt><trkpt lat="45.68967665472345" lon="11.705947135536185"><ele>73.0</ele><time>2026-03-22T10:59:42Z</time></trkpt><trkpt lat="45.68952929035671" lon="11.70584288829094"><ele>72.75</ele><time>2026-03-22T10:59:43Z</time></trkpt><trkpt lat="45.68939827635748" lon="11.705743135151135"><ele>72.5</ele><time>2026-03-22T10:59:44Z</time></trkpt><trkpt lat="45.68927738151501" lon="11.705646649271335"><ele>72.25</ele><time>2026-03-22T10:59:45Z</time></trkpt><trkpt lat="45.68915724222055" lon="11.705546385129786"><ele>72.0</ele><time>2026-03-22T10:59:46Z</time></trkpt><trkpt lat="45.68902644547272" lon="11.705443483056865"><ele>72.0</ele><time>2026-03-22T10:59:47Z</time></trkpt><trkpt lat="45.68889531229741" lon="11.705333793121444"><ele>72.0</ele><time>2026-03-22T10:59:48Z</time></trkpt><trkpt lat="45.68875808737668" lon="11.705228572308032"><ele>72.0</ele><time>2026-03-22T10:59:49Z</time></trkpt><trkpt lat="45.6886189098806" lon="11.705123595375156"><ele>71.75</ele><time>2026-03-22T10:59:49.999Z</time></trkpt><trkpt lat="45.68847891744181" lon="11.705019634945632"><ele>71.5</ele><time>2026-03-22T10:59:50.999Z</time></trkpt><trkpt lat="45.688348944197095" lon="11.704925667262733"><ele>71.25</ele><time>2026-03-22T10:59:51.999Z</time></trkpt><trkpt lat="45.68822774451008" lon="11.704841143756546"><ele>71.0</ele><time>2026-03-22T10:59:52.999Z</time></trkpt><trkpt lat="45.68811904336856" lon="11.704775910494241"><ele>71.0</ele><time>2026-03-22T10:59:53.999Z</time></trkpt><trkpt lat="45.68803040731783" lon="11.704725976226356"><ele>71.0</ele><time>2026-03-22T10:59:54.999Z</time></trkpt><trkpt lat="45.68797085247985" lon="11.704683087886261"><ele>71.0</ele><time>2026-03-22T10:59:55.999Z</time></trkpt><trkpt lat="45.68788355022282" lon="11.7045887652049"><ele>71.0</ele><time>2026-03-22T10:59:57.999Z</time></trkpt><trkpt lat="45.68782234721717" lon="11.70455733915024"><ele>71.0</ele><time>2026-03-22T10:59:58.999Z</time></trkpt><trkpt lat="45.68774327336453" lon="11.704526630330374"><ele>71.0</ele><time>2026-03-22T10:59:59.999Z</time></trkpt><trkpt lat="45.68765053285967" lon="11.704480214595907"><ele>71.0</ele><time>2026-03-22T11:00:00.999Z</time></trkpt><trkpt lat="45.687562828239166" lon="11.704444032233658"><ele>71.0</ele><time>2026-03-22T11:00:01.999Z</time></trkpt><trkpt lat="45.68748758579009" lon="11.704420887845744"><ele>71.0</ele><time>2026-03-22T11:00:02.999Z</time></trkpt><trkpt lat="45.68742399792385" lon="11.70434913098776"><ele>71.0</ele><time>2026-03-22T11:00:04.999Z</time></trkpt><trkpt lat="45.68745079756169" lon="11.704210577891727"><ele>71.0</ele><time>2026-03-22T11:00:05.999Z</time></trkpt><trkpt lat="45.687476558035094" lon="11.704088471207701"><ele>71.0</ele><time>2026-03-22T11:00:06.999Z</time></trkpt><trkpt lat="45.68749297404393" lon="11.703933185611563"><ele>70.75</ele><time>2026-03-22T11:00:07.999Z</time></trkpt><trkpt lat="45.68750371287714" lon="11.703752573309192"><ele>70.5</ele><time>2026-03-22T11:00:08.999Z</time></trkpt><trkpt lat="45.6875161192565" lon="11.703549225185498"><ele>70.25</ele><time>2026-03-22T11:00:09.999Z</time></trkpt><trkpt lat="45.68752378571356" lon="11.70333179751776"><ele>70.0</ele><time>2026-03-22T11:00:10.999Z</time></trkpt><trkpt lat="45.68753334651699" lon="11.703130739326589"><ele>70.0</ele><time>2026-03-22T11:00:11.999Z</time></trkpt><trkpt lat="45.68755033796795" lon="11.702934085035274"><ele>70.0</ele><time>2026-03-22T11:00:12.999Z</time></trkpt><trkpt lat="45.6875690104086" lon="11.702746350925059"><ele>70.0</ele><time>2026-03-22T11:00:13.999Z</time></trkpt><trkpt lat="45.687588901577165" lon="11.702580693635277"><ele>70.0</ele><time>2026-03-22T11:00:14.999Z</time></trkpt><trkpt lat="45.68760735684834" lon="11.702421429455882"><ele>70.0</ele><time>2026-03-22T11:00:15.999Z</time></trkpt><trkpt lat="45.68761650426952" lon="11.702285452674634"><ele>70.0</ele><time>2026-03-22T11:00:16.999Z</time></trkpt><trkpt lat="45.687627979528806" lon="11.702165634260409"><ele>70.0</ele><time>2026-03-22T11:00:17.999Z</time></trkpt><trkpt lat="45.68760477550579" lon="11.702023335732466"><ele>70.0</ele><time>2026-03-22T11:00:20Z</time></trkpt><trkpt lat="45.687477505570776" lon="11.702003331597938"><ele>70.0</ele><time>2026-03-22T11:00:22Z</time></trkpt><trkpt lat="45.687397280818935" lon="11.70198531889435"><ele>70.0</ele><time>2026-03-22T11:00:23Z</time></trkpt><trkpt lat="45.687308248849995" lon="11.701918066034775"><ele>70.0</ele><time>2026-03-22T11:00:25Z</time></trkpt><trkpt lat="45.68730484314896" lon="11.70182379720653"><ele>70.0</ele><time>2026-03-22T11:00:26Z</time></trkpt><trkpt lat="45.687317786669894" lon="11.701712534813089"><ele>70.0</ele><time>2026-03-22T11:00:27Z</time></trkpt><trkpt lat="45.68732713686529" lon="11.701596078301307"><ele>70.0</ele><time>2026-03-22T11:00:28Z</time></trkpt><trkpt lat="45.68731545487857" lon="11.70149550886194"><ele>70.0</ele><time>2026-03-22T11:00:29Z</time></trkpt><trkpt lat="45.687312663531465" lon="11.701392577886246"><ele>70.0</ele><time>2026-03-22T11:00:32Z</time></trkpt><trkpt lat="45.68746520000804" lon="11.701320456430967"><ele>70.0</ele><time>2026-03-22T11:00:34Z</time></trkpt><trkpt lat="45.68756167335124" lon="11.701283306578448"><ele>70.0</ele><time>2026-03-22T11:00:35Z</time></trkpt><trkpt lat="45.68766992852524" lon="11.701230184463276"><ele>70.0</ele><time>2026-03-22T11:00:36Z</time></trkpt><trkpt lat="45.68778370162394" lon="11.701166107541463"><ele>70.0</ele><time>2026-03-22T11:00:37Z</time></trkpt><trkpt lat="45.68789301376404" lon="11.70110609310603"><ele>70.0</ele><time>2026-03-22T11:00:38Z</time></trkpt><trkpt lat="45.68800355747486" lon="11.701046274792002"><ele>70.0</ele><time>2026-03-22T11:00:39Z</time></trkpt><trkpt lat="45.68811825194264" lon="11.700987714079485"><ele>70.0</ele><time>2026-03-22T11:00:40Z</time></trkpt><trkpt lat="45.688235493596814" lon="11.700918958942362"><ele>70.0</ele><time>2026-03-22T11:00:41Z</time></trkpt><trkpt lat="45.68835273726899" lon="11.700838743333192"><ele>70.0</ele><time>2026-03-22T11:00:42Z</time></trkpt><trkpt lat="45.68847676113934" lon="11.700742428251198"><ele>70.0</ele><time>2026-03-22T11:00:43Z</time></trkpt><trkpt lat="45.68861462349482" lon="11.700634151214118"><ele>70.0</ele><time>2026-03-22T11:00:44Z</time></trkpt><trkpt lat="45.68876563637387" lon="11.700515812914146"><ele>70.0</ele><time>2026-03-22T11:00:45Z</time></trkpt><trkpt lat="45.68893748575172" lon="11.700386009313211"><ele>70.0</ele><time>2026-03-22T11:00:46Z</time></trkpt><trkpt lat="45.68910611748152" lon="11.700252362852934"><ele>70.0</ele><time>2026-03-22T11:00:47Z</time></trkpt><trkpt lat="45.68928934073378" lon="11.700115264939283"><ele>70.33333333333333</ele><time>2026-03-22T11:00:48Z</time></trkpt><trkpt lat="45.68947595237404" lon="11.699976107596418"><ele>70.66666666666667</ele><time>2026-03-22T11:00:49Z</time></trkpt><trkpt lat="45.68963523556917" lon="11.69985495015165"><ele>71.0</ele><time>2026-03-22T11:00:50Z</time></trkpt><trkpt lat="45.68977683610942" lon="11.699738108186102"><ele>71.0</ele><time>2026-03-22T11:00:51Z</time></trkpt><trkpt lat="45.68991265820872" lon="11.699638112418386"><ele>71.0</ele><time>2026-03-22T11:00:52Z</time></trkpt><trkpt lat="45.690038614705685" lon="11.699547246862418"><ele>71.0</ele><time>2026-03-22T11:00:53Z</time></trkpt><trkpt lat="45.690153629121525" lon="11.6994629572587"><ele>71.0</ele><time>2026-03-22T11:00:54Z</time></trkpt><trkpt lat="45.690251034100186" lon="11.699391253600492"><ele>71.0</ele><time>2026-03-22T11:00:55Z</time></trkpt><trkpt lat="45.690325732417634" lon="11.699344678067746"><ele>71.0</ele><time>2026-03-22T11:00:56Z</time></trkpt><trkpt lat="45.69028879291151" lon="11.69909077621917"><ele>71.0</ele><time>2026-03-22T11:01:01Z</time></trkpt><trkpt lat="45.69024891322109" lon="11.699007723532915"><ele>71.0</ele><time>2026-03-22T11:01:02Z</time></trkpt><trkpt lat="45.69020017556813" lon="11.69891982370913"><ele>71.0</ele><time>2026-03-22T11:01:03Z</time></trkpt><trkpt lat="45.69012429765592" lon="11.698789232720065"><ele>71.16666666666667</ele><time>2026-03-22T11:01:05Z</time></trkpt><trkpt lat="45.69008570964573" lon="11.698714595575476"><ele>71.33333333333334</ele><time>2026-03-22T11:01:06Z</time></trkpt><trkpt lat="45.69003953676389" lon="11.698633799058333"><ele>71.5</ele><time>2026-03-22T11:01:07Z</time></trkpt><trkpt lat="45.689988155016415" lon="11.698548091682566"><ele>71.66666666666667</ele><time>2026-03-22T11:01:08Z</time></trkpt><trkpt lat="45.68992827957845" lon="11.698470673044232"><ele>71.83333333333333</ele><time>2026-03-22T11:01:09Z</time></trkpt><trkpt lat="45.68985781483182" lon="11.69840667135669"><ele>72.0</ele><time>2026-03-22T11:01:10Z</time></trkpt><trkpt lat="45.68978485073936" lon="11.698340159481708"><ele>71.66666666666667</ele><time>2026-03-22T11:01:11Z</time></trkpt><trkpt lat="45.689714927034835" lon="11.698279463087289"><ele>71.33333333333333</ele><time>2026-03-22T11:01:12Z</time></trkpt><trkpt lat="45.68964012373496" lon="11.698212603725361"><ele>71.0</ele><time>2026-03-22T11:01:13Z</time></trkpt><trkpt lat="45.689569792811454" lon="11.698137558313146"><ele>70.66666666666666</ele><time>2026-03-22T11:01:14Z</time></trkpt><trkpt lat="45.68950727000674" lon="11.698055797140512"><ele>70.33333333333333</ele><time>2026-03-22T11:01:15Z</time></trkpt><trkpt lat="45.68945099338993" lon="11.697967851049144"><ele>70.0</ele><time>2026-03-22T11:01:16Z</time></trkpt><trkpt lat="45.689381307077475" lon="11.697897272373979"><ele>69.66666666666666</ele><time>2026-03-22T11:01:17Z</time></trkpt><trkpt lat="45.68932093266677" lon="11.697802805500196"><ele>69.33333333333333</ele><time>2026-03-22T11:01:18Z</time></trkpt><trkpt lat="45.689252434082604" lon="11.697714071619862"><ele>69.0</ele><time>2026-03-22T11:01:19Z</time></trkpt><trkpt lat="45.68919251082778" lon="11.697617021148023"><ele>68.66666666666667</ele><time>2026-03-22T11:01:20Z</time></trkpt><trkpt lat="45.689136266615165" lon="11.697519086611447"><ele>68.33333333333334</ele><time>2026-03-22T11:01:21Z</time></trkpt><trkpt lat="45.68908456771143" lon="11.697420746796462"><ele>68.0</ele><time>2026-03-22T11:01:22Z</time></trkpt><trkpt lat="45.68903605868356" lon="11.697302636796044"><ele>67.83333333333334</ele><time>2026-03-22T11:01:23Z</time></trkpt><trkpt lat="45.68899290665889" lon="11.697186194165397"><ele>67.66666666666667</ele><time>2026-03-22T11:01:24Z</time></trkpt><trkpt lat="45.68895923538585" lon="11.697067634266736"><ele>67.5</ele><time>2026-03-22T11:01:25Z</time></trkpt><trkpt lat="45.68892547817813" lon="11.696956441669904"><ele>67.33333333333333</ele><time>2026-03-22T11:01:26Z</time></trkpt><trkpt lat="45.688888101982734" lon="11.696862944089723"><ele>67.16666666666666</ele><time>2026-03-22T11:01:27Z</time></trkpt><trkpt lat="45.68886195234069" lon="11.696767756055964"><ele>67.0</ele><time>2026-03-22T11:01:28Z</time></trkpt><trkpt lat="45.6888262765308" lon="11.69668232129726"><ele>67.14285714285714</ele><time>2026-03-22T11:01:29Z</time></trkpt><trkpt lat="45.68878146932958" lon="11.696595502005579"><ele>67.28571428571428</ele><time>2026-03-22T11:01:30Z</time></trkpt><trkpt lat="45.68874299834538" lon="11.696510878851061"><ele>67.42857142857142</ele><time>2026-03-22T11:01:31Z</time></trkpt><trkpt lat="45.68871774386876" lon="11.696418054692092"><ele>67.57142857142857</ele><time>2026-03-22T11:01:32Z</time></trkpt><trkpt lat="45.688685717171005" lon="11.696337193544702"><ele>67.71428571428571</ele><time>2026-03-22T11:01:33Z</time></trkpt><trkpt lat="45.68865364029645" lon="11.696252720916311"><ele>67.85714285714285</ele><time>2026-03-22T11:01:34Z</time></trkpt><trkpt lat="45.68861700090341" lon="11.696178511123078"><ele>68.0</ele><time>2026-03-22T11:01:35Z</time></trkpt><trkpt lat="45.688560283249835" lon="11.695990417542642"><ele>68.0</ele><time>2026-03-22T11:01:37Z</time></trkpt><trkpt lat="45.68852249489904" lon="11.695863772174599"><ele>68.0</ele><time>2026-03-22T11:01:38Z</time></trkpt><trkpt lat="45.68848085300786" lon="11.695722899004004"><ele>68.0</ele><time>2026-03-22T11:01:39Z</time></trkpt><trkpt lat="45.68844065535648" lon="11.695601107724723"><ele>68.0</ele><time>2026-03-22T11:01:40Z</time></trkpt><trkpt lat="45.68839081341592" lon="11.695469552722024"><ele>68.0</ele><time>2026-03-22T11:01:41Z</time></trkpt><trkpt lat="45.688360595035554" lon="11.695335724430548"><ele>67.4</ele><time>2026-03-22T11:01:42Z</time></trkpt><trkpt lat="45.688315777388866" lon="11.69520720125966"><ele>66.8</ele><time>2026-03-22T11:01:43Z</time></trkpt><trkpt lat="45.68825403427413" lon="11.695082985892752"><ele>66.2</ele><time>2026-03-22T11:01:44Z</time></trkpt><trkpt lat="45.68821275883824" lon="11.694951746223254"><ele>65.6</ele><time>2026-03-22T11:01:45Z</time></trkpt><trkpt lat="45.6881752350118" lon="11.694836070796383"><ele>65.0</ele><time>2026-03-22T11:01:46Z</time></trkpt><trkpt lat="45.6881489838289" lon="11.694728888936167"><ele>65.0</ele><time>2026-03-22T11:01:47Z</time></trkpt><trkpt lat="45.68811494290713" lon="11.694630073260317"><ele>65.0</ele><time>2026-03-22T11:01:48Z</time></trkpt><trkpt lat="45.688067072216754" lon="11.694546548344274"><ele>65.0</ele><time>2026-03-22T11:01:49Z</time></trkpt><trkpt lat="45.68804869036409" lon="11.6944534128034"><ele>65.0</ele><time>2026-03-22T11:01:50Z</time></trkpt><trkpt lat="45.68799193439366" lon="11.694334360882673"><ele>65.0</ele><time>2026-03-22T11:01:52Z</time></trkpt><trkpt lat="45.6879520053869" lon="11.694228976954259"><ele>65.0</ele><time>2026-03-22T11:01:54Z</time></trkpt><trkpt lat="45.68790937077723" lon="11.694122337356777"><ele>65.16666666666667</ele><time>2026-03-22T11:01:55.999Z</time></trkpt><trkpt lat="45.68787568017022" lon="11.694014072014266"><ele>65.33333333333334</ele><time>2026-03-22T11:01:57.999Z</time></trkpt><trkpt lat="45.687821932157505" lon="11.693851802446337"><ele>65.5</ele><time>2026-03-22T11:01:59.999Z</time></trkpt><trkpt lat="45.687811458709014" lon="11.693743050134186"><ele>65.66666666666667</ele><time>2026-03-22T11:02:00.999Z</time></trkpt><trkpt lat="45.68776942195618" lon="11.69364792933802"><ele>65.83333333333333</ele><time>2026-03-22T11:02:01.999Z</time></trkpt><trkpt lat="45.68774674488287" lon="11.693563374921494"><ele>66.0</ele><time>2026-03-22T11:02:02.999Z</time></trkpt><trkpt lat="45.68771271294626" lon="11.693438421103853"><ele>66.0</ele><time>2026-03-22T11:02:04.999Z</time></trkpt><trkpt lat="45.687683534935886" lon="11.693334594420568"><ele>66.0</ele><time>2026-03-22T11:02:06.999Z</time></trkpt><trkpt lat="45.68766565228677" lon="11.693246112217693"><ele>66.0</ele><time>2026-03-22T11:02:51Z</time></trkpt><trkpt lat="45.68763770366337" lon="11.69314721585515"><ele>66.0</ele><time>2026-03-22T11:02:53Z</time></trkpt><trkpt lat="45.687590604562445" lon="11.693011043871403"><ele>66.0</ele><time>2026-03-22T11:02:55Z</time></trkpt><trkpt lat="45.687554684270594" lon="11.692917005445237"><ele>66.0</ele><time>2026-03-22T11:02:57Z</time></trkpt><trkpt lat="45.687521747614" lon="11.692833883174536"><ele>66.0</ele><time>2026-03-22T11:03:16Z</time></trkpt><trkpt lat="45.68736759880019" lon="11.692894289655039"><ele>66.0</ele><time>2026-03-22T11:03:54Z</time></trkpt><trkpt lat="45.68746702270987" lon="11.692864005931023"><ele>66.0</ele><time>2026-03-22T11:03:56Z</time></trkpt><trkpt lat="45.687548095691" lon="11.69290206966704"><ele>66.0</ele><time>2026-03-22T11:03:58Z</time></trkpt><trkpt lat="45.68760030001024" lon="11.693013944519882"><ele>66.0</ele><time>2026-03-22T11:03:59.999Z</time></trkpt><trkpt lat="45.68762409547277" lon="11.693109964999374"><ele>66.0</ele><time>2026-03-22T11:04:00.999Z</time></trkpt><trkpt lat="45.68765873335467" lon="11.693271809755272"><ele>66.0</ele><time>2026-03-22T11:04:02.999Z</time></trkpt><trkpt lat="45.687692268138605" lon="11.69334924148399"><ele>66.0</ele><time>2026-03-22T11:04:03.999Z</time></trkpt><trkpt lat="45.68772741384281" lon="11.69347072071258"><ele>66.0</ele><time>2026-03-22T11:04:04.999Z</time></trkpt><trkpt lat="45.687771118688126" lon="11.693615715041393"><ele>66.0</ele><time>2026-03-22T11:04:05.999Z</time></trkpt><trkpt lat="45.68778112424129" lon="11.693762943059154"><ele>66.0</ele><time>2026-03-22T11:04:06.999Z</time></trkpt><trkpt lat="45.68781831262786" lon="11.693902580095202"><ele>66.0</ele><time>2026-03-22T11:04:07.999Z</time></trkpt><trkpt lat="45.687861776772905" lon="11.694043759960083"><ele>66.0</ele><time>2026-03-22T11:04:08.999Z</time></trkpt><trkpt lat="45.68791378817524" lon="11.694159971618724"><ele>66.0</ele><time>2026-03-22T11:04:09.999Z</time></trkpt><trkpt lat="45.68796163201263" lon="11.694281680240403"><ele>66.0</ele><time>2026-03-22T11:04:10.999Z</time></trkpt><trkpt lat="45.68800712870429" lon="11.694417481679922"><ele>65.75</ele><time>2026-03-22T11:04:11.999Z</time></trkpt><trkpt lat="45.688053543495975" lon="11.694567028379184"><ele>65.5</ele><time>2026-03-22T11:04:12.999Z</time></trkpt><trkpt lat="45.688122348956874" lon="11.694707503334724"><ele>65.25</ele><time>2026-03-22T11:04:13.999Z</time></trkpt><trkpt lat="45.688159709380216" lon="11.694866274681852"><ele>65.0</ele><time>2026-03-22T11:04:14.999Z</time></trkpt><trkpt lat="45.68823059577539" lon="11.69501648179285"><ele>65.0</ele><time>2026-03-22T11:04:15.999Z</time></trkpt><trkpt lat="45.68828815013275" lon="11.695182432435303"><ele>65.0</ele><time>2026-03-22T11:04:16.999Z</time></trkpt><trkpt lat="45.68834215598383" lon="11.695345808636313"><ele>65.0</ele><time>2026-03-22T11:04:17.999Z</time></trkpt><trkpt lat="45.6883998865494" lon="11.695506518662805"><ele>65.0</ele><time>2026-03-22T11:04:18.999Z</time></trkpt><trkpt lat="45.688454577872356" lon="11.695667200904612"><ele>65.0</ele><time>2026-03-22T11:04:19.999Z</time></trkpt><trkpt lat="45.68849461621646" lon="11.695845439278262"><ele>65.0</ele><time>2026-03-22T11:04:20.999Z</time></trkpt><trkpt lat="45.688545182792964" lon="11.696018246071363"><ele>65.0</ele><time>2026-03-22T11:04:21.999Z</time></trkpt><trkpt lat="45.68859456495315" lon="11.696182542930066"><ele>65.0</ele><time>2026-03-22T11:04:22.999Z</time></trkpt><trkpt lat="45.68865339371716" lon="11.696346283840063"><ele>65.0</ele><time>2026-03-22T11:04:23.999Z</time></trkpt><trkpt lat="45.688721689599454" lon="11.69649753126336"><ele>65.0</ele><time>2026-03-22T11:04:24.999Z</time></trkpt><trkpt lat="45.68879048967609" lon="11.696632576890126"><ele>65.0</ele><time>2026-03-22T11:04:25.999Z</time></trkpt><trkpt lat="45.688837103880246" lon="11.696784799381216"><ele>65.0</ele><time>2026-03-22T11:04:26.999Z</time></trkpt><trkpt lat="45.68888411434711" lon="11.696934900824722"><ele>65.4</ele><time>2026-03-22T11:04:27.999Z</time></trkpt><trkpt lat="45.688927303225434" lon="11.697082437476785"><ele>65.8</ele><time>2026-03-22T11:04:28.999Z</time></trkpt><trkpt lat="45.68898451188016" lon="11.697210537128129"><ele>66.2</ele><time>2026-03-22T11:04:29.999Z</time></trkpt><trkpt lat="45.68903253571175" lon="11.697350839084075"><ele>66.6</ele><time>2026-03-22T11:04:30.999Z</time></trkpt><trkpt lat="45.689093045306805" lon="11.697481397109879"><ele>67.0</ele><time>2026-03-22T11:04:32Z</time></trkpt><trkpt lat="45.68916870644997" lon="11.697609037848807"><ele>67.0</ele><time>2026-03-22T11:04:33Z</time></trkpt><trkpt lat="45.68926127378802" lon="11.697745625307089"><ele>67.0</ele><time>2026-03-22T11:04:34Z</time></trkpt><trkpt lat="45.689339894197076" lon="11.697846603885402"><ele>67.0</ele><time>2026-03-22T11:04:35Z</time></trkpt><trkpt lat="45.689419497176715" lon="11.697960222062054"><ele>67.0</ele><time>2026-03-22T11:04:36Z</time></trkpt><trkpt lat="45.68949306720969" lon="11.698066721433968"><ele>67.6</ele><time>2026-03-22T11:04:37Z</time></trkpt><trkpt lat="45.68956768065028" lon="11.698169346839553"><ele>68.2</ele><time>2026-03-22T11:04:38Z</time></trkpt><trkpt lat="45.68965166312083" lon="11.698258930637557"><ele>68.8</ele><time>2026-03-22T11:04:39Z</time></trkpt><trkpt lat="45.6897429023931" lon="11.698338651913799"><ele>69.4</ele><time>2026-03-22T11:04:40Z</time></trkpt><trkpt lat="45.689821972891394" lon="11.698415115606354"><ele>70.0</ele><time>2026-03-22T11:04:41Z</time></trkpt><trkpt lat="45.6898796546884" lon="11.698492977350288"><ele>70.0</ele><time>2026-03-22T11:04:42Z</time></trkpt><trkpt lat="45.689940141881415" lon="11.698567263200685"><ele>70.0</ele><time>2026-03-22T11:04:43Z</time></trkpt><trkpt lat="45.69000244551948" lon="11.698663698692059"><ele>70.0</ele><time>2026-03-22T11:04:44Z</time></trkpt><trkpt lat="45.69006602880886" lon="11.69878182685449"><ele>70.0</ele><time>2026-03-22T11:04:45Z</time></trkpt><trkpt lat="45.690128012794084" lon="11.698901285697536"><ele>70.0</ele><time>2026-03-22T11:04:46Z</time></trkpt><trkpt lat="45.690187212821115" lon="11.699011854338329"><ele>70.2</ele><time>2026-03-22T11:04:47Z</time></trkpt><trkpt lat="45.69023600173428" lon="11.699103931429429"><ele>70.4</ele><time>2026-03-22T11:04:48Z</time></trkpt><trkpt lat="45.69027634518119" lon="11.699189972017306"><ele>70.6</ele><time>2026-03-22T11:04:49Z</time></trkpt><trkpt lat="45.69031582407413" lon="11.699295597911993"><ele>70.8</ele><time>2026-03-22T11:04:51Z</time></trkpt><trkpt lat="45.69021081858038" lon="11.699358532618003"><ele>71.0</ele><time>2026-03-22T11:04:54Z</time></trkpt><trkpt lat="45.69011675556573" lon="11.699428742048134"><ele>71.0</ele><time>2026-03-22T11:04:55Z</time></trkpt><trkpt lat="45.690009432602075" lon="11.6995103060395"><ele>71.0</ele><time>2026-03-22T11:04:56Z</time></trkpt><trkpt lat="45.689896370426254" lon="11.699594883953944"><ele>71.0</ele><time>2026-03-22T11:04:57Z</time></trkpt><trkpt lat="45.689776968732815" lon="11.699684204281542"><ele>71.0</ele><time>2026-03-22T11:04:58Z</time></trkpt><trkpt lat="45.689639787740944" lon="11.699786824600318"><ele>71.0</ele><time>2026-03-22T11:04:59Z</time></trkpt><trkpt lat="45.68949044124693" lon="11.699900094437922"><ele>71.0</ele><time>2026-03-22T11:05:00Z</time></trkpt><trkpt lat="45.689334225683915" lon="11.700019746223436"><ele>71.0</ele><time>2026-03-22T11:05:01Z</time></trkpt><trkpt lat="45.689185900863066" lon="11.700159446505763"><ele>71.0</ele><time>2026-03-22T11:05:02Z</time></trkpt><trkpt lat="45.68902573033377" lon="11.700281361007363"><ele>71.0</ele><time>2026-03-22T11:05:03Z</time></trkpt><trkpt lat="45.68885554362376" lon="11.70040716122089"><ele>71.0</ele><time>2026-03-22T11:05:04Z</time></trkpt><trkpt lat="45.688682265684314" lon="11.700537077468727"><ele>70.66666666666667</ele><time>2026-03-22T11:05:05Z</time></trkpt><trkpt lat="45.68852385976532" lon="11.700663628597507"><ele>70.33333333333333</ele><time>2026-03-22T11:05:06Z</time></trkpt><trkpt lat="45.68835794814251" lon="11.700764004241478"><ele>70.0</ele><time>2026-03-22T11:05:07Z</time></trkpt><trkpt lat="45.68819435502063" lon="11.700877380286663"><ele>70.0</ele><time>2026-03-22T11:05:08Z</time></trkpt><trkpt lat="45.68801489807873" lon="11.700985262046531"><ele>70.0</ele><time>2026-03-22T11:05:09Z</time></trkpt><trkpt lat="45.68782491701564" lon="11.701084820260974"><ele>70.0</ele><time>2026-03-22T11:05:10Z</time></trkpt><trkpt lat="45.68761799263306" lon="11.701184413130353"><ele>70.0</ele><time>2026-03-22T11:05:11Z</time></trkpt><trkpt lat="45.687430606902325" lon="11.701276966812744"><ele>70.0</ele><time>2026-03-22T11:05:12Z</time></trkpt><trkpt lat="45.68727069433955" lon="11.701383665696936"><ele>70.0</ele><time>2026-03-22T11:05:13Z</time></trkpt><trkpt lat="45.687107336499984" lon="11.701444737573727"><ele>70.0</ele><time>2026-03-22T11:05:14Z</time></trkpt><trkpt lat="45.686945491100786" lon="11.70152992152541"><ele>70.0</ele><time>2026-03-22T11:05:15Z</time></trkpt><trkpt lat="45.68678200619465" lon="11.701615968383184"><ele>70.0</ele><time>2026-03-22T11:05:16Z</time></trkpt><trkpt lat="45.686624975573984" lon="11.701698618221657"><ele>70.0</ele><time>2026-03-22T11:05:17Z</time></trkpt><trkpt lat="45.68643727580616" lon="11.701797410970638"><ele>70.0</ele><time>2026-03-22T11:05:18Z</time></trkpt><trkpt lat="45.68625834783243" lon="11.701892991374365"><ele>70.0</ele><time>2026-03-22T11:05:19Z</time></trkpt><trkpt lat="45.686088899983204" lon="11.70198427730886"><ele>70.0</ele><time>2026-03-22T11:05:20Z</time></trkpt><trkpt lat="45.685936799765585" lon="11.702090237898238"><ele>70.0</ele><time>2026-03-22T11:05:21Z</time></trkpt><trkpt lat="45.68579070789434" lon="11.702154528201486"><ele>70.0</ele><time>2026-03-22T11:05:22Z</time></trkpt><trkpt lat="45.685658154713025" lon="11.70224793417881"><ele>70.0</ele><time>2026-03-22T11:05:23Z</time></trkpt><trkpt lat="45.68554888988635" lon="11.70236173477519"><ele>70.0</ele><time>2026-03-22T11:05:24Z</time></trkpt><trkpt lat="45.685437646655814" lon="11.702437916014953"><ele>70.0</ele><time>2026-03-22T11:05:25Z</time></trkpt><trkpt lat="45.6853312117921" lon="11.70254077976514"><ele>70.0</ele><time>2026-03-22T11:05:26Z</time></trkpt><trkpt lat="45.68522332285001" lon="11.702648886544235"><ele>69.8</ele><time>2026-03-22T11:05:27Z</time></trkpt><trkpt lat="45.68513205620625" lon="11.702742983088273"><ele>69.6</ele><time>2026-03-22T11:05:28Z</time></trkpt><trkpt lat="45.68504889804713" lon="11.702815334082857"><ele>69.4</ele><time>2026-03-22T11:05:29Z</time></trkpt><trkpt lat="45.68496639964767" lon="11.702871801022415"><ele>69.2</ele><time>2026-03-22T11:05:30Z</time></trkpt><trkpt lat="45.684863563215266" lon="11.702816707022325"><ele>69.0</ele><time>2026-03-22T11:05:31Z</time></trkpt><trkpt lat="45.68475792953496" lon="11.702803419724297"><ele>69.0</ele><time>2026-03-22T11:05:32Z</time></trkpt><trkpt lat="45.68468549924986" lon="11.702759791785429"><ele>69.0</ele><time>2026-03-22T11:05:33Z</time></trkpt><trkpt lat="45.68461402874024" lon="11.70267855074499"><ele>69.0</ele><time>2026-03-22T11:05:35Z</time></trkpt><trkpt lat="45.68452656557759" lon="11.702614315669358"><ele>69.0</ele><time>2026-03-22T11:05:37Z</time></trkpt><trkpt lat="45.684521420727144" lon="11.702466341059992"><ele>69.0</ele><time>2026-03-22T11:05:38Z</time></trkpt><trkpt lat="45.68442708286971" lon="11.7024703209374"><ele>69.25</ele><time>2026-03-22T11:05:40Z</time></trkpt><trkpt lat="45.6842965744111" lon="11.702571776723733"><ele>69.5</ele><time>2026-03-22T11:05:42Z</time></trkpt><trkpt lat="45.684187932276366" lon="11.702629474983619"><ele>69.75</ele><time>2026-03-22T11:05:43Z</time></trkpt><trkpt lat="45.68406130982623" lon="11.702687533020251"><ele>70.0</ele><time>2026-03-22T11:05:44Z</time></trkpt><trkpt lat="45.6839222534696" lon="11.70276371467261"><ele>70.0</ele><time>2026-03-22T11:05:45Z</time></trkpt><trkpt lat="45.68378224862107" lon="11.702827652340344"><ele>70.0</ele><time>2026-03-22T11:05:46Z</time></trkpt><trkpt lat="45.68364124866507" lon="11.70286561478344"><ele>70.0</ele><time>2026-03-22T11:05:47Z</time></trkpt><trkpt lat="45.68352400199491" lon="11.702899569703755"><ele>70.0</ele><time>2026-03-22T11:05:48Z</time></trkpt><trkpt lat="45.6834095113591" lon="11.702925741993132"><ele>70.0</ele><time>2026-03-22T11:05:49Z</time></trkpt><trkpt lat="45.68330743997077" lon="11.70294096476946"><ele>70.0</ele><time>2026-03-22T11:05:50Z</time></trkpt><trkpt lat="45.68321820087926" lon="11.702921891966598"><ele>70.0</ele><time>2026-03-22T11:05:51Z</time></trkpt><trkpt lat="45.68315476742627" lon="11.702893822831687"><ele>70.0</ele><time>2026-03-22T11:05:52Z</time></trkpt><trkpt lat="45.68307210771359" lon="11.702816087762743"><ele>70.0</ele><time>2026-03-22T11:05:54Z</time></trkpt><trkpt lat="45.683024114717924" lon="11.702704282282735"><ele>69.0</ele><time>2026-03-22T11:05:55Z</time></trkpt><trkpt lat="45.68296606565118" lon="11.702556502356876"><ele>68.0</ele><time>2026-03-22T11:05:56Z</time></trkpt><trkpt lat="45.68288978200371" lon="11.702384776415956"><ele>67.0</ele><time>2026-03-22T11:05:57Z</time></trkpt><trkpt lat="45.682805688787994" lon="11.702219890128982"><ele>66.0</ele><time>2026-03-22T11:05:58Z</time></trkpt><trkpt lat="45.682713692684786" lon="11.702036814627949"><ele>65.0</ele><time>2026-03-22T11:05:59Z</time></trkpt><trkpt lat="45.682614191375045" lon="11.70184008786694"><ele>64.0</ele><time>2026-03-22T11:06:00Z</time></trkpt><trkpt lat="45.682511919155026" lon="11.70162452520271"><ele>63.0</ele><time>2026-03-22T11:06:01Z</time></trkpt><trkpt lat="45.68240951450435" lon="11.701421391497693"><ele>63.0</ele><time>2026-03-22T11:06:02Z</time></trkpt><trkpt lat="45.68230131224385" lon="11.70119704043535"><ele>63.0</ele><time>2026-03-22T11:06:03Z</time></trkpt><trkpt lat="45.68218135286077" lon="11.700968388856465"><ele>63.0</ele><time>2026-03-22T11:06:04Z</time></trkpt><trkpt lat="45.68205776162492" lon="11.700746259307525"><ele>62.33333333333333</ele><time>2026-03-22T11:06:04.999Z</time></trkpt><trkpt lat="45.6819211409606" lon="11.700522959260313"><ele>61.666666666666664</ele><time>2026-03-22T11:06:05.999Z</time></trkpt><trkpt lat="45.681775069181974" lon="11.700302812908586"><ele>61.0</ele><time>2026-03-22T11:06:06.999Z</time></trkpt><trkpt lat="45.681635782493956" lon="11.700096569562485"><ele>60.666666666666664</ele><time>2026-03-22T11:06:07.999Z</time></trkpt><trkpt lat="45.68151822727483" lon="11.699911433893389"><ele>60.33333333333333</ele><time>2026-03-22T11:06:08.999Z</time></trkpt><trkpt lat="45.681408461723564" lon="11.699738583267262"><ele>60.0</ele><time>2026-03-22T11:06:09.999Z</time></trkpt><trkpt lat="45.681305803322154" lon="11.699581879003523"><ele>60.0</ele><time>2026-03-22T11:06:10.999Z</time></trkpt><trkpt lat="45.68121357955158" lon="11.699443668600576"><ele>60.0</ele><time>2026-03-22T11:06:11.999Z</time></trkpt><trkpt lat="45.68113021006183" lon="11.699297814259102"><ele>60.0</ele><time>2026-03-22T11:06:12.999Z</time></trkpt><trkpt lat="45.68104527647831" lon="11.699138725393256"><ele>60.0</ele><time>2026-03-22T11:06:13.999Z</time></trkpt><trkpt lat="45.68096317633608" lon="11.698970902092478"><ele>60.25</ele><time>2026-03-22T11:06:14.999Z</time></trkpt><trkpt lat="45.680885125355786" lon="11.69880222565422"><ele>60.5</ele><time>2026-03-22T11:06:15.999Z</time></trkpt><trkpt lat="45.680811195601706" lon="11.698632030912895"><ele>60.75</ele><time>2026-03-22T11:06:16.999Z</time></trkpt><trkpt lat="45.68073872772917" lon="11.698466559603096"><ele>61.0</ele><time>2026-03-22T11:06:17.999Z</time></trkpt><trkpt lat="45.6806649354855" lon="11.69830249455621"><ele>61.25</ele><time>2026-03-22T11:06:18.999Z</time></trkpt><trkpt lat="45.680591744472295" lon="11.69814838455448"><ele>61.5</ele><time>2026-03-22T11:06:19.999Z</time></trkpt><trkpt lat="45.680519280502864" lon="11.697997667101038"><ele>61.75</ele><time>2026-03-22T11:06:20.999Z</time></trkpt><trkpt lat="45.68044783429741" lon="11.697845516710673"><ele>62.0</ele><time>2026-03-22T11:06:21.999Z</time></trkpt><trkpt lat="45.680374703439085" lon="11.697683077368636"><ele>62.333333333333336</ele><time>2026-03-22T11:06:22.999Z</time></trkpt><trkpt lat="45.68029975197744" lon="11.697507190510303"><ele>62.66666666666667</ele><time>2026-03-22T11:06:23.999Z</time></trkpt><trkpt lat="45.680211537117735" lon="11.697318953285922"><ele>63.0</ele><time>2026-03-22T11:06:24.999Z</time></trkpt><trkpt lat="45.68011105214701" lon="11.697110817149548"><ele>63.0</ele><time>2026-03-22T11:06:25.999Z</time></trkpt><trkpt lat="45.68000266301302" lon="11.696875782409125"><ele>63.0</ele><time>2026-03-22T11:06:26.999Z</time></trkpt><trkpt lat="45.679885033064025" lon="11.69662068379068"><ele>63.0</ele><time>2026-03-22T11:06:27.999Z</time></trkpt><trkpt lat="45.67976004141945" lon="11.696341715448229"><ele>63.0</ele><time>2026-03-22T11:06:28.999Z</time></trkpt><trkpt lat="45.67963628987671" lon="11.696073543840452"><ele>63.0</ele><time>2026-03-22T11:06:29.999Z</time></trkpt><trkpt lat="45.67951574812911" lon="11.695814504568135"><ele>63.0</ele><time>2026-03-22T11:06:30.999Z</time></trkpt><trkpt lat="45.67939313973862" lon="11.695544289835697"><ele>63.0</ele><time>2026-03-22T11:06:31.999Z</time></trkpt><trkpt lat="45.67927071459759" lon="11.69527410734538"><ele>63.0</ele><time>2026-03-22T11:06:32.999Z</time></trkpt><trkpt lat="45.67914451437452" lon="11.695001731406826"><ele>63.0</ele><time>2026-03-22T11:06:33.999Z</time></trkpt><trkpt lat="45.679018290591294" lon="11.694732343596206"><ele>63.0</ele><time>2026-03-22T11:06:34.999Z</time></trkpt><trkpt lat="45.67888983980694" lon="11.694458537925104"><ele>62.5</ele><time>2026-03-22T11:06:35.999Z</time></trkpt><trkpt lat="45.678760606002896" lon="11.69418203967652"><ele>62.0</ele><time>2026-03-22T11:06:36.999Z</time></trkpt><trkpt lat="45.67863310527065" lon="11.693901437552983"><ele>62.5</ele><time>2026-03-22T11:06:38Z</time></trkpt><trkpt lat="45.67850698198194" lon="11.693621875534578"><ele>63.0</ele><time>2026-03-22T11:06:39Z</time></trkpt><trkpt lat="45.67837900967583" lon="11.693337342606075"><ele>63.0</ele><time>2026-03-22T11:06:40Z</time></trkpt><trkpt lat="45.678244740719286" lon="11.69306009328764"><ele>63.0</ele><time>2026-03-22T11:06:41Z</time></trkpt><trkpt lat="45.67811874261379" lon="11.692786951569888"><ele>63.33333333333333</ele><time>2026-03-22T11:06:42Z</time></trkpt><trkpt lat="45.678006006072486" lon="11.692531246941973"><ele>63.666666666666664</ele><time>2026-03-22T11:06:43Z</time></trkpt><trkpt lat="45.67789745678576" lon="11.692293023698547"><ele>64.0</ele><time>2026-03-22T11:06:44Z</time></trkpt><trkpt lat="45.677788697226305" lon="11.692052611615212"><ele>63.0</ele><time>2026-03-22T11:06:45Z</time></trkpt><trkpt lat="45.67768337592751" lon="11.691814329476532"><ele>62.0</ele><time>2026-03-22T11:06:46Z</time></trkpt><trkpt lat="45.67759452636749" lon="11.69159371032121"><ele>61.0</ele><time>2026-03-22T11:06:47Z</time></trkpt><trkpt lat="45.67752153994826" lon="11.691379050275573"><ele>61.0</ele><time>2026-03-22T11:06:48Z</time></trkpt><trkpt lat="45.67746373827371" lon="11.691169710141066"><ele>61.0</ele><time>2026-03-22T11:06:49Z</time></trkpt><trkpt lat="45.67741986873561" lon="11.690962746648013"><ele>61.0</ele><time>2026-03-22T11:06:50Z</time></trkpt><trkpt lat="45.677383287504654" lon="11.690769102877725"><ele>61.0</ele><time>2026-03-22T11:06:51Z</time></trkpt><trkpt lat="45.67735068364619" lon="11.690584737146809"><ele>61.0</ele><time>2026-03-22T11:06:52Z</time></trkpt><trkpt lat="45.67731081336344" lon="11.690392208131176"><ele>61.0</ele><time>2026-03-22T11:06:53Z</time></trkpt><trkpt lat="45.67727706166967" lon="11.690190261078119"><ele>61.0</ele><time>2026-03-22T11:06:54Z</time></trkpt><trkpt lat="45.677242033292174" lon="11.68998755635937"><ele>61.0</ele><time>2026-03-22T11:06:55Z</time></trkpt><trkpt lat="45.67720272082368" lon="11.689770610049404"><ele>60.666666666666664</ele><time>2026-03-22T11:06:56Z</time></trkpt><trkpt lat="45.677158886039656" lon="11.689554234114334"><ele>60.33333333333333</ele><time>2026-03-22T11:06:57Z</time></trkpt><trkpt lat="45.677113833656456" lon="11.689330378109625"><ele>60.0</ele><time>2026-03-22T11:06:58Z</time></trkpt><trkpt lat="45.677069064823215" lon="11.689100653756551"><ele>59.0</ele><time>2026-03-22T11:06:59Z</time></trkpt><trkpt lat="45.67702346125018" lon="11.688871407087692"><ele>58.0</ele><time>2026-03-22T11:07:00Z</time></trkpt><trkpt lat="45.676974174553834" lon="11.688623502507092"><ele>57.0</ele><time>2026-03-22T11:07:01Z</time></trkpt><trkpt lat="45.67692696384379" lon="11.688374939394203"><ele>56.0</ele><time>2026-03-22T11:07:02Z</time></trkpt><trkpt lat="45.67687649475256" lon="11.688120422344573"><ele>55.0</ele><time>2026-03-22T11:07:03Z</time></trkpt><trkpt lat="45.67682570120138" lon="11.687860258424235"><ele>54.0</ele><time>2026-03-22T11:07:04Z</time></trkpt><trkpt lat="45.676775033662196" lon="11.687596024146327"><ele>54.0</ele><time>2026-03-22T11:07:05Z</time></trkpt><trkpt lat="45.67672379902064" lon="11.68732524585953"><ele>54.0</ele><time>2026-03-22T11:07:06Z</time></trkpt><trkpt lat="45.67666533504644" lon="11.687029261374715"><ele>54.0</ele><time>2026-03-22T11:07:07Z</time></trkpt><trkpt lat="45.676607681486374" lon="11.686723806852909"><ele>54.66666666666667</ele><time>2026-03-22T11:07:08Z</time></trkpt><trkpt lat="45.67654820705614" lon="11.686401084694184"><ele>55.333333333333336</ele><time>2026-03-22T11:07:09Z</time></trkpt><trkpt lat="45.67649299431039" lon="11.686105365973198"><ele>56.0</ele><time>2026-03-22T11:07:10Z</time></trkpt><trkpt lat="45.67644388332895" lon="11.685844422787614"><ele>57.0</ele><time>2026-03-22T11:07:11Z</time></trkpt><trkpt lat="45.67639690846061" lon="11.685598685073396"><ele>58.0</ele><time>2026-03-22T11:07:12Z</time></trkpt><trkpt lat="45.676354033603346" lon="11.685364245532007"><ele>59.0</ele><time>2026-03-22T11:07:13Z</time></trkpt><trkpt lat="45.67630620272899" lon="11.68511729149493"><ele>60.0</ele><time>2026-03-22T11:07:14Z</time></trkpt><trkpt lat="45.67625778856243" lon="11.6848815996869"><ele>61.0</ele><time>2026-03-22T11:07:15Z</time></trkpt><trkpt lat="45.676216663090706" lon="11.68464273024074"><ele>62.0</ele><time>2026-03-22T11:07:16Z</time></trkpt><trkpt lat="45.67617798622993" lon="11.684381484385115"><ele>62.0</ele><time>2026-03-22T11:07:17Z</time></trkpt><trkpt lat="45.676148340242946" lon="11.684157657451339"><ele>62.0</ele><time>2026-03-22T11:07:18Z</time></trkpt><trkpt lat="45.67612328674234" lon="11.68395102003118"><ele>62.0</ele><time>2026-03-22T11:07:19Z</time></trkpt><trkpt lat="45.676107243802484" lon="11.6837551188739"><ele>62.0</ele><time>2026-03-22T11:07:20Z</time></trkpt><trkpt lat="45.6760917949542" lon="11.683565475106787"><ele>62.0</ele><time>2026-03-22T11:07:21Z</time></trkpt><trkpt lat="45.6760762719033" lon="11.68338194076115"><ele>62.0</ele><time>2026-03-22T11:07:22Z</time></trkpt><trkpt lat="45.67606565935884" lon="11.683212030435286"><ele>62.0</ele><time>2026-03-22T11:07:23Z</time></trkpt><trkpt lat="45.676059538985534" lon="11.68304979685436"><ele>62.0</ele><time>2026-03-22T11:07:24Z</time></trkpt><trkpt lat="45.67605417894567" lon="11.682893078320317"><ele>62.00000000000001</ele><time>2026-03-22T11:07:25Z</time></trkpt><trkpt lat="45.67605053055291" lon="11.682768309004127"><ele>62.0</ele><time>2026-03-22T11:07:26Z</time></trkpt><trkpt lat="45.67605087593705" lon="11.682660562456395"><ele>62.0</ele><time>2026-03-22T11:07:27Z</time></trkpt><trkpt lat="45.67606436970975" lon="11.682563316587562"><ele>62.0</ele><time>2026-03-22T11:07:28Z</time></trkpt><trkpt lat="45.67609611203316" lon="11.682484414219177"><ele>62.00000000000001</ele><time>2026-03-22T11:07:29Z</time></trkpt><trkpt lat="45.6760595534295" lon="11.682337671167328"><ele>62.0</ele><time>2026-03-22T11:07:31Z</time></trkpt><trkpt lat="45.67598022888056" lon="11.682240771618336"><ele>62.0</ele><time>2026-03-22T11:07:33Z</time></trkpt><trkpt lat="45.67588960199075" lon="11.682233412550117"><ele>62.0</ele><time>2026-03-22T11:07:34Z</time></trkpt><trkpt lat="45.675767166961954" lon="11.682244423423496"><ele>62.0</ele><time>2026-03-22T11:07:35Z</time></trkpt><trkpt lat="45.67563941352597" lon="11.682246012545397"><ele>62.0</ele><time>2026-03-22T11:07:36Z</time></trkpt><trkpt lat="45.67551818610197" lon="11.682249594947855"><ele>62.0</ele><time>2026-03-22T11:07:37Z</time></trkpt><trkpt lat="45.67539270247235" lon="11.682256067401546"><ele>62.0</ele><time>2026-03-22T11:07:38Z</time></trkpt><trkpt lat="45.67526343903857" lon="11.682261710865072"><ele>62.0</ele><time>2026-03-22T11:07:39Z</time></trkpt><trkpt lat="45.67513220643999" lon="11.68226548172292"><ele>62.0</ele><time>2026-03-22T11:07:40Z</time></trkpt><trkpt lat="45.674999841175776" lon="11.682267311328395"><ele>62.0</ele><time>2026-03-22T11:07:41Z</time></trkpt><trkpt lat="45.674864012269296" lon="11.682276612152021"><ele>62.0</ele><time>2026-03-22T11:07:42Z</time></trkpt><trkpt lat="45.67472705432343" lon="11.68228220793419"><ele>62.0</ele><time>2026-03-22T11:07:43Z</time></trkpt><trkpt lat="45.67457821212074" lon="11.682285989460892"><ele>62.0</ele><time>2026-03-22T11:07:44Z</time></trkpt><trkpt lat="45.67441490766097" lon="11.682291724692597"><ele>62.0</ele><time>2026-03-22T11:07:45Z</time></trkpt><trkpt lat="45.67425258259809" lon="11.682298243669953"><ele>62.0</ele><time>2026-03-22T11:07:46Z</time></trkpt><trkpt lat="45.67409788091627" lon="11.68230809696069"><ele>62.0</ele><time>2026-03-22T11:07:47Z</time></trkpt><trkpt lat="45.67392893067118" lon="11.682323624218634"><ele>62.0</ele><time>2026-03-22T11:07:48Z</time></trkpt><trkpt lat="45.673755729254374" lon="11.682350006496021"><ele>62.0</ele><time>2026-03-22T11:07:49Z</time></trkpt><trkpt lat="45.67357923134042" lon="11.682346027866897"><ele>62.0</ele><time>2026-03-22T11:07:50Z</time></trkpt><trkpt lat="45.673398326518665" lon="11.68236401278915"><ele>61.333333333333336</ele><time>2026-03-22T11:07:51Z</time></trkpt><trkpt lat="45.6732195827149" lon="11.682408646917715"><ele>60.66666666666667</ele><time>2026-03-22T11:07:52Z</time></trkpt><trkpt lat="45.67304055635364" lon="11.6824275479298"><ele>60.0</ele><time>2026-03-22T11:07:53Z</time></trkpt><trkpt lat="45.67286945630408" lon="11.682452003784192"><ele>59.66666666666667</ele><time>2026-03-22T11:07:54Z</time></trkpt><trkpt lat="45.67269555991628" lon="11.682476065061204"><ele>59.333333333333336</ele><time>2026-03-22T11:07:55Z</time></trkpt><trkpt lat="45.67251911695668" lon="11.682501227288405"><ele>59.0</ele><time>2026-03-22T11:07:56Z</time></trkpt><trkpt lat="45.67234056523816" lon="11.682510677137953"><ele>59.0</ele><time>2026-03-22T11:07:57Z</time></trkpt><trkpt lat="45.672187431436214" lon="11.682562935110465"><ele>59.0</ele><time>2026-03-22T11:07:58Z</time></trkpt><trkpt lat="45.67201755055644" lon="11.682577869251567"><ele>59.0</ele><time>2026-03-22T11:07:59Z</time></trkpt><trkpt lat="45.671846904224374" lon="11.682623389835824"><ele>59.5</ele><time>2026-03-22T11:08:00Z</time></trkpt><trkpt lat="45.67168994175657" lon="11.682665459359598"><ele>60.0</ele><time>2026-03-22T11:08:01Z</time></trkpt><trkpt lat="45.67154494205992" lon="11.682707269305302"><ele>60.5</ele><time>2026-03-22T11:08:02Z</time></trkpt><trkpt lat="45.67141252891058" lon="11.682747052535746"><ele>61.0</ele><time>2026-03-22T11:08:03Z</time></trkpt><trkpt lat="45.67129008573642" lon="11.682808787897336"><ele>61.0</ele><time>2026-03-22T11:08:04Z</time></trkpt><trkpt lat="45.671166798755074" lon="11.682841612934373"><ele>61.0</ele><time>2026-03-22T11:08:05Z</time></trkpt><trkpt lat="45.671039699312225" lon="11.682878621302862"><ele>61.0</ele><time>2026-03-22T11:08:06Z</time></trkpt><trkpt lat="45.67090894672436" lon="11.68291971877644"><ele>61.0</ele><time>2026-03-22T11:08:07Z</time></trkpt><trkpt lat="45.670770713164664" lon="11.68295897822941"><ele>61.0</ele><time>2026-03-22T11:08:08Z</time></trkpt><trkpt lat="45.670631574124904" lon="11.683003386727036"><ele>61.0</ele><time>2026-03-22T11:08:09Z</time></trkpt><trkpt lat="45.67049136493285" lon="11.683053755127764"><ele>61.0</ele><time>2026-03-22T11:08:10Z</time></trkpt><trkpt lat="45.67034186790957" lon="11.683095984504595"><ele>61.0</ele><time>2026-03-22T11:08:11Z</time></trkpt><trkpt lat="45.6701892400229" lon="11.683127596006688"><ele>60.33333333333333</ele><time>2026-03-22T11:08:12Z</time></trkpt><trkpt lat="45.67002519626589" lon="11.683145125816315"><ele>59.66666666666667</ele><time>2026-03-22T11:08:12.999Z</time></trkpt><trkpt lat="45.66986170820961" lon="11.683152597335917"><ele>59.0</ele><time>2026-03-22T11:08:13.999Z</time></trkpt><trkpt lat="45.66969805638909" lon="11.683156063388108"><ele>59.0</ele><time>2026-03-22T11:08:14.999Z</time></trkpt><trkpt lat="45.66953891848946" lon="11.683158745335493"><ele>59.0</ele><time>2026-03-22T11:08:15.999Z</time></trkpt><trkpt lat="45.669381274920745" lon="11.683156712174602"><ele>59.0</ele><time>2026-03-22T11:08:16.999Z</time></trkpt><trkpt lat="45.669231877140014" lon="11.683148847962652"><ele>58.75</ele><time>2026-03-22T11:08:17.999Z</time></trkpt><trkpt lat="45.66908331125638" lon="11.683143305713527"><ele>58.5</ele><time>2026-03-22T11:08:18.999Z</time></trkpt><trkpt lat="45.66893510137988" lon="11.68314164766682"><ele>58.25</ele><time>2026-03-22T11:08:19.999Z</time></trkpt><trkpt lat="45.66878655418603" lon="11.683142455061665"><ele>58.0</ele><time>2026-03-22T11:08:20.999Z</time></trkpt><trkpt lat="45.668637505740925" lon="11.683141664949202"><ele>58.5</ele><time>2026-03-22T11:08:21.999Z</time></trkpt><trkpt lat="45.66848806934349" lon="11.683141788155053"><ele>59.0</ele><time>2026-03-22T11:08:22.999Z</time></trkpt><trkpt lat="45.66834388633748" lon="11.683136846491955"><ele>59.5</ele><time>2026-03-22T11:08:23.999Z</time></trkpt><trkpt lat="45.66820211002505" lon="11.683130827971373"><ele>60.0</ele><time>2026-03-22T11:08:24.999Z</time></trkpt><trkpt lat="45.66806558704571" lon="11.683124061246222"><ele>60.0</ele><time>2026-03-22T11:08:25.999Z</time></trkpt><trkpt lat="45.66792748702307" lon="11.683111180586348"><ele>60.0</ele><time>2026-03-22T11:08:26.999Z</time></trkpt><trkpt lat="45.66779235402335" lon="11.683104130551921"><ele>60.0</ele><time>2026-03-22T11:08:27.999Z</time></trkpt><trkpt lat="45.66766371170977" lon="11.683096566508256"><ele>60.0</ele><time>2026-03-22T11:08:28.999Z</time></trkpt><trkpt lat="45.66752777608538" lon="11.683090885266626"><ele>59.75</ele><time>2026-03-22T11:08:29.999Z</time></trkpt><trkpt lat="45.667394891395226" lon="11.683084558357343"><ele>59.5</ele><time>2026-03-22T11:08:30.999Z</time></trkpt><trkpt lat="45.667264382740214" lon="11.68307559312433"><ele>59.25</ele><time>2026-03-22T11:08:31.999Z</time></trkpt><trkpt lat="45.6671335565236" lon="11.683068430011911"><ele>59.0</ele><time>2026-03-22T11:08:32.999Z</time></trkpt><trkpt lat="45.667005126431484" lon="11.683061525485215"><ele>58.75</ele><time>2026-03-22T11:08:33.999Z</time></trkpt><trkpt lat="45.66687349390315" lon="11.683056438436614"><ele>58.5</ele><time>2026-03-22T11:08:34.999Z</time></trkpt><trkpt lat="45.6667455771148" lon="11.683050582089763"><ele>58.25</ele><time>2026-03-22T11:08:35.999Z</time></trkpt><trkpt lat="45.666618425888515" lon="11.683048700829403"><ele>58.0</ele><time>2026-03-22T11:08:36.999Z</time></trkpt><trkpt lat="45.66649034179243" lon="11.683041746116118"><ele>58.0</ele><time>2026-03-22T11:08:37.999Z</time></trkpt><trkpt lat="45.666362916997805" lon="11.683032735413017"><ele>58.0</ele><time>2026-03-22T11:08:38.999Z</time></trkpt><trkpt lat="45.666237619334915" lon="11.68302604101982"><ele>58.0</ele><time>2026-03-22T11:08:39.999Z</time></trkpt><trkpt lat="45.66611026973203" lon="11.683018429372396"><ele>58.0</ele><time>2026-03-22T11:08:40.999Z</time></trkpt><trkpt lat="45.66598526417096" lon="11.683011853875186"><ele>57.75</ele><time>2026-03-22T11:08:41.999Z</time></trkpt><trkpt lat="45.66585891890553" lon="11.683004867050547"><ele>57.5</ele><time>2026-03-22T11:08:42.999Z</time></trkpt><trkpt lat="45.66573395216337" lon="11.683000041135013"><ele>57.25</ele><time>2026-03-22T11:08:44Z</time></trkpt><trkpt lat="45.665611473418586" lon="11.682995015067931"><ele>57.0</ele><time>2026-03-22T11:08:45Z</time></trkpt><trkpt lat="45.66548923159393" lon="11.682988061120101"><ele>57.0</ele><time>2026-03-22T11:08:46Z</time></trkpt><trkpt lat="45.66536738235828" lon="11.682982666225609"><ele>57.0</ele><time>2026-03-22T11:08:47Z</time></trkpt><trkpt lat="45.66524193884269" lon="11.682979047159122"><ele>57.0</ele><time>2026-03-22T11:08:48Z</time></trkpt><trkpt lat="45.665107718691" lon="11.68297259318127"><ele>57.0</ele><time>2026-03-22T11:08:49Z</time></trkpt><trkpt lat="45.66497022326637" lon="11.682966169512826"><ele>56.66666666666667</ele><time>2026-03-22T11:08:50Z</time></trkpt><trkpt lat="45.66481805960918" lon="11.682954075819342"><ele>56.333333333333336</ele><time>2026-03-22T11:08:51Z</time></trkpt><trkpt lat="45.66465030634711" lon="11.682933407500638"><ele>56.0</ele><time>2026-03-22T11:08:52Z</time></trkpt><trkpt lat="45.66447164072806" lon="11.682901663992139"><ele>55.66666666666667</ele><time>2026-03-22T11:08:53Z</time></trkpt><trkpt lat="45.66429329295939" lon="11.682868000860577"><ele>55.33333333333333</ele><time>2026-03-22T11:08:54Z</time></trkpt><trkpt lat="45.664105150520776" lon="11.682834538021856"><ele>55.0</ele><time>2026-03-22T11:08:55Z</time></trkpt><trkpt lat="45.66393735905241" lon="11.68279928272861"><ele>55.25</ele><time>2026-03-22T11:08:56Z</time></trkpt><trkpt lat="45.6637788538494" lon="11.6827583716156"><ele>55.5</ele><time>2026-03-22T11:08:57Z</time></trkpt><trkpt lat="45.663633280025984" lon="11.682735005678623"><ele>55.75</ele><time>2026-03-22T11:08:58Z</time></trkpt><trkpt lat="45.663495813836455" lon="11.682723886026526"><ele>56.0</ele><time>2026-03-22T11:08:59Z</time></trkpt><trkpt lat="45.66336050633758" lon="11.682741295580351"><ele>56.333333333333336</ele><time>2026-03-22T11:09:00Z</time></trkpt><trkpt lat="45.66321360520946" lon="11.682788425350005"><ele>56.66666666666667</ele><time>2026-03-22T11:09:01Z</time></trkpt><trkpt lat="45.66306689241629" lon="11.682830324651663"><ele>57.0</ele><time>2026-03-22T11:09:02Z</time></trkpt><trkpt lat="45.66291335052846" lon="11.68289372531875"><ele>56.66666666666667</ele><time>2026-03-22T11:09:03Z</time></trkpt><trkpt lat="45.66275703296427" lon="11.682958050445498"><ele>56.333333333333336</ele><time>2026-03-22T11:09:04Z</time></trkpt><trkpt lat="45.66261053505117" lon="11.683040388227143"><ele>56.0</ele><time>2026-03-22T11:09:05Z</time></trkpt><trkpt lat="45.66245550655135" lon="11.683104775414503"><ele>56.0</ele><time>2026-03-22T11:09:06Z</time></trkpt><trkpt lat="45.662288494427116" lon="11.683150048874287"><ele>56.0</ele><time>2026-03-22T11:09:07Z</time></trkpt><trkpt lat="45.66212832325185" lon="11.68321538065183"><ele>56.0</ele><time>2026-03-22T11:09:08Z</time></trkpt><trkpt lat="45.66196316618083" lon="11.683282278352012"><ele>56.333333333333336</ele><time>2026-03-22T11:09:09Z</time></trkpt><trkpt lat="45.661807130335454" lon="11.683345481427388"><ele>56.66666666666667</ele><time>2026-03-22T11:09:10Z</time></trkpt><trkpt lat="45.66164645374875" lon="11.683410564223278"><ele>57.0</ele><time>2026-03-22T11:09:11Z</time></trkpt><trkpt lat="45.661488722959916" lon="11.683499673517352"><ele>57.0</ele><time>2026-03-22T11:09:12Z</time></trkpt><trkpt lat="45.661320681075445" lon="11.683546900186982"><ele>57.0</ele><time>2026-03-22T11:09:13Z</time></trkpt><trkpt lat="45.66116410621179" lon="11.683615326145098"><ele>57.0</ele><time>2026-03-22T11:09:14Z</time></trkpt><trkpt lat="45.66101234746968" lon="11.683683337960032"><ele>56.66666666666667</ele><time>2026-03-22T11:09:15Z</time></trkpt><trkpt lat="45.660862932457384" lon="11.683750299397598"><ele>56.333333333333336</ele><time>2026-03-22T11:09:16Z</time></trkpt><trkpt lat="45.66070089879957" lon="11.683822402534794"><ele>56.0</ele><time>2026-03-22T11:09:17Z</time></trkpt><trkpt lat="45.66054261329786" lon="11.683892060492996"><ele>56.0</ele><time>2026-03-22T11:09:18Z</time></trkpt><trkpt lat="45.66038869263563" lon="11.68397782135861"><ele>56.0</ele><time>2026-03-22T11:09:19Z</time></trkpt><trkpt lat="45.66023135689154" lon="11.684043838430647"><ele>56.0</ele><time>2026-03-22T11:09:20Z</time></trkpt><trkpt lat="45.660076018062156" lon="11.684119188559421"><ele>56.333333333333336</ele><time>2026-03-22T11:09:21Z</time></trkpt><trkpt lat="45.659915589549456" lon="11.684191700147165"><ele>56.66666666666667</ele><time>2026-03-22T11:09:22Z</time></trkpt><trkpt lat="45.659760093577496" lon="11.684264369549284"><ele>57.0</ele><time>2026-03-22T11:09:23Z</time></trkpt><trkpt lat="45.65960737389552" lon="11.684336070324052"><ele>57.0</ele><time>2026-03-22T11:09:24Z</time></trkpt><trkpt lat="45.65945362208944" lon="11.68438523748468"><ele>57.0</ele><time>2026-03-22T11:09:25Z</time></trkpt><trkpt lat="45.659318245613484" lon="11.684476289794304"><ele>57.0</ele><time>2026-03-22T11:09:26Z</time></trkpt><trkpt lat="45.65918703676359" lon="11.68453798657881"><ele>57.0</ele><time>2026-03-22T11:09:27Z</time></trkpt><trkpt lat="45.65904950925115" lon="11.684606907626085"><ele>56.66666666666667</ele><time>2026-03-22T11:09:28Z</time></trkpt><trkpt lat="45.65890984348189" lon="11.684701252522201"><ele>56.333333333333336</ele><time>2026-03-22T11:09:29Z</time></trkpt><trkpt lat="45.65877466783906" lon="11.684829342797487"><ele>56.0</ele><time>2026-03-22T11:09:30Z</time></trkpt><trkpt lat="45.65863504212519" lon="11.684936559431634"><ele>55.66666666666667</ele><time>2026-03-22T11:09:31Z</time></trkpt><trkpt lat="45.658495285227595" lon="11.685053163758335"><ele>55.33333333333333</ele><time>2026-03-22T11:09:32Z</time></trkpt><trkpt lat="45.65834199318391" lon="11.685149054621697"><ele>55.0</ele><time>2026-03-22T11:09:33Z</time></trkpt><trkpt lat="45.6582113580508" lon="11.685241896332187"><ele>55.0</ele><time>2026-03-22T11:09:34Z</time></trkpt><trkpt lat="45.65808599001861" lon="11.685299482395996"><ele>55.0</ele><time>2026-03-22T11:09:35Z</time></trkpt><trkpt lat="45.65796523886293" lon="11.685363947192464"><ele>55.0</ele><time>2026-03-22T11:09:36Z</time></trkpt><trkpt lat="45.65784322527605" lon="11.685399462845115"><ele>55.0</ele><time>2026-03-22T11:09:37Z</time></trkpt><trkpt lat="45.657716739402574" lon="11.685465412859518"><ele>55.0</ele><time>2026-03-22T11:09:38Z</time></trkpt><trkpt lat="45.65757558247467" lon="11.685551810918565"><ele>55.0</ele><time>2026-03-22T11:09:39Z</time></trkpt><trkpt lat="45.657399760659814" lon="11.685652390641154"><ele>55.0</ele><time>2026-03-22T11:09:40Z</time></trkpt><trkpt lat="45.65721049852372" lon="11.685788939293221"><ele>55.0</ele><time>2026-03-22T11:09:41Z</time></trkpt><trkpt lat="45.65699836914834" lon="11.685901391457971"><ele>55.0</ele><time>2026-03-22T11:09:42Z</time></trkpt><trkpt lat="45.656820328803484" lon="11.686072606405498"><ele>55.0</ele><time>2026-03-22T11:09:43Z</time></trkpt><trkpt lat="45.65665135560148" lon="11.686204126910837"><ele>54.33333333333333</ele><time>2026-03-22T11:09:44Z</time></trkpt><trkpt lat="45.65650889392587" lon="11.686360825873507"><ele>53.66666666666667</ele><time>2026-03-22T11:09:45Z</time></trkpt><trkpt lat="45.656369275079236" lon="11.68653373374668"><ele>53.0</ele><time>2026-03-22T11:09:46Z</time></trkpt><trkpt lat="45.656232439324036" lon="11.686716028247853"><ele>53.0</ele><time>2026-03-22T11:09:47Z</time></trkpt><trkpt lat="45.656094002865906" lon="11.686905071696192"><ele>53.0</ele><time>2026-03-22T11:09:48Z</time></trkpt><trkpt lat="45.65595973710567" lon="11.687088726654041"><ele>53.0</ele><time>2026-03-22T11:09:49Z</time></trkpt><trkpt lat="45.65582809089692" lon="11.68726879854989"><ele>53.0</ele><time>2026-03-22T11:09:50Z</time></trkpt><trkpt lat="45.655702792397776" lon="11.687437903399902"><ele>53.0</ele><time>2026-03-22T11:09:51Z</time></trkpt><trkpt lat="45.655573837268804" lon="11.687606172438855"><ele>53.0</ele><time>2026-03-22T11:09:52Z</time></trkpt><trkpt lat="45.65546553131646" lon="11.687747648846543"><ele>53.0</ele><time>2026-03-22T11:09:53Z</time></trkpt><trkpt lat="45.6553665892439" lon="11.68788113594836"><ele>53.0</ele><time>2026-03-22T11:09:54Z</time></trkpt><trkpt lat="45.6552821826751" lon="11.688040645905883"><ele>53.0</ele><time>2026-03-22T11:09:55Z</time></trkpt><trkpt lat="45.65518234317701" lon="11.688207789552155"><ele>53.0</ele><time>2026-03-22T11:09:56Z</time></trkpt><trkpt lat="45.655103143266466" lon="11.688431308537398"><ele>53.333333333333336</ele><time>2026-03-22T11:09:57Z</time></trkpt><trkpt lat="45.65502854728029" lon="11.688663702038005"><ele>53.66666666666667</ele><time>2026-03-22T11:09:58Z</time></trkpt><trkpt lat="45.65496219094258" lon="11.688887600312171"><ele>54.0</ele><time>2026-03-22T11:09:59Z</time></trkpt><trkpt lat="45.65490316401606" lon="11.689077812088298"><ele>54.0</ele><time>2026-03-22T11:10:00Z</time></trkpt><trkpt lat="45.65484567220903" lon="11.689251708158796"><ele>54.0</ele><time>2026-03-22T11:10:01Z</time></trkpt><trkpt lat="45.654760553231924" lon="11.689388699680677"><ele>54.0</ele><time>2026-03-22T11:10:02Z</time></trkpt><trkpt lat="45.65463865647377" lon="11.689521971431606"><ele>54.0</ele><time>2026-03-22T11:10:03Z</time></trkpt><trkpt lat="45.65448490488951" lon="11.68965637376175"><ele>54.0</ele><time>2026-03-22T11:10:03.999Z</time></trkpt><trkpt lat="45.65432569687525" lon="11.689793267924733"><ele>54.0</ele><time>2026-03-22T11:10:04.999Z</time></trkpt><trkpt lat="45.654157690017094" lon="11.689935245879164"><ele>54.0</ele><time>2026-03-22T11:10:05.999Z</time></trkpt><trkpt lat="45.65398054914681" lon="11.690084942217512"><ele>54.0</ele><time>2026-03-22T11:10:06.999Z</time></trkpt><trkpt lat="45.6537898418001" lon="11.690246103966125"><ele>54.0</ele><time>2026-03-22T11:10:07.999Z</time></trkpt><trkpt lat="45.65359967994347" lon="11.690406804291738"><ele>54.0</ele><time>2026-03-22T11:10:08.999Z</time></trkpt><trkpt lat="45.653414597182596" lon="11.690560769459347"><ele>53.0</ele><time>2026-03-22T11:10:09.999Z</time></trkpt><trkpt lat="45.653230206161574" lon="11.690710135055223"><ele>52.0</ele><time>2026-03-22T11:10:10.999Z</time></trkpt><trkpt lat="45.65304183000233" lon="11.69086272859224"><ele>51.0</ele><time>2026-03-22T11:10:11.999Z</time></trkpt><trkpt lat="45.652847059233274" lon="11.691020502067431"><ele>51.5</ele><time>2026-03-22T11:10:12.999Z</time></trkpt><trkpt lat="45.65265040749545" lon="11.691179799007864"><ele>52.0</ele><time>2026-03-22T11:10:13.999Z</time></trkpt><trkpt lat="45.65245537353042" lon="11.69133685507707"><ele>52.0</ele><time>2026-03-22T11:10:14.999Z</time></trkpt><trkpt lat="45.65225825940326" lon="11.691495626310093"><ele>52.0</ele><time>2026-03-22T11:10:15.999Z</time></trkpt><trkpt lat="45.65205770733672" lon="11.69165718040423"><ele>51.666666666666664</ele><time>2026-03-22T11:10:16.999Z</time></trkpt><trkpt lat="45.65186262069122" lon="11.691814331756781"><ele>51.33333333333333</ele><time>2026-03-22T11:10:17.999Z</time></trkpt><trkpt lat="45.651687293023116" lon="11.691956988320579"><ele>51.0</ele><time>2026-03-22T11:10:18.999Z</time></trkpt><trkpt lat="45.65152775200851" lon="11.692087368991967"><ele>51.0</ele><time>2026-03-22T11:10:19.999Z</time></trkpt><trkpt lat="45.65138272805673" lon="11.692205885881794"><ele>51.0</ele><time>2026-03-22T11:10:20.999Z</time></trkpt><trkpt lat="45.651240582866556" lon="11.692321645931067"><ele>51.0</ele><time>2026-03-22T11:10:21.999Z</time></trkpt><trkpt lat="45.65109651644595" lon="11.692418347585246"><ele>50.66666666666667</ele><time>2026-03-22T11:10:22.999Z</time></trkpt><trkpt lat="45.650935001937604" lon="11.692496400124432"><ele>50.333333333333336</ele><time>2026-03-22T11:10:23.999Z</time></trkpt><trkpt lat="45.650758838050365" lon="11.692554996084374"><ele>50.0</ele><time>2026-03-22T11:10:24.999Z</time></trkpt><trkpt lat="45.65056629940942" lon="11.69260808093225"><ele>50.0</ele><time>2026-03-22T11:10:25.999Z</time></trkpt><trkpt lat="45.65014149411358" lon="11.692725265126176"><ele>50.0</ele><time>2026-03-22T11:10:27.999Z</time></trkpt><trkpt lat="45.649898695674366" lon="11.692795292402645"><ele>49.5</ele><time>2026-03-22T11:10:28.999Z</time></trkpt><trkpt lat="45.64962833827513" lon="11.692873268032107"><ele>49.0</ele><time>2026-03-22T11:10:29.999Z</time></trkpt><trkpt lat="45.6493512220221" lon="11.692955851658658"><ele>49.0</ele><time>2026-03-22T11:10:30.999Z</time></trkpt><trkpt lat="45.6490822477013" lon="11.69304740375489"><ele>49.0</ele><time>2026-03-22T11:10:31.999Z</time></trkpt><trkpt lat="45.64884283790289" lon="11.693144933751265"><ele>49.0</ele><time>2026-03-22T11:10:32.999Z</time></trkpt><trkpt lat="45.64863200912995" lon="11.693229411635883"><ele>49.0</ele><time>2026-03-22T11:10:33.999Z</time></trkpt><trkpt lat="45.64845591633094" lon="11.693294020980058"><ele>49.0</ele><time>2026-03-22T11:10:34.999Z</time></trkpt><trkpt lat="45.648305288707846" lon="11.693341066141008"><ele>48.99999999999999</ele><time>2026-03-22T11:10:35.999Z</time></trkpt><trkpt lat="45.6481875623266" lon="11.693371690898973"><ele>49.0</ele><time>2026-03-22T11:10:36.999Z</time></trkpt><trkpt lat="45.64808778627725" lon="11.693395860894318"><ele>49.0</ele><time>2026-03-22T11:10:37.999Z</time></trkpt><trkpt lat="45.64801255833773" lon="11.693390561064472"><ele>49.0</ele><time>2026-03-22T11:10:38.999Z</time></trkpt><trkpt lat="45.647942340562544" lon="11.6933269397508"><ele>48.99999999999999</ele><time>2026-03-22T11:10:39.999Z</time></trkpt><trkpt lat="45.6478785090255" lon="11.693294205331812"><ele>49.0</ele><time>2026-03-22T11:10:40.999Z</time></trkpt><trkpt lat="45.647761858758095" lon="11.693366151717882"><ele>49.0</ele><time>2026-03-22T11:10:42.999Z</time></trkpt><trkpt lat="45.647746495230095" lon="11.693498904115291"><ele>49.0</ele><time>2026-03-22T11:10:43.999Z</time></trkpt><trkpt lat="45.64776148969245" lon="11.693628223219248"><ele>49.0</ele><time>2026-03-22T11:10:44.999Z</time></trkpt><trkpt lat="45.647818097198936" lon="11.69374688692961"><ele>49.0</ele><time>2026-03-22T11:10:45.999Z</time></trkpt><trkpt lat="45.64777481974589" lon="11.69388204106097"><ele>49.0</ele><time>2026-03-22T11:10:46.999Z</time></trkpt><trkpt lat="45.647773341104745" lon="11.694069713139658"><ele>49.0</ele><time>2026-03-22T11:10:47.999Z</time></trkpt><trkpt lat="45.64778071625786" lon="11.694293917083899"><ele>49.0</ele><time>2026-03-22T11:10:48.999Z</time></trkpt><trkpt lat="45.647790580560184" lon="11.694539954987413"><ele>49.0</ele><time>2026-03-22T11:10:50Z</time></trkpt><trkpt lat="45.64780326643753" lon="11.694818916947096"><ele>49.0</ele><time>2026-03-22T11:10:51Z</time></trkpt><trkpt lat="45.64782434690591" lon="11.695109247679842"><ele>49.0</ele><time>2026-03-22T11:10:52Z</time></trkpt><trkpt lat="45.64786533794784" lon="11.695409233913225"><ele>49.0</ele><time>2026-03-22T11:10:53Z</time></trkpt><trkpt lat="45.64792739373528" lon="11.69565288441451"><ele>49.666666666666664</ele><time>2026-03-22T11:10:54Z</time></trkpt><trkpt lat="45.64799547376433" lon="11.695876817885734"><ele>50.33333333333333</ele><time>2026-03-22T11:10:55Z</time></trkpt><trkpt lat="45.64806242016549" lon="11.696069711831877"><ele>51.0</ele><time>2026-03-22T11:10:56Z</time></trkpt><trkpt lat="45.64812217359683" lon="11.69623834104025"><ele>51.0</ele><time>2026-03-22T11:10:57Z</time></trkpt><trkpt lat="45.64817856659238" lon="11.696392957614135"><ele>51.0</ele><time>2026-03-22T11:10:58Z</time></trkpt><trkpt lat="45.64822554731664" lon="11.696527174934229"><ele>51.0</ele><time>2026-03-22T11:10:59Z</time></trkpt><trkpt lat="45.6482714369978" lon="11.696659913774548"><ele>51.0</ele><time>2026-03-22T11:11:00Z</time></trkpt><trkpt lat="45.64831299436685" lon="11.696779931817176"><ele>51.0</ele><time>2026-03-22T11:11:01Z</time></trkpt><trkpt lat="45.648364671655294" lon="11.696880559715508"><ele>51.0</ele><time>2026-03-22T11:11:02Z</time></trkpt><trkpt lat="45.64834451273315" lon="11.697000461584155"><ele>51.0</ele><time>2026-03-22T11:11:03Z</time></trkpt><trkpt lat="45.648256152096415" lon="11.697092372291138"><ele>51.0</ele><time>2026-03-22T11:11:04Z</time></trkpt><trkpt lat="45.64819118063058" lon="11.697247903785863"><ele>51.0</ele><time>2026-03-22T11:11:05Z</time></trkpt><trkpt lat="45.648061171685974" lon="11.69735236147934"><ele>51.0</ele><time>2026-03-22T11:11:06Z</time></trkpt><trkpt lat="45.64791776548155" lon="11.697433880388335"><ele>51.0</ele><time>2026-03-22T11:11:07Z</time></trkpt><trkpt lat="45.64774081235494" lon="11.697492079567397"><ele>51.0</ele><time>2026-03-22T11:11:08Z</time></trkpt><trkpt lat="45.64754891058861" lon="11.69756068598448"><ele>51.0</ele><time>2026-03-22T11:11:09Z</time></trkpt><trkpt lat="45.647355172294546" lon="11.69763245896161"><ele>51.0</ele><time>2026-03-22T11:11:10Z</time></trkpt><trkpt lat="45.64715731153598" lon="11.697709169929887"><ele>51.0</ele><time>2026-03-22T11:11:11Z</time></trkpt><trkpt lat="45.64694539392619" lon="11.697787430253523"><ele>51.0</ele><time>2026-03-22T11:11:12Z</time></trkpt><trkpt lat="45.64673047588642" lon="11.69785519932507"><ele>51.0</ele><time>2026-03-22T11:11:13Z</time></trkpt><trkpt lat="45.64651472646761" lon="11.697919868227467"><ele>51.0</ele><time>2026-03-22T11:11:14Z</time></trkpt><trkpt lat="45.646303006442835" lon="11.697996115370772"><ele>50.66666666666667</ele><time>2026-03-22T11:11:15Z</time></trkpt><trkpt lat="45.64609907167345" lon="11.698062383359826"><ele>50.333333333333336</ele><time>2026-03-22T11:11:16Z</time></trkpt><trkpt lat="45.645895263914106" lon="11.698100391037736"><ele>50.0</ele><time>2026-03-22T11:11:17Z</time></trkpt><trkpt lat="45.64569868584444" lon="11.69810918899887"><ele>50.0</ele><time>2026-03-22T11:11:18Z</time></trkpt><trkpt lat="45.645519076567936" lon="11.69808093812838"><ele>50.0</ele><time>2026-03-22T11:11:19Z</time></trkpt><trkpt lat="45.64534957100868" lon="11.698026298000377"><ele>50.0</ele><time>2026-03-22T11:11:20Z</time></trkpt><trkpt lat="45.645174566711276" lon="11.697974046680699"><ele>49.333333333333336</ele><time>2026-03-22T11:11:21Z</time></trkpt><trkpt lat="45.64499427030512" lon="11.697944396677899"><ele>48.66666666666667</ele><time>2026-03-22T11:11:22Z</time></trkpt><trkpt lat="45.64481317190395" lon="11.697955384163489"><ele>48.0</ele><time>2026-03-22T11:11:23Z</time></trkpt><trkpt lat="45.644616349998664" lon="11.697986740108762"><ele>48.0</ele><time>2026-03-22T11:11:24Z</time></trkpt><trkpt lat="45.644420900207905" lon="11.698053477188092"><ele>48.0</ele><time>2026-03-22T11:11:25Z</time></trkpt><trkpt lat="45.644228888078125" lon="11.698166162555468"><ele>48.0</ele><time>2026-03-22T11:11:26Z</time></trkpt><trkpt lat="45.64403472224247" lon="11.698303609448987"><ele>48.0</ele><time>2026-03-22T11:11:27Z</time></trkpt><trkpt lat="45.643852736273246" lon="11.698459402391745"><ele>48.0</ele><time>2026-03-22T11:11:28Z</time></trkpt><trkpt lat="45.64368205884371" lon="11.698640876425092"><ele>48.0</ele><time>2026-03-22T11:11:29Z</time></trkpt><trkpt lat="45.64352505224817" lon="11.698846109928386"><ele>48.0</ele><time>2026-03-22T11:11:30Z</time></trkpt><trkpt lat="45.64337807237731" lon="11.699069442661887"><ele>48.0</ele><time>2026-03-22T11:11:31Z</time></trkpt><trkpt lat="45.643221063600016" lon="11.699294613268792"><ele>48.0</ele><time>2026-03-22T11:11:32Z</time></trkpt><trkpt lat="45.64304777571256" lon="11.69950154231294"><ele>47.5</ele><time>2026-03-22T11:11:33Z</time></trkpt><trkpt lat="45.642859536666364" lon="11.699693269294563"><ele>47.0</ele><time>2026-03-22T11:11:34Z</time></trkpt><trkpt lat="45.6426652998417" lon="11.699878188684304"><ele>46.666666666666664</ele><time>2026-03-22T11:11:35Z</time></trkpt><trkpt lat="45.64248556157875" lon="11.700040735160572"><ele>46.333333333333336</ele><time>2026-03-22T11:11:36Z</time></trkpt><trkpt lat="45.64231620465547" lon="11.70018379670414"><ele>46.0</ele><time>2026-03-22T11:11:37Z</time></trkpt><trkpt lat="45.64216424629655" lon="11.70029069988145"><ele>46.0</ele><time>2026-03-22T11:11:38Z</time></trkpt><trkpt lat="45.64200949898999" lon="11.700358141177343"><ele>46.0</ele><time>2026-03-22T11:11:39Z</time></trkpt><trkpt lat="45.64185506382535" lon="11.700364663872849"><ele>46.0</ele><time>2026-03-22T11:11:40Z</time></trkpt><trkpt lat="45.64167493737415" lon="11.700327564518625"><ele>45.66666666666667</ele><time>2026-03-22T11:11:41Z</time></trkpt><trkpt lat="45.64147574631799" lon="11.70029871819667"><ele>45.333333333333336</ele><time>2026-03-22T11:11:42Z</time></trkpt><trkpt lat="45.64127202415495" lon="11.70030977782989"><ele>45.0</ele><time>2026-03-22T11:11:43Z</time></trkpt><trkpt lat="45.6410742955551" lon="11.700372153648429"><ele>45.0</ele><time>2026-03-22T11:11:44Z</time></trkpt><trkpt lat="45.64086230685542" lon="11.700461477282508"><ele>45.0</ele><time>2026-03-22T11:11:45Z</time></trkpt><trkpt lat="45.6406560243304" lon="11.700572286405569"><ele>45.0</ele><time>2026-03-22T11:11:46Z</time></trkpt><trkpt lat="45.64045290930187" lon="11.700702845974604"><ele>45.5</ele><time>2026-03-22T11:11:47Z</time></trkpt><trkpt lat="45.64024224858574" lon="11.700842926728475"><ele>46.0</ele><time>2026-03-22T11:11:48Z</time></trkpt><trkpt lat="45.64002424182972" lon="11.70097456069289"><ele>46.66666666666667</ele><time>2026-03-22T11:11:49Z</time></trkpt><trkpt lat="45.639837281624246" lon="11.701101206724504"><ele>47.333333333333336</ele><time>2026-03-22T11:11:50Z</time></trkpt><trkpt lat="45.63967854914306" lon="11.701159965988259"><ele>48.0</ele><time>2026-03-22T11:11:51Z</time></trkpt><trkpt lat="45.63952407307245" lon="11.70120876059132"><ele>47.666666666666664</ele><time>2026-03-22T11:11:52Z</time></trkpt><trkpt lat="45.63933452028244" lon="11.701140079523068"><ele>47.33333333333333</ele><time>2026-03-22T11:11:53Z</time></trkpt><trkpt lat="45.63912164416937" lon="11.701107321103692"><ele>47.0</ele><time>2026-03-22T11:11:54Z</time></trkpt><trkpt lat="45.63889797779953" lon="11.701042476083602"><ele>47.0</ele><time>2026-03-22T11:11:55Z</time></trkpt><trkpt lat="45.63867537774588" lon="11.701001919657791"><ele>47.0</ele><time>2026-03-22T11:11:56Z</time></trkpt><trkpt lat="45.63846044431952" lon="11.700980002932925"><ele>47.0</ele><time>2026-03-22T11:11:57Z</time></trkpt><trkpt lat="45.63824307723911" lon="11.70097470000914"><ele>46.666666666666664</ele><time>2026-03-22T11:11:58Z</time></trkpt><trkpt lat="45.6380283744518" lon="11.70099546725509"><ele>46.333333333333336</ele><time>2026-03-22T11:11:59Z</time></trkpt><trkpt lat="45.63780662857715" lon="11.701039169019097"><ele>46.0</ele><time>2026-03-22T11:12:00Z</time></trkpt><trkpt lat="45.63758520022342" lon="11.70108124673876"><ele>45.66666666666667</ele><time>2026-03-22T11:12:01Z</time></trkpt><trkpt lat="45.63737493310727" lon="11.701159257386925"><ele>45.333333333333336</ele><time>2026-03-22T11:12:02Z</time></trkpt><trkpt lat="45.6371732992714" lon="11.70125516462172"><ele>45.0</ele><time>2026-03-22T11:12:03Z</time></trkpt><trkpt lat="45.636963865158656" lon="11.701365942650018"><ele>44.666666666666664</ele><time>2026-03-22T11:12:04Z</time></trkpt><trkpt lat="45.63675473679332" lon="11.701471217024844"><ele>44.33333333333333</ele><time>2026-03-22T11:12:05Z</time></trkpt><trkpt lat="45.63654375423313" lon="11.701552917765353"><ele>44.0</ele><time>2026-03-22T11:12:06Z</time></trkpt><trkpt lat="45.63632521937251" lon="11.701616743549671"><ele>44.5</ele><time>2026-03-22T11:12:07Z</time></trkpt><trkpt lat="45.636097409706096" lon="11.70168054548093"><ele>45.0</ele><time>2026-03-22T11:12:08Z</time></trkpt><trkpt lat="45.635870037564004" lon="11.70178015149017"><ele>45.0</ele><time>2026-03-22T11:12:09Z</time></trkpt><trkpt lat="45.63563331550689" lon="11.701839173652127"><ele>45.0</ele><time>2026-03-22T11:12:10Z</time></trkpt><trkpt lat="45.63539545033497" lon="11.701910003057769"><ele>44.0</ele><time>2026-03-22T11:12:11Z</time></trkpt><trkpt lat="45.63514233434875" lon="11.701987850727795"><ele>43.0</ele><time>2026-03-22T11:12:12Z</time></trkpt><trkpt lat="45.634881440499186" lon="11.70203125192427"><ele>43.0</ele><time>2026-03-22T11:12:13Z</time></trkpt><trkpt lat="45.63462441907692" lon="11.702105959583124"><ele>43.0</ele><time>2026-03-22T11:12:14Z</time></trkpt><trkpt lat="45.6343830013254" lon="11.702176840451827"><ele>43.0</ele><time>2026-03-22T11:12:14.999Z</time></trkpt><trkpt lat="45.63416194286072" lon="11.702241743798625"><ele>43.0</ele><time>2026-03-22T11:12:15.999Z</time></trkpt><trkpt lat="45.63394997342587" lon="11.702303912448835"><ele>43.0</ele><time>2026-03-22T11:12:16.999Z</time></trkpt><trkpt lat="45.633730763929854" lon="11.702368036747965"><ele>43.333333333333336</ele><time>2026-03-22T11:12:17.999Z</time></trkpt><trkpt lat="45.63352463316621" lon="11.702428335190653"><ele>43.666666666666664</ele><time>2026-03-22T11:12:18.999Z</time></trkpt><trkpt lat="45.633330643242324" lon="11.702485082150773"><ele>44.0</ele><time>2026-03-22T11:12:19.999Z</time></trkpt><trkpt lat="45.633152872213294" lon="11.702536565241767"><ele>44.0</ele><time>2026-03-22T11:12:20.999Z</time></trkpt><trkpt lat="45.63299552912818" lon="11.702582169922218"><ele>44.0</ele><time>2026-03-22T11:12:21.999Z</time></trkpt><trkpt lat="45.632851794539995" lon="11.70264787104301"><ele>44.0</ele><time>2026-03-22T11:12:22.999Z</time></trkpt><trkpt lat="45.63273682016844" lon="11.702674789228327"><ele>44.0</ele><time>2026-03-22T11:12:23.999Z</time></trkpt><trkpt lat="45.632644591027145" lon="11.702700489238342"><ele>44.0</ele><time>2026-03-22T11:12:24.999Z</time></trkpt><trkpt lat="45.63254257745864" lon="11.702730889590441"><ele>44.0</ele><time>2026-03-22T11:12:25.999Z</time></trkpt><trkpt lat="45.63244926117401" lon="11.702760451522861"><ele>44.0</ele><time>2026-03-22T11:12:26.999Z</time></trkpt><trkpt lat="45.63236117178172" lon="11.702785933659019"><ele>44.0</ele><time>2026-03-22T11:12:27.999Z</time></trkpt><trkpt lat="45.63228279343048" lon="11.702804292339774"><ele>44.0</ele><time>2026-03-22T11:12:28.999Z</time></trkpt><trkpt lat="45.63221155075525" lon="11.702825938141524"><ele>44.0</ele><time>2026-03-22T11:12:29.999Z</time></trkpt><trkpt lat="45.63209215978461" lon="11.702853770319008"><ele>44.0</ele><time>2026-03-22T11:12:31.999Z</time></trkpt><trkpt lat="45.63198646891283" lon="11.702879955216247"><ele>44.0</ele><time>2026-03-22T11:12:33.999Z</time></trkpt><trkpt lat="45.63190188293277" lon="11.702898795196038"><ele>44.0</ele><time>2026-03-22T11:12:34.999Z</time></trkpt><trkpt lat="45.63179842674154" lon="11.702961861117833"><ele>44.0</ele><time>2026-03-22T11:12:35.999Z</time></trkpt><trkpt lat="45.63165499421367" lon="11.702991891285931"><ele>44.33333333333333</ele><time>2026-03-22T11:12:36.999Z</time></trkpt><trkpt lat="45.6315058151537" lon="11.70300498278853"><ele>44.666666666666664</ele><time>2026-03-22T11:12:37.999Z</time></trkpt><trkpt lat="45.631357231228776" lon="11.703006492483006"><ele>45.0</ele><time>2026-03-22T11:12:38.999Z</time></trkpt><trkpt lat="45.63120575473758" lon="11.702972727977668"><ele>44.333333333333336</ele><time>2026-03-22T11:12:39.999Z</time></trkpt><trkpt lat="45.631044857360955" lon="11.70291001419059"><ele>43.66666666666667</ele><time>2026-03-22T11:12:40.999Z</time></trkpt><trkpt lat="45.63086635944291" lon="11.702840444109752"><ele>43.0</ele><time>2026-03-22T11:12:41.999Z</time></trkpt><trkpt lat="45.63071678122854" lon="11.70276957024125"><ele>43.333333333333336</ele><time>2026-03-22T11:12:42.999Z</time></trkpt><trkpt lat="45.630543175291436" lon="11.70268018769408"><ele>43.666666666666664</ele><time>2026-03-22T11:12:43.999Z</time></trkpt><trkpt lat="45.6303599796978" lon="11.702601648603645"><ele>44.0</ele><time>2026-03-22T11:12:44.999Z</time></trkpt><trkpt lat="45.63020261673719" lon="11.702524909936269"><ele>44.0</ele><time>2026-03-22T11:12:45.999Z</time></trkpt><trkpt lat="45.63005710211485" lon="11.702452769103008"><ele>44.0</ele><time>2026-03-22T11:12:46.999Z</time></trkpt><trkpt lat="45.629916837832155" lon="11.702395072594438"><ele>44.0</ele><time>2026-03-22T11:12:47.999Z</time></trkpt><trkpt lat="45.62979079986913" lon="11.702344264678795"><ele>44.0</ele><time>2026-03-22T11:12:48.999Z</time></trkpt><trkpt lat="45.62968122449487" lon="11.702296283176057"><ele>44.0</ele><time>2026-03-22T11:12:49.999Z</time></trkpt><trkpt lat="45.62957686542021" lon="11.702262565400135"><ele>44.0</ele><time>2026-03-22T11:12:50.999Z</time></trkpt><trkpt lat="45.62948104494462" lon="11.70224451447256"><ele>44.0</ele><time>2026-03-22T11:12:51.999Z</time></trkpt><trkpt lat="45.62938651865059" lon="11.702224310635724"><ele>44.0</ele><time>2026-03-22T11:12:52.999Z</time></trkpt><trkpt lat="45.62931170539113" lon="11.702210912351752"><ele>44.0</ele><time>2026-03-22T11:12:53.999Z</time></trkpt><trkpt lat="45.62920842162283" lon="11.702212108481008"><ele>44.0</ele><time>2026-03-22T11:12:56Z</time></trkpt><trkpt lat="45.62912896832559" lon="11.702189672700955"><ele>44.0</ele><time>2026-03-22T11:12:59Z</time></trkpt><trkpt lat="45.62906010303197" lon="11.70213572094222"><ele>44.0</ele><time>2026-03-22T11:13:04Z</time></trkpt><trkpt lat="45.6290314566716" lon="11.70196855671067"><ele>44.0</ele><time>2026-03-22T11:13:05Z</time></trkpt><trkpt lat="45.62901247418765" lon="11.7018358525909"><ele>44.0</ele><time>2026-03-22T11:13:06Z</time></trkpt><trkpt lat="45.62900219261883" lon="11.701718952538949"><ele>44.0</ele><time>2026-03-22T11:13:07Z</time></trkpt><trkpt lat="45.62899022246567" lon="11.701584303761738"><ele>44.0</ele><time>2026-03-22T11:13:08Z</time></trkpt><trkpt lat="45.62897262504625" lon="11.701464388881353"><ele>44.0</ele><time>2026-03-22T11:13:09Z</time></trkpt><trkpt lat="45.628954009599695" lon="11.701347138121436"><ele>44.0</ele><time>2026-03-22T11:13:10Z</time></trkpt><trkpt lat="45.62893685894834" lon="11.701243598965057"><ele>44.0</ele><time>2026-03-22T11:13:11Z</time></trkpt><trkpt lat="45.62892408114596" lon="11.70114368620177"><ele>44.0</ele><time>2026-03-22T11:13:12Z</time></trkpt><trkpt lat="45.628914238619494" lon="11.701053767621788"><ele>44.0</ele><time>2026-03-22T11:13:13Z</time></trkpt><trkpt lat="45.628887795581484" lon="11.70089693855289"><ele>44.0</ele><time>2026-03-22T11:13:15Z</time></trkpt><trkpt lat="45.62887191452732" lon="11.700803263392723"><ele>44.0</ele><time>2026-03-22T11:13:16Z</time></trkpt><trkpt lat="45.62885913571489" lon="11.700706562713147"><ele>44.0</ele><time>2026-03-22T11:13:17Z</time></trkpt><trkpt lat="45.628845367977874" lon="11.700609025388383"><ele>44.0</ele><time>2026-03-22T11:13:18Z</time></trkpt><trkpt lat="45.62883266529508" lon="11.700510373487957"><ele>44.0</ele><time>2026-03-22T11:13:19Z</time></trkpt><trkpt lat="45.628818149280505" lon="11.700407040871815"><ele>44.0</ele><time>2026-03-22T11:13:20Z</time></trkpt><trkpt lat="45.62880284313052" lon="11.700303719274423"><ele>44.0</ele><time>2026-03-22T11:13:21Z</time></trkpt><trkpt lat="45.62878991823905" lon="11.700199183496574"><ele>44.0</ele><time>2026-03-22T11:13:22Z</time></trkpt><trkpt lat="45.62877753287707" lon="11.700101816189857"><ele>44.0</ele><time>2026-03-22T11:13:23Z</time></trkpt><trkpt lat="45.62876264571635" lon="11.700011996514489"><ele>44.0</ele><time>2026-03-22T11:13:24Z</time></trkpt><trkpt lat="45.62874448787854" lon="11.699910165997906"><ele>44.0</ele><time>2026-03-22T11:13:25Z</time></trkpt><trkpt lat="45.62873138145198" lon="11.699793433365702"><ele>44.0</ele><time>2026-03-22T11:13:26Z</time></trkpt><trkpt lat="45.62871892776539" lon="11.699668206564251"><ele>44.25</ele><time>2026-03-22T11:13:27Z</time></trkpt><trkpt lat="45.62870445231407" lon="11.699510330853808"><ele>44.5</ele><time>2026-03-22T11:13:28Z</time></trkpt><trkpt lat="45.62866974677997" lon="11.699310668781168"><ele>44.75</ele><time>2026-03-22T11:13:29Z</time></trkpt><trkpt lat="45.62863152594099" lon="11.6991394714815"><ele>45.0</ele><time>2026-03-22T11:13:30Z</time></trkpt><trkpt lat="45.628616931215916" lon="11.699002547602639"><ele>45.166666666666664</ele><time>2026-03-22T11:13:31Z</time></trkpt><trkpt lat="45.62860122245539" lon="11.698876190318225"><ele>45.333333333333336</ele><time>2026-03-22T11:13:32Z</time></trkpt><trkpt lat="45.62858965420498" lon="11.698771754846089"><ele>45.5</ele><time>2026-03-22T11:13:33Z</time></trkpt><trkpt lat="45.628572036522684" lon="11.69867796220584"><ele>45.66666666666667</ele><time>2026-03-22T11:13:34Z</time></trkpt><trkpt lat="45.628530716627246" lon="11.698600684910678"><ele>45.833333333333336</ele><time>2026-03-22T11:13:35Z</time></trkpt><trkpt lat="45.628481046835184" lon="11.698544399530627"><ele>46.0</ele><time>2026-03-22T11:13:36Z</time></trkpt><trkpt lat="45.628381501059266" lon="11.698566237091228"><ele>46.0</ele><time>2026-03-22T11:13:37Z</time></trkpt><trkpt lat="45.628284831289186" lon="11.6985642147456"><ele>46.0</ele><time>2026-03-22T11:13:38Z</time></trkpt><trkpt lat="45.628186719089804" lon="11.69860697944418"><ele>46.0</ele><time>2026-03-22T11:13:39Z</time></trkpt><trkpt lat="45.628092152078196" lon="11.698615200556253"><ele>46.0</ele><time>2026-03-22T11:13:40Z</time></trkpt><trkpt lat="45.62799787156998" lon="11.698643648874953"><ele>46.0</ele><time>2026-03-22T11:13:41Z</time></trkpt><trkpt lat="45.627898820375265" lon="11.698664640144123"><ele>45.599999999999994</ele><time>2026-03-22T11:13:42Z</time></trkpt><trkpt lat="45.62779271121993" lon="11.698681796760628"><ele>45.2</ele><time>2026-03-22T11:13:43Z</time></trkpt><trkpt lat="45.62768467833884" lon="11.698688053143865"><ele>44.8</ele><time>2026-03-22T11:13:44Z</time></trkpt><trkpt lat="45.62756639465024" lon="11.698692166374624"><ele>44.400000000000006</ele><time>2026-03-22T11:13:45Z</time></trkpt><trkpt lat="45.62745217636034" lon="11.698696705545494"><ele>44.0</ele><time>2026-03-22T11:13:46Z</time></trkpt><trkpt lat="45.62734741403298" lon="11.698679895279966"><ele>44.0</ele><time>2026-03-22T11:13:47Z</time></trkpt><trkpt lat="45.62724774565142" lon="11.698690482203366"><ele>44.0</ele><time>2026-03-22T11:13:48Z</time></trkpt><trkpt lat="45.62716263858649" lon="11.698712429548499"><ele>44.0</ele><time>2026-03-22T11:13:49Z</time></trkpt><trkpt lat="45.62708410542722" lon="11.698731828143309"><ele>44.0</ele><time>2026-03-22T11:13:50Z</time></trkpt><trkpt lat="45.62702171421773" lon="11.698747281395587"><ele>44.0</ele><time>2026-03-22T11:13:51Z</time></trkpt><trkpt lat="45.62694647868943" lon="11.698739747234317"><ele>44.0</ele><time>2026-03-22T11:13:56Z</time></trkpt><trkpt lat="45.62682931649376" lon="11.69867436737782"><ele>43.666666666666664</ele><time>2026-03-22T11:13:58Z</time></trkpt><trkpt lat="45.62672408410376" lon="11.69862420891314"><ele>43.33333333333333</ele><time>2026-03-22T11:14:00Z</time></trkpt><trkpt lat="45.62666100052612" lon="11.698628961492558"><ele>43.0</ele><time>2026-03-22T11:14:01Z</time></trkpt><trkpt lat="45.62658436510212" lon="11.698628525392506"><ele>42.666666666666664</ele><time>2026-03-22T11:14:02Z</time></trkpt><trkpt lat="45.62649853736955" lon="11.698619737291349"><ele>42.333333333333336</ele><time>2026-03-22T11:14:03Z</time></trkpt><trkpt lat="45.62639725144337" lon="11.698611489562667"><ele>42.0</ele><time>2026-03-22T11:14:04Z</time></trkpt><trkpt lat="45.62629345888623" lon="11.698600633323032"><ele>42.0</ele><time>2026-03-22T11:14:05Z</time></trkpt><trkpt lat="45.626181474232524" lon="11.698585310170488"><ele>42.0</ele><time>2026-03-22T11:14:06Z</time></trkpt><trkpt lat="45.626060514029525" lon="11.698571918142225"><ele>42.0</ele><time>2026-03-22T11:14:07Z</time></trkpt><trkpt lat="45.625944795683594" lon="11.698568351348186"><ele>42.0</ele><time>2026-03-22T11:14:07.999Z</time></trkpt><trkpt lat="45.625827601740504" lon="11.698560228067224"><ele>42.5</ele><time>2026-03-22T11:14:08.999Z</time></trkpt><trkpt lat="45.62571257340249" lon="11.698549728907524"><ele>43.0</ele><time>2026-03-22T11:14:09.999Z</time></trkpt><trkpt lat="45.625599855602694" lon="11.698536392346098"><ele>43.5</ele><time>2026-03-22T11:14:10.999Z</time></trkpt><trkpt lat="45.62548215458599" lon="11.698528784925584"><ele>44.0</ele><time>2026-03-22T11:14:11.999Z</time></trkpt><trkpt lat="45.62535888960132" lon="11.698515291508905"><ele>44.0</ele><time>2026-03-22T11:14:12.999Z</time></trkpt><trkpt lat="45.625237255746015" lon="11.698505630609194"><ele>44.0</ele><time>2026-03-22T11:14:13.999Z</time></trkpt><trkpt lat="45.62510873364209" lon="11.69849703297379"><ele>44.0</ele><time>2026-03-22T11:14:14.999Z</time></trkpt><trkpt lat="45.624977322320156" lon="11.698486162988317"><ele>44.0</ele><time>2026-03-22T11:14:15.999Z</time></trkpt><trkpt lat="45.6248479421475" lon="11.698470988666827"><ele>44.0</ele><time>2026-03-22T11:14:16.999Z</time></trkpt><trkpt lat="45.624721013441196" lon="11.698466679343037"><ele>44.0</ele><time>2026-03-22T11:14:17.999Z</time></trkpt><trkpt lat="45.624600345365415" lon="11.698435576941034"><ele>44.0</ele><time>2026-03-22T11:14:18.999Z</time></trkpt><trkpt lat="45.624482637732164" lon="11.6984255758661"><ele>44.0</ele><time>2026-03-22T11:14:19.999Z</time></trkpt><trkpt lat="45.62436305875325" lon="11.69843876722758"><ele>44.0</ele><time>2026-03-22T11:14:20.999Z</time></trkpt><trkpt lat="45.624244051910495" lon="11.698418153792044"><ele>44.0</ele><time>2026-03-22T11:14:21.999Z</time></trkpt><trkpt lat="45.62412306463543" lon="11.698408717396385"><ele>44.0</ele><time>2026-03-22T11:14:22.999Z</time></trkpt><trkpt lat="45.6240001414485" lon="11.698397248063717"><ele>44.0</ele><time>2026-03-22T11:14:23.999Z</time></trkpt><trkpt lat="45.623874517289245" lon="11.698389281598724"><ele>44.0</ele><time>2026-03-22T11:14:24.999Z</time></trkpt><trkpt lat="45.62375169988642" lon="11.69837872126141"><ele>44.0</ele><time>2026-03-22T11:14:25.999Z</time></trkpt><trkpt lat="45.62362525475757" lon="11.698364458950945"><ele>44.0</ele><time>2026-03-22T11:14:26.999Z</time></trkpt><trkpt lat="45.62350638179222" lon="11.698356909801339"><ele>44.0</ele><time>2026-03-22T11:14:27.999Z</time></trkpt><trkpt lat="45.62337706178901" lon="11.698326610700732"><ele>44.0</ele><time>2026-03-22T11:14:28.999Z</time></trkpt><trkpt lat="45.62324453110753" lon="11.698313669105486"><ele>44.0</ele><time>2026-03-22T11:14:29.999Z</time></trkpt><trkpt lat="45.62310705743756" lon="11.698322636968697"><ele>44.0</ele><time>2026-03-22T11:14:30.999Z</time></trkpt><trkpt lat="45.62297807747379" lon="11.698299544368655"><ele>44.0</ele><time>2026-03-22T11:14:31.999Z</time></trkpt><trkpt lat="45.622854978198944" lon="11.698289246232966"><ele>43.75</ele><time>2026-03-22T11:14:32.999Z</time></trkpt><trkpt lat="45.6227329634471" lon="11.698274723310709"><ele>43.5</ele><time>2026-03-22T11:14:33.999Z</time></trkpt><trkpt lat="45.622606239606746" lon="11.698259818031131"><ele>43.25</ele><time>2026-03-22T11:14:34.999Z</time></trkpt><trkpt lat="45.622477890532736" lon="11.698258699481602"><ele>43.0</ele><time>2026-03-22T11:14:35.999Z</time></trkpt><trkpt lat="45.622351107648115" lon="11.698249935117905"><ele>43.0</ele><time>2026-03-22T11:14:36.999Z</time></trkpt><trkpt lat="45.62223382476485" lon="11.698233961073731"><ele>43.0</ele><time>2026-03-22T11:14:37.999Z</time></trkpt><trkpt lat="45.622122250639386" lon="11.698222020174306"><ele>43.0</ele><time>2026-03-22T11:14:38.999Z</time></trkpt><trkpt lat="45.62201279946046" lon="11.698215214760216"><ele>43.0</ele><time>2026-03-22T11:14:39.999Z</time></trkpt><trkpt lat="45.62191480681303" lon="11.698206502141554"><ele>43.0</ele><time>2026-03-22T11:14:40.999Z</time></trkpt><trkpt lat="45.62182251024752" lon="11.698197686922166"><ele>43.4</ele><time>2026-03-22T11:14:41.999Z</time></trkpt><trkpt lat="45.621725572903905" lon="11.69818605313715"><ele>43.8</ele><time>2026-03-22T11:14:42.999Z</time></trkpt><trkpt lat="45.621624456667995" lon="11.698180717450018"><ele>44.2</ele><time>2026-03-22T11:14:43.999Z</time></trkpt><trkpt lat="45.621525396780754" lon="11.69817553544996"><ele>44.6</ele><time>2026-03-22T11:14:44.999Z</time></trkpt><trkpt lat="45.621432477656164" lon="11.69816616353848"><ele>45.0</ele><time>2026-03-22T11:14:45.999Z</time></trkpt><trkpt lat="45.62135223719354" lon="11.698116569040344"><ele>45.0</ele><time>2026-03-22T11:14:46.999Z</time></trkpt><trkpt lat="45.62129665668896" lon="11.69803655031472"><ele>45.0</ele><time>2026-03-22T11:14:47.999Z</time></trkpt><trkpt lat="45.62123146622783" lon="11.697961306562878"><ele>45.0</ele><time>2026-03-22T11:14:48.999Z</time></trkpt><trkpt lat="45.62116418044778" lon="11.697936413671194"><ele>45.0</ele><time>2026-03-22T11:14:49.999Z</time></trkpt><trkpt lat="45.6210232070849" lon="11.69794808815311"><ele>45.0</ele><time>2026-03-22T11:14:51.999Z</time></trkpt><trkpt lat="45.62094275684945" lon="11.698008914148105"><ele>43.75</ele><time>2026-03-22T11:14:52.999Z</time></trkpt><trkpt lat="45.6208584063882" lon="11.698096943470244"><ele>42.5</ele><time>2026-03-22T11:14:53.999Z</time></trkpt><trkpt lat="45.62074052986654" lon="11.698075858915603"><ele>41.25</ele><time>2026-03-22T11:14:54.999Z</time></trkpt><trkpt lat="45.62060268312302" lon="11.698076067605443"><ele>40.0</ele><time>2026-03-22T11:14:55.999Z</time></trkpt><trkpt lat="45.620454298965704" lon="11.698057098225437"><ele>39.66666666666667</ele><time>2026-03-22T11:14:56.999Z</time></trkpt><trkpt lat="45.620296635986605" lon="11.698047455712613"><ele>39.333333333333336</ele><time>2026-03-22T11:14:57.999Z</time></trkpt><trkpt lat="45.620134028543696" lon="11.698035681649653"><ele>39.0</ele><time>2026-03-22T11:14:58.999Z</time></trkpt><trkpt lat="45.6199824866054" lon="11.698022421017537"><ele>39.0</ele><time>2026-03-22T11:14:59.999Z</time></trkpt><trkpt lat="45.619826107665396" lon="11.698008547663461"><ele>39.0</ele><time>2026-03-22T11:15:00.999Z</time></trkpt><trkpt lat="45.619670012732044" lon="11.697995487350486"><ele>39.0</ele><time>2026-03-22T11:15:02Z</time></trkpt><trkpt lat="45.61951114120194" lon="11.697981891705039"><ele>39.333333333333336</ele><time>2026-03-22T11:15:03Z</time></trkpt><trkpt lat="45.61935545443463" lon="11.697971077653941"><ele>39.66666666666667</ele><time>2026-03-22T11:15:04Z</time></trkpt><trkpt lat="45.61919494392291" lon="11.697957649360234"><ele>40.0</ele><time>2026-03-22T11:15:05Z</time></trkpt><trkpt lat="45.61904733078094" lon="11.697942278943483"><ele>40.0</ele><time>2026-03-22T11:15:06Z</time></trkpt><trkpt lat="45.61890209080451" lon="11.697925581789955"><ele>40.0</ele><time>2026-03-22T11:15:07Z</time></trkpt><trkpt lat="45.61875448910503" lon="11.697918479464345"><ele>40.0</ele><time>2026-03-22T11:15:08Z</time></trkpt><trkpt lat="45.61861291242949" lon="11.697909431977148"><ele>40.0</ele><time>2026-03-22T11:15:09Z</time></trkpt><trkpt lat="45.61848655234565" lon="11.697897431386105"><ele>40.5</ele><time>2026-03-22T11:15:10Z</time></trkpt><trkpt lat="45.618361766663746" lon="11.6978849468716"><ele>41.0</ele><time>2026-03-22T11:15:11Z</time></trkpt><trkpt lat="45.6182348750895" lon="11.697877795970061"><ele>41.5</ele><time>2026-03-22T11:15:12Z</time></trkpt><trkpt lat="45.618107531481726" lon="11.697865035051946"><ele>42.0</ele><time>2026-03-22T11:15:13Z</time></trkpt><trkpt lat="45.61798508344026" lon="11.697852496962163"><ele>42.0</ele><time>2026-03-22T11:15:14Z</time></trkpt><trkpt lat="45.61787326434843" lon="11.697846311232324"><ele>42.0</ele><time>2026-03-22T11:15:15Z</time></trkpt><trkpt lat="45.617768582833904" lon="11.69783816609564"><ele>42.0</ele><time>2026-03-22T11:15:16Z</time></trkpt><trkpt lat="45.61767890402428" lon="11.69782491853276"><ele>42.0</ele><time>2026-03-22T11:15:17Z</time></trkpt><trkpt lat="45.61760704352277" lon="11.69780725692332"><ele>42.0</ele><time>2026-03-22T11:15:18Z</time></trkpt><trkpt lat="45.61750778430384" lon="11.69800042247186"><ele>42.0</ele><time>2026-03-22T11:15:20Z</time></trkpt><trkpt lat="45.61747532900452" lon="11.698150231860595"><ele>42.0</ele><time>2026-03-22T11:15:21Z</time></trkpt><trkpt lat="45.61746989848979" lon="11.698318910159601"><ele>42.0</ele><time>2026-03-22T11:15:22Z</time></trkpt><trkpt lat="45.61745598683663" lon="11.698493170771018"><ele>42.0</ele><time>2026-03-22T11:15:23Z</time></trkpt><trkpt lat="45.617429280247364" lon="11.69867190212676"><ele>42.0</ele><time>2026-03-22T11:15:24Z</time></trkpt><trkpt lat="45.61740131775275" lon="11.698859030764964"><ele>42.0</ele><time>2026-03-22T11:15:25Z</time></trkpt><trkpt lat="45.61737256886233" lon="11.699060707239006"><ele>42.0</ele><time>2026-03-22T11:15:26Z</time></trkpt><trkpt lat="45.61734104459422" lon="11.699276869289701"><ele>42.0</ele><time>2026-03-22T11:15:27Z</time></trkpt><trkpt lat="45.61730944676611" lon="11.699493535769692"><ele>42.0</ele><time>2026-03-22T11:15:28Z</time></trkpt><trkpt lat="45.617278862351284" lon="11.699702359408143"><ele>42.0</ele><time>2026-03-22T11:15:29Z</time></trkpt><trkpt lat="45.617250991907724" lon="11.69988760486837"><ele>42.0</ele><time>2026-03-22T11:15:30Z</time></trkpt><trkpt lat="45.61722368000166" lon="11.700063062201533"><ele>42.0</ele><time>2026-03-22T11:15:31Z</time></trkpt><trkpt lat="45.617194791346634" lon="11.700242943449407"><ele>42.0</ele><time>2026-03-22T11:15:32Z</time></trkpt><trkpt lat="45.61716489424223" lon="11.700429104250285"><ele>42.0</ele><time>2026-03-22T11:15:33Z</time></trkpt><trkpt lat="45.617125705696544" lon="11.700602544885944"><ele>42.0</ele><time>2026-03-22T11:15:34Z</time></trkpt><trkpt lat="45.617059978152426" lon="11.700768830112054"><ele>42.0</ele><time>2026-03-22T11:15:35Z</time></trkpt><trkpt lat="45.61698110143402" lon="11.700935022515596"><ele>42.0</ele><time>2026-03-22T11:15:36Z</time></trkpt><trkpt lat="45.61687956841889" lon="11.701071427044521"><ele>42.0</ele><time>2026-03-22T11:15:37Z</time></trkpt><trkpt lat="45.61676156033037" lon="11.70119922343238"><ele>42.0</ele><time>2026-03-22T11:15:38Z</time></trkpt><trkpt lat="45.61664410327583" lon="11.701318862196715"><ele>42.0</ele><time>2026-03-22T11:15:39Z</time></trkpt><trkpt lat="45.616533747224565" lon="11.70142745730482"><ele>42.25</ele><time>2026-03-22T11:15:40Z</time></trkpt><trkpt lat="45.616428056263324" lon="11.701535025871653"><ele>42.5</ele><time>2026-03-22T11:15:41Z</time></trkpt><trkpt lat="45.616326473013935" lon="11.701638413760882"><ele>42.75</ele><time>2026-03-22T11:15:42Z</time></trkpt><trkpt lat="45.616226899183694" lon="11.701739756769298"><ele>43.0</ele><time>2026-03-22T11:15:43Z</time></trkpt><trkpt lat="45.61612395578425" lon="11.701843985920897"><ele>42.5</ele><time>2026-03-22T11:15:44Z</time></trkpt><trkpt lat="45.616020318595275" lon="11.701950750982029"><ele>42.0</ele><time>2026-03-22T11:15:45Z</time></trkpt><trkpt lat="45.61591025257116" lon="11.702062492863659"><ele>41.5</ele><time>2026-03-22T11:15:46Z</time></trkpt><trkpt lat="45.61579638496633" lon="11.70217809439304"><ele>41.0</ele><time>2026-03-22T11:15:47Z</time></trkpt><trkpt lat="45.61566947761802" lon="11.702306934107911"><ele>41.0</ele><time>2026-03-22T11:15:48Z</time></trkpt><trkpt lat="45.6155316687561" lon="11.702446841396148"><ele>41.0</ele><time>2026-03-22T11:15:49Z</time></trkpt><trkpt lat="45.61540115781831" lon="11.702579339603641"><ele>41.0</ele><time>2026-03-22T11:15:50Z</time></trkpt><trkpt lat="45.6152680988174" lon="11.702714197725864"><ele>40.33333333333333</ele><time>2026-03-22T11:15:51Z</time></trkpt><trkpt lat="45.61512736755615" lon="11.702856767923386"><ele>39.666666666666664</ele><time>2026-03-22T11:15:52Z</time></trkpt><trkpt lat="45.61499525221922" lon="11.702990794694646"><ele>39.0</ele><time>2026-03-22T11:15:53Z</time></trkpt><trkpt lat="45.61486224210692" lon="11.703125727971038"><ele>39.0</ele><time>2026-03-22T11:15:54Z</time></trkpt><trkpt lat="45.614723196086295" lon="11.703266784530555"><ele>39.0</ele><time>2026-03-22T11:15:55Z</time></trkpt><trkpt lat="45.614584282621024" lon="11.703407706572895"><ele>39.0</ele><time>2026-03-22T11:15:56Z</time></trkpt><trkpt lat="45.614445715453044" lon="11.703548277383033"><ele>39.333333333333336</ele><time>2026-03-22T11:15:57Z</time></trkpt><trkpt lat="45.61430985205903" lon="11.703686105118914"><ele>39.66666666666667</ele><time>2026-03-22T11:15:58Z</time></trkpt><trkpt lat="45.61417190151281" lon="11.70382605033367"><ele>40.0</ele><time>2026-03-22T11:15:59Z</time></trkpt><trkpt lat="45.614033188176485" lon="11.703966769707504"><ele>40.0</ele><time>2026-03-22T11:16:00Z</time></trkpt><trkpt lat="45.6138928790612" lon="11.704110240296426"><ele>40.0</ele><time>2026-03-22T11:16:00.999Z</time></trkpt><trkpt lat="45.61375541085103" lon="11.70424994640602"><ele>40.0</ele><time>2026-03-22T11:16:01.999Z</time></trkpt><trkpt lat="45.61361503795419" lon="11.704392604439736"><ele>39.0</ele><time>2026-03-22T11:16:02.999Z</time></trkpt><trkpt lat="45.61347805197309" lon="11.704531918622271"><ele>38.0</ele><time>2026-03-22T11:16:03.999Z</time></trkpt><trkpt lat="45.61334564645248" lon="11.704666865808617"><ele>37.0</ele><time>2026-03-22T11:16:04.999Z</time></trkpt><trkpt lat="45.61320775163171" lon="11.704807407741663"><ele>37.0</ele><time>2026-03-22T11:16:05.999Z</time></trkpt><trkpt lat="45.61307057264612" lon="11.704947220022312"><ele>37.0</ele><time>2026-03-22T11:16:06.999Z</time></trkpt><trkpt lat="45.6129303789929" lon="11.705090261133215"><ele>37.0</ele><time>2026-03-22T11:16:07.999Z</time></trkpt><trkpt lat="45.61279177490657" lon="11.705231792837186"><ele>37.0</ele><time>2026-03-22T11:16:08.999Z</time></trkpt><trkpt lat="45.61265583082505" lon="11.705370713506971"><ele>37.0</ele><time>2026-03-22T11:16:09.999Z</time></trkpt><trkpt lat="45.61251961687317" lon="11.705509897370904"><ele>37.0</ele><time>2026-03-22T11:16:10.999Z</time></trkpt><trkpt lat="45.61238184443976" lon="11.705650669674748"><ele>37.0</ele><time>2026-03-22T11:16:11.999Z</time></trkpt><trkpt lat="45.61224313741715" lon="11.705792451592204"><ele>37.0</ele><time>2026-03-22T11:16:12.999Z</time></trkpt><trkpt lat="45.612104038483935" lon="11.70593461696614"><ele>37.0</ele><time>2026-03-22T11:16:13.999Z</time></trkpt><trkpt lat="45.61196216096134" lon="11.706079622116686"><ele>37.0</ele><time>2026-03-22T11:16:14.999Z</time></trkpt><trkpt lat="45.611826427726804" lon="11.706219408679326"><ele>37.0</ele><time>2026-03-22T11:16:15.999Z</time></trkpt><trkpt lat="45.6116921386341" lon="11.70635666725459"><ele>37.0</ele><time>2026-03-22T11:16:16.999Z</time></trkpt><trkpt lat="45.61155260040018" lon="11.706499074280444"><ele>37.0</ele><time>2026-03-22T11:16:17.999Z</time></trkpt><trkpt lat="45.6114153946198" lon="11.70663809355814"><ele>37.0</ele><time>2026-03-22T11:16:18.999Z</time></trkpt><trkpt lat="45.611274954926174" lon="11.706780389501231"><ele>37.0</ele><time>2026-03-22T11:16:19.999Z</time></trkpt><trkpt lat="45.611135877373336" lon="11.706921305343664"><ele>37.0</ele><time>2026-03-22T11:16:20.999Z</time></trkpt><trkpt lat="45.61099859182401" lon="11.707060405486388"><ele>37.0</ele><time>2026-03-22T11:16:21.999Z</time></trkpt><trkpt lat="45.610860008070304" lon="11.707200820967623"><ele>37.0</ele><time>2026-03-22T11:16:22.999Z</time></trkpt><trkpt lat="45.61071848508039" lon="11.707344214521799"><ele>37.0</ele><time>2026-03-22T11:16:23.999Z</time></trkpt><trkpt lat="45.61058125644211" lon="11.707483256985011"><ele>37.0</ele><time>2026-03-22T11:16:24.999Z</time></trkpt><trkpt lat="45.61044495727804" lon="11.707621357698935"><ele>37.0</ele><time>2026-03-22T11:16:25.999Z</time></trkpt><trkpt lat="45.610307889102295" lon="11.70776023759954"><ele>36.333333333333336</ele><time>2026-03-22T11:16:26.999Z</time></trkpt><trkpt lat="45.61016910473861" lon="11.707901173810463"><ele>35.666666666666664</ele><time>2026-03-22T11:16:27.999Z</time></trkpt><trkpt lat="45.610027400078884" lon="11.708045196687529"><ele>35.0</ele><time>2026-03-22T11:16:28.999Z</time></trkpt><trkpt lat="45.60988827028277" lon="11.708186602520025"><ele>35.0</ele><time>2026-03-22T11:16:29.999Z</time></trkpt><trkpt lat="45.60974978612771" lon="11.708327352184664"><ele>35.0</ele><time>2026-03-22T11:16:30.999Z</time></trkpt><trkpt lat="45.60961240572493" lon="11.70846698005447"><ele>35.0</ele><time>2026-03-22T11:16:31.999Z</time></trkpt><trkpt lat="45.60947684376209" lon="11.708604759745851"><ele>35.33333333333333</ele><time>2026-03-22T11:16:32.999Z</time></trkpt><trkpt lat="45.60933611856025" lon="11.708747787116693"><ele>35.666666666666664</ele><time>2026-03-22T11:16:33.999Z</time></trkpt><trkpt lat="45.60919959865265" lon="11.7088865403758"><ele>36.0</ele><time>2026-03-22T11:16:34.999Z</time></trkpt><trkpt lat="45.60906266778207" lon="11.709025711361733"><ele>36.0</ele><time>2026-03-22T11:16:35.999Z</time></trkpt><trkpt lat="45.60892116933374" lon="11.709169524648829"><ele>36.0</ele><time>2026-03-22T11:16:36.999Z</time></trkpt><trkpt lat="45.6087852209467" lon="11.70930769705729"><ele>36.0</ele><time>2026-03-22T11:16:37.999Z</time></trkpt><trkpt lat="45.60864601560716" lon="11.709449179719591"><ele>36.666666666666664</ele><time>2026-03-22T11:16:38.999Z</time></trkpt><trkpt lat="45.60850665466203" lon="11.709590820518363"><ele>37.33333333333333</ele><time>2026-03-22T11:16:39.999Z</time></trkpt><trkpt lat="45.6083718154726" lon="11.709727809452454"><ele>38.0</ele><time>2026-03-22T11:16:40.999Z</time></trkpt><trkpt lat="45.60823052454833" lon="11.709871046725647"><ele>38.0</ele><time>2026-03-22T11:16:41.999Z</time></trkpt><trkpt lat="45.60809039161095" lon="11.710013110066766"><ele>38.0</ele><time>2026-03-22T11:16:42.999Z</time></trkpt><trkpt lat="45.607951493155134" lon="11.710153921901167"><ele>38.0</ele><time>2026-03-22T11:16:43.999Z</time></trkpt><trkpt lat="45.60781330145726" lon="11.710293769197873"><ele>38.0</ele><time>2026-03-22T11:16:44.999Z</time></trkpt><trkpt lat="45.607672434967085" lon="11.710435345463605"><ele>38.0</ele><time>2026-03-22T11:16:45.999Z</time></trkpt><trkpt lat="45.60753533391919" lon="11.710573137237528"><ele>38.0</ele><time>2026-03-22T11:16:46.999Z</time></trkpt><trkpt lat="45.60740077994376" lon="11.710708369434233"><ele>38.0</ele><time>2026-03-22T11:16:47.999Z</time></trkpt><trkpt lat="45.60726295734893" lon="11.710846886013066"><ele>38.0</ele><time>2026-03-22T11:16:48.999Z</time></trkpt><trkpt lat="45.60712324613044" lon="11.710987803312811"><ele>38.0</ele><time>2026-03-22T11:16:49.999Z</time></trkpt><trkpt lat="45.606981768975" lon="11.711130597605939"><ele>37.0</ele><time>2026-03-22T11:16:50.999Z</time></trkpt><trkpt lat="45.60684301097125" lon="11.711269622772928"><ele>36.0</ele><time>2026-03-22T11:16:51.999Z</time></trkpt><trkpt lat="45.606702460484655" lon="11.711410534620176"><ele>35.0</ele><time>2026-03-22T11:16:52.999Z</time></trkpt><trkpt lat="45.606556813968645" lon="11.71155866196804"><ele>35.0</ele><time>2026-03-22T11:16:53.999Z</time></trkpt><trkpt lat="45.60640317680577" lon="11.711714915969067"><ele>35.0</ele><time>2026-03-22T11:16:54.999Z</time></trkpt><trkpt lat="45.60624241468974" lon="11.71187807911551"><ele>35.0</ele><time>2026-03-22T11:16:55.999Z</time></trkpt><trkpt lat="45.606079253731195" lon="11.712043497943869"><ele>35.33333333333333</ele><time>2026-03-22T11:16:56.999Z</time></trkpt><trkpt lat="45.605916664059656" lon="11.712208339468543"><ele>35.666666666666664</ele><time>2026-03-22T11:16:57.999Z</time></trkpt><trkpt lat="45.60574524345852" lon="11.712382285473193"><ele>36.0</ele><time>2026-03-22T11:16:58.999Z</time></trkpt><trkpt lat="45.605576218661035" lon="11.712553804331383"><ele>36.0</ele><time>2026-03-22T11:16:59.999Z</time></trkpt><trkpt lat="45.605396833376275" lon="11.712734481278543"><ele>36.0</ele><time>2026-03-22T11:17:00.999Z</time></trkpt><trkpt lat="45.60522206505206" lon="11.712910507874478"><ele>36.0</ele><time>2026-03-22T11:17:01.999Z</time></trkpt><trkpt lat="45.60504804122759" lon="11.713085784691767"><ele>36.333333333333336</ele><time>2026-03-22T11:17:02.999Z</time></trkpt><trkpt lat="45.60487052915509" lon="11.713264574925812"><ele>36.66666666666667</ele><time>2026-03-22T11:17:03.999Z</time></trkpt><trkpt lat="45.60471146057455" lon="11.713474752082547"><ele>37.0</ele><time>2026-03-22T11:17:04.999Z</time></trkpt><trkpt lat="45.60453663028671" lon="11.713651806412628"><ele>36.66666666666667</ele><time>2026-03-22T11:17:05.999Z</time></trkpt><trkpt lat="45.60435983672507" lon="11.713826872323663"><ele>36.333333333333336</ele><time>2026-03-22T11:17:06.999Z</time></trkpt><trkpt lat="45.60418543255834" lon="11.714001532780916"><ele>36.0</ele><time>2026-03-22T11:17:08Z</time></trkpt><trkpt lat="45.60399317043313" lon="11.714148939896525"><ele>36.0</ele><time>2026-03-22T11:17:09Z</time></trkpt><trkpt lat="45.60381871825602" lon="11.714324833211124"><ele>36.0</ele><time>2026-03-22T11:17:10Z</time></trkpt><trkpt lat="45.60363998161166" lon="11.71450517680698"><ele>36.0</ele><time>2026-03-22T11:17:11Z</time></trkpt><trkpt lat="45.60346300511352" lon="11.714683788444148"><ele>36.666666666666664</ele><time>2026-03-22T11:17:12Z</time></trkpt><trkpt lat="45.60328352891694" lon="11.714864922889586"><ele>37.33333333333333</ele><time>2026-03-22T11:17:13Z</time></trkpt><trkpt lat="45.603105368205554" lon="11.715044729668485"><ele>38.0</ele><time>2026-03-22T11:17:14Z</time></trkpt><trkpt lat="45.60292776931893" lon="11.715223971170083"><ele>37.33333333333333</ele><time>2026-03-22T11:17:15Z</time></trkpt><trkpt lat="45.60275132933107" lon="11.715402294689252"><ele>36.666666666666664</ele><time>2026-03-22T11:17:16Z</time></trkpt><trkpt lat="45.60257355912464" lon="11.715582648843483"><ele>36.0</ele><time>2026-03-22T11:17:17Z</time></trkpt><trkpt lat="45.60239912259264" lon="11.715759620867745"><ele>36.0</ele><time>2026-03-22T11:17:18Z</time></trkpt><trkpt lat="45.602221620542316" lon="11.715939703050626"><ele>36.0</ele><time>2026-03-22T11:17:19Z</time></trkpt><trkpt lat="45.602043180517704" lon="11.716120736809193"><ele>36.0</ele><time>2026-03-22T11:17:20Z</time></trkpt><trkpt lat="45.601865079705675" lon="11.716301426462183"><ele>35.666666666666664</ele><time>2026-03-22T11:17:21Z</time></trkpt><trkpt lat="45.60168663898846" lon="11.716482460925603"><ele>35.33333333333333</ele><time>2026-03-22T11:17:22Z</time></trkpt><trkpt lat="45.60150595866193" lon="11.716661065395595"><ele>35.0</ele><time>2026-03-22T11:17:23Z</time></trkpt><trkpt lat="45.601337972967755" lon="11.716835249734658"><ele>35.0</ele><time>2026-03-22T11:17:24Z</time></trkpt><trkpt lat="45.60117812541935" lon="11.716997122980553"><ele>35.0</ele><time>2026-03-22T11:17:25Z</time></trkpt><trkpt lat="45.60101744036451" lon="11.717159844407128"><ele>35.0</ele><time>2026-03-22T11:17:26Z</time></trkpt><trkpt lat="45.60086277472089" lon="11.717316470197185"><ele>34.666666666666664</ele><time>2026-03-22T11:17:27Z</time></trkpt><trkpt lat="45.60070895583438" lon="11.717472238324783"><ele>34.333333333333336</ele><time>2026-03-22T11:17:28Z</time></trkpt><trkpt lat="45.60055656521503" lon="11.717626560216532"><ele>34.0</ele><time>2026-03-22T11:17:29Z</time></trkpt><trkpt lat="45.600398254183105" lon="11.71778687753918"><ele>34.333333333333336</ele><time>2026-03-22T11:17:30Z</time></trkpt><trkpt lat="45.60023641243125" lon="11.717950770635513"><ele>34.666666666666664</ele><time>2026-03-22T11:17:31Z</time></trkpt><trkpt lat="45.6000699985947" lon="11.71811916580138"><ele>35.0</ele><time>2026-03-22T11:17:32Z</time></trkpt><trkpt lat="45.59990572315404" lon="11.718285406076996"><ele>35.0</ele><time>2026-03-22T11:17:33Z</time></trkpt><trkpt lat="45.59975149704864" lon="11.718441476801964"><ele>35.0</ele><time>2026-03-22T11:17:34Z</time></trkpt><trkpt lat="45.599596767479305" lon="11.71859805696114"><ele>35.0</ele><time>2026-03-22T11:17:35Z</time></trkpt><trkpt lat="45.59944619908877" lon="11.718750426225705"><ele>34.666666666666664</ele><time>2026-03-22T11:17:36Z</time></trkpt><trkpt lat="45.599302741686415" lon="11.718895599457872"><ele>34.333333333333336</ele><time>2026-03-22T11:17:37Z</time></trkpt><trkpt lat="45.59915372049102" lon="11.719046402979954"><ele>34.0</ele><time>2026-03-22T11:17:38Z</time></trkpt><trkpt lat="45.59901703910298" lon="11.719184721750455"><ele>34.0</ele><time>2026-03-22T11:17:39Z</time></trkpt><trkpt lat="45.59888006260032" lon="11.719323339512982"><ele>34.0</ele><time>2026-03-22T11:17:40Z</time></trkpt><trkpt lat="45.598744587879516" lon="11.719460437495998"><ele>34.0</ele><time>2026-03-22T11:17:41Z</time></trkpt><trkpt lat="45.598627981608644" lon="11.71964741429903"><ele>34.333333333333336</ele><time>2026-03-22T11:17:42Z</time></trkpt><trkpt lat="45.598479921220694" lon="11.719794307345815"><ele>34.666666666666664</ele><time>2026-03-22T11:17:43Z</time></trkpt><trkpt lat="45.598341656588595" lon="11.719939353665778"><ele>35.0</ele><time>2026-03-22T11:17:44Z</time></trkpt><trkpt lat="45.598191011255714" lon="11.720085850061132"><ele>34.666666666666664</ele><time>2026-03-22T11:17:45Z</time></trkpt><trkpt lat="45.59804994569651" lon="11.720234458294373"><ele>34.333333333333336</ele><time>2026-03-22T11:17:46Z</time></trkpt><trkpt lat="45.59791612709203" lon="11.720370877841352"><ele>34.0</ele><time>2026-03-22T11:17:47Z</time></trkpt><trkpt lat="45.59778553230673" lon="11.720498666961237"><ele>34.0</ele><time>2026-03-22T11:17:48Z</time></trkpt><trkpt lat="45.597666221289934" lon="11.720613605692005"><ele>34.0</ele><time>2026-03-22T11:17:49Z</time></trkpt><trkpt lat="45.597571414431044" lon="11.720699929298405"><ele>34.0</ele><time>2026-03-22T11:17:50Z</time></trkpt><trkpt lat="45.59750830165179" lon="11.720759651003313"><ele>34.0</ele><time>2026-03-22T11:17:51Z</time></trkpt><trkpt lat="45.5974338089437" lon="11.720833928408636"><ele>34.0</ele><time>2026-03-22T11:17:53Z</time></trkpt><trkpt lat="45.597379718481136" lon="11.72088749487204"><ele>34.0</ele><time>2026-03-22T11:17:56Z</time></trkpt><trkpt lat="45.59727668645257" lon="11.72094888718991"><ele>34.0</ele><time>2026-03-22T11:18:44.999Z</time></trkpt><trkpt lat="45.59723965628324" lon="11.721033650599088"><ele>34.0</ele><time>2026-03-22T11:18:45.999Z</time></trkpt><trkpt lat="45.59713688156989" lon="11.72109569013817"><ele>34.0</ele><time>2026-03-22T11:18:46.999Z</time></trkpt><trkpt lat="45.59701904381365" lon="11.72121493952909"><ele>34.0</ele><time>2026-03-22T11:18:47.999Z</time></trkpt><trkpt lat="45.59689080430706" lon="11.721344737646362"><ele>34.333333333333336</ele><time>2026-03-22T11:18:48.999Z</time></trkpt><trkpt lat="45.59672906669837" lon="11.721508887270712"><ele>34.666666666666664</ele><time>2026-03-22T11:18:49.999Z</time></trkpt><trkpt lat="45.59653484359204" lon="11.72170600741224"><ele>35.0</ele><time>2026-03-22T11:18:50.999Z</time></trkpt><trkpt lat="45.596308889014146" lon="11.721934759802087"><ele>35.0</ele><time>2026-03-22T11:18:51.999Z</time></trkpt><trkpt lat="45.596062629747664" lon="11.72218357994235"><ele>35.0</ele><time>2026-03-22T11:18:52.999Z</time></trkpt><trkpt lat="45.59580227950643" lon="11.722446150610157"><ele>35.0</ele><time>2026-03-22T11:18:53.999Z</time></trkpt><trkpt lat="45.59552714281274" lon="11.722728738926664"><ele>35.0</ele><time>2026-03-22T11:18:54.999Z</time></trkpt><trkpt lat="45.59524569110405" lon="11.72301950385798"><ele>32.5</ele><time>2026-03-22T11:18:55.999Z</time></trkpt><trkpt lat="45.59499453024385" lon="11.723278059887441"><ele>30.0</ele><time>2026-03-22T11:18:56.999Z</time></trkpt><trkpt lat="45.59475916627455" lon="11.723527014121418"><ele>30.0</ele><time>2026-03-22T11:18:57.999Z</time></trkpt><trkpt lat="45.594540126175986" lon="11.72375936030253"><ele>30.0</ele><time>2026-03-22T11:18:58.999Z</time></trkpt><trkpt lat="45.59432435783603" lon="11.723988236256032"><ele>30.0</ele><time>2026-03-22T11:18:59.999Z</time></trkpt><trkpt lat="45.59411829944278" lon="11.72420681237437"><ele>30.0</ele><time>2026-03-22T11:19:00.999Z</time></trkpt><trkpt lat="45.59392756744341" lon="11.72440913091424"><ele>30.5</ele><time>2026-03-22T11:19:01.999Z</time></trkpt><trkpt lat="45.59373603578831" lon="11.724612300047216"><ele>31.0</ele><time>2026-03-22T11:19:02.999Z</time></trkpt><trkpt lat="45.593561686406204" lon="11.724797008998305"><ele>31.333333333333336</ele><time>2026-03-22T11:19:03.999Z</time></trkpt><trkpt lat="45.593388545255706" lon="11.724980437854933"><ele>31.666666666666664</ele><time>2026-03-22T11:19:04.999Z</time></trkpt><trkpt lat="45.5932127952603" lon="11.725166630575961"><ele>32.0</ele><time>2026-03-22T11:19:05.999Z</time></trkpt><trkpt lat="45.59303530877857" lon="11.725354663003968"><ele>32.0</ele><time>2026-03-22T11:19:06.999Z</time></trkpt><trkpt lat="45.592858486134574" lon="11.72554199214205"><ele>32.0</ele><time>2026-03-22T11:19:07.999Z</time></trkpt><trkpt lat="45.59268075762913" lon="11.725730281607268"><ele>32.0</ele><time>2026-03-22T11:19:08.999Z</time></trkpt><trkpt lat="45.59250057043554" lon="11.725921175208414"><ele>32.5</ele><time>2026-03-22T11:19:09.999Z</time></trkpt><trkpt lat="45.592319266522495" lon="11.72611325430879"><ele>33.0</ele><time>2026-03-22T11:19:10.999Z</time></trkpt><trkpt lat="45.59213640159784" lon="11.726307567188332"><ele>32.5</ele><time>2026-03-22T11:19:11.999Z</time></trkpt><trkpt lat="45.59195295921521" lon="11.726502390811284"><ele>32.0</ele><time>2026-03-22T11:19:12.999Z</time></trkpt><trkpt lat="45.59176837721913" lon="11.72669842478772"><ele>32.0</ele><time>2026-03-22T11:19:14Z</time></trkpt><trkpt lat="45.59158542981957" lon="11.72689272271754"><ele>32.0</ele><time>2026-03-22T11:19:15Z</time></trkpt><trkpt lat="45.59140019974524" lon="11.727089445011293"><ele>32.0</ele><time>2026-03-22T11:19:16Z</time></trkpt><trkpt lat="45.59121432852785" lon="11.72728710987777"><ele>32.0</ele><time>2026-03-22T11:19:17Z</time></trkpt><trkpt lat="45.59102934209483" lon="11.727483901698045"><ele>32.5</ele><time>2026-03-22T11:19:18Z</time></trkpt><trkpt lat="45.59084527292101" lon="11.727676678562855"><ele>33.0</ele><time>2026-03-22T11:19:19Z</time></trkpt><trkpt lat="45.590655203183914" lon="11.727874008405191"><ele>33.0</ele><time>2026-03-22T11:19:20Z</time></trkpt><trkpt lat="45.59046496591498" lon="11.728071513886274"><ele>33.0</ele><time>2026-03-22T11:19:21Z</time></trkpt><trkpt lat="45.59027682369897" lon="11.728264751580843"><ele>32.0</ele><time>2026-03-22T11:19:22Z</time></trkpt><trkpt lat="45.59008790057746" lon="11.728455563925724"><ele>31.0</ele><time>2026-03-22T11:19:23Z</time></trkpt><trkpt lat="45.589900475215146" lon="11.728644863557161"><ele>31.0</ele><time>2026-03-22T11:19:24Z</time></trkpt><trkpt lat="45.58971487280745" lon="11.72883333194616"><ele>31.0</ele><time>2026-03-22T11:19:25Z</time></trkpt><trkpt lat="45.58952707357757" lon="11.729024306642156"><ele>31.5</ele><time>2026-03-22T11:19:26Z</time></trkpt><trkpt lat="45.589340345947114" lon="11.729214191688678"><ele>32.0</ele><time>2026-03-22T11:19:27Z</time></trkpt><trkpt lat="45.58915293511293" lon="11.729405506595102"><ele>32.5</ele><time>2026-03-22T11:19:28Z</time></trkpt><trkpt lat="45.58896890936789" lon="11.729593499906507"><ele>33.0</ele><time>2026-03-22T11:19:29Z</time></trkpt><trkpt lat="45.588783413348494" lon="11.729782995097336"><ele>32.5</ele><time>2026-03-22T11:19:30Z</time></trkpt><trkpt lat="45.58859629255804" lon="11.729974150106969"><ele>32.0</ele><time>2026-03-22T11:19:31Z</time></trkpt><trkpt lat="45.58841184924515" lon="11.730161509447637"><ele>32.0</ele><time>2026-03-22T11:19:32Z</time></trkpt><trkpt lat="45.588224933079886" lon="11.730351383100096"><ele>32.0</ele><time>2026-03-22T11:19:33Z</time></trkpt><trkpt lat="45.588039398571304" lon="11.730539853291308"><ele>32.0</ele><time>2026-03-22T11:19:34Z</time></trkpt><trkpt lat="45.58785373532646" lon="11.730728454256727"><ele>32.0</ele><time>2026-03-22T11:19:35Z</time></trkpt><trkpt lat="45.58766747461344" lon="11.730917662120524"><ele>33.0</ele><time>2026-03-22T11:19:36Z</time></trkpt><trkpt lat="45.5874808158551" lon="11.73110726821998"><ele>34.0</ele><time>2026-03-22T11:19:37Z</time></trkpt><trkpt lat="45.58729452760011" lon="11.731296497276167"><ele>34.0</ele><time>2026-03-22T11:19:38Z</time></trkpt><trkpt lat="45.58710850112822" lon="11.731488625266278"><ele>34.0</ele><time>2026-03-22T11:19:39Z</time></trkpt><trkpt lat="45.58694213913853" lon="11.731714214258567"><ele>33.0</ele><time>2026-03-22T11:19:40Z</time></trkpt><trkpt lat="45.58675578648563" lon="11.731901560791421"><ele>32.0</ele><time>2026-03-22T11:19:41Z</time></trkpt><trkpt lat="45.58656995366259" lon="11.732093257307767"><ele>32.0</ele><time>2026-03-22T11:19:42Z</time></trkpt><trkpt lat="45.58638925193047" lon="11.732284546119562"><ele>32.0</ele><time>2026-03-22T11:19:43Z</time></trkpt><trkpt lat="45.586205347428596" lon="11.73247657298675"><ele>32.0</ele><time>2026-03-22T11:19:44Z</time></trkpt><trkpt lat="45.586017600984064" lon="11.732665733744142"><ele>32.0</ele><time>2026-03-22T11:19:45Z</time></trkpt><trkpt lat="45.58582964946201" lon="11.732856299525722"><ele>32.0</ele><time>2026-03-22T11:19:46Z</time></trkpt><trkpt lat="45.585642568766694" lon="11.733048261571076"><ele>32.0</ele><time>2026-03-22T11:19:47Z</time></trkpt><trkpt lat="45.58545366373077" lon="11.73323923723252"><ele>32.0</ele><time>2026-03-22T11:19:48Z</time></trkpt><trkpt lat="45.58526489040106" lon="11.733425830365318"><ele>32.0</ele><time>2026-03-22T11:19:49Z</time></trkpt><trkpt lat="45.5850769148682" lon="11.733612475855866"><ele>31.5</ele><time>2026-03-22T11:19:50Z</time></trkpt><trkpt lat="45.58489398299366" lon="11.733802677305391"><ele>31.0</ele><time>2026-03-22T11:19:51Z</time></trkpt><trkpt lat="45.58470616108591" lon="11.73399544251876"><ele>31.0</ele><time>2026-03-22T11:19:52Z</time></trkpt><trkpt lat="45.58451729244818" lon="11.734189512023843"><ele>31.0</ele><time>2026-03-22T11:19:53Z</time></trkpt><trkpt lat="45.58432842663424" lon="11.73437728379579"><ele>32.0</ele><time>2026-03-22T11:19:54Z</time></trkpt><trkpt lat="45.5841566843237" lon="11.73455703445366"><ele>33.0</ele><time>2026-03-22T11:19:55Z</time></trkpt><trkpt lat="45.5840103370392" lon="11.73474007942015"><ele>34.0</ele><time>2026-03-22T11:19:56Z</time></trkpt><trkpt lat="45.58389070902188" lon="11.734924359957981"><ele>34.0</ele><time>2026-03-22T11:19:57Z</time></trkpt><trkpt lat="45.58379053882913" lon="11.73507978164174"><ele>34.0</ele><time>2026-03-22T11:19:58Z</time></trkpt><trkpt lat="45.58369891956119" lon="11.735190920527868"><ele>34.0</ele><time>2026-03-22T11:19:59Z</time></trkpt><trkpt lat="45.58361078324808" lon="11.735256234397278"><ele>34.0</ele><time>2026-03-22T11:20:00Z</time></trkpt><trkpt lat="45.583517282818995" lon="11.735271871533609"><ele>33.6</ele><time>2026-03-22T11:20:01Z</time></trkpt><trkpt lat="45.58343196690169" lon="11.735259927297351"><ele>33.2</ele><time>2026-03-22T11:20:02Z</time></trkpt><trkpt lat="45.5833489702381" lon="11.735303484069478"><ele>32.800000000000004</ele><time>2026-03-22T11:20:03Z</time></trkpt><trkpt lat="45.58327668716173" lon="11.73540713655683"><ele>32.4</ele><time>2026-03-22T11:20:04Z</time></trkpt><trkpt lat="45.58320284059933" lon="11.73555630418762"><ele>32.0</ele><time>2026-03-22T11:20:05Z</time></trkpt><trkpt lat="45.58308980785732" lon="11.735691068739834"><ele>32.0</ele><time>2026-03-22T11:20:06Z</time></trkpt><trkpt lat="45.58293966124482" lon="11.735804398951608"><ele>32.0</ele><time>2026-03-22T11:20:07Z</time></trkpt><trkpt lat="45.582788742791834" lon="11.735918962569986"><ele>32.0</ele><time>2026-03-22T11:20:08Z</time></trkpt><trkpt lat="45.582634889260234" lon="11.736078723109175"><ele>32.0</ele><time>2026-03-22T11:20:09Z</time></trkpt><trkpt lat="45.58246678949991" lon="11.736256462353428"><ele>32.0</ele><time>2026-03-22T11:20:10Z</time></trkpt><trkpt lat="45.58229340670747" lon="11.73642549947581"><ele>32.0</ele><time>2026-03-22T11:20:11Z</time></trkpt><trkpt lat="45.58211996528288" lon="11.73659190924893"><ele>32.0</ele><time>2026-03-22T11:20:12Z</time></trkpt><trkpt lat="45.58193348820681" lon="11.736771627174784"><ele>32.0</ele><time>2026-03-22T11:20:13Z</time></trkpt><trkpt lat="45.58174288239252" lon="11.73696099093747"><ele>32.0</ele><time>2026-03-22T11:20:14Z</time></trkpt><trkpt lat="45.58155591897628" lon="11.737147325935016"><ele>32.0</ele><time>2026-03-22T11:20:15Z</time></trkpt><trkpt lat="45.581366071708736" lon="11.737336995671676"><ele>32.0</ele><time>2026-03-22T11:20:16Z</time></trkpt><trkpt lat="45.581175245312664" lon="11.737527927527326"><ele>32.0</ele><time>2026-03-22T11:20:17Z</time></trkpt><trkpt lat="45.580988293485696" lon="11.737713097877213"><ele>32.0</ele><time>2026-03-22T11:20:18Z</time></trkpt><trkpt lat="45.58080056283382" lon="11.737892886675972"><ele>32.0</ele><time>2026-03-22T11:20:19Z</time></trkpt><trkpt lat="45.58060916594431" lon="11.738077386044042"><ele>32.0</ele><time>2026-03-22T11:20:20Z</time></trkpt><trkpt lat="45.58042475957853" lon="11.73825983835463"><ele>32.0</ele><time>2026-03-22T11:20:21Z</time></trkpt><trkpt lat="45.58023869178144" lon="11.73844215170946"><ele>31.5</ele><time>2026-03-22T11:20:22Z</time></trkpt><trkpt lat="45.58005264150642" lon="11.738627884895704"><ele>31.0</ele><time>2026-03-22T11:20:23Z</time></trkpt><trkpt lat="45.57986862498724" lon="11.738813071589812"><ele>31.0</ele><time>2026-03-22T11:20:24Z</time></trkpt><trkpt lat="45.579680749472" lon="11.73899652716425"><ele>31.0</ele><time>2026-03-22T11:20:25Z</time></trkpt><trkpt lat="45.579494522867044" lon="11.739178245590852"><ele>31.5</ele><time>2026-03-22T11:20:26Z</time></trkpt><trkpt lat="45.579305688982075" lon="11.739363614611245"><ele>32.0</ele><time>2026-03-22T11:20:27Z</time></trkpt><trkpt lat="45.57912065513053" lon="11.73955050805737"><ele>32.5</ele><time>2026-03-22T11:20:28Z</time></trkpt><trkpt lat="45.57893299234829" lon="11.739738910792044"><ele>33.0</ele><time>2026-03-22T11:20:29Z</time></trkpt><trkpt lat="45.5787459938867" lon="11.739925847073582"><ele>32.0</ele><time>2026-03-22T11:20:30Z</time></trkpt><trkpt lat="45.57855689512552" lon="11.74011658357985"><ele>31.0</ele><time>2026-03-22T11:20:31Z</time></trkpt><trkpt lat="45.578373081791206" lon="11.740305212068332"><ele>30.666666666666668</ele><time>2026-03-22T11:20:32Z</time></trkpt><trkpt lat="45.5781973713708" lon="11.74048741028459"><ele>30.333333333333336</ele><time>2026-03-22T11:20:33Z</time></trkpt><trkpt lat="45.57801899774778" lon="11.740671022670949"><ele>30.0</ele><time>2026-03-22T11:20:34Z</time></trkpt><trkpt lat="45.577838724440404" lon="11.74085522305446"><ele>30.666666666666664</ele><time>2026-03-22T11:20:35Z</time></trkpt><trkpt lat="45.57766079940163" lon="11.74104069049814"><ele>31.333333333333332</ele><time>2026-03-22T11:20:36Z</time></trkpt><trkpt lat="45.5774821638687" lon="11.741235328362542"><ele>32.0</ele><time>2026-03-22T11:20:37Z</time></trkpt><trkpt lat="45.57730184673966" lon="11.741432529202825"><ele>32.0</ele><time>2026-03-22T11:20:38Z</time></trkpt><trkpt lat="45.57711809403721" lon="11.741628744793926"><ele>32.0</ele><time>2026-03-22T11:20:39Z</time></trkpt><trkpt lat="45.57693445434551" lon="11.741825180852636"><ele>32.5</ele><time>2026-03-22T11:20:40Z</time></trkpt><trkpt lat="45.57675483602146" lon="11.742023236536607"><ele>33.0</ele><time>2026-03-22T11:20:41Z</time></trkpt><trkpt lat="45.576571795446355" lon="11.742223711008483"><ele>33.0</ele><time>2026-03-22T11:20:42Z</time></trkpt><trkpt lat="45.57639223818664" lon="11.742419354715596"><ele>33.0</ele><time>2026-03-22T11:20:43Z</time></trkpt><trkpt lat="45.576186876256706" lon="11.742566244678876"><ele>31.0</ele><time>2026-03-22T11:20:44Z</time></trkpt><trkpt lat="45.57600635230108" lon="11.742764975562363"><ele>29.0</ele><time>2026-03-22T11:20:45Z</time></trkpt><trkpt lat="45.57582710177233" lon="11.742960680892454"><ele>29.0</ele><time>2026-03-22T11:20:46Z</time></trkpt><trkpt lat="45.575644983562356" lon="11.743154954707826"><ele>29.0</ele><time>2026-03-22T11:20:47Z</time></trkpt><trkpt lat="45.57546625379159" lon="11.743351474864731"><ele>31.0</ele><time>2026-03-22T11:20:48Z</time></trkpt><trkpt lat="45.575284346472905" lon="11.743548764429931"><ele>33.0</ele><time>2026-03-22T11:20:49Z</time></trkpt><trkpt lat="45.575103237403624" lon="11.743747983253026"><ele>33.0</ele><time>2026-03-22T11:20:50Z</time></trkpt><trkpt lat="45.57492214752285" lon="11.743945975291405"><ele>33.0</ele><time>2026-03-22T11:20:51Z</time></trkpt><trkpt lat="45.57473815785311" lon="11.744145005091111"><ele>33.0</ele><time>2026-03-22T11:20:52Z</time></trkpt><trkpt lat="45.574553624480224" lon="11.744344623047086"><ele>33.0</ele><time>2026-03-22T11:20:53Z</time></trkpt><trkpt lat="45.574371217736385" lon="11.744544187017926"><ele>31.5</ele><time>2026-03-22T11:20:54Z</time></trkpt><trkpt lat="45.57418860784214" lon="11.74474424607029"><ele>30.0</ele><time>2026-03-22T11:20:55Z</time></trkpt><trkpt lat="45.57400553504677" lon="11.744941377436101"><ele>30.0</ele><time>2026-03-22T11:20:56Z</time></trkpt><trkpt lat="45.57382230595004" lon="11.745141259486354"><ele>30.0</ele><time>2026-03-22T11:20:57Z</time></trkpt><trkpt lat="45.57363842951226" lon="11.745337177629912"><ele>28.5</ele><time>2026-03-22T11:20:57.999Z</time></trkpt><trkpt lat="45.57345642247888" lon="11.745533036120944"><ele>27.0</ele><time>2026-03-22T11:20:58.999Z</time></trkpt><trkpt lat="45.57327502490989" lon="11.745732571924753"><ele>27.0</ele><time>2026-03-22T11:20:59.999Z</time></trkpt><trkpt lat="45.57309546515088" lon="11.745927629526587"><ele>27.0</ele><time>2026-03-22T11:21:00.999Z</time></trkpt><trkpt lat="45.572914566444005" lon="11.746124141626366"><ele>29.5</ele><time>2026-03-22T11:21:01.999Z</time></trkpt><trkpt lat="45.57272963948158" lon="11.746322457669594"><ele>32.0</ele><time>2026-03-22T11:21:02.999Z</time></trkpt><trkpt lat="45.572547347340716" lon="11.746518309075258"><ele>32.0</ele><time>2026-03-22T11:21:03.999Z</time></trkpt><trkpt lat="45.57236365347309" lon="11.746717542755393"><ele>32.0</ele><time>2026-03-22T11:21:04.999Z</time></trkpt><trkpt lat="45.5721827617062" lon="11.746914091206762"><ele>30.0</ele><time>2026-03-22T11:21:05.999Z</time></trkpt><trkpt lat="45.57200066539559" lon="11.74711454817403"><ele>28.0</ele><time>2026-03-22T11:21:06.999Z</time></trkpt><trkpt lat="45.57181903436286" lon="11.747313455216652"><ele>28.0</ele><time>2026-03-22T11:21:07.999Z</time></trkpt><trkpt lat="45.57163608678926" lon="11.747513634640923"><ele>28.0</ele><time>2026-03-22T11:21:08.999Z</time></trkpt><trkpt lat="45.571453034230196" lon="11.747709770602297"><ele>29.0</ele><time>2026-03-22T11:21:09.999Z</time></trkpt><trkpt lat="45.57127085448726" lon="11.747904938029908"><ele>30.0</ele><time>2026-03-22T11:21:10.999Z</time></trkpt><trkpt lat="45.57108920041302" lon="11.74810114631202"><ele>30.5</ele><time>2026-03-22T11:21:11.999Z</time></trkpt><trkpt lat="45.57090977410703" lon="11.74829647252783"><ele>31.0</ele><time>2026-03-22T11:21:12.999Z</time></trkpt><trkpt lat="45.57072591721421" lon="11.748494851547967"><ele>31.0</ele><time>2026-03-22T11:21:13.999Z</time></trkpt><trkpt lat="45.570544157146806" lon="11.748692689766829"><ele>31.0</ele><time>2026-03-22T11:21:14.999Z</time></trkpt><trkpt lat="45.57036220461337" lon="11.748890613588147"><ele>30.0</ele><time>2026-03-22T11:21:15.999Z</time></trkpt><trkpt lat="45.5701782040001" lon="11.749089723070668"><ele>29.0</ele><time>2026-03-22T11:21:16.999Z</time></trkpt><trkpt lat="45.5699965287895" lon="11.749286863975843"><ele>29.5</ele><time>2026-03-22T11:21:17.999Z</time></trkpt><trkpt lat="45.569810880971616" lon="11.749488842554486"><ele>30.0</ele><time>2026-03-22T11:21:18.999Z</time></trkpt><trkpt lat="45.56962678134045" lon="11.749689136799084"><ele>29.0</ele><time>2026-03-22T11:21:20Z</time></trkpt><trkpt lat="45.56944309797763" lon="11.749888978142023"><ele>28.0</ele><time>2026-03-22T11:21:21Z</time></trkpt><trkpt lat="45.56926168686824" lon="11.750085947032844"><ele>28.5</ele><time>2026-03-22T11:21:22Z</time></trkpt><trkpt lat="45.569077641939785" lon="11.750284368596628"><ele>29.0</ele><time>2026-03-22T11:21:23Z</time></trkpt><trkpt lat="45.568893348804764" lon="11.750483056535481"><ele>29.0</ele><time>2026-03-22T11:21:24Z</time></trkpt><trkpt lat="45.568712468658795" lon="11.750678063855705"><ele>29.0</ele><time>2026-03-22T11:21:25Z</time></trkpt><trkpt lat="45.568531501312414" lon="11.750873165186471"><ele>28.5</ele><time>2026-03-22T11:21:26Z</time></trkpt><trkpt lat="45.568373167267964" lon="11.751114136778742"><ele>28.0</ele><time>2026-03-22T11:21:27Z</time></trkpt><trkpt lat="45.56818867046035" lon="11.751312092452748"><ele>28.0</ele><time>2026-03-22T11:21:28Z</time></trkpt><trkpt lat="45.56800762445998" lon="11.751512561232937"><ele>28.0</ele><time>2026-03-22T11:21:29Z</time></trkpt><trkpt lat="45.567827353073845" lon="11.751713991136494"><ele>28.0</ele><time>2026-03-22T11:21:30Z</time></trkpt><trkpt lat="45.56764319157062" lon="11.751912670428347"><ele>28.0</ele><time>2026-03-22T11:21:31Z</time></trkpt><trkpt lat="45.567459281452344" lon="11.752107932499362"><ele>28.0</ele><time>2026-03-22T11:21:32Z</time></trkpt><trkpt lat="45.567275595229376" lon="11.752305792931416"><ele>28.0</ele><time>2026-03-22T11:21:33Z</time></trkpt><trkpt lat="45.56710015157031" lon="11.752510914735801"><ele>28.0</ele><time>2026-03-22T11:21:34Z</time></trkpt><trkpt lat="45.5669200009865" lon="11.752717379295499"><ele>28.0</ele><time>2026-03-22T11:21:35Z</time></trkpt><trkpt lat="45.566738755811" lon="11.75291585982585"><ele>28.0</ele><time>2026-03-22T11:21:36Z</time></trkpt><trkpt lat="45.566553088145135" lon="11.753118872228008"><ele>28.0</ele><time>2026-03-22T11:21:37Z</time></trkpt><trkpt lat="45.56636163354832" lon="11.753345828988492"><ele>27.0</ele><time>2026-03-22T11:21:38Z</time></trkpt><trkpt lat="45.566158449524295" lon="11.75357863216704"><ele>26.0</ele><time>2026-03-22T11:21:39Z</time></trkpt><trkpt lat="45.565946905438366" lon="11.753808909203878"><ele>26.0</ele><time>2026-03-22T11:21:40Z</time></trkpt><trkpt lat="45.56572991932433" lon="11.75404110731502"><ele>26.0</ele><time>2026-03-22T11:21:41Z</time></trkpt><trkpt lat="45.56552546447225" lon="11.754253143220055"><ele>27.0</ele><time>2026-03-22T11:21:42Z</time></trkpt><trkpt lat="45.56534119613661" lon="11.754435254955945"><ele>28.0</ele><time>2026-03-22T11:21:43Z</time></trkpt><trkpt lat="45.56516567572029" lon="11.754611753404475"><ele>29.0</ele><time>2026-03-22T11:21:44Z</time></trkpt><trkpt lat="45.56498520895151" lon="11.754794375297163"><ele>29.0</ele><time>2026-03-22T11:21:45Z</time></trkpt><trkpt lat="45.56480918042801" lon="11.754993738762288"><ele>29.0</ele><time>2026-03-22T11:21:46Z</time></trkpt><trkpt lat="45.5646322064665" lon="11.755194076344937"><ele>29.0</ele><time>2026-03-22T11:21:47Z</time></trkpt><trkpt lat="45.56445289826617" lon="11.755386868386504"><ele>29.0</ele><time>2026-03-22T11:21:48Z</time></trkpt><trkpt lat="45.56427026113717" lon="11.755578747896767"><ele>29.0</ele><time>2026-03-22T11:21:49Z</time></trkpt><trkpt lat="45.56408846205806" lon="11.755767646378278"><ele>29.0</ele><time>2026-03-22T11:21:50Z</time></trkpt><trkpt lat="45.56390832811063" lon="11.75596110424345"><ele>29.0</ele><time>2026-03-22T11:21:51Z</time></trkpt><trkpt lat="45.56372584728201" lon="11.756157931656446"><ele>29.0</ele><time>2026-03-22T11:21:52Z</time></trkpt><trkpt lat="45.5635450149652" lon="11.756356214816579"><ele>29.0</ele><time>2026-03-22T11:21:53Z</time></trkpt><trkpt lat="45.5633607258178" lon="11.756555824832242"><ele>29.0</ele><time>2026-03-22T11:21:54Z</time></trkpt><trkpt lat="45.56317831489833" lon="11.756753627774486"><ele>29.0</ele><time>2026-03-22T11:21:55Z</time></trkpt><trkpt lat="45.56299613414633" lon="11.756951301064671"><ele>29.0</ele><time>2026-03-22T11:21:56Z</time></trkpt><trkpt lat="45.56281100274206" lon="11.75714771748138"><ele>29.0</ele><time>2026-03-22T11:21:57Z</time></trkpt><trkpt lat="45.56262644960472" lon="11.757345454761815"><ele>29.0</ele><time>2026-03-22T11:21:58Z</time></trkpt><trkpt lat="45.56244658061558" lon="11.757545541292092"><ele>28.5</ele><time>2026-03-22T11:21:59Z</time></trkpt><trkpt lat="45.56226336271561" lon="11.75774963382908"><ele>28.0</ele><time>2026-03-22T11:22:00Z</time></trkpt><trkpt lat="45.56208228044327" lon="11.757947994195142"><ele>29.0</ele><time>2026-03-22T11:22:01Z</time></trkpt><trkpt lat="45.561898915863836" lon="11.758146562425907"><ele>30.0</ele><time>2026-03-22T11:22:02Z</time></trkpt><trkpt lat="45.56171469353348" lon="11.75834257720103"><ele>29.0</ele><time>2026-03-22T11:22:03Z</time></trkpt><trkpt lat="45.56153268000628" lon="11.758540460968891"><ele>28.0</ele><time>2026-03-22T11:22:04Z</time></trkpt><trkpt lat="45.56135388915143" lon="11.758738333206201"><ele>28.0</ele><time>2026-03-22T11:22:05Z</time></trkpt><trkpt lat="45.56117424026372" lon="11.75893597794907"><ele>28.0</ele><time>2026-03-22T11:22:06Z</time></trkpt><trkpt lat="45.560995775426555" lon="11.75913444027282"><ele>28.0</ele><time>2026-03-22T11:22:07Z</time></trkpt><trkpt lat="45.560814415004224" lon="11.759331132274744"><ele>28.0</ele><time>2026-03-22T11:22:08Z</time></trkpt><trkpt lat="45.560633977792364" lon="11.759529868951779"><ele>28.5</ele><time>2026-03-22T11:22:09Z</time></trkpt><trkpt lat="45.56045048829897" lon="11.759731289395976"><ele>29.0</ele><time>2026-03-22T11:22:10Z</time></trkpt><trkpt lat="45.56026686517845" lon="11.759933086355016"><ele>29.5</ele><time>2026-03-22T11:22:11Z</time></trkpt><trkpt lat="45.56008205388322" lon="11.760134795653755"><ele>30.0</ele><time>2026-03-22T11:22:12Z</time></trkpt><trkpt lat="45.559898739629986" lon="11.7603333683379"><ele>30.0</ele><time>2026-03-22T11:22:13Z</time></trkpt><trkpt lat="45.55971464392426" lon="11.760530803420668"><ele>30.0</ele><time>2026-03-22T11:22:14Z</time></trkpt><trkpt lat="45.559530482413976" lon="11.7607245528627"><ele>30.0</ele><time>2026-03-22T11:22:15Z</time></trkpt><trkpt lat="45.55934373633261" lon="11.760919585817526"><ele>30.0</ele><time>2026-03-22T11:22:16Z</time></trkpt><trkpt lat="45.559158805912425" lon="11.761120553267155"><ele>30.0</ele><time>2026-03-22T11:22:17Z</time></trkpt><trkpt lat="45.55897475064264" lon="11.761320178457582"><ele>30.0</ele><time>2026-03-22T11:22:18Z</time></trkpt><trkpt lat="45.55878999914716" lon="11.761521708816135"><ele>28.0</ele><time>2026-03-22T11:22:19Z</time></trkpt><trkpt lat="45.55860739541059" lon="11.761722972922476"><ele>26.0</ele><time>2026-03-22T11:22:20Z</time></trkpt><trkpt lat="45.558427457450094" lon="11.761922976465915"><ele>26.0</ele><time>2026-03-22T11:22:21Z</time></trkpt><trkpt lat="45.558241553538984" lon="11.762122560342336"><ele>26.0</ele><time>2026-03-22T11:22:22Z</time></trkpt><trkpt lat="45.55805662703703" lon="11.762319343404938"><ele>26.0</ele><time>2026-03-22T11:22:23Z</time></trkpt><trkpt lat="45.557876314483714" lon="11.762513497848715"><ele>26.0</ele><time>2026-03-22T11:22:24Z</time></trkpt><trkpt lat="45.5576944301516" lon="11.762706131507397"><ele>27.0</ele><time>2026-03-22T11:22:25Z</time></trkpt><trkpt lat="45.55751166594947" lon="11.76290545946433"><ele>28.0</ele><time>2026-03-22T11:22:26Z</time></trkpt><trkpt lat="45.557332906599704" lon="11.763103512644257"><ele>28.0</ele><time>2026-03-22T11:22:27Z</time></trkpt><trkpt lat="45.55715280209292" lon="11.763299544528433"><ele>28.0</ele><time>2026-03-22T11:22:28Z</time></trkpt><trkpt lat="45.556974815424525" lon="11.76349514119593"><ele>28.0</ele><time>2026-03-22T11:22:29Z</time></trkpt><trkpt lat="45.5567955770871" lon="11.763693091364456"><ele>28.0</ele><time>2026-03-22T11:22:30Z</time></trkpt><trkpt lat="45.556589689343475" lon="11.763845420313725"><ele>28.0</ele><time>2026-03-22T11:22:31Z</time></trkpt><trkpt lat="45.55640591419556" lon="11.76404477301037"><ele>28.0</ele><time>2026-03-22T11:22:32Z</time></trkpt><trkpt lat="45.55622370962001" lon="11.764245415950041"><ele>27.5</ele><time>2026-03-22T11:22:33Z</time></trkpt><trkpt lat="45.55604263967632" lon="11.764444809438327"><ele>27.0</ele><time>2026-03-22T11:22:34Z</time></trkpt><trkpt lat="45.55586185398" lon="11.76464156838366"><ele>27.0</ele><time>2026-03-22T11:22:35Z</time></trkpt><trkpt lat="45.555679695017105" lon="11.76483836571912"><ele>27.0</ele><time>2026-03-22T11:22:36Z</time></trkpt><trkpt lat="45.55549733903053" lon="11.76503537591011"><ele>27.5</ele><time>2026-03-22T11:22:37Z</time></trkpt><trkpt lat="45.55531216542973" lon="11.765234783873403"><ele>28.0</ele><time>2026-03-22T11:22:38Z</time></trkpt><trkpt lat="45.555129286821014" lon="11.765433604655303"><ele>28.0</ele><time>2026-03-22T11:22:39Z</time></trkpt><trkpt lat="45.55494889982351" lon="11.765631171366959"><ele>28.0</ele><time>2026-03-22T11:22:40Z</time></trkpt><trkpt lat="45.554769005256446" lon="11.765828698719654"><ele>27.5</ele><time>2026-03-22T11:22:41Z</time></trkpt><trkpt lat="45.55458463517585" lon="11.766029909944612"><ele>27.0</ele><time>2026-03-22T11:22:42Z</time></trkpt><trkpt lat="45.55440153955303" lon="11.766230808869473"><ele>26.5</ele><time>2026-03-22T11:22:43Z</time></trkpt><trkpt lat="45.55421852700147" lon="11.766431261116585"><ele>26.0</ele><time>2026-03-22T11:22:44Z</time></trkpt><trkpt lat="45.55403664469863" lon="11.76662990501318"><ele>26.0</ele><time>2026-03-22T11:22:45Z</time></trkpt><trkpt lat="45.55385278015654" lon="11.76682827128908"><ele>26.0</ele><time>2026-03-22T11:22:46Z</time></trkpt><trkpt lat="45.553665499895565" lon="11.767016202244262"><ele>26.0</ele><time>2026-03-22T11:22:47Z</time></trkpt><trkpt lat="45.55346392918778" lon="11.767170419721994"><ele>26.0</ele><time>2026-03-22T11:22:48Z</time></trkpt><trkpt lat="45.55325389247663" lon="11.767300468847584"><ele>26.0</ele><time>2026-03-22T11:22:49Z</time></trkpt><trkpt lat="45.553038131527174" lon="11.767420406353546"><ele>26.0</ele><time>2026-03-22T11:22:50Z</time></trkpt><trkpt lat="45.55282357744801" lon="11.767534092841844"><ele>26.0</ele><time>2026-03-22T11:22:51Z</time></trkpt><trkpt lat="45.55260727053476" lon="11.767648762067086"><ele>26.0</ele><time>2026-03-22T11:22:51.999Z</time></trkpt><trkpt lat="45.55238948024164" lon="11.76776391716964"><ele>26.0</ele><time>2026-03-22T11:22:52.999Z</time></trkpt><trkpt lat="45.55217898253769" lon="11.767875652074846"><ele>26.0</ele><time>2026-03-22T11:22:53.999Z</time></trkpt><trkpt lat="45.551980781623236" lon="11.767980066815179"><ele>26.0</ele><time>2026-03-22T11:22:54.999Z</time></trkpt><trkpt lat="45.55180348332629" lon="11.768073627469144"><ele>26.666666666666664</ele><time>2026-03-22T11:22:55.999Z</time></trkpt><trkpt lat="45.551637080368" lon="11.768161438635378"><ele>27.333333333333336</ele><time>2026-03-22T11:22:56.999Z</time></trkpt><trkpt lat="45.5514755877719" lon="11.768246252835175"><ele>28.0</ele><time>2026-03-22T11:22:57.999Z</time></trkpt><trkpt lat="45.55131474410378" lon="11.768330354652663"><ele>28.0</ele><time>2026-03-22T11:22:58.999Z</time></trkpt><trkpt lat="45.55116508546177" lon="11.768408660026635"><ele>28.0</ele><time>2026-03-22T11:22:59.999Z</time></trkpt><trkpt lat="45.551016819986884" lon="11.76848623644668"><ele>28.0</ele><time>2026-03-22T11:23:00.999Z</time></trkpt><trkpt lat="45.550876545297285" lon="11.768559631880894"><ele>28.0</ele><time>2026-03-22T11:23:01.999Z</time></trkpt><trkpt lat="45.55073964642698" lon="11.768631261000065"><ele>28.0</ele><time>2026-03-22T11:23:02.999Z</time></trkpt><trkpt lat="45.55061009291921" lon="11.768699046828763"><ele>28.0</ele><time>2026-03-22T11:23:03.999Z</time></trkpt><trkpt lat="45.5504844696453" lon="11.768764952670079"><ele>28.0</ele><time>2026-03-22T11:23:04.999Z</time></trkpt><trkpt lat="45.55036370509736" lon="11.768828404619677"><ele>27.799999999999997</ele><time>2026-03-22T11:23:05.999Z</time></trkpt><trkpt lat="45.5502533805857" lon="11.768886371175947"><ele>27.599999999999998</ele><time>2026-03-22T11:23:06.999Z</time></trkpt><trkpt lat="45.550152531422604" lon="11.768939359209604"><ele>27.400000000000002</ele><time>2026-03-22T11:23:07.999Z</time></trkpt><trkpt lat="45.55006375742863" lon="11.768986002722954"><ele>27.200000000000003</ele><time>2026-03-22T11:23:08.999Z</time></trkpt><trkpt lat="45.54998604451308" lon="11.769026834539359"><ele>27.0</ele><time>2026-03-22T11:23:09.999Z</time></trkpt><trkpt lat="45.549921725942" lon="11.76906062871431"><ele>27.0</ele><time>2026-03-22T11:23:10.999Z</time></trkpt><trkpt lat="45.54982155354101" lon="11.769112903050646"><ele>27.0</ele><time>2026-03-22T11:23:12.999Z</time></trkpt><trkpt lat="45.54973857075302" lon="11.769156105426138"><ele>27.0</ele><time>2026-03-22T11:23:54Z</time></trkpt><trkpt lat="45.54967241924433" lon="11.769190545130627"><ele>27.0</ele><time>2026-03-22T11:23:55Z</time></trkpt><trkpt lat="45.54960474992577" lon="11.769225775032641"><ele>27.0</ele><time>2026-03-22T11:23:56Z</time></trkpt><trkpt lat="45.549540188899485" lon="11.769259386701437"><ele>27.0</ele><time>2026-03-22T11:23:57Z</time></trkpt><trkpt lat="45.54947542399364" lon="11.769293104514206"><ele>27.0</ele><time>2026-03-22T11:23:58Z</time></trkpt><trkpt lat="45.549406816839564" lon="11.769328822671882"><ele>27.0</ele><time>2026-03-22T11:23:59Z</time></trkpt><trkpt lat="45.549334603379194" lon="11.769366418340205"><ele>27.0</ele><time>2026-03-22T11:24:00Z</time></trkpt><trkpt lat="45.549256828415885" lon="11.769406909444736"><ele>27.0</ele><time>2026-03-22T11:24:01Z</time></trkpt><trkpt lat="45.54917925726002" lon="11.769447260706437"><ele>27.0</ele><time>2026-03-22T11:24:02Z</time></trkpt><trkpt lat="45.54909360879157" lon="11.769491820856203"><ele>27.0</ele><time>2026-03-22T11:24:03Z</time></trkpt><trkpt lat="45.54899361582559" lon="11.769543844028481"><ele>27.0</ele><time>2026-03-22T11:24:04Z</time></trkpt><trkpt lat="45.548887317608" lon="11.769598918283041"><ele>27.0</ele><time>2026-03-22T11:24:05Z</time></trkpt><trkpt lat="45.54878480194682" lon="11.769652848998891"><ele>27.0</ele><time>2026-03-22T11:24:06Z</time></trkpt><trkpt lat="45.54867232987569" lon="11.769712116873514"><ele>27.0</ele><time>2026-03-22T11:24:07Z</time></trkpt><trkpt lat="45.54854866310251" lon="11.769777022885295"><ele>26.5</ele><time>2026-03-22T11:24:08Z</time></trkpt><trkpt lat="45.54845489115161" lon="11.769826238713895"><ele>26.0</ele><time>2026-03-22T11:24:09Z</time></trkpt><trkpt lat="45.54832293432715" lon="11.769895495919982"><ele>25.5</ele><time>2026-03-22T11:24:10Z</time></trkpt><trkpt lat="45.54818177196519" lon="11.769969584184382"><ele>25.0</ele><time>2026-03-22T11:24:11Z</time></trkpt><trkpt lat="45.54802672438613" lon="11.770050960406452"><ele>25.0</ele><time>2026-03-22T11:24:12Z</time></trkpt><trkpt lat="45.54785126211608" lon="11.770143051099213"><ele>25.0</ele><time>2026-03-22T11:24:13Z</time></trkpt><trkpt lat="45.5476537992536" lon="11.770246688525349"><ele>25.0</ele><time>2026-03-22T11:24:14Z</time></trkpt><trkpt lat="45.547438126744716" lon="11.770359883583328"><ele>25.0</ele><time>2026-03-22T11:24:15Z</time></trkpt><trkpt lat="45.54724626804468" lon="11.770460581853541"><ele>25.0</ele><time>2026-03-22T11:24:16Z</time></trkpt><trkpt lat="45.54705291152952" lon="11.770562064274245"><ele>25.0</ele><time>2026-03-22T11:24:17Z</time></trkpt><trkpt lat="45.54686272528389" lon="11.770661882795071"><ele>24.666666666666668</ele><time>2026-03-22T11:24:18Z</time></trkpt><trkpt lat="45.54667875601845" lon="11.770758438343497"><ele>24.333333333333336</ele><time>2026-03-22T11:24:19Z</time></trkpt><trkpt lat="45.546497055449706" lon="11.770853658148647"><ele>24.0</ele><time>2026-03-22T11:24:20Z</time></trkpt><trkpt lat="45.54631542898937" lon="11.770948384108213"><ele>24.333333333333336</ele><time>2026-03-22T11:24:21Z</time></trkpt><trkpt lat="45.54612650070843" lon="11.771048517182965"><ele>24.666666666666668</ele><time>2026-03-22T11:24:22Z</time></trkpt><trkpt lat="45.54592927903978" lon="11.7711533011573"><ele>25.0</ele><time>2026-03-22T11:24:23Z</time></trkpt><trkpt lat="45.54572765369456" lon="11.771260648144986"><ele>25.0</ele><time>2026-03-22T11:24:24Z</time></trkpt><trkpt lat="45.5455224534231" lon="11.771369898404515"><ele>25.0</ele><time>2026-03-22T11:24:25Z</time></trkpt><trkpt lat="45.545320491057666" lon="11.771477424795306"><ele>25.0</ele><time>2026-03-22T11:24:26Z</time></trkpt><trkpt lat="45.54512903640967" lon="11.771578231283687"><ele>25.333333333333336</ele><time>2026-03-22T11:24:27Z</time></trkpt><trkpt lat="45.54494155018889" lon="11.77167691627284"><ele>25.666666666666664</ele><time>2026-03-22T11:24:28Z</time></trkpt><trkpt lat="45.54476112871408" lon="11.771771778211091"><ele>26.0</ele><time>2026-03-22T11:24:29Z</time></trkpt><trkpt lat="45.544589937543606" lon="11.771860644838668"><ele>25.666666666666664</ele><time>2026-03-22T11:24:30Z</time></trkpt><trkpt lat="45.544426026480124" lon="11.771944109331235"><ele>25.333333333333336</ele><time>2026-03-22T11:24:31Z</time></trkpt><trkpt lat="45.54427057335781" lon="11.772023654712967"><ele>25.0</ele><time>2026-03-22T11:24:32Z</time></trkpt><trkpt lat="45.544104005930585" lon="11.77211037892077"><ele>25.0</ele><time>2026-03-22T11:24:33Z</time></trkpt><trkpt lat="45.54394493209712" lon="11.772193201052168"><ele>25.0</ele><time>2026-03-22T11:24:34Z</time></trkpt><trkpt lat="45.5437877250392" lon="11.772276078300495"><ele>25.0</ele><time>2026-03-22T11:24:35Z</time></trkpt><trkpt lat="45.54363738313299" lon="11.772355008628018"><ele>25.333333333333336</ele><time>2026-03-22T11:24:36Z</time></trkpt><trkpt lat="45.543492722770644" lon="11.772430956152343"><ele>25.666666666666664</ele><time>2026-03-22T11:24:37Z</time></trkpt><trkpt lat="45.543344619481935" lon="11.77250871123004"><ele>26.0</ele><time>2026-03-22T11:24:38Z</time></trkpt><trkpt lat="45.54320694922015" lon="11.772580988977493"><ele>26.0</ele><time>2026-03-22T11:24:39Z</time></trkpt><trkpt lat="45.54306506803287" lon="11.772655666191886"><ele>26.0</ele><time>2026-03-22T11:24:40Z</time></trkpt><trkpt lat="45.54290287823087" lon="11.772741115133865"><ele>26.0</ele><time>2026-03-22T11:24:41Z</time></trkpt><trkpt lat="45.54273823689859" lon="11.772827855448524"><ele>26.0</ele><time>2026-03-22T11:24:42Z</time></trkpt><trkpt lat="45.54256543985722" lon="11.772918892535996"><ele>26.0</ele><time>2026-03-22T11:24:43Z</time></trkpt><trkpt lat="45.54240344879311" lon="11.773004237131174"><ele>26.0</ele><time>2026-03-22T11:24:44Z</time></trkpt><trkpt lat="45.54224283210094" lon="11.773088777929232"><ele>26.0</ele><time>2026-03-22T11:24:45Z</time></trkpt><trkpt lat="45.54209691470632" lon="11.773164099087637"><ele>26.0</ele><time>2026-03-22T11:24:46Z</time></trkpt><trkpt lat="45.54196758510316" lon="11.773231187583825"><ele>26.0</ele><time>2026-03-22T11:24:47Z</time></trkpt><trkpt lat="45.541849644164024" lon="11.773292368313182"><ele>26.0</ele><time>2026-03-22T11:24:48Z</time></trkpt><trkpt lat="45.54174182609132" lon="11.773348297895453"><ele>26.0</ele><time>2026-03-22T11:24:49Z</time></trkpt><trkpt lat="45.541637397048824" lon="11.773402882833993"><ele>26.0</ele><time>2026-03-22T11:24:50Z</time></trkpt><trkpt lat="45.541543928576246" lon="11.773452076738803"><ele>26.0</ele><time>2026-03-22T11:24:51Z</time></trkpt><trkpt lat="45.541460020088266" lon="11.773496239141885"><ele>26.0</ele><time>2026-03-22T11:24:52Z</time></trkpt><trkpt lat="45.541395515965206" lon="11.773530188616615"><ele>26.0</ele><time>2026-03-22T11:24:52.999Z</time></trkpt><trkpt lat="45.54131891451619" lon="11.773570307793626"><ele>26.0</ele><time>2026-03-22T11:24:54.999Z</time></trkpt><trkpt lat="45.541199333635966" lon="11.773632602563055"><ele>26.0</ele><time>2026-03-22T11:25:25.999Z</time></trkpt><trkpt lat="45.541118756945366" lon="11.773674460362558"><ele>26.0</ele><time>2026-03-22T11:25:26.999Z</time></trkpt><trkpt lat="45.54102562240649" lon="11.773721568063339"><ele>26.0</ele><time>2026-03-22T11:25:27.999Z</time></trkpt><trkpt lat="45.54091838770189" lon="11.773775806828745"><ele>26.0</ele><time>2026-03-22T11:25:28.999Z</time></trkpt><trkpt lat="45.54078423064564" lon="11.773845955320594"><ele>26.0</ele><time>2026-03-22T11:25:29.999Z</time></trkpt><trkpt lat="45.54064683058335" lon="11.77391676981033"><ele>26.0</ele><time>2026-03-22T11:25:30.999Z</time></trkpt><trkpt lat="45.54048956450282" lon="11.77399804573836"><ele>26.0</ele><time>2026-03-22T11:25:32Z</time></trkpt><trkpt lat="45.54032761635222" lon="11.774083052077563"><ele>26.0</ele><time>2026-03-22T11:25:33Z</time></trkpt><trkpt lat="45.540157814221736" lon="11.774172180924928"><ele>26.0</ele><time>2026-03-22T11:25:34Z</time></trkpt><trkpt lat="45.53997719153786" lon="11.774265034055386"><ele>26.0</ele><time>2026-03-22T11:25:35Z</time></trkpt><trkpt lat="45.539791490314684" lon="11.77435995491982"><ele>26.333333333333332</ele><time>2026-03-22T11:25:36Z</time></trkpt><trkpt lat="45.5396114998676" lon="11.774452829831837"><ele>26.666666666666664</ele><time>2026-03-22T11:25:37Z</time></trkpt><trkpt lat="45.539414450128554" lon="11.774555445549785"><ele>27.0</ele><time>2026-03-22T11:25:38Z</time></trkpt><trkpt lat="45.5392269389954" lon="11.774653094004487"><ele>27.0</ele><time>2026-03-22T11:25:39Z</time></trkpt><trkpt lat="45.53902339162977" lon="11.774759093414426"><ele>27.0</ele><time>2026-03-22T11:25:40Z</time></trkpt><trkpt lat="45.53881629164395" lon="11.774866942979113"><ele>27.0</ele><time>2026-03-22T11:25:41Z</time></trkpt><trkpt lat="45.53860504477197" lon="11.774975360195464"><ele>26.333333333333336</ele><time>2026-03-22T11:25:42Z</time></trkpt><trkpt lat="45.538399732048106" lon="11.775080711520612"><ele>25.666666666666668</ele><time>2026-03-22T11:25:43Z</time></trkpt><trkpt lat="45.538200944239925" lon="11.77524035596621"><ele>25.0</ele><time>2026-03-22T11:25:44Z</time></trkpt><trkpt lat="45.537983723090434" lon="11.77535495766319"><ele>25.0</ele><time>2026-03-22T11:25:45Z</time></trkpt><trkpt lat="45.53776503767765" lon="11.775466695808996"><ele>25.0</ele><time>2026-03-22T11:25:46Z</time></trkpt><trkpt lat="45.537546721836634" lon="11.775577231624688"><ele>25.0</ele><time>2026-03-22T11:25:47Z</time></trkpt><trkpt lat="45.53731746727562" lon="11.775648384392367"><ele>25.0</ele><time>2026-03-22T11:25:48Z</time></trkpt><trkpt lat="45.53710393120491" lon="11.775761060401775"><ele>25.0</ele><time>2026-03-22T11:25:49Z</time></trkpt><trkpt lat="45.53689349590069" lon="11.775871459629267"><ele>25.0</ele><time>2026-03-22T11:25:50Z</time></trkpt><trkpt lat="45.53668615635125" lon="11.77597996653166"><ele>25.0</ele><time>2026-03-22T11:25:51Z</time></trkpt><trkpt lat="45.53648594836673" lon="11.776083663355264"><ele>25.0</ele><time>2026-03-22T11:25:52Z</time></trkpt><trkpt lat="45.53627922556762" lon="11.776190734524894"><ele>25.0</ele><time>2026-03-22T11:25:53Z</time></trkpt><trkpt lat="45.53607248187541" lon="11.776297816501948"><ele>25.0</ele><time>2026-03-22T11:25:54Z</time></trkpt><trkpt lat="45.535864358868245" lon="11.776405392203806"><ele>25.0</ele><time>2026-03-22T11:25:55Z</time></trkpt><trkpt lat="45.5356558759857" lon="11.776512338111601"><ele>25.0</ele><time>2026-03-22T11:25:56Z</time></trkpt><trkpt lat="45.53544529449273" lon="11.776620360542498"><ele>25.0</ele><time>2026-03-22T11:25:57Z</time></trkpt><trkpt lat="45.535231874117535" lon="11.77672983924574"><ele>25.0</ele><time>2026-03-22T11:25:58Z</time></trkpt><trkpt lat="45.535013117794335" lon="11.776842054660642"><ele>25.0</ele><time>2026-03-22T11:25:59Z</time></trkpt><trkpt lat="45.5347983921397" lon="11.776952211065819"><ele>25.0</ele><time>2026-03-22T11:26:00Z</time></trkpt><trkpt lat="45.534585414251936" lon="11.777061468562573"><ele>25.0</ele><time>2026-03-22T11:26:01Z</time></trkpt><trkpt lat="45.53437127195925" lon="11.777174339640393"><ele>25.0</ele><time>2026-03-22T11:26:02Z</time></trkpt><trkpt lat="45.53415818010959" lon="11.777287268506447"><ele>25.0</ele><time>2026-03-22T11:26:03Z</time></trkpt><trkpt lat="45.533944415632824" lon="11.777398469702629"><ele>25.0</ele><time>2026-03-22T11:26:04Z</time></trkpt><trkpt lat="45.533729078494495" lon="11.777510686848291"><ele>25.0</ele><time>2026-03-22T11:26:05Z</time></trkpt><trkpt lat="45.53352008611653" lon="11.77762044987889"><ele>24.5</ele><time>2026-03-22T11:26:06Z</time></trkpt><trkpt lat="45.53330973025533" lon="11.777729337976726"><ele>24.0</ele><time>2026-03-22T11:26:07Z</time></trkpt><trkpt lat="45.53309690513894" lon="11.77783908265172"><ele>24.0</ele><time>2026-03-22T11:26:08Z</time></trkpt><trkpt lat="45.53288139076003" lon="11.777951736954524"><ele>24.0</ele><time>2026-03-22T11:26:09Z</time></trkpt><trkpt lat="45.532668069237126" lon="11.77806299097518"><ele>24.0</ele><time>2026-03-22T11:26:10Z</time></trkpt><trkpt lat="45.53245537313357" lon="11.778173920845013"><ele>24.0</ele><time>2026-03-22T11:26:11Z</time></trkpt><trkpt lat="45.53223849502795" lon="11.778284730667842"><ele>25.0</ele><time>2026-03-22T11:26:12Z</time></trkpt><trkpt lat="45.5320226206861" lon="11.778396385200235"><ele>26.0</ele><time>2026-03-22T11:26:13Z</time></trkpt><trkpt lat="45.5318066011487" lon="11.778509420777347"><ele>25.5</ele><time>2026-03-22T11:26:14Z</time></trkpt><trkpt lat="45.53158879041724" lon="11.778622955685346"><ele>25.0</ele><time>2026-03-22T11:26:15Z</time></trkpt><trkpt lat="45.531374765937365" lon="11.778734450546821"><ele>24.5</ele><time>2026-03-22T11:26:16Z</time></trkpt><trkpt lat="45.53115971725258" lon="11.778846101278665"><ele>24.0</ele><time>2026-03-22T11:26:17Z</time></trkpt><trkpt lat="45.53094325967374" lon="11.778957980615091"><ele>24.0</ele><time>2026-03-22T11:26:18Z</time></trkpt><trkpt lat="45.530725810444224" lon="11.779070372505048"><ele>24.0</ele><time>2026-03-22T11:26:19Z</time></trkpt><trkpt lat="45.53050787408082" lon="11.77918301617542"><ele>24.0</ele><time>2026-03-22T11:26:20Z</time></trkpt><trkpt lat="45.5302893872487" lon="11.77929627428617"><ele>24.0</ele><time>2026-03-22T11:26:21Z</time></trkpt><trkpt lat="45.53007554067041" lon="11.779408311728533"><ele>24.5</ele><time>2026-03-22T11:26:22Z</time></trkpt><trkpt lat="45.52985880806943" lon="11.779521861266419"><ele>25.0</ele><time>2026-03-22T11:26:23Z</time></trkpt><trkpt lat="45.52964269909904" lon="11.779635084045823"><ele>24.0</ele><time>2026-03-22T11:26:24Z</time></trkpt><trkpt lat="45.52942537948184" lon="11.779748941048096"><ele>23.0</ele><time>2026-03-22T11:26:25Z</time></trkpt><trkpt lat="45.529208378105" lon="11.779862630239565"><ele>23.0</ele><time>2026-03-22T11:26:26Z</time></trkpt><trkpt lat="45.52899438825029" lon="11.779974741664246"><ele>23.0</ele><time>2026-03-22T11:26:27Z</time></trkpt><trkpt lat="45.528790552893135" lon="11.780127217099215"><ele>23.5</ele><time>2026-03-22T11:26:28Z</time></trkpt><trkpt lat="45.528576538033676" lon="11.780235967592425"><ele>24.0</ele><time>2026-03-22T11:26:29Z</time></trkpt><trkpt lat="45.528362585764725" lon="11.780347194095127"><ele>24.0</ele><time>2026-03-22T11:26:30Z</time></trkpt><trkpt lat="45.528149362548895" lon="11.780458655272412"><ele>24.0</ele><time>2026-03-22T11:26:31Z</time></trkpt><trkpt lat="45.52793327531598" lon="11.780569284148985"><ele>23.5</ele><time>2026-03-22T11:26:32Z</time></trkpt><trkpt lat="45.52771794437304" lon="11.780681268620148"><ele>23.0</ele><time>2026-03-22T11:26:33Z</time></trkpt><trkpt lat="45.52750350736202" lon="11.780793008575303"><ele>23.0</ele><time>2026-03-22T11:26:34Z</time></trkpt><trkpt lat="45.527287822024945" lon="11.780901261998164"><ele>23.0</ele><time>2026-03-22T11:26:35Z</time></trkpt><trkpt lat="45.52707575905364" lon="11.78101162399682"><ele>22.5</ele><time>2026-03-22T11:26:36Z</time></trkpt><trkpt lat="45.52686014237903" lon="11.781123344645197"><ele>22.0</ele><time>2026-03-22T11:26:37Z</time></trkpt><trkpt lat="45.52664459020951" lon="11.781239706970185"><ele>22.0</ele><time>2026-03-22T11:26:38Z</time></trkpt><trkpt lat="45.52642959983936" lon="11.781356235657483"><ele>22.0</ele><time>2026-03-22T11:26:39Z</time></trkpt><trkpt lat="45.52621549424135" lon="11.781468853544895"><ele>23.0</ele><time>2026-03-22T11:26:40Z</time></trkpt><trkpt lat="45.525994262507155" lon="11.781577010120154"><ele>24.0</ele><time>2026-03-22T11:26:41Z</time></trkpt><trkpt lat="45.52578103547466" lon="11.781689509836667"><ele>24.0</ele><time>2026-03-22T11:26:42Z</time></trkpt><trkpt lat="45.525567794228685" lon="11.781802143456908"><ele>24.0</ele><time>2026-03-22T11:26:43Z</time></trkpt><trkpt lat="45.525354286367836" lon="11.78191939066752"><ele>23.666666666666668</ele><time>2026-03-22T11:26:44Z</time></trkpt><trkpt lat="45.52513922361546" lon="11.782030243788068"><ele>23.333333333333336</ele><time>2026-03-22T11:26:45Z</time></trkpt><trkpt lat="45.52493234537206" lon="11.782138238849857"><ele>23.0</ele><time>2026-03-22T11:26:46Z</time></trkpt><trkpt lat="45.52475527180754" lon="11.782221928032769"><ele>23.0</ele><time>2026-03-22T11:26:47Z</time></trkpt><trkpt lat="45.52460170686016" lon="11.782277823480293"><ele>23.0</ele><time>2026-03-22T11:26:48Z</time></trkpt><trkpt lat="45.52446873651578" lon="11.782302224792732"><ele>23.0</ele><time>2026-03-22T11:26:49Z</time></trkpt><trkpt lat="45.524358212760774" lon="11.782296995082266"><ele>23.0</ele><time>2026-03-22T11:26:50Z</time></trkpt><trkpt lat="45.52426205334804" lon="11.782258415567762"><ele>22.833333333333336</ele><time>2026-03-22T11:26:51Z</time></trkpt><trkpt lat="45.52418088870966" lon="11.78217805251031"><ele>22.666666666666668</ele><time>2026-03-22T11:26:52Z</time></trkpt><trkpt lat="45.52410996195267" lon="11.782095436907547"><ele>22.5</ele><time>2026-03-22T11:26:53Z</time></trkpt><trkpt lat="45.52403609740514" lon="11.782061729887605"><ele>22.333333333333332</ele><time>2026-03-22T11:26:54Z</time></trkpt><trkpt lat="45.523958990472465" lon="11.782091124769536"><ele>22.166666666666664</ele><time>2026-03-22T11:26:54.999Z</time></trkpt><trkpt lat="45.52388707088608" lon="11.782168376801028"><ele>22.0</ele><time>2026-03-22T11:26:55.999Z</time></trkpt><trkpt lat="45.52380957527934" lon="11.782256267171983"><ele>22.0</ele><time>2026-03-22T11:26:56.999Z</time></trkpt><trkpt lat="45.52371081126767" lon="11.782305771268977"><ele>22.0</ele><time>2026-03-22T11:26:57.999Z</time></trkpt><trkpt lat="45.52358187903182" lon="11.782306463770182"><ele>22.0</ele><time>2026-03-22T11:26:58.999Z</time></trkpt><trkpt lat="45.523433727497626" lon="11.782290101481784"><ele>22.0</ele><time>2026-03-22T11:26:59.999Z</time></trkpt><trkpt lat="45.52325325095256" lon="11.782287219544267"><ele>22.0</ele><time>2026-03-22T11:27:00.999Z</time></trkpt><trkpt lat="45.52306411469431" lon="11.782297777584784"><ele>22.0</ele><time>2026-03-22T11:27:01.999Z</time></trkpt><trkpt lat="45.52287518648437" lon="11.782328642806238"><ele>22.0</ele><time>2026-03-22T11:27:02.999Z</time></trkpt><trkpt lat="45.52267059938632" lon="11.782400649682268"><ele>22.5</ele><time>2026-03-22T11:27:03.999Z</time></trkpt><trkpt lat="45.52245964453918" lon="11.782521879051895"><ele>23.0</ele><time>2026-03-22T11:27:04.999Z</time></trkpt><trkpt lat="45.522245296703794" lon="11.782672738219878"><ele>22.5</ele><time>2026-03-22T11:27:05.999Z</time></trkpt><trkpt lat="45.52203789648412" lon="11.782814243998423"><ele>22.0</ele><time>2026-03-22T11:27:06.999Z</time></trkpt><trkpt lat="45.521826390291785" lon="11.782950235086263"><ele>22.0</ele><time>2026-03-22T11:27:07.999Z</time></trkpt><trkpt lat="45.52160514423307" lon="11.783089906237825"><ele>22.0</ele><time>2026-03-22T11:27:08.999Z</time></trkpt><trkpt lat="45.52138585784179" lon="11.78323069273037"><ele>22.0</ele><time>2026-03-22T11:27:09.999Z</time></trkpt><trkpt lat="45.52116723337148" lon="11.78337047853949"><ele>22.0</ele><time>2026-03-22T11:27:10.999Z</time></trkpt><trkpt lat="45.52095611043676" lon="11.783505162945376"><ele>22.0</ele><time>2026-03-22T11:27:11.999Z</time></trkpt><trkpt lat="45.52074260460472" lon="11.783634880274247"><ele>22.0</ele><time>2026-03-22T11:27:12.999Z</time></trkpt><trkpt lat="45.52053311718739" lon="11.78376251885085"><ele>21.666666666666664</ele><time>2026-03-22T11:27:13.999Z</time></trkpt><trkpt lat="45.520324088399185" lon="11.783883118719045"><ele>21.333333333333332</ele><time>2026-03-22T11:27:14.999Z</time></trkpt><trkpt lat="45.52011644641957" lon="11.783995293204603"><ele>21.0</ele><time>2026-03-22T11:27:15.999Z</time></trkpt><trkpt lat="45.51990485405238" lon="11.784099410412104"><ele>21.0</ele><time>2026-03-22T11:27:16.999Z</time></trkpt><trkpt lat="45.51969260531416" lon="11.784200911750666"><ele>21.0</ele><time>2026-03-22T11:27:17.999Z</time></trkpt><trkpt lat="45.51948125590459" lon="11.7843079104076"><ele>21.0</ele><time>2026-03-22T11:27:18.999Z</time></trkpt><trkpt lat="45.51927078055206" lon="11.784419065904087"><ele>20.5</ele><time>2026-03-22T11:27:19.999Z</time></trkpt><trkpt lat="45.51906042854807" lon="11.784533933694634"><ele>20.0</ele><time>2026-03-22T11:27:20.999Z</time></trkpt><trkpt lat="45.518850134381694" lon="11.784645625908519"><ele>21.0</ele><time>2026-03-22T11:27:21.999Z</time></trkpt><trkpt lat="45.518637960392304" lon="11.784757161162778"><ele>22.0</ele><time>2026-03-22T11:27:22.999Z</time></trkpt><trkpt lat="45.5184271601905" lon="11.784869716063797"><ele>22.0</ele><time>2026-03-22T11:27:23.999Z</time></trkpt><trkpt lat="45.51821068557337" lon="11.784977319472409"><ele>22.0</ele><time>2026-03-22T11:27:24.999Z</time></trkpt><trkpt lat="45.517991271014296" lon="11.785080068291006"><ele>22.0</ele><time>2026-03-22T11:27:25.999Z</time></trkpt><trkpt lat="45.51776532059515" lon="11.785159424825967"><ele>22.0</ele><time>2026-03-22T11:27:26.999Z</time></trkpt><trkpt lat="45.51753913549233" lon="11.785225165941267"><ele>21.5</ele><time>2026-03-22T11:27:27.999Z</time></trkpt><trkpt lat="45.51730637468326" lon="11.785283629461475"><ele>21.0</ele><time>2026-03-22T11:27:28.999Z</time></trkpt><trkpt lat="45.51707691507901" lon="11.785344144942002"><ele>21.0</ele><time>2026-03-22T11:27:29.999Z</time></trkpt><trkpt lat="45.51685021661554" lon="11.785411635469616"><ele>21.0</ele><time>2026-03-22T11:27:30.999Z</time></trkpt><trkpt lat="45.51661988919517" lon="11.785442724247142"><ele>21.0</ele><time>2026-03-22T11:27:31.999Z</time></trkpt><trkpt lat="45.51639339737926" lon="11.785507507399583"><ele>21.0</ele><time>2026-03-22T11:27:32.999Z</time></trkpt><trkpt lat="45.51616788912852" lon="11.785572009332014"><ele>21.5</ele><time>2026-03-22T11:27:33.999Z</time></trkpt><trkpt lat="45.51593861315056" lon="11.785637168165707"><ele>22.0</ele><time>2026-03-22T11:27:34.999Z</time></trkpt><trkpt lat="45.515716413112074" lon="11.785700379300838"><ele>22.0</ele><time>2026-03-22T11:27:35.999Z</time></trkpt><trkpt lat="45.51549601016155" lon="11.785762756826898"><ele>22.0</ele><time>2026-03-22T11:27:36.999Z</time></trkpt><trkpt lat="45.51527071662421" lon="11.785826130597934"><ele>22.0</ele><time>2026-03-22T11:27:38Z</time></trkpt><trkpt lat="45.515047780786" lon="11.785888841158886"><ele>22.0</ele><time>2026-03-22T11:27:39Z</time></trkpt><trkpt lat="45.51482794245093" lon="11.78595068040996"><ele>21.5</ele><time>2026-03-22T11:27:40Z</time></trkpt><trkpt lat="45.51460319446063" lon="11.786013900723715"><ele>21.0</ele><time>2026-03-22T11:27:41Z</time></trkpt><trkpt lat="45.51437805538578" lon="11.78607723104747"><ele>21.0</ele><time>2026-03-22T11:27:42Z</time></trkpt><trkpt lat="45.51415615585454" lon="11.786139650100678"><ele>21.0</ele><time>2026-03-22T11:27:43Z</time></trkpt><trkpt lat="45.513932274319" lon="11.786203562947868"><ele>21.0</ele><time>2026-03-22T11:27:44Z</time></trkpt><trkpt lat="45.51370834846274" lon="11.786267644586166"><ele>21.0</ele><time>2026-03-22T11:27:45Z</time></trkpt><trkpt lat="45.513485867339895" lon="11.786330871550787"><ele>21.0</ele><time>2026-03-22T11:27:46Z</time></trkpt><trkpt lat="45.51326178503102" lon="11.786394553559797"><ele>21.0</ele><time>2026-03-22T11:27:47Z</time></trkpt><trkpt lat="45.51305413890512" lon="11.78645376038064"><ele>21.0</ele><time>2026-03-22T11:27:48Z</time></trkpt><trkpt lat="45.512864676003744" lon="11.786507903602415"><ele>21.333333333333332</ele><time>2026-03-22T11:27:49Z</time></trkpt><trkpt lat="45.512684558984944" lon="11.786559376002295"><ele>21.666666666666664</ele><time>2026-03-22T11:27:50Z</time></trkpt><trkpt lat="45.512504177206736" lon="11.786610926026668"><ele>22.0</ele><time>2026-03-22T11:27:51Z</time></trkpt><trkpt lat="45.512338606691024" lon="11.786657834729937"><ele>22.0</ele><time>2026-03-22T11:27:52Z</time></trkpt><trkpt lat="45.51217436233781" lon="11.786704088344283"><ele>22.0</ele><time>2026-03-22T11:27:53Z</time></trkpt><trkpt lat="45.512012079759316" lon="11.78674978946509"><ele>22.0</ele><time>2026-03-22T11:27:54Z</time></trkpt><trkpt lat="45.51185338955243" lon="11.786794181506751"><ele>22.0</ele><time>2026-03-22T11:27:55Z</time></trkpt><trkpt lat="45.51168163963559" lon="11.78684200655659"><ele>22.0</ele><time>2026-03-22T11:27:56Z</time></trkpt><trkpt lat="45.511499337061224" lon="11.786895196500131"><ele>22.0</ele><time>2026-03-22T11:27:57Z</time></trkpt><trkpt lat="45.511309564804634" lon="11.786956139617233"><ele>22.0</ele><time>2026-03-22T11:27:58Z</time></trkpt><trkpt lat="45.51111774661272" lon="11.787028853178771"><ele>22.0</ele><time>2026-03-22T11:27:59Z</time></trkpt><trkpt lat="45.51092171888599" lon="11.78712704416845"><ele>22.0</ele><time>2026-03-22T11:28:00Z</time></trkpt><trkpt lat="45.51072373369066" lon="11.787248431951419"><ele>22.0</ele><time>2026-03-22T11:28:01Z</time></trkpt><trkpt lat="45.51052581988238" lon="11.787385945272996"><ele>22.0</ele><time>2026-03-22T11:28:02Z</time></trkpt><trkpt lat="45.51032838213957" lon="11.787520743157582"><ele>22.0</ele><time>2026-03-22T11:28:03Z</time></trkpt><trkpt lat="45.51012898133279" lon="11.787656881330538"><ele>22.0</ele><time>2026-03-22T11:28:04Z</time></trkpt><trkpt lat="45.509926509989185" lon="11.78779511587645"><ele>22.0</ele><time>2026-03-22T11:28:05Z</time></trkpt><trkpt lat="45.5097248959267" lon="11.787934247310611"><ele>22.0</ele><time>2026-03-22T11:28:06Z</time></trkpt><trkpt lat="45.50951485287963" lon="11.788079195099105"><ele>22.5</ele><time>2026-03-22T11:28:07Z</time></trkpt><trkpt lat="45.5093075796656" lon="11.788222231408954"><ele>23.0</ele><time>2026-03-22T11:28:08Z</time></trkpt><trkpt lat="45.50909621272486" lon="11.7883679913007"><ele>22.5</ele><time>2026-03-22T11:28:09Z</time></trkpt><trkpt lat="45.50888675021496" lon="11.788512291100051"><ele>22.0</ele><time>2026-03-22T11:28:10Z</time></trkpt><trkpt lat="45.508680976190945" lon="11.788654049866873"><ele>21.5</ele><time>2026-03-22T11:28:11Z</time></trkpt><trkpt lat="45.50849529848353" lon="11.788843181693956"><ele>21.0</ele><time>2026-03-22T11:28:12Z</time></trkpt><trkpt lat="45.50829600536704" lon="11.78898699423045"><ele>21.0</ele><time>2026-03-22T11:28:13Z</time></trkpt><trkpt lat="45.50809449110475" lon="11.789132929934846"><ele>21.0</ele><time>2026-03-22T11:28:14Z</time></trkpt><trkpt lat="45.507893488362356" lon="11.789277394639138"><ele>21.5</ele><time>2026-03-22T11:28:15Z</time></trkpt><trkpt lat="45.50766752926628" lon="11.78935538655278"><ele>22.0</ele><time>2026-03-22T11:28:16Z</time></trkpt><trkpt lat="45.50746628663066" lon="11.789494682561283"><ele>22.0</ele><time>2026-03-22T11:28:17Z</time></trkpt><trkpt lat="45.50726266751294" lon="11.789635625301138"><ele>22.0</ele><time>2026-03-22T11:28:18Z</time></trkpt><trkpt lat="45.50705795041731" lon="11.78977730659801"><ele>21.5</ele><time>2026-03-22T11:28:19Z</time></trkpt><trkpt lat="45.506855307543326" lon="11.789920725689994"><ele>21.0</ele><time>2026-03-22T11:28:20Z</time></trkpt><trkpt lat="45.506662303666054" lon="11.790113315142895"><ele>21.0</ele><time>2026-03-22T11:28:21Z</time></trkpt><trkpt lat="45.506457163263114" lon="11.790257044741793"><ele>21.0</ele><time>2026-03-22T11:28:22Z</time></trkpt><trkpt lat="45.50625230382718" lon="11.790404167464716"><ele>21.0</ele><time>2026-03-22T11:28:23Z</time></trkpt><trkpt lat="45.506043372080995" lon="11.790547728720531"><ele>21.0</ele><time>2026-03-22T11:28:24Z</time></trkpt><trkpt lat="45.5058347363637" lon="11.79069234959488"><ele>21.0</ele><time>2026-03-22T11:28:25Z</time></trkpt><trkpt lat="45.50562651737568" lon="11.79083348844516"><ele>21.0</ele><time>2026-03-22T11:28:26Z</time></trkpt><trkpt lat="45.50541590343102" lon="11.790978339088715"><ele>20.5</ele><time>2026-03-22T11:28:27Z</time></trkpt><trkpt lat="45.50520829276752" lon="11.791116535806783"><ele>20.0</ele><time>2026-03-22T11:28:28Z</time></trkpt><trkpt lat="45.50500131856577" lon="11.79125998918243"><ele>20.0</ele><time>2026-03-22T11:28:29Z</time></trkpt><trkpt lat="45.5047945768703" lon="11.791405695497197"><ele>20.0</ele><time>2026-03-22T11:28:30Z</time></trkpt><trkpt lat="45.504587676091106" lon="11.791550467089383"><ele>20.0</ele><time>2026-03-22T11:28:31Z</time></trkpt><trkpt lat="45.50438113378392" lon="11.791693705531213"><ele>20.0</ele><time>2026-03-22T11:28:32Z</time></trkpt><trkpt lat="45.50417705637511" lon="11.791834201868456"><ele>20.5</ele><time>2026-03-22T11:28:33Z</time></trkpt><trkpt lat="45.50396870661187" lon="11.791981698872288"><ele>21.0</ele><time>2026-03-22T11:28:34Z</time></trkpt><trkpt lat="45.50376344827123" lon="11.792124327311331"><ele>20.5</ele><time>2026-03-22T11:28:35Z</time></trkpt><trkpt lat="45.50355728165312" lon="11.792265347527103"><ele>20.0</ele><time>2026-03-22T11:28:36Z</time></trkpt><trkpt lat="45.50335490158666" lon="11.792405966632066"><ele>20.0</ele><time>2026-03-22T11:28:37Z</time></trkpt><trkpt lat="45.503150708043236" lon="11.792545246606696"><ele>20.0</ele><time>2026-03-22T11:28:38Z</time></trkpt><trkpt lat="45.50294062407042" lon="11.792687485691864"><ele>20.0</ele><time>2026-03-22T11:28:39Z</time></trkpt><trkpt lat="45.50273418729554" lon="11.792823072138999"><ele>20.0</ele><time>2026-03-22T11:28:40Z</time></trkpt><trkpt lat="45.50252676616218" lon="11.792966446941948"><ele>20.0</ele><time>2026-03-22T11:28:41Z</time></trkpt><trkpt lat="45.50231478267168" lon="11.793114344298925"><ele>20.0</ele><time>2026-03-22T11:28:42Z</time></trkpt><trkpt lat="45.50210804547722" lon="11.793251608077837"><ele>20.5</ele><time>2026-03-22T11:28:43Z</time></trkpt><trkpt lat="45.50189957073354" lon="11.793392383874245"><ele>21.0</ele><time>2026-03-22T11:28:44Z</time></trkpt><trkpt lat="45.50169210487927" lon="11.793536586401062"><ele>21.0</ele><time>2026-03-22T11:28:45Z</time></trkpt><trkpt lat="45.5014867886904" lon="11.793679161617254"><ele>21.0</ele><time>2026-03-22T11:28:46Z</time></trkpt><trkpt lat="45.5012821644119" lon="11.793821677618878"><ele>20.5</ele><time>2026-03-22T11:28:47Z</time></trkpt><trkpt lat="45.501080100171926" lon="11.7939662743683"><ele>20.0</ele><time>2026-03-22T11:28:48Z</time></trkpt><trkpt lat="45.50087383234705" lon="11.794106343838843"><ele>20.0</ele><time>2026-03-22T11:28:49Z</time></trkpt><trkpt lat="45.50067032699526" lon="11.794244168922562"><ele>20.0</ele><time>2026-03-22T11:28:50Z</time></trkpt><trkpt lat="45.500465657627224" lon="11.794382942318737"><ele>20.0</ele><time>2026-03-22T11:28:51Z</time></trkpt><trkpt lat="45.500260747199896" lon="11.794523642231297"><ele>20.0</ele><time>2026-03-22T11:28:52Z</time></trkpt><trkpt lat="45.5000574881072" lon="11.794666741668344"><ele>20.0</ele><time>2026-03-22T11:28:53Z</time></trkpt><trkpt lat="45.49985344797773" lon="11.794806877808695"><ele>20.0</ele><time>2026-03-22T11:28:54Z</time></trkpt><trkpt lat="45.49964461512148" lon="11.794951656361711"><ele>20.0</ele><time>2026-03-22T11:28:54.999Z</time></trkpt><trkpt lat="45.49943725284345" lon="11.795092206738586"><ele>20.0</ele><time>2026-03-22T11:28:55.999Z</time></trkpt><trkpt lat="45.4992296765804" lon="11.795232105097325"><ele>20.0</ele><time>2026-03-22T11:28:56.999Z</time></trkpt><trkpt lat="45.4990228034457" lon="11.795371031081284"><ele>20.0</ele><time>2026-03-22T11:28:57.999Z</time></trkpt><trkpt lat="45.498830883327095" lon="11.795496051880733"><ele>20.0</ele><time>2026-03-22T11:28:58.999Z</time></trkpt><trkpt lat="45.49865997391358" lon="11.795608979272775"><ele>20.0</ele><time>2026-03-22T11:28:59.999Z</time></trkpt><trkpt lat="45.498496416014945" lon="11.795723416602305"><ele>20.0</ele><time>2026-03-22T11:29:00.999Z</time></trkpt><trkpt lat="45.49834383385596" lon="11.795830341073492"><ele>20.0</ele><time>2026-03-22T11:29:01.999Z</time></trkpt><trkpt lat="45.4982038136883" lon="11.795932104620828"><ele>20.0</ele><time>2026-03-22T11:29:02.999Z</time></trkpt><trkpt lat="45.49807006904294" lon="11.796026712036369"><ele>20.0</ele><time>2026-03-22T11:29:03.999Z</time></trkpt><trkpt lat="45.497943187266145" lon="11.796116062293812"><ele>20.0</ele><time>2026-03-22T11:29:04.999Z</time></trkpt><trkpt lat="45.497818222821195" lon="11.79620496230372"><ele>20.0</ele><time>2026-03-22T11:29:05.999Z</time></trkpt><trkpt lat="45.497688396303275" lon="11.79629255952213"><ele>20.0</ele><time>2026-03-22T11:29:06.999Z</time></trkpt><trkpt lat="45.49756387927903" lon="11.796373877128946"><ele>20.0</ele><time>2026-03-22T11:29:07.999Z</time></trkpt><trkpt lat="45.49744847978073" lon="11.79645439244378"><ele>20.0</ele><time>2026-03-22T11:29:08.999Z</time></trkpt><trkpt lat="45.497334477398894" lon="11.796536317467918"><ele>20.0</ele><time>2026-03-22T11:29:09.999Z</time></trkpt><trkpt lat="45.49721274270507" lon="11.796622154656372"><ele>20.0</ele><time>2026-03-22T11:29:10.999Z</time></trkpt><trkpt lat="45.49708816667047" lon="11.796703414657543"><ele>20.0</ele><time>2026-03-22T11:29:11.999Z</time></trkpt><trkpt lat="45.49696723300821" lon="11.796783523969909"><ele>20.0</ele><time>2026-03-22T11:29:12.999Z</time></trkpt><trkpt lat="45.49685396540449" lon="11.796868024600112"><ele>20.0</ele><time>2026-03-22T11:29:13.999Z</time></trkpt><trkpt lat="45.4967484913356" lon="11.796945691744193"><ele>20.2</ele><time>2026-03-22T11:29:14.999Z</time></trkpt><trkpt lat="45.49664572498589" lon="11.797018515760334"><ele>20.4</ele><time>2026-03-22T11:29:15.999Z</time></trkpt><trkpt lat="45.49654908614899" lon="11.797077988150992"><ele>20.6</ele><time>2026-03-22T11:29:16.999Z</time></trkpt><trkpt lat="45.496457966182646" lon="11.79713770004305"><ele>20.8</ele><time>2026-03-22T11:29:17.999Z</time></trkpt><trkpt lat="45.49636621069085" lon="11.797199465364542"><ele>21.0</ele><time>2026-03-22T11:29:18.999Z</time></trkpt><trkpt lat="45.4962739199859" lon="11.797259745567812"><ele>20.8</ele><time>2026-03-22T11:29:19.999Z</time></trkpt><trkpt lat="45.49618242618513" lon="11.79731785520026"><ele>20.6</ele><time>2026-03-22T11:29:20.999Z</time></trkpt><trkpt lat="45.49609801351512" lon="11.797385848524968"><ele>20.4</ele><time>2026-03-22T11:29:21.999Z</time></trkpt><trkpt lat="45.4960137076978" lon="11.797444467882539"><ele>20.2</ele><time>2026-03-22T11:29:22.999Z</time></trkpt><trkpt lat="45.495924784664446" lon="11.797505470532847"><ele>20.0</ele><time>2026-03-22T11:29:23.999Z</time></trkpt><trkpt lat="45.49582074658765" lon="11.797513655159857"><ele>20.0</ele><time>2026-03-22T11:29:24.999Z</time></trkpt><trkpt lat="45.49573999235552" lon="11.797569439897956"><ele>20.0</ele><time>2026-03-22T11:29:25.999Z</time></trkpt><trkpt lat="45.4956639705329" lon="11.79762195550509"><ele>20.0</ele><time>2026-03-22T11:29:26.999Z</time></trkpt><trkpt lat="45.49559716973711" lon="11.797668101256146"><ele>20.0</ele><time>2026-03-22T11:29:27.999Z</time></trkpt><trkpt lat="45.49553226504525" lon="11.797712937188141"><ele>20.0</ele><time>2026-03-22T11:29:28.999Z</time></trkpt><trkpt lat="45.495472183287205" lon="11.797754441456851"><ele>20.0</ele><time>2026-03-22T11:29:29.999Z</time></trkpt><trkpt lat="45.49537295028718" lon="11.797821790250541"><ele>20.4</ele><time>2026-03-22T11:29:31.999Z</time></trkpt><trkpt lat="45.495295463757074" lon="11.79787398078323"><ele>20.8</ele><time>2026-03-22T11:29:33.999Z</time></trkpt><trkpt lat="45.49521821878636" lon="11.79792602164935"><ele>21.200000000000003</ele><time>2026-03-22T11:29:38.999Z</time></trkpt><trkpt lat="45.49510005362093" lon="11.798007825353583"><ele>21.6</ele><time>2026-03-22T11:29:40.999Z</time></trkpt><trkpt lat="45.49501502491532" lon="11.79807460195107"><ele>22.0</ele><time>2026-03-22T11:29:41.999Z</time></trkpt><trkpt lat="45.49492537221636" lon="11.79814835879544"><ele>22.0</ele><time>2026-03-22T11:29:42.999Z</time></trkpt><trkpt lat="45.49481172996414" lon="11.798228052930366"><ele>22.0</ele><time>2026-03-22T11:29:44Z</time></trkpt><trkpt lat="45.49467596146581" lon="11.798316584531223"><ele>22.0</ele><time>2026-03-22T11:29:45Z</time></trkpt><trkpt lat="45.494513455917534" lon="11.798419365820452"><ele>21.666666666666664</ele><time>2026-03-22T11:29:46Z</time></trkpt><trkpt lat="45.494348194513066" lon="11.798524478869602"><ele>21.333333333333332</ele><time>2026-03-22T11:29:47Z</time></trkpt><trkpt lat="45.49418374402251" lon="11.798629863546811"><ele>21.0</ele><time>2026-03-22T11:29:48Z</time></trkpt><trkpt lat="45.49400470487247" lon="11.798745354493587"><ele>21.0</ele><time>2026-03-22T11:29:49Z</time></trkpt><trkpt lat="45.49381689512683" lon="11.798866211688438"><ele>21.0</ele><time>2026-03-22T11:29:50Z</time></trkpt><trkpt lat="45.493616837982756" lon="11.798995275493022"><ele>21.0</ele><time>2026-03-22T11:29:51Z</time></trkpt><trkpt lat="45.49340959886115" lon="11.799128715409093"><ele>21.0</ele><time>2026-03-22T11:29:52Z</time></trkpt><trkpt lat="45.4932023539375" lon="11.799260038207667"><ele>21.0</ele><time>2026-03-22T11:29:53Z</time></trkpt><trkpt lat="45.493011930809516" lon="11.799378730076283"><ele>21.0</ele><time>2026-03-22T11:29:54Z</time></trkpt><trkpt lat="45.49283773957299" lon="11.799485068220275"><ele>21.0</ele><time>2026-03-22T11:29:55Z</time></trkpt><trkpt lat="45.492669777704286" lon="11.799584441106717"><ele>21.0</ele><time>2026-03-22T11:29:56Z</time></trkpt><trkpt lat="45.4925095894407" lon="11.799678043582434"><ele>21.0</ele><time>2026-03-22T11:29:57Z</time></trkpt><trkpt lat="45.49237396837549" lon="11.7997561141398"><ele>21.0</ele><time>2026-03-22T11:29:58Z</time></trkpt><trkpt lat="45.492240974546164" lon="11.79983291813588"><ele>21.0</ele><time>2026-03-22T11:29:59Z</time></trkpt><trkpt lat="45.492118592066646" lon="11.799903594071786"><ele>21.0</ele><time>2026-03-22T11:30:00Z</time></trkpt><trkpt lat="45.49201006300795" lon="11.799966269651499"><ele>21.0</ele><time>2026-03-22T11:30:01Z</time></trkpt><trkpt lat="45.49193198766862" lon="11.800011898564303"><ele>21.0</ele><time>2026-03-22T11:30:02Z</time></trkpt><trkpt lat="45.49186420182973" lon="11.800056349075057"><ele>21.0</ele><time>2026-03-22T11:30:03Z</time></trkpt><trkpt lat="45.49179044328598" lon="11.800021625941897"><ele>21.0</ele><time>2026-03-22T11:30:04Z</time></trkpt><trkpt lat="45.49169302616141" lon="11.800088338175584"><ele>21.0</ele><time>2026-03-22T11:30:06Z</time></trkpt><trkpt lat="45.491642530693014" lon="11.800143215680823"><ele>21.0</ele><time>2026-03-22T11:30:07Z</time></trkpt><trkpt lat="45.49158911916023" lon="11.800213912788445"><ele>21.0</ele><time>2026-03-22T11:30:08Z</time></trkpt><trkpt lat="45.49150016822825" lon="11.800266003698297"><ele>21.0</ele><time>2026-03-22T11:30:09Z</time></trkpt><trkpt lat="45.49138271419371" lon="11.800334363191652"><ele>21.0</ele><time>2026-03-22T11:30:10Z</time></trkpt><trkpt lat="45.49124528945407" lon="11.800413482144037"><ele>21.0</ele><time>2026-03-22T11:30:11Z</time></trkpt><trkpt lat="45.49111513188654" lon="11.80048831516056"><ele>21.0</ele><time>2026-03-22T11:30:12Z</time></trkpt><trkpt lat="45.49097079028674" lon="11.800571921467581"><ele>20.666666666666668</ele><time>2026-03-22T11:30:13Z</time></trkpt><trkpt lat="45.4908174528155" lon="11.800662719745851"><ele>20.333333333333336</ele><time>2026-03-22T11:30:14Z</time></trkpt><trkpt lat="45.49067021622052" lon="11.800749968548223"><ele>20.0</ele><time>2026-03-22T11:30:15Z</time></trkpt><trkpt lat="45.49052936657905" lon="11.80083130723334"><ele>19.666666666666668</ele><time>2026-03-22T11:30:16Z</time></trkpt><trkpt lat="45.490379561762715" lon="11.800918503212102"><ele>19.333333333333332</ele><time>2026-03-22T11:30:17Z</time></trkpt><trkpt lat="45.49023469418388" lon="11.80100233694517"><ele>19.0</ele><time>2026-03-22T11:30:18Z</time></trkpt><trkpt lat="45.490089513259775" lon="11.801086365658255"><ele>18.75</ele><time>2026-03-22T11:30:19Z</time></trkpt><trkpt lat="45.48995759189609" lon="11.801162720161251"><ele>18.5</ele><time>2026-03-22T11:30:20Z</time></trkpt><trkpt lat="45.48983886885532" lon="11.80123080918243"><ele>18.25</ele><time>2026-03-22T11:30:21Z</time></trkpt><trkpt lat="45.48972854997608" lon="11.801294288255274"><ele>18.0</ele><time>2026-03-22T11:30:22Z</time></trkpt><trkpt lat="45.48961978116411" lon="11.801358507567157"><ele>18.25</ele><time>2026-03-22T11:30:23Z</time></trkpt><trkpt lat="45.48951028928188" lon="11.801430663813282"><ele>18.5</ele><time>2026-03-22T11:30:24Z</time></trkpt><trkpt lat="45.48939253087229" lon="11.801446662117142"><ele>18.75</ele><time>2026-03-22T11:30:25Z</time></trkpt><trkpt lat="45.48929026980185" lon="11.801514876692716"><ele>19.0</ele><time>2026-03-22T11:30:26Z</time></trkpt><trkpt lat="45.48917876598881" lon="11.801642880448105"><ele>19.0</ele><time>2026-03-22T11:30:27Z</time></trkpt><trkpt lat="45.48901789066434" lon="11.801716485020602"><ele>19.0</ele><time>2026-03-22T11:30:28Z</time></trkpt><trkpt lat="45.48883839108006" lon="11.801819624444478"><ele>19.0</ele><time>2026-03-22T11:30:29Z</time></trkpt><trkpt lat="45.48865286609103" lon="11.801931945789889"><ele>19.0</ele><time>2026-03-22T11:30:30Z</time></trkpt><trkpt lat="45.488470744267346" lon="11.802132535998119"><ele>19.0</ele><time>2026-03-22T11:30:31Z</time></trkpt><trkpt lat="45.48825972589277" lon="11.802267255049117"><ele>19.0</ele><time>2026-03-22T11:30:32Z</time></trkpt><trkpt lat="45.48802297175116" lon="11.80241527452388"><ele>19.0</ele><time>2026-03-22T11:30:33Z</time></trkpt><trkpt lat="45.48778518404076" lon="11.802568248740814"><ele>19.0</ele><time>2026-03-22T11:30:34Z</time></trkpt><trkpt lat="45.48750693763086" lon="11.80267024380433"><ele>19.0</ele><time>2026-03-22T11:30:35Z</time></trkpt><trkpt lat="45.48723551622605" lon="11.802849991132366"><ele>18.5</ele><time>2026-03-22T11:30:36Z</time></trkpt><trkpt lat="45.48698139757615" lon="11.80301673749395"><ele>18.0</ele><time>2026-03-22T11:30:37Z</time></trkpt><trkpt lat="45.48673763886018" lon="11.803177679149195"><ele>18.0</ele><time>2026-03-22T11:30:38Z</time></trkpt><trkpt lat="45.48649951895897" lon="11.803335874817607"><ele>18.0</ele><time>2026-03-22T11:30:39Z</time></trkpt><trkpt lat="45.486270466721734" lon="11.803488045029722"><ele>18.0</ele><time>2026-03-22T11:30:40Z</time></trkpt><trkpt lat="45.486063745467696" lon="11.803624572952462"><ele>18.0</ele><time>2026-03-22T11:30:41Z</time></trkpt><trkpt lat="45.485862689556164" lon="11.803757172166288"><ele>18.0</ele><time>2026-03-22T11:30:42Z</time></trkpt><trkpt lat="45.48565962385925" lon="11.803891096740266"><ele>18.0</ele><time>2026-03-22T11:30:43Z</time></trkpt><trkpt lat="45.485455759183324" lon="11.804026034978014"><ele>18.0</ele><time>2026-03-22T11:30:44Z</time></trkpt><trkpt lat="45.48525464998422" lon="11.804161212684065"><ele>18.0</ele><time>2026-03-22T11:30:45Z</time></trkpt><trkpt lat="45.48505459064994" lon="11.80429568472966"><ele>18.0</ele><time>2026-03-22T11:30:46Z</time></trkpt><trkpt lat="45.484857387081014" lon="11.804430015588096"><ele>18.0</ele><time>2026-03-22T11:30:47Z</time></trkpt><trkpt lat="45.48466162263943" lon="11.804559448106486"><ele>18.0</ele><time>2026-03-22T11:30:48Z</time></trkpt><trkpt lat="45.48445908832145" lon="11.80469385905546"><ele>18.0</ele><time>2026-03-22T11:30:49Z</time></trkpt><trkpt lat="45.48425598574417" lon="11.804829928762553"><ele>18.0</ele><time>2026-03-22T11:30:50Z</time></trkpt><trkpt lat="45.484051527804105" lon="11.804970353431205"><ele>18.0</ele><time>2026-03-22T11:30:50.999Z</time></trkpt><trkpt lat="45.483846252352485" lon="11.805112447546474"><ele>18.0</ele><time>2026-03-22T11:30:51.999Z</time></trkpt><trkpt lat="45.48364229581286" lon="11.805253628662244"><ele>17.5</ele><time>2026-03-22T11:30:52.999Z</time></trkpt><trkpt lat="45.48343328909978" lon="11.805398305575059"><ele>17.0</ele><time>2026-03-22T11:30:53.999Z</time></trkpt><trkpt lat="45.48322491257204" lon="11.805542591168106"><ele>17.0</ele><time>2026-03-22T11:30:54.999Z</time></trkpt><trkpt lat="45.48301371340603" lon="11.805689625663032"><ele>17.0</ele><time>2026-03-22T11:30:55.999Z</time></trkpt><trkpt lat="45.482804547260066" lon="11.805835436974103"><ele>17.0</ele><time>2026-03-22T11:30:56.999Z</time></trkpt><trkpt lat="45.48259533970054" lon="11.805981800655294"><ele>17.0</ele><time>2026-03-22T11:30:57.999Z</time></trkpt><trkpt lat="45.482384289104864" lon="11.8061298745324"><ele>17.0</ele><time>2026-03-22T11:30:58.999Z</time></trkpt><trkpt lat="45.48217546933303" lon="11.806276364333902"><ele>17.0</ele><time>2026-03-22T11:30:59.999Z</time></trkpt><trkpt lat="45.48196698551658" lon="11.806421930942587"><ele>17.0</ele><time>2026-03-22T11:31:00.999Z</time></trkpt><trkpt lat="45.48176206171022" lon="11.806565013701931"><ele>17.0</ele><time>2026-03-22T11:31:01.999Z</time></trkpt><trkpt lat="45.481556779263684" lon="11.806708345045726"><ele>16.5</ele><time>2026-03-22T11:31:02.999Z</time></trkpt><trkpt lat="45.4813501415674" lon="11.806852621608442"><ele>16.0</ele><time>2026-03-22T11:31:03.999Z</time></trkpt><trkpt lat="45.48114733721678" lon="11.806993145250582"><ele>17.0</ele><time>2026-03-22T11:31:04.999Z</time></trkpt><trkpt lat="45.480941766866685" lon="11.807135675568032"><ele>18.0</ele><time>2026-03-22T11:31:05.999Z</time></trkpt><trkpt lat="45.48073523494749" lon="11.80727921817686"><ele>18.0</ele><time>2026-03-22T11:31:06.999Z</time></trkpt><trkpt lat="45.480531699200164" lon="11.807421121634434"><ele>18.0</ele><time>2026-03-22T11:31:07.999Z</time></trkpt><trkpt lat="45.48032668998032" lon="11.807564052391863"><ele>17.5</ele><time>2026-03-22T11:31:08.999Z</time></trkpt><trkpt lat="45.480119111457604" lon="11.807708774450314"><ele>17.0</ele><time>2026-03-22T11:31:09.999Z</time></trkpt><trkpt lat="45.47991509116514" lon="11.807851015702791"><ele>17.0</ele><time>2026-03-22T11:31:10.999Z</time></trkpt><trkpt lat="45.479708061661384" lon="11.807994912616014"><ele>17.0</ele><time>2026-03-22T11:31:11.999Z</time></trkpt><trkpt lat="45.47950408011396" lon="11.80813576863635"><ele>17.5</ele><time>2026-03-22T11:31:12.999Z</time></trkpt><trkpt lat="45.47929713730096" lon="11.80827866950346"><ele>18.0</ele><time>2026-03-22T11:31:13.999Z</time></trkpt><trkpt lat="45.47909253317808" lon="11.808419955420545"><ele>17.666666666666668</ele><time>2026-03-22T11:31:14.999Z</time></trkpt><trkpt lat="45.47888531131204" lon="11.808562967395078"><ele>17.333333333333336</ele><time>2026-03-22T11:31:15.999Z</time></trkpt><trkpt lat="45.47869492787574" lon="11.808694346352073"><ele>17.0</ele><time>2026-03-22T11:31:16.999Z</time></trkpt><trkpt lat="45.47851142129108" lon="11.80882175466374"><ele>16.666666666666668</ele><time>2026-03-22T11:31:17.999Z</time></trkpt><trkpt lat="45.478328060472215" lon="11.808949287544793"><ele>16.333333333333332</ele><time>2026-03-22T11:31:18.999Z</time></trkpt><trkpt lat="45.478148797911665" lon="11.809073970648365"><ele>16.0</ele><time>2026-03-22T11:31:19.999Z</time></trkpt><trkpt lat="45.47796968365261" lon="11.809199340867089"><ele>16.0</ele><time>2026-03-22T11:31:20.999Z</time></trkpt><trkpt lat="45.47779377232592" lon="11.80932231683562"><ele>16.0</ele><time>2026-03-22T11:31:21.999Z</time></trkpt><trkpt lat="45.47761349860587" lon="11.80944834252482"><ele>16.0</ele><time>2026-03-22T11:31:22.999Z</time></trkpt><trkpt lat="45.47744018571933" lon="11.809569501980102"><ele>16.333333333333332</ele><time>2026-03-22T11:31:23.999Z</time></trkpt><trkpt lat="45.47726878548061" lon="11.809689324398757"><ele>16.666666666666668</ele><time>2026-03-22T11:31:24.999Z</time></trkpt><trkpt lat="45.47709583810987" lon="11.809810228379268"><ele>17.0</ele><time>2026-03-22T11:31:25.999Z</time></trkpt><trkpt lat="45.47692781245498" lon="11.809927691668396"><ele>17.0</ele><time>2026-03-22T11:31:26.999Z</time></trkpt><trkpt lat="45.47658211964681" lon="11.81016936028551"><ele>17.0</ele><time>2026-03-22T11:31:28.999Z</time></trkpt><trkpt lat="45.47641261062313" lon="11.81028786016346"><ele>16.333333333333336</ele><time>2026-03-22T11:31:29.999Z</time></trkpt><trkpt lat="45.476238069050034" lon="11.8104098705623"><ele>15.666666666666668</ele><time>2026-03-22T11:31:30.999Z</time></trkpt><trkpt lat="45.47606632129424" lon="11.81052992799005"><ele>15.0</ele><time>2026-03-22T11:31:31.999Z</time></trkpt><trkpt lat="45.47591205874797" lon="11.810700186533234"><ele>15.0</ele><time>2026-03-22T11:31:32.999Z</time></trkpt><trkpt lat="45.47574907433672" lon="11.810811373196442"><ele>15.0</ele><time>2026-03-22T11:31:33.999Z</time></trkpt><trkpt lat="45.47560199520709" lon="11.81091301195647"><ele>15.0</ele><time>2026-03-22T11:31:34.999Z</time></trkpt><trkpt lat="45.475466991070924" lon="11.81100629358904"><ele>15.25</ele><time>2026-03-22T11:31:35.999Z</time></trkpt><trkpt lat="45.47533573595835" lon="11.811098550888163"><ele>15.5</ele><time>2026-03-22T11:31:36.999Z</time></trkpt><trkpt lat="45.47520617915134" lon="11.81119618707459"><ele>15.75</ele><time>2026-03-22T11:31:37.999Z</time></trkpt><trkpt lat="45.475085073583294" lon="11.811279729928112"><ele>16.0</ele><time>2026-03-22T11:31:38.999Z</time></trkpt><trkpt lat="45.47496564968671" lon="11.811359524245285"><ele>16.0</ele><time>2026-03-22T11:31:39.999Z</time></trkpt><trkpt lat="45.474851201426546" lon="11.811442338712817"><ele>16.0</ele><time>2026-03-22T11:31:40.999Z</time></trkpt><trkpt lat="45.47474159109394" lon="11.811530582008288"><ele>16.0</ele><time>2026-03-22T11:31:41.999Z</time></trkpt><trkpt lat="45.47463847225485" lon="11.811613249923221"><ele>16.0</ele><time>2026-03-22T11:31:42.999Z</time></trkpt><trkpt lat="45.474541110037876" lon="11.811662037611423"><ele>16.0</ele><time>2026-03-22T11:31:43.999Z</time></trkpt><trkpt lat="45.47444384607635" lon="11.811665313698807"><ele>16.0</ele><time>2026-03-22T11:31:44.999Z</time></trkpt><trkpt lat="45.47435366229973" lon="11.811642360438261"><ele>16.0</ele><time>2026-03-22T11:31:45.999Z</time></trkpt><trkpt lat="45.47427438725474" lon="11.811654339516805"><ele>16.0</ele><time>2026-03-22T11:31:46.999Z</time></trkpt><trkpt lat="45.47420701361703" lon="11.811729209776768"><ele>16.0</ele><time>2026-03-22T11:31:47.999Z</time></trkpt><trkpt lat="45.47415273816264" lon="11.811850680496148"><ele>16.0</ele><time>2026-03-22T11:31:48.999Z</time></trkpt><trkpt lat="45.47409211916942" lon="11.811971786931842"><ele>16.0</ele><time>2026-03-22T11:31:50Z</time></trkpt><trkpt lat="45.47400029895469" lon="11.812062514999273"><ele>16.0</ele><time>2026-03-22T11:31:51Z</time></trkpt><trkpt lat="45.473896048480896" lon="11.812122957751178"><ele>16.0</ele><time>2026-03-22T11:31:52Z</time></trkpt><trkpt lat="45.47378410372701" lon="11.812192649488788"><ele>16.0</ele><time>2026-03-22T11:31:53Z</time></trkpt><trkpt lat="45.473672989986845" lon="11.812270797480034"><ele>16.0</ele><time>2026-03-22T11:31:54Z</time></trkpt><trkpt lat="45.47357123037258" lon="11.812347998326025"><ele>16.0</ele><time>2026-03-22T11:31:55Z</time></trkpt><trkpt lat="45.4734567547998" lon="11.812429507432197"><ele>16.0</ele><time>2026-03-22T11:31:56Z</time></trkpt><trkpt lat="45.473332731607734" lon="11.812519914408075"><ele>16.0</ele><time>2026-03-22T11:31:57Z</time></trkpt><trkpt lat="45.47320163645669" lon="11.8126178955545"><ele>16.0</ele><time>2026-03-22T11:31:58Z</time></trkpt><trkpt lat="45.47306409733584" lon="11.812719357925788"><ele>16.0</ele><time>2026-03-22T11:31:59Z</time></trkpt><trkpt lat="45.47291935241068" lon="11.81282240760378"><ele>16.666666666666664</ele><time>2026-03-22T11:32:00Z</time></trkpt><trkpt lat="45.47276916786495" lon="11.81292946012444"><ele>17.333333333333332</ele><time>2026-03-22T11:32:01Z</time></trkpt><trkpt lat="45.472619987261986" lon="11.813041736033941"><ele>18.0</ele><time>2026-03-22T11:32:02Z</time></trkpt><trkpt lat="45.472475568899235" lon="11.81314848095909"><ele>18.0</ele><time>2026-03-22T11:32:03Z</time></trkpt><trkpt lat="45.47232222785401" lon="11.813261817158267"><ele>18.0</ele><time>2026-03-22T11:32:04Z</time></trkpt><trkpt lat="45.472167982614295" lon="11.813372827823029"><ele>18.0</ele><time>2026-03-22T11:32:05Z</time></trkpt><trkpt lat="45.47202327538011" lon="11.81348048282165"><ele>17.666666666666668</ele><time>2026-03-22T11:32:06Z</time></trkpt><trkpt lat="45.471884907026" lon="11.813581709249082"><ele>17.333333333333336</ele><time>2026-03-22T11:32:07Z</time></trkpt><trkpt lat="45.47174526051199" lon="11.813689277836925"><ele>17.0</ele><time>2026-03-22T11:32:08Z</time></trkpt><trkpt lat="45.471609697663744" lon="11.813790252175858"><ele>17.0</ele><time>2026-03-22T11:32:09Z</time></trkpt><trkpt lat="45.4714770031188" lon="11.81388789301139"><ele>17.0</ele><time>2026-03-22T11:32:10Z</time></trkpt><trkpt lat="45.47134216743195" lon="11.813988443728567"><ele>17.0</ele><time>2026-03-22T11:32:11Z</time></trkpt><trkpt lat="45.4712073326307" lon="11.814092491977002"><ele>17.0</ele><time>2026-03-22T11:32:12Z</time></trkpt><trkpt lat="45.471071990760166" lon="11.814197815665848"><ele>17.0</ele><time>2026-03-22T11:32:13Z</time></trkpt><trkpt lat="45.47093157938843" lon="11.81430158875888"><ele>17.0</ele><time>2026-03-22T11:32:14Z</time></trkpt><trkpt lat="45.47079226026677" lon="11.814409288629854"><ele>17.0</ele><time>2026-03-22T11:32:15Z</time></trkpt><trkpt lat="45.47065086757966" lon="11.814510089240784"><ele>17.0</ele><time>2026-03-22T11:32:16Z</time></trkpt><trkpt lat="45.470504562681" lon="11.814606250651593"><ele>17.0</ele><time>2026-03-22T11:32:17Z</time></trkpt><trkpt lat="45.470361160161175" lon="11.814707619123459"><ele>17.666666666666668</ele><time>2026-03-22T11:32:18Z</time></trkpt><trkpt lat="45.470224276944414" lon="11.814812101041621"><ele>18.333333333333332</ele><time>2026-03-22T11:32:19Z</time></trkpt><trkpt lat="45.47008354040695" lon="11.814917215419134"><ele>19.0</ele><time>2026-03-22T11:32:20Z</time></trkpt><trkpt lat="45.46994358269216" lon="11.815011437572252"><ele>19.0</ele><time>2026-03-22T11:32:21Z</time></trkpt><trkpt lat="45.469793437311964" lon="11.81511199007905"><ele>19.0</ele><time>2026-03-22T11:32:22Z</time></trkpt><trkpt lat="45.4696385314629" lon="11.815209611701498"><ele>19.0</ele><time>2026-03-22T11:32:23Z</time></trkpt><trkpt lat="45.469481352698544" lon="11.815304650121929"><ele>18.666666666666664</ele><time>2026-03-22T11:32:24Z</time></trkpt><trkpt lat="45.469321610978476" lon="11.815398251906405"><ele>18.333333333333332</ele><time>2026-03-22T11:32:25Z</time></trkpt><trkpt lat="45.469161984310574" lon="11.815491910860446"><ele>18.0</ele><time>2026-03-22T11:32:26Z</time></trkpt><trkpt lat="45.46899989107437" lon="11.815595359059877"><ele>18.0</ele><time>2026-03-22T11:32:27Z</time></trkpt><trkpt lat="45.46883783206657" lon="11.81571187493142"><ele>18.0</ele><time>2026-03-22T11:32:28Z</time></trkpt><trkpt lat="45.468667411455066" lon="11.815832199250503"><ele>18.0</ele><time>2026-03-22T11:32:29Z</time></trkpt><trkpt lat="45.46848549750443" lon="11.815961238005896"><ele>18.0</ele><time>2026-03-22T11:32:30Z</time></trkpt><trkpt lat="45.468309610227365" lon="11.816092028708496"><ele>18.0</ele><time>2026-03-22T11:32:31Z</time></trkpt><trkpt lat="45.4681376180604" lon="11.816218082944053"><ele>18.0</ele><time>2026-03-22T11:32:32Z</time></trkpt><trkpt lat="45.46795660388444" lon="11.816346700265393"><ele>18.333333333333332</ele><time>2026-03-22T11:32:33Z</time></trkpt><trkpt lat="45.467769326706154" lon="11.816471632982765"><ele>18.666666666666664</ele><time>2026-03-22T11:32:34Z</time></trkpt><trkpt lat="45.46760095988844" lon="11.816594650925332"><ele>19.0</ele><time>2026-03-22T11:32:35Z</time></trkpt><trkpt lat="45.46742124995992" lon="11.816718054316045"><ele>18.333333333333332</ele><time>2026-03-22T11:32:36Z</time></trkpt><trkpt lat="45.4672459949598" lon="11.816843655375994"><ele>17.666666666666668</ele><time>2026-03-22T11:32:37Z</time></trkpt><trkpt lat="45.467045373250265" lon="11.816909454005705"><ele>17.0</ele><time>2026-03-22T11:32:38Z</time></trkpt><trkpt lat="45.46686198215848" lon="11.817040927394357"><ele>16.666666666666668</ele><time>2026-03-22T11:32:39Z</time></trkpt><trkpt lat="45.46667933178549" lon="11.817171869758429"><ele>16.333333333333332</ele><time>2026-03-22T11:32:40Z</time></trkpt><trkpt lat="45.46649403011942" lon="11.817304548117994"><ele>16.0</ele><time>2026-03-22T11:32:41Z</time></trkpt><trkpt lat="45.46631752350081" lon="11.817430870510192"><ele>16.0</ele><time>2026-03-22T11:32:42Z</time></trkpt><trkpt lat="45.46615276818039" lon="11.817548912121431"><ele>16.0</ele><time>2026-03-22T11:32:43Z</time></trkpt><trkpt lat="45.46598949366622" lon="11.817665855922634"><ele>16.0</ele><time>2026-03-22T11:32:44Z</time></trkpt><trkpt lat="45.46583602446742" lon="11.817775425579564"><ele>16.0</ele><time>2026-03-22T11:32:45Z</time></trkpt><trkpt lat="45.46568021515657" lon="11.817886484977167"><ele>16.0</ele><time>2026-03-22T11:32:46Z</time></trkpt><trkpt lat="45.46551766159017" lon="11.81800235160744"><ele>16.0</ele><time>2026-03-22T11:32:47Z</time></trkpt><trkpt lat="45.46535835651194" lon="11.818115902767387"><ele>16.0</ele><time>2026-03-22T11:32:48Z</time></trkpt><trkpt lat="45.465199097896765" lon="11.818229445496343"><ele>16.0</ele><time>2026-03-22T11:32:49Z</time></trkpt><trkpt lat="45.46503888056061" lon="11.818344963486942"><ele>16.0</ele><time>2026-03-22T11:32:49.999Z</time></trkpt><trkpt lat="45.46488171594776" lon="11.818458280447345"><ele>16.0</ele><time>2026-03-22T11:32:50.999Z</time></trkpt><trkpt lat="45.46472599901104" lon="11.818570553616533"><ele>16.0</ele><time>2026-03-22T11:32:51.999Z</time></trkpt><trkpt lat="45.464564157760705" lon="11.81868753195374"><ele>16.0</ele><time>2026-03-22T11:32:52.999Z</time></trkpt><trkpt lat="45.46440951983348" lon="11.818798462450156"><ele>15.333333333333332</ele><time>2026-03-22T11:32:53.999Z</time></trkpt><trkpt lat="45.46425311924137" lon="11.81891012840608"><ele>14.666666666666668</ele><time>2026-03-22T11:32:54.999Z</time></trkpt><trkpt lat="45.46409449599527" lon="11.819023381270389"><ele>14.0</ele><time>2026-03-22T11:32:55.999Z</time></trkpt><trkpt lat="45.46393480225997" lon="11.819137398439842"><ele>14.666666666666668</ele><time>2026-03-22T11:32:56.999Z</time></trkpt><trkpt lat="45.463774446028275" lon="11.81925188861491"><ele>15.333333333333332</ele><time>2026-03-22T11:32:57.999Z</time></trkpt><trkpt lat="45.46361855696474" lon="11.81936318935548"><ele>16.0</ele><time>2026-03-22T11:32:58.999Z</time></trkpt><trkpt lat="45.46346068746687" lon="11.819475904052986"><ele>16.666666666666664</ele><time>2026-03-22T11:32:59.999Z</time></trkpt><trkpt lat="45.46330350557346" lon="11.819588127812661"><ele>17.333333333333332</ele><time>2026-03-22T11:33:00.999Z</time></trkpt><trkpt lat="45.46314134457447" lon="11.81970390839872"><ele>18.0</ele><time>2026-03-22T11:33:01.999Z</time></trkpt><trkpt lat="45.46300080734978" lon="11.819804364758841"><ele>17.5</ele><time>2026-03-22T11:33:02.999Z</time></trkpt><trkpt lat="45.46286987068019" lon="11.819897932373726"><ele>17.0</ele><time>2026-03-22T11:33:03.999Z</time></trkpt><trkpt lat="45.462745118750405" lon="11.819987080365793"><ele>16.5</ele><time>2026-03-22T11:33:04.999Z</time></trkpt><trkpt lat="45.46261812832137" lon="11.820077827986099"><ele>16.0</ele><time>2026-03-22T11:33:05.999Z</time></trkpt><trkpt lat="45.462492526482414" lon="11.820167583322355"><ele>15.75</ele><time>2026-03-22T11:33:06.999Z</time></trkpt><trkpt lat="45.4623664422089" lon="11.820255754190988"><ele>15.5</ele><time>2026-03-22T11:33:07.999Z</time></trkpt><trkpt lat="45.4622485427935" lon="11.820337669215332"><ele>15.25</ele><time>2026-03-22T11:33:08.999Z</time></trkpt><trkpt lat="45.462138695921574" lon="11.820413809666125"><ele>15.0</ele><time>2026-03-22T11:33:09.999Z</time></trkpt><trkpt lat="45.46203420389454" lon="11.820485850602422"><ele>15.5</ele><time>2026-03-22T11:33:10.999Z</time></trkpt><trkpt lat="45.46193468899998" lon="11.820554460105912"><ele>16.0</ele><time>2026-03-22T11:33:11.999Z</time></trkpt><trkpt lat="45.46183291475627" lon="11.820624627294416"><ele>16.5</ele><time>2026-03-22T11:33:12.999Z</time></trkpt><trkpt lat="45.46172605806047" lon="11.820698166221215"><ele>17.0</ele><time>2026-03-22T11:33:13.999Z</time></trkpt><trkpt lat="45.46162033025498" lon="11.820770095442247"><ele>17.0</ele><time>2026-03-22T11:33:14.999Z</time></trkpt><trkpt lat="45.46151110413962" lon="11.820844404649161"><ele>17.0</ele><time>2026-03-22T11:33:15.999Z</time></trkpt><trkpt lat="45.46139774833913" lon="11.820922297365112"><ele>17.0</ele><time>2026-03-22T11:33:16.999Z</time></trkpt><trkpt lat="45.46128037988925" lon="11.821002947166644"><ele>17.0</ele><time>2026-03-22T11:33:17.999Z</time></trkpt><trkpt lat="45.461159272444476" lon="11.821086148302957"><ele>17.0</ele><time>2026-03-22T11:33:18.999Z</time></trkpt><trkpt lat="45.46103935143165" lon="11.82116853435761"><ele>17.0</ele><time>2026-03-22T11:33:19.999Z</time></trkpt><trkpt lat="45.460915105569754" lon="11.821253891593997"><ele>17.0</ele><time>2026-03-22T11:33:20.999Z</time></trkpt><trkpt lat="45.46079263897815" lon="11.821338084149803"><ele>17.0</ele><time>2026-03-22T11:33:21.999Z</time></trkpt><trkpt lat="45.46066850988727" lon="11.82142343121557"><ele>17.0</ele><time>2026-03-22T11:33:22.999Z</time></trkpt><trkpt lat="45.46055150930181" lon="11.821503876954687"><ele>17.0</ele><time>2026-03-22T11:33:23.999Z</time></trkpt><trkpt lat="45.46044786107919" lon="11.821575142053778"><ele>17.0</ele><time>2026-03-22T11:33:24.999Z</time></trkpt><trkpt lat="45.46033817223123" lon="11.821650560483913"><ele>17.0</ele><time>2026-03-22T11:33:25.999Z</time></trkpt><trkpt lat="45.460215777146814" lon="11.821735961615925"><ele>16.75</ele><time>2026-03-22T11:33:26.999Z</time></trkpt><trkpt lat="45.460096416460246" lon="11.821818351850036"><ele>16.5</ele><time>2026-03-22T11:33:27.999Z</time></trkpt><trkpt lat="45.45997899434926" lon="11.82189746053708"><ele>16.25</ele><time>2026-03-22T11:33:28.999Z</time></trkpt><trkpt lat="45.45986923048274" lon="11.821973807688394"><ele>16.0</ele><time>2026-03-22T11:33:29.999Z</time></trkpt><trkpt lat="45.4597682085704" lon="11.822044225211117"><ele>16.0</ele><time>2026-03-22T11:33:30.999Z</time></trkpt><trkpt lat="45.4596735375455" lon="11.822108245645845"><ele>16.0</ele><time>2026-03-22T11:33:31.999Z</time></trkpt><trkpt lat="45.45958171182325" lon="11.822168166698253"><ele>16.0</ele><time>2026-03-22T11:33:32.999Z</time></trkpt><trkpt lat="45.45950139555063" lon="11.822224690437888"><ele>16.0</ele><time>2026-03-22T11:33:33.999Z</time></trkpt><trkpt lat="45.459432629922006" lon="11.822301657997675"><ele>16.0</ele><time>2026-03-22T11:33:34.999Z</time></trkpt><trkpt lat="45.459351920795775" lon="11.822425793169565"><ele>16.2</ele><time>2026-03-22T11:33:36.999Z</time></trkpt><trkpt lat="45.45922551054429" lon="11.822475019099457"><ele>16.400000000000002</ele><time>2026-03-22T11:33:38.999Z</time></trkpt><trkpt lat="45.45915585825985" lon="11.822532874604704"><ele>16.6</ele><time>2026-03-22T11:33:39.999Z</time></trkpt><trkpt lat="45.45908008865203" lon="11.822617309609504"><ele>16.8</ele><time>2026-03-22T11:33:40.999Z</time></trkpt><trkpt lat="45.45896143777339" lon="11.822643893154064"><ele>17.0</ele><time>2026-03-22T11:33:41.999Z</time></trkpt><trkpt lat="45.4588779890272" lon="11.822691566192578"><ele>16.5</ele><time>2026-03-22T11:33:42.999Z</time></trkpt><trkpt lat="45.45876918408979" lon="11.822738855794487"><ele>16.0</ele><time>2026-03-22T11:33:43.999Z</time></trkpt><trkpt lat="45.45866682900729" lon="11.822798466764386"><ele>15.5</ele><time>2026-03-22T11:33:44.999Z</time></trkpt><trkpt lat="45.458561871213696" lon="11.822868199623901"><ele>15.0</ele><time>2026-03-22T11:33:45.999Z</time></trkpt><trkpt lat="45.458447813480184" lon="11.822947449614215"><ele>15.0</ele><time>2026-03-22T11:33:46.999Z</time></trkpt><trkpt lat="45.45832598554864" lon="11.823031193799906"><ele>15.0</ele><time>2026-03-22T11:33:47.999Z</time></trkpt><trkpt lat="45.45820009034031" lon="11.823117558932358"><ele>15.0</ele><time>2026-03-22T11:33:48.999Z</time></trkpt><trkpt lat="45.458058799055145" lon="11.82321448770412"><ele>15.0</ele><time>2026-03-22T11:33:49.999Z</time></trkpt><trkpt lat="45.45791884711546" lon="11.823310497655628"><ele>15.0</ele><time>2026-03-22T11:33:50.999Z</time></trkpt><trkpt lat="45.45778134347982" lon="11.823404828018864"><ele>15.0</ele><time>2026-03-22T11:33:51.999Z</time></trkpt><trkpt lat="45.457646018180576" lon="11.823497663998504"><ele>15.0</ele><time>2026-03-22T11:33:52.999Z</time></trkpt><trkpt lat="45.45751422545569" lon="11.823588063585197"><ele>15.0</ele><time>2026-03-22T11:33:53.999Z</time></trkpt><trkpt lat="45.457382158575285" lon="11.8236786485594"><ele>15.0</ele><time>2026-03-22T11:33:54.999Z</time></trkpt><trkpt lat="45.4572475166311" lon="11.823770999779278"><ele>15.0</ele><time>2026-03-22T11:33:56Z</time></trkpt><trkpt lat="45.45710716785137" lon="11.823867557589814"><ele>15.0</ele><time>2026-03-22T11:33:57Z</time></trkpt><trkpt lat="45.45696626850448" lon="11.823964540015332"><ele>15.666666666666668</ele><time>2026-03-22T11:33:58Z</time></trkpt><trkpt lat="45.45682805321593" lon="11.824059674979027"><ele>16.333333333333336</ele><time>2026-03-22T11:33:59Z</time></trkpt><trkpt lat="45.456690690299375" lon="11.824154223245772"><ele>17.0</ele><time>2026-03-22T11:34:00Z</time></trkpt><trkpt lat="45.45655315780373" lon="11.82424888823531"><ele>17.0</ele><time>2026-03-22T11:34:01Z</time></trkpt><trkpt lat="45.456414316628674" lon="11.824344744500316"><ele>17.0</ele><time>2026-03-22T11:34:02Z</time></trkpt><trkpt lat="45.45627413858543" lon="11.824442039983936"><ele>17.0</ele><time>2026-03-22T11:34:03Z</time></trkpt><trkpt lat="45.45613824915029" lon="11.824535167434183"><ele>17.0</ele><time>2026-03-22T11:34:04Z</time></trkpt><trkpt lat="45.45600256917272" lon="11.82462932591013"><ele>17.0</ele><time>2026-03-22T11:34:05Z</time></trkpt><trkpt lat="45.455865773707515" lon="11.824724608855488"><ele>17.0</ele><time>2026-03-22T11:34:06Z</time></trkpt><trkpt lat="45.45573004816555" lon="11.82481860994207"><ele>17.0</ele><time>2026-03-22T11:34:07Z</time></trkpt><trkpt lat="45.45559276853672" lon="11.824913687362054"><ele>17.0</ele><time>2026-03-22T11:34:08Z</time></trkpt><trkpt lat="45.455437129285" lon="11.825021480330589"><ele>17.0</ele><time>2026-03-22T11:34:09Z</time></trkpt><trkpt lat="45.455259697638986" lon="11.825144642556916"><ele>17.666666666666668</ele><time>2026-03-22T11:34:10Z</time></trkpt><trkpt lat="45.455065203712074" lon="11.82527917505095"><ele>18.333333333333332</ele><time>2026-03-22T11:34:11Z</time></trkpt><trkpt lat="45.454873787324" lon="11.825410014981568"><ele>19.0</ele><time>2026-03-22T11:34:12Z</time></trkpt><trkpt lat="45.454715599931646" lon="11.825517901488746"><ele>18.666666666666664</ele><time>2026-03-22T11:34:13Z</time></trkpt><trkpt lat="45.45457180021156" lon="11.825615975352541"><ele>18.333333333333332</ele><time>2026-03-22T11:34:14Z</time></trkpt><trkpt lat="45.45442976593632" lon="11.825712680127921"><ele>18.0</ele><time>2026-03-22T11:34:15Z</time></trkpt><trkpt lat="45.45428946159381" lon="11.825808069148234"><ele>18.0</ele><time>2026-03-22T11:34:16Z</time></trkpt><trkpt lat="45.4541517456747" lon="11.825901698374754"><ele>18.0</ele><time>2026-03-22T11:34:17Z</time></trkpt><trkpt lat="45.45403782115854" lon="11.826062979863705"><ele>18.0</ele><time>2026-03-22T11:34:18Z</time></trkpt><trkpt lat="45.453901745584034" lon="11.826159188366962"><ele>17.666666666666668</ele><time>2026-03-22T11:34:19Z</time></trkpt><trkpt lat="45.45376254930618" lon="11.826251999352694"><ele>17.333333333333336</ele><time>2026-03-22T11:34:20Z</time></trkpt><trkpt lat="45.45362463081849" lon="11.826341510773734"><ele>17.0</ele><time>2026-03-22T11:34:21Z</time></trkpt><trkpt lat="45.453463870966345" lon="11.82636820162868"><ele>17.0</ele><time>2026-03-22T11:34:22Z</time></trkpt><trkpt lat="45.453352222886004" lon="11.826529003603566"><ele>17.0</ele><time>2026-03-22T11:34:23Z</time></trkpt><trkpt lat="45.45321932988133" lon="11.826622151200468"><ele>17.0</ele><time>2026-03-22T11:34:24Z</time></trkpt><trkpt lat="45.45308369199198" lon="11.826713511513802"><ele>17.0</ele><time>2026-03-22T11:34:25Z</time></trkpt><trkpt lat="45.45294837047205" lon="11.826803539980393"><ele>17.0</ele><time>2026-03-22T11:34:26Z</time></trkpt><trkpt lat="45.452798047618494" lon="11.826815567296785"><ele>17.0</ele><time>2026-03-22T11:34:27Z</time></trkpt><trkpt lat="45.452660544813526" lon="11.826901811947765"><ele>17.0</ele><time>2026-03-22T11:34:28Z</time></trkpt><trkpt lat="45.45252812301545" lon="11.82698278360135"><ele>17.0</ele><time>2026-03-22T11:34:29Z</time></trkpt><trkpt lat="45.45239448549997" lon="11.827061567189524"><ele>17.0</ele><time>2026-03-22T11:34:30Z</time></trkpt><trkpt lat="45.45225767671852" lon="11.827140786397964"><ele>17.0</ele><time>2026-03-22T11:34:31Z</time></trkpt><trkpt lat="45.45211744641775" lon="11.82722245695324"><ele>17.25</ele><time>2026-03-22T11:34:32Z</time></trkpt><trkpt lat="45.451978574197355" lon="11.827304487704966"><ele>17.5</ele><time>2026-03-22T11:34:33Z</time></trkpt><trkpt lat="45.45185012950577" lon="11.827383950468876"><ele>17.75</ele><time>2026-03-22T11:34:34Z</time></trkpt><trkpt lat="45.45172081087341" lon="11.827473519604897"><ele>18.0</ele><time>2026-03-22T11:34:35Z</time></trkpt><trkpt lat="45.451595731732915" lon="11.827566536196837"><ele>18.0</ele><time>2026-03-22T11:34:36Z</time></trkpt><trkpt lat="45.45147236504108" lon="11.827658110151882"><ele>18.0</ele><time>2026-03-22T11:34:37Z</time></trkpt><trkpt lat="45.451344562985916" lon="11.827752976433839"><ele>18.0</ele><time>2026-03-22T11:34:38Z</time></trkpt><trkpt lat="45.451212233543245" lon="11.827850555354262"><ele>18.0</ele><time>2026-03-22T11:34:39Z</time></trkpt><trkpt lat="45.45108515607307" lon="11.82794580922511"><ele>17.333333333333332</ele><time>2026-03-22T11:34:40Z</time></trkpt><trkpt lat="45.45094126385296" lon="11.82805307674702"><ele>16.666666666666664</ele><time>2026-03-22T11:34:41Z</time></trkpt><trkpt lat="45.4508154004458" lon="11.828146729345336"><ele>16.0</ele><time>2026-03-22T11:34:42Z</time></trkpt><trkpt lat="45.45065403944695" lon="11.82826659020599"><ele>16.0</ele><time>2026-03-22T11:34:43Z</time></trkpt><trkpt lat="45.45052677760011" lon="11.828360621715072"><ele>16.0</ele><time>2026-03-22T11:34:44Z</time></trkpt><trkpt lat="45.450394139294445" lon="11.82845823850439"><ele>16.0</ele><time>2026-03-22T11:34:45Z</time></trkpt><trkpt lat="45.4502573165562" lon="11.828558843619504"><ele>16.0</ele><time>2026-03-22T11:34:46Z</time></trkpt><trkpt lat="45.45012518828662" lon="11.828655838125721"><ele>16.25</ele><time>2026-03-22T11:34:47Z</time></trkpt><trkpt lat="45.4499945866187" lon="11.828751711964514"><ele>16.5</ele><time>2026-03-22T11:34:48Z</time></trkpt><trkpt lat="45.44986390900179" lon="11.828847638935196"><ele>16.75</ele><time>2026-03-22T11:34:49Z</time></trkpt><trkpt lat="45.44973866387807" lon="11.828939493098853"><ele>17.0</ele><time>2026-03-22T11:34:50Z</time></trkpt><trkpt lat="45.44961385504801" lon="11.829031027285852"><ele>17.25</ele><time>2026-03-22T11:34:51Z</time></trkpt><trkpt lat="45.44949743033497" lon="11.829117370513172"><ele>17.5</ele><time>2026-03-22T11:34:52Z</time></trkpt><trkpt lat="45.44937757810393" lon="11.829207741173724"><ele>17.75</ele><time>2026-03-22T11:34:53Z</time></trkpt><trkpt lat="45.44926703348632" lon="11.829287665299683"><ele>18.0</ele><time>2026-03-22T11:34:54Z</time></trkpt><trkpt lat="45.44916372793145" lon="11.829355402132629"><ele>17.6</ele><time>2026-03-22T11:34:55Z</time></trkpt><trkpt lat="45.44906806645503" lon="11.829417560551947"><ele>17.200000000000003</ele><time>2026-03-22T11:34:56Z</time></trkpt><trkpt lat="45.44897644097292" lon="11.82947964901993"><ele>16.8</ele><time>2026-03-22T11:34:57Z</time></trkpt><trkpt lat="45.44889671023483" lon="11.829538932536302"><ele>16.400000000000002</ele><time>2026-03-22T11:34:58Z</time></trkpt><trkpt lat="45.448828313592905" lon="11.829599998847389"><ele>16.0</ele><time>2026-03-22T11:34:59Z</time></trkpt><trkpt lat="45.448740657442904" lon="11.829630323877709"><ele>15.857142857142856</ele><time>2026-03-22T11:35:00Z</time></trkpt><trkpt lat="45.448657469644836" lon="11.82966458074139"><ele>15.714285714285712</ele><time>2026-03-22T11:35:01Z</time></trkpt><trkpt lat="45.44857521475576" lon="11.829661801743475"><ele>15.571428571428571</ele><time>2026-03-22T11:35:02Z</time></trkpt><trkpt lat="45.448499872938804" lon="11.829638687061282"><ele>15.428571428571427</ele><time>2026-03-22T11:35:03Z</time></trkpt><trkpt lat="45.44843331631314" lon="11.82961392172088"><ele>15.285714285714285</ele><time>2026-03-22T11:35:03.999Z</time></trkpt><trkpt lat="45.44837036254033" lon="11.829593573470236"><ele>15.142857142857142</ele><time>2026-03-22T11:35:04.999Z</time></trkpt><trkpt lat="45.44830177354862" lon="11.829572586492795"><ele>15.0</ele><time>2026-03-22T11:35:05.999Z</time></trkpt><trkpt lat="45.448225422492406" lon="11.829558255806859"><ele>15.0</ele><time>2026-03-22T11:35:06.999Z</time></trkpt><trkpt lat="45.448145858273485" lon="11.829567950919913"><ele>15.0</ele><time>2026-03-22T11:35:07.999Z</time></trkpt><trkpt lat="45.44806278378994" lon="11.829563369146888"><ele>15.0</ele><time>2026-03-22T11:35:08.999Z</time></trkpt><trkpt lat="45.447990816262696" lon="11.829594195468303"><ele>15.0</ele><time>2026-03-22T11:35:09.999Z</time></trkpt><trkpt lat="45.44787633393601" lon="11.82972820950319"><ele>15.0</ele><time>2026-03-22T11:35:10.999Z</time></trkpt><trkpt lat="45.44782430970217" lon="11.82985853671956"><ele>15.0</ele><time>2026-03-22T11:35:11.999Z</time></trkpt><trkpt lat="45.44776742219739" lon="11.829979929269234"><ele>15.0</ele><time>2026-03-22T11:35:12.999Z</time></trkpt><trkpt lat="45.44768589305058" lon="11.830072812924014"><ele>15.0</ele><time>2026-03-22T11:35:13.999Z</time></trkpt><trkpt lat="45.44759267654765" lon="11.830148496194248"><ele>15.0</ele><time>2026-03-22T11:35:14.999Z</time></trkpt><trkpt lat="45.447471176971234" lon="11.830155573835459"><ele>15.0</ele><time>2026-03-22T11:35:15.999Z</time></trkpt><trkpt lat="45.447344081953695" lon="11.830149431660628"><ele>15.0</ele><time>2026-03-22T11:35:16.999Z</time></trkpt><trkpt lat="45.4472034361147" lon="11.830084054857007"><ele>15.0</ele><time>2026-03-22T11:35:17.999Z</time></trkpt><trkpt lat="45.44705618901425" lon="11.83005359041971"><ele>15.0</ele><time>2026-03-22T11:35:18.999Z</time></trkpt><trkpt lat="45.44691519946293" lon="11.830036374194846"><ele>15.0</ele><time>2026-03-22T11:35:19.999Z</time></trkpt><trkpt lat="45.44677461547199" lon="11.830019505093118"><ele>15.25</ele><time>2026-03-22T11:35:20.999Z</time></trkpt><trkpt lat="45.446638432089465" lon="11.8300159172971"><ele>15.5</ele><time>2026-03-22T11:35:21.999Z</time></trkpt><trkpt lat="45.44649115859451" lon="11.829996534233365"><ele>15.75</ele><time>2026-03-22T11:35:22.999Z</time></trkpt><trkpt lat="45.44635534371975" lon="11.830008801674516"><ele>16.0</ele><time>2026-03-22T11:35:23.999Z</time></trkpt><trkpt lat="45.446223330107436" lon="11.830031999773054"><ele>16.0</ele><time>2026-03-22T11:35:24.999Z</time></trkpt><trkpt lat="45.44609607896868" lon="11.830064185600428"><ele>16.0</ele><time>2026-03-22T11:35:25.999Z</time></trkpt><trkpt lat="45.44598024767068" lon="11.83010442512132"><ele>16.0</ele><time>2026-03-22T11:35:26.999Z</time></trkpt><trkpt lat="45.445870095519176" lon="11.830156536194457"><ele>16.0</ele><time>2026-03-22T11:35:27.999Z</time></trkpt><trkpt lat="45.445766508659126" lon="11.83021609713671"><ele>16.0</ele><time>2026-03-22T11:35:28.999Z</time></trkpt><trkpt lat="45.44567095783316" lon="11.830276079036615"><ele>16.0</ele><time>2026-03-22T11:35:29.999Z</time></trkpt><trkpt lat="45.44558183487188" lon="11.830337504175116"><ele>16.0</ele><time>2026-03-22T11:35:30.999Z</time></trkpt><trkpt lat="45.44549034684625" lon="11.830403547284263"><ele>16.0</ele><time>2026-03-22T11:35:31.999Z</time></trkpt><trkpt lat="45.44540656826872" lon="11.830464025286817"><ele>16.0</ele><time>2026-03-22T11:35:32.999Z</time></trkpt><trkpt lat="45.44532861176558" lon="11.830524788025226"><ele>15.833333333333332</ele><time>2026-03-22T11:35:33.999Z</time></trkpt><trkpt lat="45.44526395013095" lon="11.830573940060559"><ele>15.666666666666666</ele><time>2026-03-22T11:35:34.999Z</time></trkpt><trkpt lat="45.445207440794775" lon="11.830618375370475"><ele>15.5</ele><time>2026-03-22T11:35:35.999Z</time></trkpt><trkpt lat="45.44510622332599" lon="11.830699855621168"><ele>15.333333333333332</ele><time>2026-03-22T11:35:37.999Z</time></trkpt><trkpt lat="45.44504056740836" lon="11.830755132226184"><ele>15.166666666666666</ele><time>2026-03-22T11:35:38.999Z</time></trkpt><trkpt lat="45.44498056497997" lon="11.830804776532705"><ele>15.0</ele><time>2026-03-22T11:35:39.999Z</time></trkpt><trkpt lat="45.44491844511619" lon="11.830854627947685"><ele>15.0</ele><time>2026-03-22T11:35:40.999Z</time></trkpt><trkpt lat="45.44484943855928" lon="11.830907974000414"><ele>15.0</ele><time>2026-03-22T11:35:41.999Z</time></trkpt><trkpt lat="45.44477127309777" lon="11.83096658017598"><ele>15.0</ele><time>2026-03-22T11:35:42.999Z</time></trkpt><trkpt lat="45.444663499578944" lon="11.831040719830925"><ele>15.0</ele><time>2026-03-22T11:35:43.999Z</time></trkpt><trkpt lat="45.44453746528539" lon="11.831125016467515"><ele>15.0</ele><time>2026-03-22T11:35:44.999Z</time></trkpt><trkpt lat="45.44442591896441" lon="11.831200532270595"><ele>15.0</ele><time>2026-03-22T11:35:45.999Z</time></trkpt><trkpt lat="45.44433890232252" lon="11.831263075740925"><ele>15.0</ele><time>2026-03-22T11:35:46.999Z</time></trkpt><trkpt lat="45.444267181980926" lon="11.831315820931339"><ele>15.0</ele><time>2026-03-22T11:35:47.999Z</time></trkpt><trkpt lat="45.444175888212285" lon="11.83138375113286"><ele>15.0</ele><time>2026-03-22T11:35:48.999Z</time></trkpt><trkpt lat="45.44406306779785" lon="11.831469924178087"><ele>15.0</ele><time>2026-03-22T11:35:49.999Z</time></trkpt><trkpt lat="45.443937955322276" lon="11.831565986224213"><ele>15.0</ele><time>2026-03-22T11:35:50.999Z</time></trkpt><trkpt lat="45.443800778292236" lon="11.831672927011812"><ele>15.0</ele><time>2026-03-22T11:35:51.999Z</time></trkpt><trkpt lat="45.4436484914732" lon="11.831798998557552"><ele>15.0</ele><time>2026-03-22T11:35:52.999Z</time></trkpt><trkpt lat="45.44350113913939" lon="11.831930793787073"><ele>14.333333333333332</ele><time>2026-03-22T11:35:53.999Z</time></trkpt><trkpt lat="45.44335639392341" lon="11.83206534715205"><ele>13.666666666666666</ele><time>2026-03-22T11:35:54.999Z</time></trkpt><trkpt lat="45.44321330032884" lon="11.83219837477404"><ele>13.0</ele><time>2026-03-22T11:35:55.999Z</time></trkpt><trkpt lat="45.44307467056016" lon="11.832330528776447"><ele>13.0</ele><time>2026-03-22T11:35:56.999Z</time></trkpt><trkpt lat="45.442929688756934" lon="11.832470838394377"><ele>13.0</ele><time>2026-03-22T11:35:57.999Z</time></trkpt><trkpt lat="45.44278527338332" lon="11.832617538620434"><ele>13.0</ele><time>2026-03-22T11:35:58.999Z</time></trkpt><trkpt lat="45.44263721980364" lon="11.832780420433979"><ele>13.0</ele><time>2026-03-22T11:35:59.999Z</time></trkpt><trkpt lat="45.44249459759833" lon="11.832939838452964"><ele>13.0</ele><time>2026-03-22T11:36:00.999Z</time></trkpt><trkpt lat="45.44235336171078" lon="11.833101751967357"><ele>13.0</ele><time>2026-03-22T11:36:02Z</time></trkpt><trkpt lat="45.442208057600965" lon="11.833261284349339"><ele>13.333333333333332</ele><time>2026-03-22T11:36:03Z</time></trkpt><trkpt lat="45.442036135608845" lon="11.833433103048971"><ele>13.666666666666668</ele><time>2026-03-22T11:36:04Z</time></trkpt><trkpt lat="45.44184803934266" lon="11.833589797372907"><ele>14.0</ele><time>2026-03-22T11:36:05Z</time></trkpt><trkpt lat="45.44168339719273" lon="11.833711462780533"><ele>14.333333333333334</ele><time>2026-03-22T11:36:06Z</time></trkpt><trkpt lat="45.441534487608" lon="11.83381353664691"><ele>14.666666666666668</ele><time>2026-03-22T11:36:07Z</time></trkpt><trkpt lat="45.44139136012045" lon="11.833907224277315"><ele>15.0</ele><time>2026-03-22T11:36:08Z</time></trkpt><trkpt lat="45.44125242199256" lon="11.833998169645355"><ele>14.666666666666668</ele><time>2026-03-22T11:36:09Z</time></trkpt><trkpt lat="45.44110005386957" lon="11.83410265024525"><ele>14.333333333333334</ele><time>2026-03-22T11:36:10Z</time></trkpt><trkpt lat="45.440953232893875" lon="11.834203701516879"><ele>14.0</ele><time>2026-03-22T11:36:11Z</time></trkpt><trkpt lat="45.440801546749775" lon="11.834308101262039"><ele>14.0</ele><time>2026-03-22T11:36:12Z</time></trkpt><trkpt lat="45.44064576410027" lon="11.834412897870898"><ele>14.0</ele><time>2026-03-22T11:36:13Z</time></trkpt><trkpt lat="45.440493422320976" lon="11.834510799748193"><ele>14.0</ele><time>2026-03-22T11:36:14Z</time></trkpt><trkpt lat="45.440344683313626" lon="11.834603524703272"><ele>14.666666666666668</ele><time>2026-03-22T11:36:15Z</time></trkpt><trkpt lat="45.440188574259665" lon="11.834704406571634"><ele>15.333333333333332</ele><time>2026-03-22T11:36:16Z</time></trkpt><trkpt lat="45.44003039902823" lon="11.834814145876734"><ele>16.0</ele><time>2026-03-22T11:36:17Z</time></trkpt><trkpt lat="45.439868680172474" lon="11.834931992344364"><ele>16.0</ele><time>2026-03-22T11:36:18Z</time></trkpt><trkpt lat="45.439707875542496" lon="11.835047564925178"><ele>16.0</ele><time>2026-03-22T11:36:19Z</time></trkpt><trkpt lat="45.43954003820224" lon="11.835166053585715"><ele>16.0</ele><time>2026-03-22T11:36:20Z</time></trkpt><trkpt lat="45.4393746300609" lon="11.835284425141875"><ele>15.666666666666666</ele><time>2026-03-22T11:36:21Z</time></trkpt><trkpt lat="45.43921900565087" lon="11.835395315146943"><ele>15.333333333333332</ele><time>2026-03-22T11:36:22Z</time></trkpt><trkpt lat="45.43907238913221" lon="11.835499323130158"><ele>15.0</ele><time>2026-03-22T11:36:23Z</time></trkpt><trkpt lat="45.43892238467371" lon="11.835606245014503"><ele>15.0</ele><time>2026-03-22T11:36:24Z</time></trkpt><trkpt lat="45.43879754356574" lon="11.835779789483475"><ele>15.0</ele><time>2026-03-22T11:36:25Z</time></trkpt><trkpt lat="45.43864142815477" lon="11.835885002263996"><ele>15.0</ele><time>2026-03-22T11:36:26Z</time></trkpt><trkpt lat="45.43848708209814" lon="11.835998269697937"><ele>14.666666666666668</ele><time>2026-03-22T11:36:27Z</time></trkpt><trkpt lat="45.43832301432711" lon="11.836098696476357"><ele>14.333333333333334</ele><time>2026-03-22T11:36:28Z</time></trkpt><trkpt lat="45.43815081776885" lon="11.836185054667666"><ele>14.0</ele><time>2026-03-22T11:36:29Z</time></trkpt><trkpt lat="45.43798310887768" lon="11.836181582649743"><ele>13.666666666666668</ele><time>2026-03-22T11:36:30Z</time></trkpt><trkpt lat="45.43780900788228" lon="11.836213747554822"><ele>13.333333333333332</ele><time>2026-03-22T11:36:31Z</time></trkpt><trkpt lat="45.43761519942364" lon="11.836242973245493"><ele>13.0</ele><time>2026-03-22T11:36:32Z</time></trkpt><trkpt lat="45.43742771611613" lon="11.836230921072772"><ele>13.0</ele><time>2026-03-22T11:36:33Z</time></trkpt><trkpt lat="45.43722366843093" lon="11.836225162144066"><ele>13.0</ele><time>2026-03-22T11:36:34Z</time></trkpt><trkpt lat="45.43699914240516" lon="11.836233119841676"><ele>13.0</ele><time>2026-03-22T11:36:35Z</time></trkpt><trkpt lat="45.43674729832719" lon="11.836237010968153"><ele>13.5</ele><time>2026-03-22T11:36:36Z</time></trkpt><trkpt lat="45.43647999639432" lon="11.836236640065533"><ele>14.0</ele><time>2026-03-22T11:36:37Z</time></trkpt><trkpt lat="45.43620994540873" lon="11.836241188789826"><ele>14.5</ele><time>2026-03-22T11:36:38Z</time></trkpt><trkpt lat="45.43596554611045" lon="11.83624167621106"><ele>15.0</ele><time>2026-03-22T11:36:39Z</time></trkpt><trkpt lat="45.43572822269399" lon="11.836268817334464"><ele>15.0</ele><time>2026-03-22T11:36:40Z</time></trkpt><trkpt lat="45.435495957209994" lon="11.8363130194077"><ele>15.0</ele><time>2026-03-22T11:36:41Z</time></trkpt><trkpt lat="45.43525546261769" lon="11.836370957566286"><ele>15.5</ele><time>2026-03-22T11:36:42Z</time></trkpt><trkpt lat="45.43501895499809" lon="11.836431423378091"><ele>16.0</ele><time>2026-03-22T11:36:43Z</time></trkpt><trkpt lat="45.4348003410012" lon="11.836488031899448"><ele>16.0</ele><time>2026-03-22T11:36:44Z</time></trkpt><trkpt lat="45.43459208359562" lon="11.836541610051334"><ele>16.0</ele><time>2026-03-22T11:36:45Z</time></trkpt><trkpt lat="45.434388730555106" lon="11.83659247673946"><ele>16.0</ele><time>2026-03-22T11:36:46Z</time></trkpt><trkpt lat="45.43418327543583" lon="11.83664387116798"><ele>16.0</ele><time>2026-03-22T11:36:47Z</time></trkpt><trkpt lat="45.43399447416378" lon="11.836699369971326"><ele>16.0</ele><time>2026-03-22T11:36:48Z</time></trkpt><trkpt lat="45.43381622037912" lon="11.836766997734971"><ele>16.0</ele><time>2026-03-22T11:36:49Z</time></trkpt><trkpt lat="45.43363665672552" lon="11.836858356300525"><ele>15.0</ele><time>2026-03-22T11:36:50Z</time></trkpt><trkpt lat="45.43346241911068" lon="11.83698182777746"><ele>14.0</ele><time>2026-03-22T11:36:51Z</time></trkpt><trkpt lat="45.43329622793202" lon="11.837143224092209"><ele>13.0</ele><time>2026-03-22T11:36:52Z</time></trkpt><trkpt lat="45.433146741225904" lon="11.837333254402056"><ele>13.0</ele><time>2026-03-22T11:36:53Z</time></trkpt><trkpt lat="45.433016725475625" lon="11.837540693564732"><ele>13.0</ele><time>2026-03-22T11:36:54Z</time></trkpt><trkpt lat="45.43290184711427" lon="11.837777367226499"><ele>13.0</ele><time>2026-03-22T11:36:55Z</time></trkpt><trkpt lat="45.43280792413569" lon="11.838032362802696"><ele>12.666666666666666</ele><time>2026-03-22T11:36:56Z</time></trkpt><trkpt lat="45.432739309131584" lon="11.838298983975545"><ele>12.333333333333332</ele><time>2026-03-22T11:36:57Z</time></trkpt><trkpt lat="45.43268510857542" lon="11.838563245814768"><ele>12.0</ele><time>2026-03-22T11:36:58Z</time></trkpt><trkpt lat="45.43263575675462" lon="11.83879281058341"><ele>12.0</ele><time>2026-03-22T11:36:59Z</time></trkpt><trkpt lat="45.432591061742265" lon="11.83900700465231"><ele>12.0</ele><time>2026-03-22T11:37:00Z</time></trkpt><trkpt lat="45.43255169686833" lon="11.839200585602622"><ele>12.0</ele><time>2026-03-22T11:37:01Z</time></trkpt><trkpt lat="45.43251336961996" lon="11.839382814862777"><ele>12.0</ele><time>2026-03-22T11:37:02Z</time></trkpt><trkpt lat="45.43251071163206" lon="11.839587483845895"><ele>12.5</ele><time>2026-03-22T11:37:03Z</time></trkpt><trkpt lat="45.43247854294207" lon="11.83972226073273"><ele>13.0</ele><time>2026-03-22T11:37:04Z</time></trkpt><trkpt lat="45.43245759809565" lon="11.839889374173305"><ele>13.5</ele><time>2026-03-22T11:37:05Z</time></trkpt><trkpt lat="45.43240844932386" lon="11.84004640934192"><ele>14.0</ele><time>2026-03-22T11:37:06Z</time></trkpt><trkpt lat="45.43237117087925" lon="11.840227953890896"><ele>14.0</ele><time>2026-03-22T11:37:07Z</time></trkpt><trkpt lat="45.432362095802524" lon="11.8404352519161"><ele>14.0</ele><time>2026-03-22T11:37:08Z</time></trkpt><trkpt lat="45.432348626129134" lon="11.840635385403084"><ele>14.0</ele><time>2026-03-22T11:37:09Z</time></trkpt><trkpt lat="45.432334819195475" lon="11.84084052994047"><ele>14.0</ele><time>2026-03-22T11:37:10Z</time></trkpt><trkpt lat="45.43240328822125" lon="11.841017079869246"><ele>14.0</ele><time>2026-03-22T11:37:11Z</time></trkpt><trkpt lat="45.432361250955" lon="11.841169211974309"><ele>14.0</ele><time>2026-03-22T11:37:12Z</time></trkpt><trkpt lat="45.43229459766007" lon="11.841330447325305"><ele>14.0</ele><time>2026-03-22T11:37:13Z</time></trkpt><trkpt lat="45.43219690891549" lon="11.84154109779973"><ele>14.0</ele><time>2026-03-22T11:37:13.999Z</time></trkpt><trkpt lat="45.432071805962615" lon="11.841796137914953"><ele>13.666666666666668</ele><time>2026-03-22T11:37:14.999Z</time></trkpt><trkpt lat="45.43195469042005" lon="11.84204174527309"><ele>13.333333333333332</ele><time>2026-03-22T11:37:15.999Z</time></trkpt><trkpt lat="45.4318712785127" lon="11.842247971944156"><ele>13.0</ele><time>2026-03-22T11:37:16.999Z</time></trkpt><trkpt lat="45.4317829452826" lon="11.842441108638361"><ele>13.0</ele><time>2026-03-22T11:37:17.999Z</time></trkpt><trkpt lat="45.43170471246075" lon="11.842616217099847"><ele>13.0</ele><time>2026-03-22T11:37:18.999Z</time></trkpt><trkpt lat="45.4316234573926" lon="11.8427723356891"><ele>13.0</ele><time>2026-03-22T11:37:19.999Z</time></trkpt><trkpt lat="45.43152027214774" lon="11.84292718598706"><ele>13.0</ele><time>2026-03-22T11:37:20.999Z</time></trkpt><trkpt lat="45.431398048171204" lon="11.84308179711259"><ele>13.0</ele><time>2026-03-22T11:37:21.999Z</time></trkpt><trkpt lat="45.431264202828515" lon="11.843224527387466"><ele>13.0</ele><time>2026-03-22T11:37:22.999Z</time></trkpt><trkpt lat="45.431121888522334" lon="11.84338003367864"><ele>13.0</ele><time>2026-03-22T11:37:23.999Z</time></trkpt><trkpt lat="45.43097913416929" lon="11.843530185682344"><ele>12.333333333333332</ele><time>2026-03-22T11:37:24.999Z</time></trkpt><trkpt lat="45.430834248693046" lon="11.843693719306868"><ele>11.666666666666666</ele><time>2026-03-22T11:37:25.999Z</time></trkpt><trkpt lat="45.430679840487855" lon="11.843847251528215"><ele>11.0</ele><time>2026-03-22T11:37:26.999Z</time></trkpt><trkpt lat="45.43053358358242" lon="11.844002673844845"><ele>11.0</ele><time>2026-03-22T11:37:27.999Z</time></trkpt><trkpt lat="45.430381445022995" lon="11.844160551359613"><ele>11.0</ele><time>2026-03-22T11:37:28.999Z</time></trkpt><trkpt lat="45.43023621786962" lon="11.844318905261595"><ele>11.0</ele><time>2026-03-22T11:37:29.999Z</time></trkpt><trkpt lat="45.43009558675632" lon="11.844486476310458"><ele>11.0</ele><time>2026-03-22T11:37:30.999Z</time></trkpt><trkpt lat="45.42994815605693" lon="11.844634268476344"><ele>11.0</ele><time>2026-03-22T11:37:31.999Z</time></trkpt><trkpt lat="45.429811308888084" lon="11.844783858575642"><ele>11.0</ele><time>2026-03-22T11:37:32.999Z</time></trkpt><trkpt lat="45.429684272782595" lon="11.844935057960004"><ele>11.25</ele><time>2026-03-22T11:37:33.999Z</time></trkpt><trkpt lat="45.42957482309496" lon="11.845076792131527"><ele>11.5</ele><time>2026-03-22T11:37:34.999Z</time></trkpt><trkpt lat="45.42947942666261" lon="11.84520290532409"><ele>11.75</ele><time>2026-03-22T11:37:35.999Z</time></trkpt><trkpt lat="45.42938773885037" lon="11.845319693549655"><ele>12.0</ele><time>2026-03-22T11:37:36.999Z</time></trkpt><trkpt lat="45.42929640649233" lon="11.845438590463349"><ele>12.0</ele><time>2026-03-22T11:37:37.999Z</time></trkpt><trkpt lat="45.42921443058348" lon="11.845548526157724"><ele>12.0</ele><time>2026-03-22T11:37:38.999Z</time></trkpt><trkpt lat="45.4291310560954" lon="11.845658009855166"><ele>12.0</ele><time>2026-03-22T11:37:39.999Z</time></trkpt><trkpt lat="45.4290520149801" lon="11.845759594302663"><ele>12.0</ele><time>2026-03-22T11:37:40.999Z</time></trkpt><trkpt lat="45.42897630214952" lon="11.845860685470512"><ele>12.0</ele><time>2026-03-22T11:37:41.999Z</time></trkpt><trkpt lat="45.42889855994984" lon="11.845965083041687"><ele>11.8</ele><time>2026-03-22T11:37:42.999Z</time></trkpt><trkpt lat="45.42882346496647" lon="11.846064910801454"><ele>11.6</ele><time>2026-03-22T11:37:43.999Z</time></trkpt><trkpt lat="45.428752873486125" lon="11.846153464948777"><ele>11.4</ele><time>2026-03-22T11:37:44.999Z</time></trkpt><trkpt lat="45.42868397439601" lon="11.846238793596743"><ele>11.200000000000001</ele><time>2026-03-22T11:37:45.999Z</time></trkpt><trkpt lat="45.428609826593494" lon="11.846336468935688"><ele>11.0</ele><time>2026-03-22T11:37:46.999Z</time></trkpt><trkpt lat="45.42853814658276" lon="11.846436735677866"><ele>11.4</ele><time>2026-03-22T11:37:47.999Z</time></trkpt><trkpt lat="45.42846488019455" lon="11.846531230350868"><ele>11.8</ele><time>2026-03-22T11:37:48.999Z</time></trkpt><trkpt lat="45.42839142823435" lon="11.846623489253838"><ele>12.200000000000001</ele><time>2026-03-22T11:37:49.999Z</time></trkpt><trkpt lat="45.428317156455336" lon="11.846716286283531"><ele>12.600000000000001</ele><time>2026-03-22T11:37:50.999Z</time></trkpt><trkpt lat="45.428248171324945" lon="11.846814164807904"><ele>13.0</ele><time>2026-03-22T11:37:51.999Z</time></trkpt><trkpt lat="45.428175256301124" lon="11.846910782291326"><ele>13.0</ele><time>2026-03-22T11:37:52.999Z</time></trkpt><trkpt lat="45.42810022772139" lon="11.84700398022411"><ele>13.0</ele><time>2026-03-22T11:37:53.999Z</time></trkpt><trkpt lat="45.42802939898692" lon="11.847092105166185"><ele>13.0</ele><time>2026-03-22T11:37:54.999Z</time></trkpt><trkpt lat="45.42795458561796" lon="11.847181641439347"><ele>13.0</ele><time>2026-03-22T11:37:55.999Z</time></trkpt><trkpt lat="45.42788281409243" lon="11.847272426881792"><ele>13.0</ele><time>2026-03-22T11:37:56.999Z</time></trkpt><trkpt lat="45.427815289049555" lon="11.847367217786854"><ele>12.600000000000001</ele><time>2026-03-22T11:37:57.999Z</time></trkpt><trkpt lat="45.427741527811854" lon="11.847464805761813"><ele>12.200000000000001</ele><time>2026-03-22T11:37:58.999Z</time></trkpt><trkpt lat="45.42766486785115" lon="11.84756101253775"><ele>11.8</ele><time>2026-03-22T11:37:59.999Z</time></trkpt><trkpt lat="45.42759026341098" lon="11.847657128005581"><ele>11.4</ele><time>2026-03-22T11:38:00.999Z</time></trkpt><trkpt lat="45.42751666148703" lon="11.84775375983028"><ele>11.0</ele><time>2026-03-22T11:38:01.999Z</time></trkpt><trkpt lat="45.42744212084238" lon="11.847852676630785"><ele>11.0</ele><time>2026-03-22T11:38:02.999Z</time></trkpt><trkpt lat="45.4273703526895" lon="11.847951272786181"><ele>11.0</ele><time>2026-03-22T11:38:03.999Z</time></trkpt><trkpt lat="45.42729826965902" lon="11.8480386389199"><ele>11.0</ele><time>2026-03-22T11:38:04.999Z</time></trkpt><trkpt lat="45.42722873197623" lon="11.848114420080899"><ele>11.0</ele><time>2026-03-22T11:38:05.999Z</time></trkpt><trkpt lat="45.4271686743941" lon="11.848195226638492"><ele>11.0</ele><time>2026-03-22T11:38:06.999Z</time></trkpt><trkpt lat="45.427116830254725" lon="11.848282904390393"><ele>11.0</ele><time>2026-03-22T11:38:08Z</time></trkpt><trkpt lat="45.42708065167311" lon="11.848371114603237"><ele>10.833333333333332</ele><time>2026-03-22T11:38:09Z</time></trkpt><trkpt lat="45.42704597657345" lon="11.848463940760865"><ele>10.666666666666666</ele><time>2026-03-22T11:38:10Z</time></trkpt><trkpt lat="45.42693904768789" lon="11.848476374762175"><ele>10.5</ele><time>2026-03-22T11:38:11Z</time></trkpt><trkpt lat="45.426888212823776" lon="11.848604503634862"><ele>10.333333333333334</ele><time>2026-03-22T11:38:13Z</time></trkpt><trkpt lat="45.42684796924316" lon="11.848683121288085"><ele>10.166666666666668</ele><time>2026-03-22T11:38:14Z</time></trkpt><trkpt lat="45.42677238273274" lon="11.848766307178858"><ele>10.0</ele><time>2026-03-22T11:38:15Z</time></trkpt><trkpt lat="45.42667135858239" lon="11.848809605644261"><ele>10.0</ele><time>2026-03-22T11:38:16Z</time></trkpt><trkpt lat="45.426595604563694" lon="11.84889848990652"><ele>10.0</ele><time>2026-03-22T11:38:17Z</time></trkpt><trkpt lat="45.42653393955181" lon="11.849000467435435"><ele>10.0</ele><time>2026-03-22T11:38:18Z</time></trkpt><trkpt lat="45.426462396416156" lon="11.849086042217028"><ele>10.0</ele><time>2026-03-22T11:38:19Z</time></trkpt><trkpt lat="45.4263789146334" lon="11.84917070684147"><ele>10.0</ele><time>2026-03-22T11:38:20Z</time></trkpt><trkpt lat="45.426284709227026" lon="11.849254758072762"><ele>10.0</ele><time>2026-03-22T11:38:21Z</time></trkpt><trkpt lat="45.42621306160136" lon="11.849363911088483"><ele>10.0</ele><time>2026-03-22T11:38:22Z</time></trkpt><trkpt lat="45.426130380425086" lon="11.84939694708134"><ele>10.0</ele><time>2026-03-22T11:38:23Z</time></trkpt><trkpt lat="45.42606273306581" lon="11.849479788781512"><ele>10.0</ele><time>2026-03-22T11:38:24Z</time></trkpt><trkpt lat="45.42599626573198" lon="11.849563193031235"><ele>10.0</ele><time>2026-03-22T11:38:25Z</time></trkpt><trkpt lat="45.42592035024387" lon="11.849658452986342"><ele>10.0</ele><time>2026-03-22T11:38:26Z</time></trkpt><trkpt lat="45.42585279134244" lon="11.849746447821701"><ele>10.0</ele><time>2026-03-22T11:38:27Z</time></trkpt><trkpt lat="45.42578970578152" lon="11.849828825787846"><ele>10.0</ele><time>2026-03-22T11:38:28Z</time></trkpt><trkpt lat="45.425725209485705" lon="11.849915362340353"><ele>10.0</ele><time>2026-03-22T11:38:29Z</time></trkpt><trkpt lat="45.42565712201886" lon="11.850006717274594"><ele>10.0</ele><time>2026-03-22T11:38:30Z</time></trkpt><trkpt lat="45.42558654790107" lon="11.850100364149874"><ele>10.4</ele><time>2026-03-22T11:38:31Z</time></trkpt><trkpt lat="45.42551379413137" lon="11.850196850153878"><ele>10.8</ele><time>2026-03-22T11:38:32Z</time></trkpt><trkpt lat="45.42543970937485" lon="11.850292608309735"><ele>11.2</ele><time>2026-03-22T11:38:33Z</time></trkpt><trkpt lat="45.42536689205527" lon="11.850388060562079"><ele>11.6</ele><time>2026-03-22T11:38:34Z</time></trkpt><trkpt lat="45.42529383414084" lon="11.850485596177538"><ele>12.0</ele><time>2026-03-22T11:38:35Z</time></trkpt><trkpt lat="45.42522271433994" lon="11.850582270061754"><ele>12.2</ele><time>2026-03-22T11:38:36Z</time></trkpt><trkpt lat="45.42514862776246" lon="11.850684029440112"><ele>12.399999999999999</ele><time>2026-03-22T11:38:37Z</time></trkpt><trkpt lat="45.42507791561444" lon="11.850789076780913"><ele>12.600000000000001</ele><time>2026-03-22T11:38:38Z</time></trkpt><trkpt lat="45.42500830591241" lon="11.850897411635813"><ele>12.8</ele><time>2026-03-22T11:38:39Z</time></trkpt><trkpt lat="45.42494024688441" lon="11.851012405471945"><ele>13.0</ele><time>2026-03-22T11:38:40Z</time></trkpt><trkpt lat="45.42487407991168" lon="11.851128758006704"><ele>13.25</ele><time>2026-03-22T11:38:41Z</time></trkpt><trkpt lat="45.42480692004001" lon="11.851254278144864"><ele>13.5</ele><time>2026-03-22T11:38:42Z</time></trkpt><trkpt lat="45.424739361873506" lon="11.851379274117614"><ele>13.75</ele><time>2026-03-22T11:38:43Z</time></trkpt><trkpt lat="45.42467191691527" lon="11.851504060635104"><ele>14.0</ele><time>2026-03-22T11:38:44Z</time></trkpt><trkpt lat="45.4246002281928" lon="11.85163883428663"><ele>13.6</ele><time>2026-03-22T11:38:45Z</time></trkpt><trkpt lat="45.42453481661115" lon="11.851762030090454"><ele>13.2</ele><time>2026-03-22T11:38:46Z</time></trkpt><trkpt lat="45.42447161567432" lon="11.851881062473234"><ele>12.799999999999999</ele><time>2026-03-22T11:38:47Z</time></trkpt><trkpt lat="45.42440869737988" lon="11.851999727852263"><ele>12.399999999999999</ele><time>2026-03-22T11:38:48Z</time></trkpt><trkpt lat="45.42434536228859" lon="11.852118860712485"><ele>12.0</ele><time>2026-03-22T11:38:49Z</time></trkpt><trkpt lat="45.424280622609515" lon="11.85224063041557"><ele>12.0</ele><time>2026-03-22T11:38:50Z</time></trkpt><trkpt lat="45.42421917496534" lon="11.852356208075731"><ele>12.0</ele><time>2026-03-22T11:38:51Z</time></trkpt><trkpt lat="45.42416018480061" lon="11.852466954169227"><ele>12.0</ele><time>2026-03-22T11:38:52Z</time></trkpt><trkpt lat="45.42410098755897" lon="11.85257635531004"><ele>12.0</ele><time>2026-03-22T11:38:53Z</time></trkpt><trkpt lat="45.424041194014215" lon="11.85268685846159"><ele>12.0</ele><time>2026-03-22T11:38:54Z</time></trkpt><trkpt lat="45.423982724833756" lon="11.852794914084923"><ele>12.0</ele><time>2026-03-22T11:38:55Z</time></trkpt><trkpt lat="45.42392603597827" lon="11.85289967953411"><ele>12.0</ele><time>2026-03-22T11:38:56Z</time></trkpt><trkpt lat="45.42387317953356" lon="11.852997362421434"><ele>12.0</ele><time>2026-03-22T11:38:57Z</time></trkpt><trkpt lat="45.423830856810525" lon="11.853075765153136"><ele>12.0</ele><time>2026-03-22T11:38:58Z</time></trkpt><trkpt lat="45.42378523106481" lon="11.853160227497847"><ele>12.0</ele><time>2026-03-22T11:39:02Z</time></trkpt><trkpt lat="45.42371339763319" lon="11.85329320549564"><ele>12.0</ele><time>2026-03-22T11:39:05Z</time></trkpt><trkpt lat="45.42366827973156" lon="11.853376727769586"><ele>12.0</ele><time>2026-03-22T11:39:06Z</time></trkpt><trkpt lat="45.42363012013663" lon="11.853448699461616"><ele>12.0</ele><time>2026-03-22T11:39:07Z</time></trkpt><trkpt lat="45.423544862473065" lon="11.853612419884849"><ele>12.0</ele><time>2026-03-22T11:39:09Z</time></trkpt><trkpt lat="45.42348646942322" lon="11.853722984182316"><ele>12.0</ele><time>2026-03-22T11:39:10Z</time></trkpt><trkpt lat="45.423426433883286" lon="11.85383753374259"><ele>12.0</ele><time>2026-03-22T11:39:11Z</time></trkpt><trkpt lat="45.42336737177817" lon="11.853952393795796"><ele>12.0</ele><time>2026-03-22T11:39:12Z</time></trkpt><trkpt lat="45.42330417379234" lon="11.854075206461495"><ele>12.0</ele><time>2026-03-22T11:39:13Z</time></trkpt><trkpt lat="45.42323668534782" lon="11.854205861943614"><ele>12.0</ele><time>2026-03-22T11:39:14Z</time></trkpt><trkpt lat="45.42316658953844" lon="11.854344258330618"><ele>12.0</ele><time>2026-03-22T11:39:15Z</time></trkpt><trkpt lat="45.423101472244376" lon="11.854474381418397"><ele>12.0</ele><time>2026-03-22T11:39:16Z</time></trkpt><trkpt lat="45.42303253328061" lon="11.854612141405605"><ele>12.0</ele><time>2026-03-22T11:39:17Z</time></trkpt><trkpt lat="45.42296246536322" lon="11.854752895135768"><ele>12.0</ele><time>2026-03-22T11:39:18Z</time></trkpt><trkpt lat="45.422977020902806" lon="11.854980876277773"><ele>12.0</ele><time>2026-03-22T11:39:19Z</time></trkpt><trkpt lat="45.42290510626391" lon="11.855118729453327"><ele>12.0</ele><time>2026-03-22T11:39:20Z</time></trkpt><trkpt lat="45.4228318512894" lon="11.855256350045074"><ele>12.0</ele><time>2026-03-22T11:39:21Z</time></trkpt><trkpt lat="45.42275825705059" lon="11.855399149930893"><ele>12.0</ele><time>2026-03-22T11:39:22Z</time></trkpt><trkpt lat="45.422681817438935" lon="11.855544414371117"><ele>12.0</ele><time>2026-03-22T11:39:22.999Z</time></trkpt><trkpt lat="45.42260050297144" lon="11.855690706730762"><ele>12.0</ele><time>2026-03-22T11:39:23.999Z</time></trkpt><trkpt lat="45.4224471502538" lon="11.855761097743812"><ele>12.0</ele><time>2026-03-22T11:39:24.999Z</time></trkpt><trkpt lat="45.42237156622588" lon="11.855904833666749"><ele>12.0</ele><time>2026-03-22T11:39:25.999Z</time></trkpt><trkpt lat="45.42229210578136" lon="11.856051939376464"><ele>12.0</ele><time>2026-03-22T11:39:26.999Z</time></trkpt><trkpt lat="45.42222246675229" lon="11.856183343721128"><ele>12.0</ele><time>2026-03-22T11:39:27.999Z</time></trkpt><trkpt lat="45.422162597074134" lon="11.85630143072809"><ele>12.0</ele><time>2026-03-22T11:39:28.999Z</time></trkpt><trkpt lat="45.42211936775129" lon="11.856408171353479"><ele>12.0</ele><time>2026-03-22T11:39:29.999Z</time></trkpt><trkpt lat="45.422086792770045" lon="11.856493521798084"><ele>12.0</ele><time>2026-03-22T11:39:32.999Z</time></trkpt><trkpt lat="45.42209892302094" lon="11.856667528455011"><ele>12.0</ele><time>2026-03-22T11:39:40.999Z</time></trkpt><trkpt lat="45.42203715937423" lon="11.856760979022814"><ele>11.6</ele><time>2026-03-22T11:39:42.999Z</time></trkpt><trkpt lat="45.42198278202318" lon="11.856885902385867"><ele>11.2</ele><time>2026-03-22T11:39:44.999Z</time></trkpt><trkpt lat="45.421904788048295" lon="11.857038914969213"><ele>10.8</ele><time>2026-03-22T11:39:46.999Z</time></trkpt><trkpt lat="45.4218582739549" lon="11.857115769728214"><ele>10.4</ele><time>2026-03-22T11:39:47.999Z</time></trkpt><trkpt lat="45.42181376521986" lon="11.857194356047419"><ele>10.0</ele><time>2026-03-22T11:39:48.999Z</time></trkpt><trkpt lat="45.42176846230046" lon="11.85728005372461"><ele>10.0</ele><time>2026-03-22T11:39:49.999Z</time></trkpt><trkpt lat="45.42172605063966" lon="11.857379074148476"><ele>10.0</ele><time>2026-03-22T11:39:50.999Z</time></trkpt><trkpt lat="45.42167374012591" lon="11.857469416879582"><ele>10.0</ele><time>2026-03-22T11:39:51.999Z</time></trkpt><trkpt lat="45.42162360216443" lon="11.857536023634571"><ele>10.0</ele><time>2026-03-22T11:39:52.999Z</time></trkpt><trkpt lat="45.421569428904625" lon="11.857624032069815"><ele>10.0</ele><time>2026-03-22T11:39:53.999Z</time></trkpt><trkpt lat="45.421514638157795" lon="11.85771494286569"><ele>10.0</ele><time>2026-03-22T11:39:54.999Z</time></trkpt><trkpt lat="45.4214023450721" lon="11.857722305940829"><ele>10.166666666666668</ele><time>2026-03-22T11:39:55.999Z</time></trkpt><trkpt lat="45.421350273030285" lon="11.857810127876002"><ele>10.333333333333334</ele><time>2026-03-22T11:39:56.999Z</time></trkpt><trkpt lat="45.42130183149458" lon="11.85789669664626"><ele>10.5</ele><time>2026-03-22T11:39:57.999Z</time></trkpt><trkpt lat="45.42124819970925" lon="11.85798804017197"><ele>10.666666666666666</ele><time>2026-03-22T11:39:58.999Z</time></trkpt><trkpt lat="45.42119460872527" lon="11.858082047342327"><ele>10.833333333333332</ele><time>2026-03-22T11:39:59.999Z</time></trkpt><trkpt lat="45.42114830790312" lon="11.858166650652404"><ele>11.0</ele><time>2026-03-22T11:40:00.999Z</time></trkpt><trkpt lat="45.42110297761441" lon="11.85824933147214"><ele>11.0</ele><time>2026-03-22T11:40:01.999Z</time></trkpt><trkpt lat="45.42106067772602" lon="11.858326123297374"><ele>11.0</ele><time>2026-03-22T11:40:02.999Z</time></trkpt><trkpt lat="45.42101840575373" lon="11.858402864453696"><ele>11.0</ele><time>2026-03-22T11:40:03.999Z</time></trkpt><trkpt lat="45.420969751978724" lon="11.858491191238025"><ele>11.0</ele><time>2026-03-22T11:40:04.999Z</time></trkpt><trkpt lat="45.420918128913065" lon="11.858585610860095"><ele>11.0</ele><time>2026-03-22T11:40:05.999Z</time></trkpt><trkpt lat="45.42087082209943" lon="11.85867226436055"><ele>11.0</ele><time>2026-03-22T11:40:06.999Z</time></trkpt><trkpt lat="45.42082603058816" lon="11.858754310511522"><ele>11.0</ele><time>2026-03-22T11:40:07.999Z</time></trkpt><trkpt lat="45.420759476916906" lon="11.858875735611754"><ele>11.0</ele><time>2026-03-22T11:40:09.999Z</time></trkpt><trkpt lat="45.42071805298952" lon="11.858951310566455"><ele>11.0</ele><time>2026-03-22T11:40:11.999Z</time></trkpt><trkpt lat="45.42066231898874" lon="11.8590498049841"><ele>11.0</ele><time>2026-03-22T11:40:15Z</time></trkpt><trkpt lat="45.42061559117068" lon="11.859116127124981"><ele>11.0</ele><time>2026-03-22T11:40:17Z</time></trkpt><trkpt lat="45.42055401736853" lon="11.859200338313048"><ele>11.0</ele><time>2026-03-22T11:40:19Z</time></trkpt><trkpt lat="45.42044166475298" lon="11.8591767374209"><ele>10.833333333333332</ele><time>2026-03-22T11:40:21Z</time></trkpt><trkpt lat="45.42037944054397" lon="11.859158552830015"><ele>10.666666666666666</ele><time>2026-03-22T11:40:22Z</time></trkpt><trkpt lat="45.42030216747058" lon="11.859162756087033"><ele>10.5</ele><time>2026-03-22T11:40:23Z</time></trkpt><trkpt lat="45.42022397121636" lon="11.859133244821681"><ele>10.333333333333334</ele><time>2026-03-22T11:40:24Z</time></trkpt><trkpt lat="45.42015124640841" lon="11.859100508760676"><ele>10.166666666666668</ele><time>2026-03-22T11:40:25Z</time></trkpt><trkpt lat="45.42006075399552" lon="11.85907524339082"><ele>10.0</ele><time>2026-03-22T11:40:26Z</time></trkpt><trkpt lat="45.41996367785031" lon="11.859077865486418"><ele>10.0</ele><time>2026-03-22T11:40:27Z</time></trkpt><trkpt lat="45.41987762825359" lon="11.859111006624243"><ele>10.0</ele><time>2026-03-22T11:40:28Z</time></trkpt><trkpt lat="45.41979402626674" lon="11.85917161939245"><ele>10.0</ele><time>2026-03-22T11:40:29Z</time></trkpt><trkpt lat="45.41971989899307" lon="11.85923790055486"><ele>10.0</ele><time>2026-03-22T11:40:30Z</time></trkpt><trkpt lat="45.41962716757867" lon="11.859341017957426"><ele>10.0</ele><time>2026-03-22T11:40:31Z</time></trkpt><trkpt lat="45.4195561707835" lon="11.859457315029893"><ele>10.0</ele><time>2026-03-22T11:40:32Z</time></trkpt><trkpt lat="45.41948801137066" lon="11.859576201942904"><ele>10.0</ele><time>2026-03-22T11:40:33Z</time></trkpt><trkpt lat="45.41941543282631" lon="11.85970265058754"><ele>10.0</ele><time>2026-03-22T11:40:34Z</time></trkpt><trkpt lat="45.41934026581371" lon="11.85983209523677"><ele>10.0</ele><time>2026-03-22T11:40:35Z</time></trkpt><trkpt lat="45.419268884949446" lon="11.859953791667783"><ele>10.0</ele><time>2026-03-22T11:40:36Z</time></trkpt><trkpt lat="45.419204697583176" lon="11.86006322398337"><ele>10.0</ele><time>2026-03-22T11:40:37Z</time></trkpt><trkpt lat="45.419140964866145" lon="11.860172266360873"><ele>10.0</ele><time>2026-03-22T11:40:38Z</time></trkpt><trkpt lat="45.419074573555896" lon="11.860287183366072"><ele>10.0</ele><time>2026-03-22T11:40:39Z</time></trkpt><trkpt lat="45.41900417276955" lon="11.860409040386463"><ele>10.0</ele><time>2026-03-22T11:40:40Z</time></trkpt><trkpt lat="45.41892878830931" lon="11.860539523688047"><ele>10.0</ele><time>2026-03-22T11:40:41Z</time></trkpt><trkpt lat="45.41885816611839" lon="11.860660245036065"><ele>10.0</ele><time>2026-03-22T11:40:42Z</time></trkpt><trkpt lat="45.41878522348094" lon="11.860784752947927"><ele>10.0</ele><time>2026-03-22T11:40:43Z</time></trkpt><trkpt lat="45.4186961916172" lon="11.860938250583247"><ele>10.0</ele><time>2026-03-22T11:40:44Z</time></trkpt><trkpt lat="45.41862126209532" lon="11.861065578259142"><ele>10.25</ele><time>2026-03-22T11:40:45Z</time></trkpt><trkpt lat="45.41854494668427" lon="11.86119734223522"><ele>10.5</ele><time>2026-03-22T11:40:46Z</time></trkpt><trkpt lat="45.41846373135198" lon="11.861334766790971"><ele>10.75</ele><time>2026-03-22T11:40:47Z</time></trkpt><trkpt lat="45.41838499308042" lon="11.861472633230017"><ele>11.0</ele><time>2026-03-22T11:40:48Z</time></trkpt><trkpt lat="45.418299873007555" lon="11.861622915849557"><ele>11.0</ele><time>2026-03-22T11:40:49Z</time></trkpt><trkpt lat="45.418216330207464" lon="11.861771626844277"><ele>11.0</ele><time>2026-03-22T11:40:50Z</time></trkpt><trkpt lat="45.41814590854309" lon="11.86190177709314"><ele>11.0</ele><time>2026-03-22T11:40:51Z</time></trkpt><trkpt lat="45.418080484063765" lon="11.862036152710864"><ele>11.0</ele><time>2026-03-22T11:40:52Z</time></trkpt><trkpt lat="45.41801819947039" lon="11.862175969249964"><ele>10.8</ele><time>2026-03-22T11:40:53Z</time></trkpt><trkpt lat="45.41796241920797" lon="11.862314182375757"><ele>10.600000000000001</ele><time>2026-03-22T11:40:54Z</time></trkpt><trkpt lat="45.41791487724707" lon="11.86245119898493"><ele>10.4</ele><time>2026-03-22T11:40:55Z</time></trkpt><trkpt lat="45.41787147557091" lon="11.862598079153326"><ele>10.2</ele><time>2026-03-22T11:40:56Z</time></trkpt><trkpt lat="45.41783225742688" lon="11.862734032460246"><ele>10.0</ele><time>2026-03-22T11:40:57Z</time></trkpt><trkpt lat="45.417800560261426" lon="11.862843913716272"><ele>10.333333333333334</ele><time>2026-03-22T11:40:58Z</time></trkpt><trkpt lat="45.41776182698314" lon="11.86297683647736"><ele>10.666666666666668</ele><time>2026-03-22T11:41:00Z</time></trkpt><trkpt lat="45.417724431205485" lon="11.863087689998093"><ele>11.0</ele><time>2026-03-22T11:41:02Z</time></trkpt><trkpt lat="45.41769471094959" lon="11.86316996777741"><ele>11.333333333333334</ele><time>2026-03-22T11:41:04Z</time></trkpt><trkpt lat="45.41765276611922" lon="11.863272535725732"><ele>11.666666666666666</ele><time>2026-03-22T11:41:06Z</time></trkpt><trkpt lat="45.417606379261386" lon="11.86337964139342"><ele>12.0</ele><time>2026-03-22T11:41:08Z</time></trkpt><trkpt lat="45.417630944688725" lon="11.863478894295401"><ele>12.166666666666666</ele><time>2026-03-22T11:41:09Z</time></trkpt><trkpt lat="45.41763347645213" lon="11.863582918422331"><ele>12.333333333333332</ele><time>2026-03-22T11:41:11Z</time></trkpt><trkpt lat="45.41755722693324" lon="11.863636766478086"><ele>12.5</ele><time>2026-03-22T11:41:13Z</time></trkpt><trkpt lat="45.41752918868407" lon="11.863776392127992"><ele>12.666666666666666</ele><time>2026-03-22T11:41:17Z</time></trkpt><trkpt lat="45.41748526847467" lon="11.863881908044107"><ele>12.833333333333332</ele><time>2026-03-22T11:41:20Z</time></trkpt><trkpt lat="45.41741143458791" lon="11.863971652069475"><ele>13.0</ele><time>2026-03-22T11:41:22Z</time></trkpt><trkpt lat="45.417330280224064" lon="11.864010764457834"><ele>13.0</ele><time>2026-03-22T11:41:23.999Z</time></trkpt><trkpt lat="45.41722708584385" lon="11.864052687968488"><ele>13.0</ele><time>2026-03-22T11:41:26.999Z</time></trkpt><trkpt lat="45.417136192153954" lon="11.863988473329242"><ele>13.0</ele><time>2026-03-22T11:41:28.999Z</time></trkpt><trkpt lat="45.41704098994126" lon="11.863899027941349"><ele>13.0</ele><time>2026-03-22T11:41:30.999Z</time></trkpt><trkpt lat="45.41701493997685" lon="11.863770807966288"><ele>13.0</ele><time>2026-03-22T11:41:31.999Z</time></trkpt><trkpt lat="45.416965564363586" lon="11.863647766255404"><ele>12.833333333333332</ele><time>2026-03-22T11:41:32.999Z</time></trkpt><trkpt lat="45.41689787866928" lon="11.863535439240158"><ele>12.666666666666666</ele><time>2026-03-22T11:41:33.999Z</time></trkpt><trkpt lat="45.416820986546426" lon="11.86346152788831"><ele>12.5</ele><time>2026-03-22T11:41:34.999Z</time></trkpt><trkpt lat="45.41675684303618" lon="11.863408753495651"><ele>12.333333333333332</ele><time>2026-03-22T11:41:35.999Z</time></trkpt><trkpt lat="45.416693606251954" lon="11.863366041763943"><ele>12.166666666666666</ele><time>2026-03-22T11:41:36.999Z</time></trkpt><trkpt lat="45.41661392559965" lon="11.863335705407582"><ele>12.0</ele><time>2026-03-22T11:41:37.999Z</time></trkpt><trkpt lat="45.41652638858966" lon="11.863318827197014"><ele>12.0</ele><time>2026-03-22T11:41:38.999Z</time></trkpt><trkpt lat="45.416440762445106" lon="11.863328511234817"><ele>12.0</ele><time>2026-03-22T11:41:39.999Z</time></trkpt><trkpt lat="45.416354432748854" lon="11.863348241070382"><ele>12.0</ele><time>2026-03-22T11:41:40.999Z</time></trkpt><trkpt lat="45.416272996207695" lon="11.86337663747951"><ele>12.0</ele><time>2026-03-22T11:41:41.999Z</time></trkpt><trkpt lat="45.416172686624506" lon="11.86335887090864"><ele>12.0</ele><time>2026-03-22T11:41:42.999Z</time></trkpt><trkpt lat="45.41607585684286" lon="11.863423432202392"><ele>12.2</ele><time>2026-03-22T11:41:43.999Z</time></trkpt><trkpt lat="45.415984846575334" lon="11.863501127298884"><ele>12.399999999999999</ele><time>2026-03-22T11:41:44.999Z</time></trkpt><trkpt lat="45.415906098399866" lon="11.863576464247108"><ele>12.600000000000001</ele><time>2026-03-22T11:41:45.999Z</time></trkpt><trkpt lat="45.41583820940853" lon="11.863643662258397"><ele>12.8</ele><time>2026-03-22T11:41:46.999Z</time></trkpt><trkpt lat="45.41576363890666" lon="11.863717178285404"><ele>13.0</ele><time>2026-03-22T11:41:47.999Z</time></trkpt><trkpt lat="45.41568582120534" lon="11.863793586931605"><ele>12.999999999999998</ele><time>2026-03-22T11:41:48.999Z</time></trkpt><trkpt lat="45.41561176088501" lon="11.863864817251766"><ele>13.0</ele><time>2026-03-22T11:41:49.999Z</time></trkpt><trkpt lat="45.41553727331776" lon="11.863932878606962"><ele>13.0</ele><time>2026-03-22T11:41:50.999Z</time></trkpt><trkpt lat="45.415455231514095" lon="11.864002362608142"><ele>13.0</ele><time>2026-03-22T11:41:51.999Z</time></trkpt><trkpt lat="45.415374905889145" lon="11.864062618055753"><ele>12.999999999999998</ele><time>2026-03-22T11:41:52.999Z</time></trkpt><trkpt lat="45.41529672393933" lon="11.86411133540963"><ele>13.0</ele><time>2026-03-22T11:41:53.999Z</time></trkpt><trkpt lat="45.41521641870685" lon="11.864154219856387"><ele>12.499999999999998</ele><time>2026-03-22T11:41:54.999Z</time></trkpt><trkpt lat="45.41514122403612" lon="11.864187444622942"><ele>12.0</ele><time>2026-03-22T11:41:55.999Z</time></trkpt><trkpt lat="45.41507693376687" lon="11.864210577305752"><ele>11.5</ele><time>2026-03-22T11:41:56.999Z</time></trkpt><trkpt lat="45.415014308610964" lon="11.86422737129545"><ele>11.0</ele><time>2026-03-22T11:41:57.999Z</time></trkpt><trkpt lat="45.414897799854565" lon="11.864245194400214"><ele>10.5</ele><time>2026-03-22T11:41:59.999Z</time></trkpt><trkpt lat="45.41483371782887" lon="11.864251485240292"><ele>10.0</ele><time>2026-03-22T11:42:00.999Z</time></trkpt><trkpt lat="45.41475977654822" lon="11.864256588756971"><ele>10.0</ele><time>2026-03-22T11:42:01.999Z</time></trkpt><trkpt lat="45.41469145123238" lon="11.864258530067085"><ele>10.0</ele><time>2026-03-22T11:42:02.999Z</time></trkpt><trkpt lat="45.41456300873308" lon="11.864251769931128"><ele>10.0</ele><time>2026-03-22T11:42:04.999Z</time></trkpt><trkpt lat="45.41448796936632" lon="11.86424030019196"><ele>10.0</ele><time>2026-03-22T11:42:05.999Z</time></trkpt><trkpt lat="45.414397100240826" lon="11.864228094102845"><ele>10.0</ele><time>2026-03-22T11:42:06.999Z</time></trkpt><trkpt lat="45.41432005424632" lon="11.864217916422051"><ele>10.0</ele><time>2026-03-22T11:42:07.999Z</time></trkpt><trkpt lat="45.41424890293582" lon="11.864208871290801"><ele>10.2</ele><time>2026-03-22T11:42:08.999Z</time></trkpt><trkpt lat="45.41415628147366" lon="11.86419914146581"><ele>10.4</ele><time>2026-03-22T11:42:09.999Z</time></trkpt><trkpt lat="45.41406315074687" lon="11.86418935814471"><ele>10.600000000000001</ele><time>2026-03-22T11:42:10.999Z</time></trkpt><trkpt lat="45.41397085693203" lon="11.864179662740955"><ele>10.8</ele><time>2026-03-22T11:42:11.999Z</time></trkpt><trkpt lat="45.413876484996024" lon="11.864169898797346"><ele>11.0</ele><time>2026-03-22T11:42:12.999Z</time></trkpt><trkpt lat="45.41378993901038" lon="11.864160829318449"><ele>11.0</ele><time>2026-03-22T11:42:13.999Z</time></trkpt><trkpt lat="45.41369980238595" lon="11.864151383563588"><ele>11.0</ele><time>2026-03-22T11:42:14.999Z</time></trkpt><trkpt lat="45.41359359490628" lon="11.864140253681677"><ele>11.0</ele><time>2026-03-22T11:42:15.999Z</time></trkpt><trkpt lat="45.413501699472036" lon="11.864131089229051"><ele>11.0</ele><time>2026-03-22T11:42:16.999Z</time></trkpt><trkpt lat="45.41342859793986" lon="11.86412542298588"><ele>11.0</ele><time>2026-03-22T11:42:17.999Z</time></trkpt><trkpt lat="45.413344536157446" lon="11.864142878073496"><ele>11.0</ele><time>2026-03-22T11:42:18.999Z</time></trkpt><trkpt lat="45.41326209460024" lon="11.86413312413395"><ele>11.0</ele><time>2026-03-22T11:42:19.999Z</time></trkpt><trkpt lat="45.413183910582525" lon="11.86411974886462"><ele>11.0</ele><time>2026-03-22T11:42:20.999Z</time></trkpt><trkpt lat="45.41310643012897" lon="11.864117916328594"><ele>11.0</ele><time>2026-03-22T11:42:21.999Z</time></trkpt><trkpt lat="45.413035226729356" lon="11.86411274249868"><ele>11.0</ele><time>2026-03-22T11:42:22.999Z</time></trkpt><trkpt lat="45.41296636316416" lon="11.86410424979593"><ele>11.0</ele><time>2026-03-22T11:42:23.999Z</time></trkpt><trkpt lat="45.41289901013388" lon="11.864092570165836"><ele>11.0</ele><time>2026-03-22T11:42:24.999Z</time></trkpt><trkpt lat="45.41278989312946" lon="11.864091418484868"><ele>11.0</ele><time>2026-03-22T11:42:26.999Z</time></trkpt><trkpt lat="45.41267910335837" lon="11.864065080632768"><ele>11.0</ele><time>2026-03-22T11:42:28.999Z</time></trkpt><trkpt lat="45.41258264297318" lon="11.864061778573491"><ele>11.0</ele><time>2026-03-22T11:42:30.999Z</time></trkpt><trkpt lat="45.41249119094525" lon="11.864060656463092"><ele>11.0</ele><time>2026-03-22T11:42:32.999Z</time></trkpt><trkpt lat="45.41241170903994" lon="11.864070623044233"><ele>11.0</ele><time>2026-03-22T11:42:41.999Z</time></trkpt><trkpt lat="45.41233470624051" lon="11.864064068987966"><ele>11.0</ele><time>2026-03-22T11:43:19.999Z</time></trkpt><trkpt lat="45.412271515971234" lon="11.86404438507315"><ele>11.0</ele><time>2026-03-22T11:43:39.999Z</time></trkpt><trkpt lat="45.41222166796701" lon="11.863986483919144"><ele>11.0</ele><time>2026-03-22T11:43:42.999Z</time></trkpt><trkpt lat="45.412153994715474" lon="11.863946890997846"><ele>11.0</ele><time>2026-03-22T11:43:45.999Z</time></trkpt><trkpt lat="45.41210150378298" lon="11.863895961274832"><ele>11.0</ele><time>2026-03-22T11:43:48.999Z</time></trkpt><trkpt lat="45.412022607237105" lon="11.863847564975265"><ele>11.0</ele><time>2026-03-22T11:43:50.999Z</time></trkpt><trkpt lat="45.41195484499349" lon="11.863818427316115"><ele>11.0</ele><time>2026-03-22T11:44:00.999Z</time></trkpt><trkpt lat="45.41189613183213" lon="11.863761268936372"><ele>11.5</ele><time>2026-03-22T11:44:02.999Z</time></trkpt><trkpt lat="45.411743894398676" lon="11.863927206022627"><ele>12.0</ele><time>2026-03-22T11:44:03.999Z</time></trkpt><trkpt lat="45.41166604169456" lon="11.863923817275104"><ele>12.5</ele><time>2026-03-22T11:44:04.999Z</time></trkpt><trkpt lat="45.41157302389855" lon="11.863920533998055"><ele>13.0</ele><time>2026-03-22T11:44:05.999Z</time></trkpt><trkpt lat="45.41146925223665" lon="11.863911546284205"><ele>13.0</ele><time>2026-03-22T11:44:06.999Z</time></trkpt><trkpt lat="45.41135619093021" lon="11.863901765429246"><ele>13.0</ele><time>2026-03-22T11:44:07.999Z</time></trkpt><trkpt lat="45.4112376436327" lon="11.863892062210413"><ele>13.0</ele><time>2026-03-22T11:44:08.999Z</time></trkpt><trkpt lat="45.411119957658286" lon="11.863876042102435"><ele>13.0</ele><time>2026-03-22T11:44:09.999Z</time></trkpt><trkpt lat="45.41098850693961" lon="11.863868528715173"><ele>13.0</ele><time>2026-03-22T11:44:10.999Z</time></trkpt><trkpt lat="45.410843681051375" lon="11.863856321585834"><ele>13.0</ele><time>2026-03-22T11:44:11.999Z</time></trkpt><trkpt lat="45.410697071364325" lon="11.863843076050399"><ele>13.0</ele><time>2026-03-22T11:44:12.999Z</time></trkpt><trkpt lat="45.41056309232493" lon="11.863828847164488"><ele>13.0</ele><time>2026-03-22T11:44:13.999Z</time></trkpt><trkpt lat="45.41044010221841" lon="11.863818752588712"><ele>13.25</ele><time>2026-03-22T11:44:14.999Z</time></trkpt><trkpt lat="45.410313600477274" lon="11.86381494817797"><ele>13.5</ele><time>2026-03-22T11:44:15.999Z</time></trkpt><trkpt lat="45.410187625240724" lon="11.863779373109093"><ele>13.75</ele><time>2026-03-22T11:44:16.999Z</time></trkpt><trkpt lat="45.4100637565693" lon="11.863765992695617"><ele>14.0</ele><time>2026-03-22T11:44:17.999Z</time></trkpt><trkpt lat="45.40994211874949" lon="11.863768065293195"><ele>14.0</ele><time>2026-03-22T11:44:18.999Z</time></trkpt><trkpt lat="45.409821569689974" lon="11.863747305980867"><ele>14.0</ele><time>2026-03-22T11:44:19.999Z</time></trkpt><trkpt lat="45.40969926994584" lon="11.86373877854207"><ele>14.0</ele><time>2026-03-22T11:44:20.999Z</time></trkpt><trkpt lat="45.40958085057477" lon="11.863721827653315"><ele>14.0</ele><time>2026-03-22T11:44:21.999Z</time></trkpt><trkpt lat="45.409471486944966" lon="11.863707964880973"><ele>13.6</ele><time>2026-03-22T11:44:22.999Z</time></trkpt><trkpt lat="45.4093663328432" lon="11.863697187385322"><ele>13.2</ele><time>2026-03-22T11:44:23.999Z</time></trkpt><trkpt lat="45.40926059980381" lon="11.863688272062317"><ele>12.799999999999999</ele><time>2026-03-22T11:44:24.999Z</time></trkpt><trkpt lat="45.409145174754386" lon="11.863674329966486"><ele>12.399999999999999</ele><time>2026-03-22T11:44:25.999Z</time></trkpt><trkpt lat="45.40903282304839" lon="11.863647384768461"><ele>12.0</ele><time>2026-03-22T11:44:26.999Z</time></trkpt><trkpt lat="45.40891902519415" lon="11.863633149290875"><ele>12.0</ele><time>2026-03-22T11:44:27.999Z</time></trkpt><trkpt lat="45.40881226748148" lon="11.863620870672882"><ele>12.0</ele><time>2026-03-22T11:44:28.999Z</time></trkpt><trkpt lat="45.408699301358475" lon="11.863592802537843"><ele>12.0</ele><time>2026-03-22T11:44:29.999Z</time></trkpt><trkpt lat="45.40858645614591" lon="11.863563220400213"><ele>12.0</ele><time>2026-03-22T11:44:30.999Z</time></trkpt><trkpt lat="45.40847333135132" lon="11.863529305142126"><ele>12.0</ele><time>2026-03-22T11:44:31.999Z</time></trkpt><trkpt lat="45.40835766013184" lon="11.86349376938312"><ele>12.0</ele><time>2026-03-22T11:44:32.999Z</time></trkpt><trkpt lat="45.40823785830801" lon="11.863457637117198"><ele>12.0</ele><time>2026-03-22T11:44:33.999Z</time></trkpt><trkpt lat="45.40811925808728" lon="11.863427433818032"><ele>12.0</ele><time>2026-03-22T11:44:34.999Z</time></trkpt><trkpt lat="45.40800472930189" lon="11.863406778848024"><ele>12.0</ele><time>2026-03-22T11:44:35.999Z</time></trkpt><trkpt lat="45.407892328573" lon="11.863401973911907"><ele>12.0</ele><time>2026-03-22T11:44:36.999Z</time></trkpt><trkpt lat="45.40777895632787" lon="11.863396932792211"><ele>12.0</ele><time>2026-03-22T11:44:37.999Z</time></trkpt><trkpt lat="45.407677269648055" lon="11.863371458973793"><ele>12.0</ele><time>2026-03-22T11:44:38.999Z</time></trkpt><trkpt lat="45.40758909014643" lon="11.863370982470201"><ele>12.0</ele><time>2026-03-22T11:44:39.999Z</time></trkpt><trkpt lat="45.407507367895555" lon="11.863374948836647"><ele>12.0</ele><time>2026-03-22T11:44:40.999Z</time></trkpt><trkpt lat="45.4074319016143" lon="11.863403323784054"><ele>12.0</ele><time>2026-03-22T11:44:41.999Z</time></trkpt><trkpt lat="45.407351646064384" lon="11.863405276671386"><ele>12.0</ele><time>2026-03-22T11:44:42.999Z</time></trkpt><trkpt lat="45.40726814469032" lon="11.86339892369678"><ele>12.0</ele><time>2026-03-22T11:44:43.999Z</time></trkpt><trkpt lat="45.40718145439504" lon="11.863380538301932"><ele>12.0</ele><time>2026-03-22T11:44:44.999Z</time></trkpt><trkpt lat="45.40710599302357" lon="11.863360612277889"><ele>12.0</ele><time>2026-03-22T11:44:45.999Z</time></trkpt><trkpt lat="45.40703691300242" lon="11.8633684374677"><ele>12.0</ele><time>2026-03-22T11:44:46.999Z</time></trkpt><trkpt lat="45.40689628623117" lon="11.863412571557555"><ele>12.0</ele><time>2026-03-22T11:44:48.999Z</time></trkpt><trkpt lat="45.40680556552423" lon="11.863449476102124"><ele>12.0</ele><time>2026-03-22T11:44:49.999Z</time></trkpt><trkpt lat="45.4066922098356" lon="11.863465998442742"><ele>12.0</ele><time>2026-03-22T11:44:50.999Z</time></trkpt><trkpt lat="45.4065675793946" lon="11.863475364705787"><ele>12.2</ele><time>2026-03-22T11:44:51.999Z</time></trkpt><trkpt lat="45.40646187912541" lon="11.86348336536662"><ele>12.399999999999999</ele><time>2026-03-22T11:44:52.999Z</time></trkpt><trkpt lat="45.406362021120316" lon="11.863490923814826"><ele>12.600000000000001</ele><time>2026-03-22T11:44:53.999Z</time></trkpt><trkpt lat="45.40626993695791" lon="11.863497893845858"><ele>12.8</ele><time>2026-03-22T11:44:54.999Z</time></trkpt><trkpt lat="45.406183902200695" lon="11.863504405984695"><ele>13.0</ele><time>2026-03-22T11:44:55.999Z</time></trkpt><trkpt lat="45.406102380257984" lon="11.863510473196381"><ele>13.166666666666666</ele><time>2026-03-22T11:44:56.999Z</time></trkpt><trkpt lat="45.40603314788412" lon="11.863515430695369"><ele>13.333333333333332</ele><time>2026-03-22T11:44:57.999Z</time></trkpt><trkpt lat="45.40596687923057" lon="11.863520175975143"><ele>13.5</ele><time>2026-03-22T11:44:58.999Z</time></trkpt><trkpt lat="45.40589864376817" lon="11.863525062095688"><ele>13.666666666666668</ele><time>2026-03-22T11:44:59.999Z</time></trkpt><trkpt lat="45.40577504403648" lon="11.863533068267463"><ele>13.833333333333334</ele><time>2026-03-22T11:45:01.999Z</time></trkpt><trkpt lat="45.40571005527087" lon="11.863536954254172"><ele>14.0</ele><time>2026-03-22T11:45:02.999Z</time></trkpt><trkpt lat="45.405647067215064" lon="11.863540720611022"><ele>14.000000000000002</ele><time>2026-03-22T11:45:03.999Z</time></trkpt><trkpt lat="45.405570610687384" lon="11.86354583711076"><ele>14.0</ele><time>2026-03-22T11:45:04.999Z</time></trkpt><trkpt lat="45.40549524291111" lon="11.863551135968526"><ele>14.0</ele><time>2026-03-22T11:45:05.999Z</time></trkpt><trkpt lat="45.405415417639205" lon="11.863556748213433"><ele>14.0</ele><time>2026-03-22T11:45:06.999Z</time></trkpt><trkpt lat="45.40533961553042" lon="11.863561525016902"><ele>14.000000000000002</ele><time>2026-03-22T11:45:07.999Z</time></trkpt><trkpt lat="45.405264351155665" lon="11.863564145186924"><ele>14.0</ele><time>2026-03-22T11:45:08.999Z</time></trkpt><trkpt lat="45.405187067262425" lon="11.86356350794968"><ele>13.6</ele><time>2026-03-22T11:45:09.999Z</time></trkpt><trkpt lat="45.40509881376663" lon="11.863558552538946"><ele>13.2</ele><time>2026-03-22T11:45:10.999Z</time></trkpt><trkpt lat="45.40500437819777" lon="11.863550796879945"><ele>12.799999999999999</ele><time>2026-03-22T11:45:11.999Z</time></trkpt><trkpt lat="45.404919779769706" lon="11.863528401987917"><ele>12.399999999999999</ele><time>2026-03-22T11:45:12.999Z</time></trkpt><trkpt lat="45.404833794967494" lon="11.86349825403155"><ele>12.0</ele><time>2026-03-22T11:45:13.999Z</time></trkpt><trkpt lat="45.40474097332883" lon="11.863460642205196"><ele>12.2</ele><time>2026-03-22T11:45:14.999Z</time></trkpt><trkpt lat="45.40465413071219" lon="11.86342295777456"><ele>12.399999999999999</ele><time>2026-03-22T11:45:15.999Z</time></trkpt><trkpt lat="45.404550345772854" lon="11.863406965327364"><ele>12.600000000000001</ele><time>2026-03-22T11:45:16.999Z</time></trkpt><trkpt lat="45.40444519156406" lon="11.863355620095666"><ele>12.8</ele><time>2026-03-22T11:45:17.999Z</time></trkpt><trkpt lat="45.40435365810515" lon="11.863299251658379"><ele>13.0</ele><time>2026-03-22T11:45:18.999Z</time></trkpt><trkpt lat="45.40427765811273" lon="11.863258501256443"><ele>13.0</ele><time>2026-03-22T11:45:19.999Z</time></trkpt><trkpt lat="45.40421425084506" lon="11.86322361871476"><ele>13.0</ele><time>2026-03-22T11:45:20.999Z</time></trkpt><trkpt lat="45.40414322353313" lon="11.863174542645613"><ele>13.0</ele><time>2026-03-22T11:45:22.999Z</time></trkpt><trkpt lat="45.40408363268945" lon="11.863120869214454"><ele>13.0</ele><time>2026-03-22T11:45:27.999Z</time></trkpt><trkpt lat="45.40398787933236" lon="11.863051387158787"><ele>13.0</ele><time>2026-03-22T11:45:31.999Z</time></trkpt><trkpt lat="45.4038532011164" lon="11.86302772158632"><ele>13.4</ele><time>2026-03-22T11:45:33.999Z</time></trkpt><trkpt lat="45.4037735060329" lon="11.863084552039602"><ele>13.8</ele><time>2026-03-22T11:45:34.999Z</time></trkpt><trkpt lat="45.40369193735229" lon="11.86313086711328"><ele>14.2</ele><time>2026-03-22T11:45:35.999Z</time></trkpt><trkpt lat="45.40358882005168" lon="11.863202112535491"><ele>14.6</ele><time>2026-03-22T11:45:36.999Z</time></trkpt><trkpt lat="45.403465441177275" lon="11.86318140442055"><ele>15.0</ele><time>2026-03-22T11:45:37.999Z</time></trkpt><trkpt lat="45.40331790132142" lon="11.863238351460398"><ele>15.0</ele><time>2026-03-22T11:45:38.999Z</time></trkpt><trkpt lat="45.40317131936794" lon="11.863304659594782"><ele>15.0</ele><time>2026-03-22T11:45:39.999Z</time></trkpt><trkpt lat="45.40301260168324" lon="11.863383574691008"><ele>15.0</ele><time>2026-03-22T11:45:40.999Z</time></trkpt><trkpt lat="45.402863647838906" lon="11.86346407471201"><ele>14.75</ele><time>2026-03-22T11:45:41.999Z</time></trkpt><trkpt lat="45.40272443057943" lon="11.863542615110365"><ele>14.5</ele><time>2026-03-22T11:45:42.999Z</time></trkpt><trkpt lat="45.40259423765615" lon="11.863616198426088"><ele>14.25</ele><time>2026-03-22T11:45:43.999Z</time></trkpt><trkpt lat="45.402476286911906" lon="11.863642802932867"><ele>14.0</ele><time>2026-03-22T11:45:44.999Z</time></trkpt><trkpt lat="45.40234505714332" lon="11.86365647705465"><ele>14.0</ele><time>2026-03-22T11:45:45.999Z</time></trkpt><trkpt lat="45.402223554325715" lon="11.863658457433834"><ele>14.0</ele><time>2026-03-22T11:45:46.999Z</time></trkpt><trkpt lat="45.40209867260862" lon="11.86367462213214"><ele>14.0</ele><time>2026-03-22T11:45:47.999Z</time></trkpt><trkpt lat="45.40198127175411" lon="11.863669897696026"><ele>14.0</ele><time>2026-03-22T11:45:48.999Z</time></trkpt><trkpt lat="45.40186670816974" lon="11.8636679124844"><ele>13.75</ele><time>2026-03-22T11:45:49.999Z</time></trkpt><trkpt lat="45.401758761640956" lon="11.863682303886767"><ele>13.5</ele><time>2026-03-22T11:45:50.999Z</time></trkpt><trkpt lat="45.401644628777674" lon="11.863660290385754"><ele>13.25</ele><time>2026-03-22T11:45:51.999Z</time></trkpt><trkpt lat="45.401529359077536" lon="11.863684574775855"><ele>13.0</ele><time>2026-03-22T11:45:52.999Z</time></trkpt><trkpt lat="45.40141172885624" lon="11.863682547263332"><ele>13.0</ele><time>2026-03-22T11:45:53.999Z</time></trkpt><trkpt lat="45.40130202472955" lon="11.863678874389546"><ele>13.0</ele><time>2026-03-22T11:45:54.999Z</time></trkpt><trkpt lat="45.401193779317076" lon="11.86366886169579"><ele>13.0</ele><time>2026-03-22T11:45:55.999Z</time></trkpt><trkpt lat="45.401086982270286" lon="11.863670571899979"><ele>13.0</ele><time>2026-03-22T11:45:56.999Z</time></trkpt><trkpt lat="45.40097919292338" lon="11.86366756161561"><ele>13.0</ele><time>2026-03-22T11:45:57.999Z</time></trkpt><trkpt lat="45.400881721380024" lon="11.863667578254963"><ele>12.999999999999998</ele><time>2026-03-22T11:45:58.999Z</time></trkpt><trkpt lat="45.400786757612735" lon="11.863670409360765"><ele>13.0</ele><time>2026-03-22T11:45:59.999Z</time></trkpt><trkpt lat="45.40069223978783" lon="11.8636632754016"><ele>13.0</ele><time>2026-03-22T11:46:00.999Z</time></trkpt><trkpt lat="45.400609682930295" lon="11.863653192997544"><ele>13.0</ele><time>2026-03-22T11:46:01.999Z</time></trkpt><trkpt lat="45.400530251329954" lon="11.863649319926646"><ele>12.999999999999998</ele><time>2026-03-22T11:46:02.999Z</time></trkpt><trkpt lat="45.400443488327674" lon="11.863651036887763"><ele>13.0</ele><time>2026-03-22T11:46:03.999Z</time></trkpt><trkpt lat="45.40035451775666" lon="11.863654762387839"><ele>12.999999999999998</ele><time>2026-03-22T11:46:04.999Z</time></trkpt><trkpt lat="45.40026887525099" lon="11.863657920005453"><ele>13.0</ele><time>2026-03-22T11:46:05.999Z</time></trkpt><trkpt lat="45.40018436201561" lon="11.863661094298932"><ele>13.0</ele><time>2026-03-22T11:46:06.999Z</time></trkpt><trkpt lat="45.400094760141585" lon="11.863662177797663"><ele>13.0</ele><time>2026-03-22T11:46:07.999Z</time></trkpt><trkpt lat="45.40000985251318" lon="11.86366173142675"><ele>12.999999999999998</ele><time>2026-03-22T11:46:08.999Z</time></trkpt><trkpt lat="45.39992772012163" lon="11.86366016596364"><ele>13.0</ele><time>2026-03-22T11:46:09.999Z</time></trkpt><trkpt lat="45.39984666112001" lon="11.86366156216903"><ele>13.0</ele><time>2026-03-22T11:46:10.999Z</time></trkpt><trkpt lat="45.399769365815935" lon="11.863666143902176"><ele>13.0</ele><time>2026-03-22T11:46:11.999Z</time></trkpt><trkpt lat="45.39965329462991" lon="11.86365023806366"><ele>13.0</ele><time>2026-03-22T11:46:13.999Z</time></trkpt><trkpt lat="45.39955312278887" lon="11.863658897278636"><ele>13.0</ele><time>2026-03-22T11:46:15.999Z</time></trkpt><trkpt lat="45.39947532944543" lon="11.863669723808155"><ele>13.0</ele><time>2026-03-22T11:46:23.999Z</time></trkpt><trkpt lat="45.39938154006933" lon="11.863717813435395"><ele>13.2</ele><time>2026-03-22T11:46:25.999Z</time></trkpt><trkpt lat="45.39930867257984" lon="11.863750842092324"><ele>13.4</ele><time>2026-03-22T11:46:27.999Z</time></trkpt><trkpt lat="45.399220467483275" lon="11.863761395182658"><ele>13.599999999999998</ele><time>2026-03-22T11:46:29.999Z</time></trkpt><trkpt lat="45.399101000091974" lon="11.863831762380027"><ele>13.799999999999999</ele><time>2026-03-22T11:46:31.999Z</time></trkpt><trkpt lat="45.39917794253196" lon="11.863946377504003"><ele>14.0</ele><time>2026-03-22T11:46:32.999Z</time></trkpt><trkpt lat="45.39920222734145" lon="11.864232816528698"><ele>14.000000000000002</ele><time>2026-03-22T11:46:35.999Z</time></trkpt><trkpt lat="45.39911304049541" lon="11.86429762618754"><ele>14.0</ele><time>2026-03-22T11:46:36.999Z</time></trkpt><trkpt lat="45.399169267577655" lon="11.864359856472595"><ele>14.0</ele><time>2026-03-22T11:46:37.999Z</time></trkpt><trkpt lat="45.39914024794825" lon="11.864476138542965"><ele>14.0</ele><time>2026-03-22T11:46:44.999Z</time></trkpt><trkpt lat="45.399107101304914" lon="11.864563080163139"><ele>14.000000000000002</ele><time>2026-03-22T11:46:45.999Z</time></trkpt><trkpt lat="45.399013593896875" lon="11.864530202379635"><ele>14.0</ele><time>2026-03-22T11:46:46.999Z</time></trkpt><trkpt lat="45.39906715923281" lon="11.864702729508357"><ele>14.0</ele><time>2026-03-22T11:46:47.999Z</time></trkpt><trkpt lat="45.39914534646025" lon="11.864713584520919"><ele>13.999999999999998</ele><time>2026-03-22T11:46:48.999Z</time></trkpt><trkpt lat="45.39919511893618" lon="11.864772332048316"><ele>13.999999999999998</ele><time>2026-03-22T11:46:51.999Z</time></trkpt><trkpt lat="45.39918285496334" lon="11.864911364716304"><ele>14.0</ele><time>2026-03-22T11:46:54.999Z</time></trkpt><trkpt lat="45.39919442295847" lon="11.865075405585287"><ele>14.0</ele><time>2026-03-22T11:46:56.999Z</time></trkpt><trkpt lat="45.3992069442609" lon="11.865229987121111"><ele>14.399999999999999</ele><time>2026-03-22T11:46:58.999Z</time></trkpt><trkpt lat="45.39921620765345" lon="11.86533833934544"><ele>14.799999999999999</ele><time>2026-03-22T11:46:59.999Z</time></trkpt><trkpt lat="45.39922529681055" lon="11.865443405566817"><ele>15.200000000000001</ele><time>2026-03-22T11:47:00.999Z</time></trkpt><trkpt lat="45.3992363370149" lon="11.865568371867266"><ele>15.600000000000001</ele><time>2026-03-22T11:47:02.999Z</time></trkpt><trkpt lat="45.39924734612888" lon="11.865741576570391"><ele>16.0</ele><time>2026-03-22T11:47:04.999Z</time></trkpt><trkpt lat="45.3992568946378" lon="11.865927244761034"><ele>15.5</ele><time>2026-03-22T11:47:05.999Z</time></trkpt><trkpt lat="45.39926395489718" lon="11.866096223069666"><ele>15.0</ele><time>2026-03-22T11:47:06.999Z</time></trkpt><trkpt lat="45.399272089633875" lon="11.866298917623437"><ele>14.5</ele><time>2026-03-22T11:47:07.999Z</time></trkpt><trkpt lat="45.39928066283223" lon="11.866479462112274"><ele>14.0</ele><time>2026-03-22T11:47:08.999Z</time></trkpt><trkpt lat="45.399290080724754" lon="11.866656154700316"><ele>14.0</ele><time>2026-03-22T11:47:09.999Z</time></trkpt><trkpt lat="45.39929908463738" lon="11.866858155745465"><ele>14.0</ele><time>2026-03-22T11:47:10.999Z</time></trkpt><trkpt lat="45.39930611280376" lon="11.867027141798756"><ele>14.0</ele><time>2026-03-22T11:47:11.999Z</time></trkpt><trkpt lat="45.399308922810896" lon="11.867172268518202"><ele>14.0</ele><time>2026-03-22T11:47:12.999Z</time></trkpt><trkpt lat="45.399305990610515" lon="11.867304864397305"><ele>14.000000000000002</ele><time>2026-03-22T11:47:13.999Z</time></trkpt><trkpt lat="45.399300110363015" lon="11.867431949921773"><ele>14.0</ele><time>2026-03-22T11:47:14.999Z</time></trkpt><trkpt lat="45.39929473029916" lon="11.867552299589162"><ele>14.0</ele><time>2026-03-22T11:47:15.999Z</time></trkpt><trkpt lat="45.399289159329726" lon="11.867663066152499"><ele>14.0</ele><time>2026-03-22T11:47:16.999Z</time></trkpt><trkpt lat="45.39928405805297" lon="11.867764493419218"><ele>14.000000000000002</ele><time>2026-03-22T11:47:17.999Z</time></trkpt><trkpt lat="45.39927940836901" lon="11.867856941853708"><ele>14.0</ele><time>2026-03-22T11:47:18.999Z</time></trkpt><trkpt lat="45.39927103698264" lon="11.868023388026822"><ele>13.833333333333334</ele><time>2026-03-22T11:47:20.999Z</time></trkpt><trkpt lat="45.39926469763761" lon="11.868149431458438"><ele>13.666666666666668</ele><time>2026-03-22T11:47:22.999Z</time></trkpt><trkpt lat="45.39925996845144" lon="11.868243460776247"><ele>13.5</ele><time>2026-03-22T11:47:25.999Z</time></trkpt><trkpt lat="45.39925452950652" lon="11.868351601970563"><ele>13.333333333333332</ele><time>2026-03-22T11:47:27.999Z</time></trkpt><trkpt lat="45.399249659155295" lon="11.868448794503418"><ele>13.166666666666666</ele><time>2026-03-22T11:47:28.999Z</time></trkpt><trkpt lat="45.39924376647239" lon="11.868574922892671"><ele>13.0</ele><time>2026-03-22T11:47:31Z</time></trkpt><trkpt lat="45.399235910316406" lon="11.868712122454635"><ele>13.0</ele><time>2026-03-22T11:47:36Z</time></trkpt><trkpt lat="45.39922439100958" lon="11.868837366886083"><ele>13.0</ele><time>2026-03-22T11:47:38Z</time></trkpt><trkpt lat="45.39919319122888" lon="11.869019063099877"><ele>13.0</ele><time>2026-03-22T11:47:40Z</time></trkpt><trkpt lat="45.39916805723508" lon="11.869127464330543"><ele>13.0</ele><time>2026-03-22T11:47:41Z</time></trkpt><trkpt lat="45.399137057461296" lon="11.869224744213302"><ele>13.0</ele><time>2026-03-22T11:47:42Z</time></trkpt><trkpt lat="45.3991900152257" lon="11.869411726519207"><ele>12.8</ele><time>2026-03-22T11:47:43Z</time></trkpt><trkpt lat="45.39915232682141" lon="11.869537856473922"><ele>12.600000000000001</ele><time>2026-03-22T11:47:44Z</time></trkpt><trkpt lat="45.399113420453325" lon="11.869664452493875"><ele>12.399999999999999</ele><time>2026-03-22T11:47:45Z</time></trkpt><trkpt lat="45.3990711915628" lon="11.869805149883353"><ele>12.2</ele><time>2026-03-22T11:47:46Z</time></trkpt><trkpt lat="45.39902736144836" lon="11.86995142672585"><ele>12.0</ele><time>2026-03-22T11:47:47Z</time></trkpt><trkpt lat="45.39898232196425" lon="11.870097015750568"><ele>12.5</ele><time>2026-03-22T11:47:48Z</time></trkpt><trkpt lat="45.39893355394369" lon="11.870249845964562"><ele>13.0</ele><time>2026-03-22T11:47:49Z</time></trkpt><trkpt lat="45.39888857160434" lon="11.870398668927487"><ele>13.5</ele><time>2026-03-22T11:47:50Z</time></trkpt><trkpt lat="45.39883737072999" lon="11.870547109533826"><ele>14.0</ele><time>2026-03-22T11:47:51Z</time></trkpt><trkpt lat="45.39871613524788" lon="11.870638193891041"><ele>14.0</ele><time>2026-03-22T11:47:52Z</time></trkpt><trkpt lat="45.39867263906192" lon="11.870785962107135"><ele>13.999999999999998</ele><time>2026-03-22T11:47:53Z</time></trkpt><trkpt lat="45.3986302402216" lon="11.870930002276358"><ele>13.999999999999998</ele><time>2026-03-22T11:47:54Z</time></trkpt><trkpt lat="45.3985897297875" lon="11.871067627040258"><ele>14.0</ele><time>2026-03-22T11:47:55Z</time></trkpt><trkpt lat="45.398549508811726" lon="11.871199151366836"><ele>14.0</ele><time>2026-03-22T11:47:56Z</time></trkpt><trkpt lat="45.39850718284215" lon="11.871328774682372"><ele>14.2</ele><time>2026-03-22T11:47:57Z</time></trkpt><trkpt lat="45.3984633979685" lon="11.871460452218972"><ele>14.399999999999999</ele><time>2026-03-22T11:47:58Z</time></trkpt><trkpt lat="45.39841699609795" lon="11.871602124501464"><ele>14.6</ele><time>2026-03-22T11:47:59Z</time></trkpt><trkpt lat="45.39837719665873" lon="11.871739178525912"><ele>14.8</ele><time>2026-03-22T11:48:00Z</time></trkpt><trkpt lat="45.39833502536534" lon="11.87188439962436"><ele>15.0</ele><time>2026-03-22T11:48:01Z</time></trkpt><trkpt lat="45.39829287260225" lon="11.872029557140458"><ele>15.2</ele><time>2026-03-22T11:48:02Z</time></trkpt><trkpt lat="45.39825255945525" lon="11.872168379689539"><ele>15.4</ele><time>2026-03-22T11:48:03Z</time></trkpt><trkpt lat="45.39821129527314" lon="11.872310698950722"><ele>15.600000000000001</ele><time>2026-03-22T11:48:04Z</time></trkpt><trkpt lat="45.398168603692824" lon="11.872459683120864"><ele>15.8</ele><time>2026-03-22T11:48:05Z</time></trkpt><trkpt lat="45.39812872246618" lon="11.872598859985596"><ele>16.0</ele><time>2026-03-22T11:48:06Z</time></trkpt><trkpt lat="45.39809103101554" lon="11.872730394715513"><ele>16.0</ele><time>2026-03-22T11:48:07Z</time></trkpt><trkpt lat="45.39805331600013" lon="11.872876081788467"><ele>16.0</ele><time>2026-03-22T11:48:08Z</time></trkpt><trkpt lat="45.39802390419187" lon="11.87302754110716"><ele>16.0</ele><time>2026-03-22T11:48:09Z</time></trkpt><trkpt lat="45.398004821365284" lon="11.873184148178085"><ele>16.0</ele><time>2026-03-22T11:48:10Z</time></trkpt><trkpt lat="45.397989906280145" lon="11.873336999065534"><ele>16.0</ele><time>2026-03-22T11:48:11Z</time></trkpt><trkpt lat="45.397976133228646" lon="11.873488754852573"><ele>15.999999999999998</ele><time>2026-03-22T11:48:11.999Z</time></trkpt><trkpt lat="45.39796451495847" lon="11.873629789593927"><ele>16.0</ele><time>2026-03-22T11:48:12.999Z</time></trkpt><trkpt lat="45.397951899580775" lon="11.873768379557605"><ele>16.0</ele><time>2026-03-22T11:48:13.999Z</time></trkpt><trkpt lat="45.39794068401" lon="11.87389159158018"><ele>16.0</ele><time>2026-03-22T11:48:14.999Z</time></trkpt><trkpt lat="45.3979308594615" lon="11.87399695735838"><ele>15.999999999999998</ele><time>2026-03-22T11:48:15.999Z</time></trkpt><trkpt lat="45.39792248086673" lon="11.874086032760557"><ele>16.0</ele><time>2026-03-22T11:48:16.999Z</time></trkpt><trkpt lat="45.39790857248183" lon="11.874214271838259"><ele>15.600000000000001</ele><time>2026-03-22T11:48:18.999Z</time></trkpt><trkpt lat="45.39789521884397" lon="11.874312090452118"><ele>15.200000000000001</ele><time>2026-03-22T11:48:21.999Z</time></trkpt><trkpt lat="45.39788447423422" lon="11.874443364152196"><ele>14.799999999999999</ele><time>2026-03-22T11:48:58.999Z</time></trkpt><trkpt lat="45.39783986495489" lon="11.874572632479625"><ele>14.399999999999999</ele><time>2026-03-22T11:49:00Z</time></trkpt><trkpt lat="45.3977788508598" lon="11.874723916367294"><ele>14.0</ele><time>2026-03-22T11:49:01Z</time></trkpt><trkpt lat="45.39772393209857" lon="11.874885137672004"><ele>14.0</ele><time>2026-03-22T11:49:02Z</time></trkpt><trkpt lat="45.39766435648346" lon="11.875061682634719"><ele>14.0</ele><time>2026-03-22T11:49:03Z</time></trkpt><trkpt lat="45.397610107667106" lon="11.875226074012023"><ele>14.0</ele><time>2026-03-22T11:49:04Z</time></trkpt><trkpt lat="45.3975548165142" lon="11.875408455849168"><ele>14.0</ele><time>2026-03-22T11:49:05Z</time></trkpt><trkpt lat="45.39749127299784" lon="11.875621533074868"><ele>12.333333333333334</ele><time>2026-03-22T11:49:06Z</time></trkpt><trkpt lat="45.39741724757313" lon="11.875858819476342"><ele>10.666666666666668</ele><time>2026-03-22T11:49:07Z</time></trkpt><trkpt lat="45.39733960099218" lon="11.876092141725325"><ele>9.0</ele><time>2026-03-22T11:49:08Z</time></trkpt><trkpt lat="45.397270210801445" lon="11.876329965714975"><ele>8.666666666666666</ele><time>2026-03-22T11:49:09Z</time></trkpt><trkpt lat="45.397205243560066" lon="11.876556952776099"><ele>8.333333333333332</ele><time>2026-03-22T11:49:10Z</time></trkpt><trkpt lat="45.3971468403534" lon="11.876789264955862"><ele>8.0</ele><time>2026-03-22T11:49:11Z</time></trkpt><trkpt lat="45.397096874979475" lon="11.876980832460836"><ele>8.8</ele><time>2026-03-22T11:49:12Z</time></trkpt><trkpt lat="45.397045698226485" lon="11.877151993176108"><ele>9.600000000000001</ele><time>2026-03-22T11:49:13Z</time></trkpt><trkpt lat="45.397004732928586" lon="11.877308747894704"><ele>10.399999999999999</ele><time>2026-03-22T11:49:14Z</time></trkpt><trkpt lat="45.39696993442542" lon="11.877438084662138"><ele>11.2</ele><time>2026-03-22T11:49:15Z</time></trkpt><trkpt lat="45.396956044415916" lon="11.87755401891317"><ele>12.0</ele><time>2026-03-22T11:49:16Z</time></trkpt><trkpt lat="45.396822420767876" lon="11.877653022624719"><ele>12.0</ele><time>2026-03-22T11:49:18Z</time></trkpt><trkpt lat="45.39675706665718" lon="11.877635905804294"><ele>12.0</ele><time>2026-03-22T11:49:19Z</time></trkpt><trkpt lat="45.396677357792775" lon="11.877623779571309"><ele>12.0</ele><time>2026-03-22T11:49:20Z</time></trkpt><trkpt lat="45.39659955493067" lon="11.877567231015222"><ele>12.0</ele><time>2026-03-22T11:49:21Z</time></trkpt><trkpt lat="45.396515152035896" lon="11.877478631046447"><ele>12.0</ele><time>2026-03-22T11:49:22Z</time></trkpt><trkpt lat="45.39641889475623" lon="11.877401320827705"><ele>12.0</ele><time>2026-03-22T11:49:23Z</time></trkpt><trkpt lat="45.39631604522298" lon="11.877321394424394"><ele>12.399999999999999</ele><time>2026-03-22T11:49:24Z</time></trkpt><trkpt lat="45.39622519216946" lon="11.877246586056089"><ele>12.799999999999999</ele><time>2026-03-22T11:49:25Z</time></trkpt><trkpt lat="45.39614283139024" lon="11.87718751256888"><ele>13.2</ele><time>2026-03-22T11:49:26Z</time></trkpt><trkpt lat="45.396064946356155" lon="11.877141927028502"><ele>13.6</ele><time>2026-03-22T11:49:27Z</time></trkpt><trkpt lat="45.39597724864824" lon="11.877080361459928"><ele>14.0</ele><time>2026-03-22T11:49:28Z</time></trkpt><trkpt lat="45.39586080525708" lon="11.877053559460338"><ele>14.0</ele><time>2026-03-22T11:49:29Z</time></trkpt><trkpt lat="45.39573687126186" lon="11.876979747142995"><ele>14.0</ele><time>2026-03-22T11:49:30Z</time></trkpt><trkpt lat="45.39560941970905" lon="11.876934924222757"><ele>14.0</ele><time>2026-03-22T11:49:31Z</time></trkpt><trkpt lat="45.3955034078802" lon="11.876878425477237"><ele>14.0</ele><time>2026-03-22T11:49:32Z</time></trkpt><trkpt lat="45.39540974388753" lon="11.876838315981992"><ele>14.000000000000002</ele><time>2026-03-22T11:49:33Z</time></trkpt><trkpt lat="45.395318569079286" lon="11.87679265815172"><ele>14.0</ele><time>2026-03-22T11:49:34Z</time></trkpt><trkpt lat="45.395224192267904" lon="11.876747737425292"><ele>14.0</ele><time>2026-03-22T11:49:35Z</time></trkpt><trkpt lat="45.39512799535758" lon="11.876713361820462"><ele>14.0</ele><time>2026-03-22T11:49:36Z</time></trkpt><trkpt lat="45.39504729142174" lon="11.876675307465256"><ele>14.000000000000002</ele><time>2026-03-22T11:49:37Z</time></trkpt><trkpt lat="45.39499001341401" lon="11.876636777558641"><ele>14.0</ele><time>2026-03-22T11:49:38Z</time></trkpt><trkpt lat="45.395007056268916" lon="11.876496605694525"><ele>13.799999999999999</ele><time>2026-03-22T11:49:41Z</time></trkpt><trkpt lat="45.39488857104561" lon="11.876606419508757"><ele>13.599999999999998</ele><time>2026-03-22T11:54:56.001Z</time></trkpt><trkpt lat="45.39480487059519" lon="11.87657072488775"><ele>13.4</ele><time>2026-03-22T11:54:57.001Z</time></trkpt><trkpt lat="45.394719092631355" lon="11.87652261005347"><ele>13.2</ele><time>2026-03-22T11:54:58.001Z</time></trkpt><trkpt lat="45.3946134196822" lon="11.876475611559686"><ele>13.0</ele><time>2026-03-22T11:54:59.001Z</time></trkpt><trkpt lat="45.39450364766968" lon="11.876431629237857"><ele>13.0</ele><time>2026-03-22T11:55:00.001Z</time></trkpt><trkpt lat="45.39439600692938" lon="11.876379699486558"><ele>13.0</ele><time>2026-03-22T11:55:01.001Z</time></trkpt><trkpt lat="45.39427641521088" lon="11.876346104892885"><ele>13.0</ele><time>2026-03-22T11:55:02.001Z</time></trkpt><trkpt lat="45.3941624616133" lon="11.876266944091665"><ele>13.0</ele><time>2026-03-22T11:55:03.001Z</time></trkpt><trkpt lat="45.394047126046594" lon="11.876220587576167"><ele>13.0</ele><time>2026-03-22T11:55:04.001Z</time></trkpt><trkpt lat="45.393932513412" lon="11.876166902590406"><ele>13.0</ele><time>2026-03-22T11:55:05.001Z</time></trkpt><trkpt lat="45.393835652355335" lon="11.876120767260698"><ele>13.0</ele><time>2026-03-22T11:55:06.001Z</time></trkpt><trkpt lat="45.3937452809834" lon="11.876080825893462"><ele>13.0</ele><time>2026-03-22T11:55:07.001Z</time></trkpt><trkpt lat="45.39366795447911" lon="11.876058221950448"><ele>13.0</ele><time>2026-03-22T11:55:08.001Z</time></trkpt><trkpt lat="45.39359829136753" lon="11.876067521056736"><ele>13.2</ele><time>2026-03-22T11:55:09.001Z</time></trkpt><trkpt lat="45.393542215777636" lon="11.876109150992528"><ele>13.4</ele><time>2026-03-22T11:55:10Z</time></trkpt><trkpt lat="45.39345676204692" lon="11.87616621053381"><ele>13.599999999999998</ele><time>2026-03-22T11:55:12Z</time></trkpt><trkpt lat="45.393488719145225" lon="11.876332900950404"><ele>13.799999999999999</ele><time>2026-03-22T11:55:13Z</time></trkpt><trkpt lat="45.39352433502498" lon="11.876454704675021"><ele>14.0</ele><time>2026-03-22T11:55:14Z</time></trkpt><trkpt lat="45.39356536268374" lon="11.876595016539596"><ele>14.0</ele><time>2026-03-22T11:55:15Z</time></trkpt><trkpt lat="45.393621788913734" lon="11.876744752622352"><ele>14.0</ele><time>2026-03-22T11:55:16Z</time></trkpt><trkpt lat="45.39366497730413" lon="11.87690945338401"><ele>14.0</ele><time>2026-03-22T11:55:17Z</time></trkpt><trkpt lat="45.39370753547294" lon="11.877061409977118"><ele>14.0</ele><time>2026-03-22T11:55:18Z</time></trkpt><trkpt lat="45.3937506587303" lon="11.877194744340596"><ele>14.000000000000002</ele><time>2026-03-22T11:55:19Z</time></trkpt><trkpt lat="45.393790225268376" lon="11.877316368934231"><ele>14.0</ele><time>2026-03-22T11:55:20Z</time></trkpt><trkpt lat="45.39381714707458" lon="11.877432992568142"><ele>14.0</ele><time>2026-03-22T11:55:21Z</time></trkpt><trkpt lat="45.393845034536376" lon="11.877549032915118"><ele>14.0</ele><time>2026-03-22T11:55:22Z</time></trkpt><trkpt lat="45.393855906712254" lon="11.877649527794064"><ele>14.000000000000002</ele><time>2026-03-22T11:55:23Z</time></trkpt><trkpt lat="45.39384388809033" lon="11.877748781029885"><ele>14.0</ele><time>2026-03-22T11:55:24Z</time></trkpt><trkpt lat="45.39372515780612" lon="11.877869645249213"><ele>13.500000000000002</ele><time>2026-03-22T11:55:26Z</time></trkpt><trkpt lat="45.39365639422275" lon="11.877932907338376"><ele>13.0</ele><time>2026-03-22T11:55:27Z</time></trkpt><trkpt lat="45.39358007788966" lon="11.877990901490833"><ele>12.5</ele><time>2026-03-22T11:55:28Z</time></trkpt><trkpt lat="45.39350394354473" lon="11.878046527299182"><ele>12.0</ele><time>2026-03-22T11:55:29Z</time></trkpt><trkpt lat="45.39343480826258" lon="11.878098316408632"><ele>11.5</ele><time>2026-03-22T11:55:30Z</time></trkpt><trkpt lat="45.39337466388824" lon="11.878141878892592"><ele>11.0</ele><time>2026-03-22T11:55:31Z</time></trkpt><trkpt lat="45.39328843530898" lon="11.878198237338225"><ele>11.0</ele><time>2026-03-22T11:55:33Z</time></trkpt><trkpt lat="45.39322881872636" lon="11.878242427170818"><ele>11.0</ele><time>2026-03-22T11:55:36Z</time></trkpt><trkpt lat="45.39316935326738" lon="11.878272900378507"><ele>11.0</ele><time>2026-03-22T11:55:42Z</time></trkpt><trkpt lat="45.393077820806795" lon="11.878217336466653"><ele>11.0</ele><time>2026-03-22T11:55:45Z</time></trkpt><trkpt lat="45.39298625162512" lon="11.878193231053944"><ele>11.0</ele><time>2026-03-22T11:55:47Z</time></trkpt><trkpt lat="45.39290238124994" lon="11.878280298371351"><ele>11.0</ele><time>2026-03-22T11:55:49Z</time></trkpt><trkpt lat="45.39285234648814" lon="11.878351127600881"><ele>11.0</ele><time>2026-03-22T11:55:50Z</time></trkpt><trkpt lat="45.39279187347861" lon="11.878421169910023"><ele>11.0</ele><time>2026-03-22T11:55:51Z</time></trkpt><trkpt lat="45.39263767253678" lon="11.878534918903004"><ele>11.0</ele><time>2026-03-22T11:55:53Z</time></trkpt><trkpt lat="45.39255006080616" lon="11.87858934852941"><ele>11.0</ele><time>2026-03-22T11:55:54Z</time></trkpt><trkpt lat="45.39245550032214" lon="11.8786414210377"><ele>11.0</ele><time>2026-03-22T11:55:55Z</time></trkpt><trkpt lat="45.3923712732619" lon="11.878705875168189"><ele>11.0</ele><time>2026-03-22T11:55:56Z</time></trkpt><trkpt lat="45.392287825086754" lon="11.878741680980603"><ele>11.0</ele><time>2026-03-22T11:55:57Z</time></trkpt><trkpt lat="45.39220390977072" lon="11.878779275845554"><ele>11.0</ele><time>2026-03-22T11:55:58Z</time></trkpt><trkpt lat="45.39212565846339" lon="11.878821175994409"><ele>11.0</ele><time>2026-03-22T11:55:59Z</time></trkpt><trkpt lat="45.392029761919225" lon="11.878840327991943"><ele>11.0</ele><time>2026-03-22T11:56:00Z</time></trkpt><trkpt lat="45.391943187262214" lon="11.87890402248911"><ele>11.4</ele><time>2026-03-22T11:56:01Z</time></trkpt><trkpt lat="45.391848607813586" lon="11.878945735004423"><ele>11.8</ele><time>2026-03-22T11:56:02Z</time></trkpt><trkpt lat="45.391748057477365" lon="11.878993619559353"><ele>12.200000000000001</ele><time>2026-03-22T11:56:03Z</time></trkpt><trkpt lat="45.39164908729466" lon="11.87904219737007"><ele>12.600000000000001</ele><time>2026-03-22T11:56:04Z</time></trkpt><trkpt lat="45.39154581264318" lon="11.879095158690628"><ele>13.0</ele><time>2026-03-22T11:56:05Z</time></trkpt><trkpt lat="45.39143392002971" lon="11.879153285254564"><ele>13.2</ele><time>2026-03-22T11:56:06Z</time></trkpt><trkpt lat="45.39131866178676" lon="11.879203549842753"><ele>13.4</ele><time>2026-03-22T11:56:07Z</time></trkpt><trkpt lat="45.391208685979464" lon="11.879259710679072"><ele>13.599999999999998</ele><time>2026-03-22T11:56:08Z</time></trkpt><trkpt lat="45.391106124036895" lon="11.879312731377954"><ele>13.799999999999999</ele><time>2026-03-22T11:56:09Z</time></trkpt><trkpt lat="45.39100765700294" lon="11.879354216655408"><ele>14.0</ele><time>2026-03-22T11:56:10Z</time></trkpt><trkpt lat="45.390910663174076" lon="11.879393457718622"><ele>14.0</ele><time>2026-03-22T11:56:11Z</time></trkpt><trkpt lat="45.39081172983243" lon="11.879430177671692"><ele>13.999999999999998</ele><time>2026-03-22T11:56:12Z</time></trkpt><trkpt lat="45.39071685289553" lon="11.879475662268627"><ele>13.999999999999998</ele><time>2026-03-22T11:56:13Z</time></trkpt><trkpt lat="45.3906269030842" lon="11.879517039692596"><ele>14.0</ele><time>2026-03-22T11:56:14Z</time></trkpt><trkpt lat="45.39054114452397" lon="11.879561737252333"><ele>14.0</ele><time>2026-03-22T11:56:15Z</time></trkpt><trkpt lat="45.39045378885243" lon="11.879600629295561"><ele>13.799999999999999</ele><time>2026-03-22T11:56:16Z</time></trkpt><trkpt lat="45.39036469659862" lon="11.879642054888638"><ele>13.599999999999998</ele><time>2026-03-22T11:56:17Z</time></trkpt><trkpt lat="45.39027404712029" lon="11.879689109251498"><ele>13.4</ele><time>2026-03-22T11:56:18Z</time></trkpt><trkpt lat="45.39017991902562" lon="11.879733476410323"><ele>13.2</ele><time>2026-03-22T11:56:19Z</time></trkpt><trkpt lat="45.39009024652814" lon="11.879776148563801"><ele>13.0</ele><time>2026-03-22T11:56:20Z</time></trkpt><trkpt lat="45.38999189560326" lon="11.879821563780322"><ele>13.0</ele><time>2026-03-22T11:56:21Z</time></trkpt><trkpt lat="45.389887507875585" lon="11.87986540008116"><ele>13.0</ele><time>2026-03-22T11:56:22Z</time></trkpt><trkpt lat="45.3897939946512" lon="11.879910325481713"><ele>13.0</ele><time>2026-03-22T11:56:23Z</time></trkpt><trkpt lat="45.389697096274595" lon="11.879925909423504"><ele>13.0</ele><time>2026-03-22T11:56:24Z</time></trkpt><trkpt lat="45.389611302300594" lon="11.879965056816404"><ele>13.0</ele><time>2026-03-22T11:56:25Z</time></trkpt><trkpt lat="45.38952821005854" lon="11.880003256624317"><ele>13.0</ele><time>2026-03-22T11:56:26Z</time></trkpt><trkpt lat="45.3894461674686" lon="11.880040975053317"><ele>13.0</ele><time>2026-03-22T11:56:27Z</time></trkpt><trkpt lat="45.38935777304682" lon="11.880081668571881"><ele>13.0</ele><time>2026-03-22T11:56:28Z</time></trkpt><trkpt lat="45.38926542981752" lon="11.88012448328242"><ele>13.0</ele><time>2026-03-22T11:56:29Z</time></trkpt><trkpt lat="45.38917327479697" lon="11.880166737982197"><ele>13.0</ele><time>2026-03-22T11:56:30Z</time></trkpt><trkpt lat="45.389079769572824" lon="11.880209184450157"><ele>13.166666666666666</ele><time>2026-03-22T11:56:31Z</time></trkpt><trkpt lat="45.38899896378292" lon="11.8802458663776"><ele>13.333333333333332</ele><time>2026-03-22T11:56:32Z</time></trkpt><trkpt lat="45.388922859009256" lon="11.880281041227331"><ele>13.5</ele><time>2026-03-22T11:56:33Z</time></trkpt><trkpt lat="45.38884644148188" lon="11.880316282507367"><ele>13.666666666666668</ele><time>2026-03-22T11:56:34Z</time></trkpt><trkpt lat="45.38877664734418" lon="11.880348467584989"><ele>13.833333333333334</ele><time>2026-03-22T11:56:35Z</time></trkpt><trkpt lat="45.388705118305566" lon="11.880381452684631"><ele>14.0</ele><time>2026-03-22T11:56:36Z</time></trkpt><trkpt lat="45.38863875372765" lon="11.880412079948458"><ele>13.666666666666668</ele><time>2026-03-22T11:56:37Z</time></trkpt><trkpt lat="45.38857145229627" lon="11.880443938359177"><ele>13.333333333333334</ele><time>2026-03-22T11:56:38Z</time></trkpt><trkpt lat="45.38849485930076" lon="11.880493360367627"><ele>13.0</ele><time>2026-03-22T11:56:39Z</time></trkpt><trkpt lat="45.38841482245851" lon="11.880535033314334"><ele>12.666666666666668</ele><time>2026-03-22T11:56:40Z</time></trkpt><trkpt lat="45.3883398122566" lon="11.88057150936903"><ele>12.333333333333334</ele><time>2026-03-22T11:56:41Z</time></trkpt><trkpt lat="45.388250371703734" lon="11.880607527148902"><ele>12.0</ele><time>2026-03-22T11:56:42Z</time></trkpt><trkpt lat="45.388169571014195" lon="11.880648413764073"><ele>12.0</ele><time>2026-03-22T11:56:43Z</time></trkpt><trkpt lat="45.38808334430616" lon="11.880692058781074"><ele>12.0</ele><time>2026-03-22T11:56:44Z</time></trkpt><trkpt lat="45.387992907216166" lon="11.880734650660752"><ele>12.0</ele><time>2026-03-22T11:56:45Z</time></trkpt><trkpt lat="45.38789303032073" lon="11.88077094639747"><ele>12.0</ele><time>2026-03-22T11:56:46Z</time></trkpt><trkpt lat="45.38779291008731" lon="11.880815673682315"><ele>12.0</ele><time>2026-03-22T11:56:47Z</time></trkpt><trkpt lat="45.38769232771762" lon="11.880865109435167"><ele>12.0</ele><time>2026-03-22T11:56:48Z</time></trkpt><trkpt lat="45.3875893435384" lon="11.880908473849065"><ele>12.0</ele><time>2026-03-22T11:56:49Z</time></trkpt><trkpt lat="45.387484376170846" lon="11.880951887334685"><ele>12.0</ele><time>2026-03-22T11:56:50Z</time></trkpt><trkpt lat="45.38737439219709" lon="11.881003258849466"><ele>12.0</ele><time>2026-03-22T11:56:51Z</time></trkpt><trkpt lat="45.38725282881821" lon="11.881060899538424"><ele>12.0</ele><time>2026-03-22T11:56:52Z</time></trkpt><trkpt lat="45.387122297549645" lon="11.88112189356138"><ele>12.0</ele><time>2026-03-22T11:56:53Z</time></trkpt><trkpt lat="45.38698261298859" lon="11.881185658479152"><ele>12.0</ele><time>2026-03-22T11:56:54Z</time></trkpt><trkpt lat="45.38684111249051" lon="11.881252571639177"><ele>12.0</ele><time>2026-03-22T11:56:55Z</time></trkpt><trkpt lat="45.38671635133551" lon="11.88130962281562"><ele>12.0</ele><time>2026-03-22T11:56:56Z</time></trkpt><trkpt lat="45.38660363151989" lon="11.881361230976312"><ele>12.0</ele><time>2026-03-22T11:56:57Z</time></trkpt><trkpt lat="45.38649338966872" lon="11.881414340327156"><ele>12.0</ele><time>2026-03-22T11:56:58Z</time></trkpt><trkpt lat="45.386375943892496" lon="11.881468240911735"><ele>12.0</ele><time>2026-03-22T11:56:59Z</time></trkpt><trkpt lat="45.386257996335274" lon="11.881521939109268"><ele>11.75</ele><time>2026-03-22T11:57:00Z</time></trkpt><trkpt lat="45.38614355764871" lon="11.881577505455931"><ele>11.5</ele><time>2026-03-22T11:57:00.999Z</time></trkpt><trkpt lat="45.38602740842498" lon="11.881632920803362"><ele>11.25</ele><time>2026-03-22T11:57:01.999Z</time></trkpt><trkpt lat="45.38591939274949" lon="11.881683931670324"><ele>11.0</ele><time>2026-03-22T11:57:02.999Z</time></trkpt><trkpt lat="45.385817617962644" lon="11.881732585096595"><ele>11.200000000000001</ele><time>2026-03-22T11:57:03.999Z</time></trkpt><trkpt lat="45.38572433335498" lon="11.881777145733581"><ele>11.4</ele><time>2026-03-22T11:57:04.999Z</time></trkpt><trkpt lat="45.38563993583225" lon="11.881817553847664"><ele>11.6</ele><time>2026-03-22T11:57:05.999Z</time></trkpt><trkpt lat="45.385560428843114" lon="11.881849411945025"><ele>11.8</ele><time>2026-03-22T11:57:06.999Z</time></trkpt><trkpt lat="45.38547425953428" lon="11.881890128495389"><ele>12.0</ele><time>2026-03-22T11:57:09Z</time></trkpt><trkpt lat="45.38538550510526" lon="11.88191931491734"><ele>11.666666666666666</ele><time>2026-03-22T11:57:22Z</time></trkpt><trkpt lat="45.38528737131175" lon="11.881964874385924"><ele>11.333333333333334</ele><time>2026-03-22T11:57:24Z</time></trkpt><trkpt lat="45.38520613045175" lon="11.882002292003957"><ele>11.0</ele><time>2026-03-22T11:57:26Z</time></trkpt><trkpt lat="45.38509686308194" lon="11.882054343895259"><ele>10.666666666666668</ele><time>2026-03-22T11:57:28Z</time></trkpt><trkpt lat="45.3850319301751" lon="11.882084684758114"><ele>10.333333333333334</ele><time>2026-03-22T11:57:29Z</time></trkpt><trkpt lat="45.38496206955728" lon="11.882117316675885"><ele>10.0</ele><time>2026-03-22T11:57:30Z</time></trkpt><trkpt lat="45.38490550465111" lon="11.882165707982965"><ele>10.0</ele><time>2026-03-22T11:57:31Z</time></trkpt><trkpt lat="45.384843450728326" lon="11.882190969379915"><ele>10.0</ele><time>2026-03-22T11:57:32Z</time></trkpt><trkpt lat="45.38473701974681" lon="11.882235905479352"><ele>10.0</ele><time>2026-03-22T11:57:34Z</time></trkpt><trkpt lat="45.38467598789779" lon="11.882266155112545"><ele>10.0</ele><time>2026-03-22T11:57:35Z</time></trkpt><trkpt lat="45.38458206687361" lon="11.882303687926342"><ele>10.0</ele><time>2026-03-22T11:57:36Z</time></trkpt><trkpt lat="45.38445866467863" lon="11.882359837665383"><ele>10.0</ele><time>2026-03-22T11:57:37Z</time></trkpt><trkpt lat="45.38433063812595" lon="11.88241842141839"><ele>10.0</ele><time>2026-03-22T11:57:38Z</time></trkpt><trkpt lat="45.38419136643379" lon="11.882491210220888"><ele>10.0</ele><time>2026-03-22T11:57:39Z</time></trkpt><trkpt lat="45.384037141588756" lon="11.882560440293584"><ele>10.0</ele><time>2026-03-22T11:57:40Z</time></trkpt><trkpt lat="45.38387882532559" lon="11.882637996956577"><ele>10.666666666666668</ele><time>2026-03-22T11:57:41Z</time></trkpt><trkpt lat="45.38373107841172" lon="11.88271186821108"><ele>11.333333333333334</ele><time>2026-03-22T11:57:42Z</time></trkpt><trkpt lat="45.38357769300464" lon="11.88275843093514"><ele>12.0</ele><time>2026-03-22T11:57:43Z</time></trkpt><trkpt lat="45.383428447625406" lon="11.882827714570656"><ele>12.0</ele><time>2026-03-22T11:57:44Z</time></trkpt><trkpt lat="45.38328582757749" lon="11.882914527721752"><ele>12.0</ele><time>2026-03-22T11:57:45Z</time></trkpt><trkpt lat="45.38314131896527" lon="11.88297360572231"><ele>12.0</ele><time>2026-03-22T11:57:46Z</time></trkpt><trkpt lat="45.38300164723438" lon="11.883044444717614"><ele>12.0</ele><time>2026-03-22T11:57:47Z</time></trkpt><trkpt lat="45.38286272038631" lon="11.883109992247828"><ele>12.0</ele><time>2026-03-22T11:57:48Z</time></trkpt><trkpt lat="45.38273005377191" lon="11.883172386455024"><ele>12.0</ele><time>2026-03-22T11:57:49Z</time></trkpt><trkpt lat="45.38260031767233" lon="11.883229897042336"><ele>12.0</ele><time>2026-03-22T11:57:50Z</time></trkpt><trkpt lat="45.38247585942257" lon="11.883290534816663"><ele>12.0</ele><time>2026-03-22T11:57:51Z</time></trkpt><trkpt lat="45.382354428596365" lon="11.883344893891358"><ele>12.0</ele><time>2026-03-22T11:57:52Z</time></trkpt><trkpt lat="45.38222883450818" lon="11.883404123981437"><ele>12.0</ele><time>2026-03-22T11:57:53Z</time></trkpt><trkpt lat="45.38210940383824" lon="11.883461348449988"><ele>12.0</ele><time>2026-03-22T11:57:54Z</time></trkpt><trkpt lat="45.38199783121429" lon="11.883507550467508"><ele>11.25</ele><time>2026-03-22T11:57:55Z</time></trkpt><trkpt lat="45.38188845450438" lon="11.883563379112491"><ele>10.5</ele><time>2026-03-22T11:57:56Z</time></trkpt><trkpt lat="45.381776292442844" lon="11.883618200393444"><ele>9.75</ele><time>2026-03-22T11:57:57Z</time></trkpt><trkpt lat="45.38166353849562" lon="11.883669244486587"><ele>9.0</ele><time>2026-03-22T11:57:58Z</time></trkpt><trkpt lat="45.38155257889249" lon="11.883719964001424"><ele>9.0</ele><time>2026-03-22T11:57:59Z</time></trkpt><trkpt lat="45.38144025712725" lon="11.883768977703628"><ele>9.0</ele><time>2026-03-22T11:58:00Z</time></trkpt><trkpt lat="45.38133524260515" lon="11.883816108532184"><ele>9.0</ele><time>2026-03-22T11:58:01Z</time></trkpt><trkpt lat="45.38123570507588" lon="11.883863661611278"><ele>9.0</ele><time>2026-03-22T11:58:02Z</time></trkpt><trkpt lat="45.38113030018293" lon="11.883891493477044"><ele>9.0</ele><time>2026-03-22T11:58:03Z</time></trkpt><trkpt lat="45.381033614998586" lon="11.883935920476148"><ele>9.2</ele><time>2026-03-22T11:58:04Z</time></trkpt><trkpt lat="45.380946724566925" lon="11.883998993071222"><ele>9.4</ele><time>2026-03-22T11:58:05Z</time></trkpt><trkpt lat="45.38084972824535" lon="11.884040222134516"><ele>9.6</ele><time>2026-03-22T11:58:06Z</time></trkpt><trkpt lat="45.38075316840762" lon="11.884087863653603"><ele>9.8</ele><time>2026-03-22T11:58:07Z</time></trkpt><trkpt lat="45.38065011049266" lon="11.884140638474102"><ele>10.0</ele><time>2026-03-22T11:58:08Z</time></trkpt><trkpt lat="45.38054543748584" lon="11.884191416698537"><ele>10.0</ele><time>2026-03-22T11:58:09Z</time></trkpt><trkpt lat="45.38043192801745" lon="11.884252717377239"><ele>10.0</ele><time>2026-03-22T11:58:10Z</time></trkpt><trkpt lat="45.380294270671776" lon="11.884325343187644"><ele>10.0</ele><time>2026-03-22T11:58:11Z</time></trkpt><trkpt lat="45.38014802351488" lon="11.884344317463999"><ele>10.0</ele><time>2026-03-22T11:58:12Z</time></trkpt><trkpt lat="45.38002168119858" lon="11.88440284389363"><ele>10.0</ele><time>2026-03-22T11:58:13Z</time></trkpt><trkpt lat="45.379903524525034" lon="11.884457469837459"><ele>10.0</ele><time>2026-03-22T11:58:14Z</time></trkpt><trkpt lat="45.37978521552678" lon="11.884512166124711"><ele>10.0</ele><time>2026-03-22T11:58:15Z</time></trkpt><trkpt lat="45.37967141524203" lon="11.88456474447072"><ele>10.0</ele><time>2026-03-22T11:58:16Z</time></trkpt><trkpt lat="45.37955970232839" lon="11.88461627144599"><ele>9.8</ele><time>2026-03-22T11:58:17Z</time></trkpt><trkpt lat="45.37945320958773" lon="11.88466539063918"><ele>9.6</ele><time>2026-03-22T11:58:18Z</time></trkpt><trkpt lat="45.37935929653604" lon="11.88472364495094"><ele>9.4</ele><time>2026-03-22T11:58:19Z</time></trkpt><trkpt lat="45.379264863363524" lon="11.88476839241643"><ele>9.2</ele><time>2026-03-22T11:58:20Z</time></trkpt><trkpt lat="45.37917778408555" lon="11.884810380366664"><ele>9.0</ele><time>2026-03-22T11:58:21Z</time></trkpt><trkpt lat="45.37910702027302" lon="11.884847913045107"><ele>9.0</ele><time>2026-03-22T11:58:22Z</time></trkpt><trkpt lat="45.379000029201016" lon="11.884875100643528"><ele>9.0</ele><time>2026-03-22T11:58:24Z</time></trkpt><trkpt lat="45.37892719130059" lon="11.884908841457188"><ele>9.0</ele><time>2026-03-22T11:58:26Z</time></trkpt><trkpt lat="45.37885364064439" lon="11.884942912381417"><ele>9.0</ele><time>2026-03-22T11:58:28Z</time></trkpt><trkpt lat="45.37875762873505" lon="11.885009302119169"><ele>9.0</ele><time>2026-03-22T11:58:30Z</time></trkpt><trkpt lat="45.37869576677799" lon="11.885035622868237"><ele>9.0</ele><time>2026-03-22T11:58:31Z</time></trkpt><trkpt lat="45.37857702920262" lon="11.885085835467516"><ele>9.166666666666666</ele><time>2026-03-22T11:58:33Z</time></trkpt><trkpt lat="45.378513334995205" lon="11.885115341026653"><ele>9.333333333333334</ele><time>2026-03-22T11:58:34Z</time></trkpt><trkpt lat="45.37844914986302" lon="11.88514344769671"><ele>9.5</ele><time>2026-03-22T11:58:35Z</time></trkpt><trkpt lat="45.37837020825395" lon="11.885184992008128"><ele>9.666666666666668</ele><time>2026-03-22T11:58:36Z</time></trkpt><trkpt lat="45.37827572117446" lon="11.885233011437272"><ele>9.833333333333334</ele><time>2026-03-22T11:58:37Z</time></trkpt><trkpt lat="45.37818390098597" lon="11.885254218405892"><ele>10.0</ele><time>2026-03-22T11:58:38Z</time></trkpt><trkpt lat="45.3781020797019" lon="11.885292398514212"><ele>10.0</ele><time>2026-03-22T11:58:39Z</time></trkpt><trkpt lat="45.378025784759586" lon="11.885346649381493"><ele>10.0</ele><time>2026-03-22T11:58:40Z</time></trkpt><trkpt lat="45.37795058113852" lon="11.88537565175353"><ele>10.0</ele><time>2026-03-22T11:58:41Z</time></trkpt><trkpt lat="45.37786473102237" lon="11.885414602806348"><ele>10.0</ele><time>2026-03-22T11:58:42Z</time></trkpt><trkpt lat="45.37777327998103" lon="11.88546137003787"><ele>10.0</ele><time>2026-03-22T11:58:43Z</time></trkpt><trkpt lat="45.37767609641232" lon="11.885507271632362"><ele>10.0</ele><time>2026-03-22T11:58:44Z</time></trkpt><trkpt lat="45.37757835402052" lon="11.885551591146362"><ele>10.0</ele><time>2026-03-22T11:58:45Z</time></trkpt><trkpt lat="45.37748450419031" lon="11.885595331511734"><ele>10.0</ele><time>2026-03-22T11:58:46Z</time></trkpt><trkpt lat="45.37738803880342" lon="11.885637867007485"><ele>10.0</ele><time>2026-03-22T11:58:47Z</time></trkpt><trkpt lat="45.377294332689125" lon="11.885681501212742"><ele>10.0</ele><time>2026-03-22T11:58:48Z</time></trkpt><trkpt lat="45.37720202572961" lon="11.885723723945084"><ele>9.6</ele><time>2026-03-22T11:58:49Z</time></trkpt><trkpt lat="45.377122450875476" lon="11.885767293619963"><ele>9.2</ele><time>2026-03-22T11:58:50Z</time></trkpt><trkpt lat="45.377027956608565" lon="11.885805728325023"><ele>8.8</ele><time>2026-03-22T11:58:51Z</time></trkpt><trkpt lat="45.37693218285786" lon="11.885849716675546"><ele>8.4</ele><time>2026-03-22T11:58:52Z</time></trkpt><trkpt lat="45.37684440583923" lon="11.88589430189842"><ele>8.0</ele><time>2026-03-22T11:58:53Z</time></trkpt><trkpt lat="45.376758208125885" lon="11.885934632415637"><ele>8.0</ele><time>2026-03-22T11:58:54Z</time></trkpt><trkpt lat="45.376687685319496" lon="11.885979489791545"><ele>7.999999999999999</ele><time>2026-03-22T11:58:55Z</time></trkpt><trkpt lat="45.37662171686786" lon="11.886011673716595"><ele>8.0</ele><time>2026-03-22T11:58:56Z</time></trkpt><trkpt lat="45.376554598922624" lon="11.886036137053383"><ele>8.0</ele><time>2026-03-22T11:58:57Z</time></trkpt><trkpt lat="45.37648940912139" lon="11.886067275873438"><ele>7.999999999999999</ele><time>2026-03-22T11:58:58Z</time></trkpt><trkpt lat="45.376411499964064" lon="11.886103232644107"><ele>8.0</ele><time>2026-03-22T11:58:59Z</time></trkpt><trkpt lat="45.37633635742728" lon="11.886137461295897"><ele>8.0</ele><time>2026-03-22T11:59:00Z</time></trkpt><trkpt lat="45.376252929506315" lon="11.886150987969302"><ele>8.0</ele><time>2026-03-22T11:59:01Z</time></trkpt><trkpt lat="45.376177149720164" lon="11.886185215123"><ele>8.0</ele><time>2026-03-22T11:59:02Z</time></trkpt><trkpt lat="45.37607158161516" lon="11.886233227711028"><ele>8.0</ele><time>2026-03-22T11:59:03Z</time></trkpt><trkpt lat="45.375938962600124" lon="11.886294560065819"><ele>8.0</ele><time>2026-03-22T11:59:04Z</time></trkpt><trkpt lat="45.37580664800684" lon="11.886355417221194"><ele>8.0</ele><time>2026-03-22T11:59:05Z</time></trkpt><trkpt lat="45.37567832020622" lon="11.88641436489325"><ele>8.0</ele><time>2026-03-22T11:59:06Z</time></trkpt><trkpt lat="45.37553675262503" lon="11.88647939437327"><ele>8.0</ele><time>2026-03-22T11:59:07Z</time></trkpt><trkpt lat="45.37537636952072" lon="11.886553067230135"><ele>8.666666666666666</ele><time>2026-03-22T11:59:08Z</time></trkpt><trkpt lat="45.375191022996866" lon="11.886638354811659"><ele>9.333333333333334</ele><time>2026-03-22T11:59:09Z</time></trkpt><trkpt lat="45.37503723443612" lon="11.886709750374848"><ele>10.0</ele><time>2026-03-22T11:59:10Z</time></trkpt><trkpt lat="45.37489698740791" lon="11.886774859417487"><ele>10.0</ele><time>2026-03-22T11:59:11Z</time></trkpt><trkpt lat="45.3747730334892" lon="11.886852252137398"><ele>10.0</ele><time>2026-03-22T11:59:12Z</time></trkpt><trkpt lat="45.37464997011988" lon="11.88691046340644"><ele>10.0</ele><time>2026-03-22T11:59:13Z</time></trkpt><trkpt lat="45.37452369264959" lon="11.886971975618364"><ele>10.0</ele><time>2026-03-22T11:59:14Z</time></trkpt><trkpt lat="45.37439859941157" lon="11.887029461004893"><ele>9.5</ele><time>2026-03-22T11:59:15Z</time></trkpt><trkpt lat="45.37426052278885" lon="11.887070433879519"><ele>9.0</ele><time>2026-03-22T11:59:16Z</time></trkpt><trkpt lat="45.37411575586439" lon="11.88713742826181"><ele>8.5</ele><time>2026-03-22T11:59:17Z</time></trkpt><trkpt lat="45.37397864785818" lon="11.887201303055658"><ele>8.0</ele><time>2026-03-22T11:59:18Z</time></trkpt><trkpt lat="45.37385589858084" lon="11.887258741584628"><ele>8.25</ele><time>2026-03-22T11:59:19Z</time></trkpt><trkpt lat="45.373726349141656" lon="11.887318957363684"><ele>8.5</ele><time>2026-03-22T11:59:20Z</time></trkpt><trkpt lat="45.37359329406656" lon="11.887380801283989"><ele>8.75</ele><time>2026-03-22T11:59:21Z</time></trkpt><trkpt lat="45.3734833474674" lon="11.887446107614409"><ele>9.0</ele><time>2026-03-22T11:59:22Z</time></trkpt><trkpt lat="45.37338595102456" lon="11.887484332711207"><ele>9.0</ele><time>2026-03-22T11:59:23Z</time></trkpt><trkpt lat="45.37329531686911" lon="11.88752153397347"><ele>9.0</ele><time>2026-03-22T11:59:24Z</time></trkpt><trkpt lat="45.37321816954525" lon="11.887560747807148"><ele>9.0</ele><time>2026-03-22T11:59:25Z</time></trkpt><trkpt lat="45.37312998973579" lon="11.887600181023085"><ele>9.0</ele><time>2026-03-22T11:59:27Z</time></trkpt><trkpt lat="45.37307034069082" lon="11.88763293512859"><ele>9.0</ele><time>2026-03-22T11:59:31Z</time></trkpt><trkpt lat="45.37290975539805" lon="11.887718742821685"><ele>9.0</ele><time>2026-03-22T11:59:33Z</time></trkpt><trkpt lat="45.372768969788915" lon="11.887763080577583"><ele>9.0</ele><time>2026-03-22T11:59:34Z</time></trkpt><trkpt lat="45.372615968834786" lon="11.887833981243608"><ele>9.0</ele><time>2026-03-22T11:59:35Z</time></trkpt><trkpt lat="45.37244358483689" lon="11.887913973357628"><ele>9.0</ele><time>2026-03-22T11:59:36Z</time></trkpt><trkpt lat="45.372260273397366" lon="11.887999036126057"><ele>9.0</ele><time>2026-03-22T11:59:37Z</time></trkpt><trkpt lat="45.3720621103274" lon="11.88809039148839"><ele>9.0</ele><time>2026-03-22T11:59:38Z</time></trkpt><trkpt lat="45.3718480262099" lon="11.888189003881209"><ele>9.0</ele><time>2026-03-22T11:59:39Z</time></trkpt><trkpt lat="45.37163032199427" lon="11.888289334037461"><ele>9.0</ele><time>2026-03-22T11:59:40Z</time></trkpt><trkpt lat="45.37140609959334" lon="11.888392667506938"><ele>9.333333333333334</ele><time>2026-03-22T11:59:41Z</time></trkpt><trkpt lat="45.37120865796372" lon="11.88848356505773"><ele>9.666666666666668</ele><time>2026-03-22T11:59:42Z</time></trkpt><trkpt lat="45.37102411658925" lon="11.888568515917818"><ele>10.0</ele><time>2026-03-22T11:59:43Z</time></trkpt><trkpt lat="45.37084643134602" lon="11.888650310923873"><ele>10.0</ele><time>2026-03-22T11:59:44Z</time></trkpt><trkpt lat="45.37066808499727" lon="11.888732410178903"><ele>10.0</ele><time>2026-03-22T11:59:45Z</time></trkpt><trkpt lat="45.3704901211159" lon="11.888814219293108"><ele>10.0</ele><time>2026-03-22T11:59:46Z</time></trkpt><trkpt lat="45.3703317522049" lon="11.888886758988413"><ele>9.666666666666668</ele><time>2026-03-22T11:59:47Z</time></trkpt><trkpt lat="45.37017606902707" lon="11.888957894844529"><ele>9.333333333333334</ele><time>2026-03-22T11:59:48Z</time></trkpt><trkpt lat="45.37002904227064" lon="11.88902482915408"><ele>9.0</ele><time>2026-03-22T11:59:49Z</time></trkpt><trkpt lat="45.36988311037921" lon="11.889091265008792"><ele>9.0</ele><time>2026-03-22T11:59:50Z</time></trkpt><trkpt lat="45.369747155079665" lon="11.889153159900362"><ele>9.0</ele><time>2026-03-22T11:59:51Z</time></trkpt><trkpt lat="45.36959960100533" lon="11.889219325758964"><ele>9.0</ele><time>2026-03-22T11:59:52Z</time></trkpt><trkpt lat="45.36945730955085" lon="11.88930402437943"><ele>8.666666666666666</ele><time>2026-03-22T11:59:53Z</time></trkpt><trkpt lat="45.369307463287626" lon="11.889367272555258"><ele>8.333333333333332</ele><time>2026-03-22T11:59:54Z</time></trkpt><trkpt lat="45.36916214639661" lon="11.889435683887266"><ele>8.0</ele><time>2026-03-22T11:59:55Z</time></trkpt><trkpt lat="45.36902065332268" lon="11.889479277198765"><ele>8.0</ele><time>2026-03-22T11:59:56Z</time></trkpt><trkpt lat="45.368892911442735" lon="11.889536634584713"><ele>8.0</ele><time>2026-03-22T11:59:57Z</time></trkpt><trkpt lat="45.36877533262025" lon="11.889589990043408"><ele>8.0</ele><time>2026-03-22T11:59:58Z</time></trkpt><trkpt lat="45.368664364957866" lon="11.889661860353547"><ele>8.0</ele><time>2026-03-22T11:59:59Z</time></trkpt><trkpt lat="45.368550135831846" lon="11.88971196966061"><ele>8.200000000000001</ele><time>2026-03-22T12:00:00Z</time></trkpt><trkpt lat="45.3684452478326" lon="11.889760525303167"><ele>8.4</ele><time>2026-03-22T12:00:01Z</time></trkpt><trkpt lat="45.3683547648335" lon="11.889795819876392"><ele>8.600000000000001</ele><time>2026-03-22T12:00:02Z</time></trkpt><trkpt lat="45.36827381683094" lon="11.889817154199571"><ele>8.8</ele><time>2026-03-22T12:00:03Z</time></trkpt><trkpt lat="45.36819312925822" lon="11.889818375146369"><ele>9.0</ele><time>2026-03-22T12:00:04Z</time></trkpt><trkpt lat="45.36809543824952" lon="11.889816972392383"><ele>8.833333333333334</ele><time>2026-03-22T12:00:05Z</time></trkpt><trkpt lat="45.3680038549086" lon="11.889854556624606"><ele>8.666666666666666</ele><time>2026-03-22T12:00:06Z</time></trkpt><trkpt lat="45.367919932504265" lon="11.889918523670723"><ele>8.5</ele><time>2026-03-22T12:00:07Z</time></trkpt><trkpt lat="45.36783195442161" lon="11.889957511455755"><ele>8.333333333333332</ele><time>2026-03-22T12:00:08Z</time></trkpt><trkpt lat="45.367760759796994" lon="11.889972024470413"><ele>8.166666666666666</ele><time>2026-03-22T12:00:09Z</time></trkpt><trkpt lat="45.36768672996358" lon="11.889963689871625"><ele>8.0</ele><time>2026-03-22T12:00:10Z</time></trkpt><trkpt lat="45.36760925199883" lon="11.889980668119753"><ele>8.0</ele><time>2026-03-22T12:00:11Z</time></trkpt><trkpt lat="45.367528208230596" lon="11.890055198299752"><ele>8.0</ele><time>2026-03-22T12:00:12Z</time></trkpt><trkpt lat="45.36744428591601" lon="11.890153146368002"><ele>8.0</ele><time>2026-03-22T12:00:13Z</time></trkpt><trkpt lat="45.367323036726674" lon="11.890256442329232"><ele>8.0</ele><time>2026-03-22T12:00:14Z</time></trkpt><trkpt lat="45.367162645776624" lon="11.890344229033746"><ele>7.333333333333333</ele><time>2026-03-22T12:00:15Z</time></trkpt><trkpt lat="45.36695970450095" lon="11.89039661015285"><ele>6.666666666666666</ele><time>2026-03-22T12:00:16Z</time></trkpt><trkpt lat="45.36677532949568" lon="11.890487354142651"><ele>6.0</ele><time>2026-03-22T12:00:17Z</time></trkpt><trkpt lat="45.366586419242786" lon="11.890580781288426"><ele>6.0</ele><time>2026-03-22T12:00:18Z</time></trkpt><trkpt lat="45.36638255979139" lon="11.89069448857512"><ele>6.0</ele><time>2026-03-22T12:00:19Z</time></trkpt><trkpt lat="45.36616831891281" lon="11.890795844630517"><ele>6.0</ele><time>2026-03-22T12:00:20Z</time></trkpt><trkpt lat="45.36593560724665" lon="11.890904964241878"><ele>6.5</ele><time>2026-03-22T12:00:21Z</time></trkpt><trkpt lat="45.365716648691816" lon="11.891030443971278"><ele>7.0</ele><time>2026-03-22T12:00:22Z</time></trkpt><trkpt lat="45.36548095989495" lon="11.891114757417506"><ele>7.0</ele><time>2026-03-22T12:00:23Z</time></trkpt><trkpt lat="45.365252351823095" lon="11.891220558390975"><ele>7.0</ele><time>2026-03-22T12:00:24Z</time></trkpt><trkpt lat="45.36504485240965" lon="11.891316640038617"><ele>7.0</ele><time>2026-03-22T12:00:25Z</time></trkpt><trkpt lat="45.36485458541685" lon="11.89140474205931"><ele>7.0</ele><time>2026-03-22T12:00:26Z</time></trkpt><trkpt lat="45.36467623536251" lon="11.89148732810936"><ele>7.0</ele><time>2026-03-22T12:00:27Z</time></trkpt><trkpt lat="45.36451029270747" lon="11.891564166845594"><ele>7.0</ele><time>2026-03-22T12:00:28Z</time></trkpt><trkpt lat="45.36434614959219" lon="11.891639831511835"><ele>7.0</ele><time>2026-03-22T12:00:29Z</time></trkpt><trkpt lat="45.36419205914566" lon="11.89171091523077"><ele>7.0</ele><time>2026-03-22T12:00:30Z</time></trkpt><trkpt lat="45.36405191809065" lon="11.891775563904334"><ele>7.0</ele><time>2026-03-22T12:00:31Z</time></trkpt><trkpt lat="45.36392514738182" lon="11.89183404468714"><ele>7.0</ele><time>2026-03-22T12:00:32Z</time></trkpt><trkpt lat="45.36380289246787" lon="11.891890442277495"><ele>7.0</ele><time>2026-03-22T12:00:33Z</time></trkpt><trkpt lat="45.36369779806311" lon="11.89196126960015"><ele>7.0</ele><time>2026-03-22T12:00:34Z</time></trkpt><trkpt lat="45.36360824176163" lon="11.891998948659534"><ele>7.333333333333334</ele><time>2026-03-22T12:00:35Z</time></trkpt><trkpt lat="45.36353059853899" lon="11.892016064478971"><ele>7.666666666666667</ele><time>2026-03-22T12:00:36Z</time></trkpt><trkpt lat="45.363464051566375" lon="11.892007626603736"><ele>8.0</ele><time>2026-03-22T12:00:37Z</time></trkpt><trkpt lat="45.3633837241827" lon="11.891998565686599"><ele>8.333333333333334</ele><time>2026-03-22T12:00:38Z</time></trkpt><trkpt lat="45.36332241183707" lon="11.892027467522501"><ele>8.666666666666666</ele><time>2026-03-22T12:00:39Z</time></trkpt><trkpt lat="45.363266694136236" lon="11.89210377228539"><ele>9.0</ele><time>2026-03-22T12:00:40Z</time></trkpt><trkpt lat="45.36319741687864" lon="11.892166217633614"><ele>9.0</ele><time>2026-03-22T12:00:41Z</time></trkpt><trkpt lat="45.36310813210117" lon="11.892208171580464"><ele>9.0</ele><time>2026-03-22T12:00:42Z</time></trkpt><trkpt lat="45.36300421098951" lon="11.892256315216368"><ele>9.0</ele><time>2026-03-22T12:00:43Z</time></trkpt><trkpt lat="45.362901208390355" lon="11.89230419585339"><ele>9.0</ele><time>2026-03-22T12:00:44Z</time></trkpt><trkpt lat="45.36279824252218" lon="11.892352059423184"><ele>9.0</ele><time>2026-03-22T12:00:45Z</time></trkpt><trkpt lat="45.362701477157756" lon="11.892421066790272"><ele>9.0</ele><time>2026-03-22T12:00:46Z</time></trkpt><trkpt lat="45.362597586359605" lon="11.892465907422782"><ele>9.0</ele><time>2026-03-22T12:00:47Z</time></trkpt><trkpt lat="45.36248532567718" lon="11.892514669486145"><ele>9.0</ele><time>2026-03-22T12:00:48Z</time></trkpt><trkpt lat="45.36236692200111" lon="11.89257252160401"><ele>9.0</ele><time>2026-03-22T12:00:49Z</time></trkpt><trkpt lat="45.362237214251515" lon="11.892623512791928"><ele>9.0</ele><time>2026-03-22T12:00:50Z</time></trkpt><trkpt lat="45.362106157677516" lon="11.89268628616382"><ele>9.0</ele><time>2026-03-22T12:00:51Z</time></trkpt><trkpt lat="45.361972902756996" lon="11.892749710774078"><ele>9.0</ele><time>2026-03-22T12:00:52Z</time></trkpt><trkpt lat="45.361832505930735" lon="11.892814669720837"><ele>9.0</ele><time>2026-03-22T12:00:53Z</time></trkpt><trkpt lat="45.361696137029455" lon="11.892877683805384"><ele>9.0</ele><time>2026-03-22T12:00:54Z</time></trkpt><trkpt lat="45.361564344527494" lon="11.892934411988428"><ele>9.0</ele><time>2026-03-22T12:00:55Z</time></trkpt><trkpt lat="45.36142966433036" lon="11.893000943694142"><ele>9.0</ele><time>2026-03-22T12:00:56Z</time></trkpt><trkpt lat="45.3612992180061" lon="11.893063495733177"><ele>9.0</ele><time>2026-03-22T12:00:57Z</time></trkpt><trkpt lat="45.36117613632376" lon="11.893119919643144"><ele>9.0</ele><time>2026-03-22T12:00:58Z</time></trkpt><trkpt lat="45.361058574697395" lon="11.893168970667805"><ele>9.0</ele><time>2026-03-22T12:00:59Z</time></trkpt><trkpt lat="45.36095247520654" lon="11.893225466125166"><ele>9.0</ele><time>2026-03-22T12:01:00Z</time></trkpt><trkpt lat="45.36084853795552" lon="11.893273137207967"><ele>9.0</ele><time>2026-03-22T12:01:01Z</time></trkpt><trkpt lat="45.360742641136255" lon="11.893317542832"><ele>9.0</ele><time>2026-03-22T12:01:02Z</time></trkpt><trkpt lat="45.36063766262642" lon="11.89336791192414"><ele>9.0</ele><time>2026-03-22T12:01:03Z</time></trkpt><trkpt lat="45.36053155330243" lon="11.893413621646744"><ele>9.0</ele><time>2026-03-22T12:01:04Z</time></trkpt><trkpt lat="45.36042327637475" lon="11.893466200296878"><ele>9.0</ele><time>2026-03-22T12:01:05Z</time></trkpt><trkpt lat="45.36030405954386" lon="11.893524363927211"><ele>9.75</ele><time>2026-03-22T12:01:06Z</time></trkpt><trkpt lat="45.36018044308485" lon="11.893585366240524"><ele>10.5</ele><time>2026-03-22T12:01:07Z</time></trkpt><trkpt lat="45.360059118262946" lon="11.893639322783512"><ele>11.25</ele><time>2026-03-22T12:01:08Z</time></trkpt><trkpt lat="45.3599372924633" lon="11.893686137973521"><ele>12.0</ele><time>2026-03-22T12:01:09Z</time></trkpt><trkpt lat="45.35981808166417" lon="11.893740564562169"><ele>12.0</ele><time>2026-03-22T12:01:10Z</time></trkpt><trkpt lat="45.35970595081341" lon="11.893794963054521"><ele>12.0</ele><time>2026-03-22T12:01:11Z</time></trkpt><trkpt lat="45.359605162843934" lon="11.893839871032782"><ele>12.0</ele><time>2026-03-22T12:01:12Z</time></trkpt><trkpt lat="45.35951005517803" lon="11.893883400379552"><ele>12.0</ele><time>2026-03-22T12:01:13Z</time></trkpt><trkpt lat="45.35942238382846" lon="11.89392385808884"><ele>12.0</ele><time>2026-03-22T12:01:14Z</time></trkpt><trkpt lat="45.35934420280296" lon="11.893958626672385"><ele>11.833333333333334</ele><time>2026-03-22T12:01:15Z</time></trkpt><trkpt lat="45.35925966335813" lon="11.893993027017569"><ele>11.666666666666666</ele><time>2026-03-22T12:01:16Z</time></trkpt><trkpt lat="45.359181887734444" lon="11.894036237730162"><ele>11.5</ele><time>2026-03-22T12:01:17Z</time></trkpt><trkpt lat="45.359105529547385" lon="11.894069465462033"><ele>11.333333333333332</ele><time>2026-03-22T12:01:18Z</time></trkpt><trkpt lat="45.35903831846046" lon="11.894100106008"><ele>11.166666666666666</ele><time>2026-03-22T12:01:19Z</time></trkpt><trkpt lat="45.358975631975724" lon="11.894130352860696"><ele>11.0</ele><time>2026-03-22T12:01:20Z</time></trkpt><trkpt lat="45.358875395895424" lon="11.894157537889356"><ele>11.0</ele><time>2026-03-22T12:01:22Z</time></trkpt><trkpt lat="45.3587860389953" lon="11.894102695086413"><ele>11.0</ele><time>2026-03-22T12:01:24Z</time></trkpt><trkpt lat="45.35868825533843" lon="11.894119002236266"><ele>11.0</ele><time>2026-03-22T12:01:26Z</time></trkpt><trkpt lat="45.35858472045655" lon="11.894218798590684"><ele>11.0</ele><time>2026-03-22T12:01:28Z</time></trkpt><trkpt lat="45.35854348562642" lon="11.89429309380198"><ele>11.0</ele><time>2026-03-22T12:01:29Z</time></trkpt><trkpt lat="45.358480953137736" lon="11.89433689542641"><ele>11.0</ele><time>2026-03-22T12:01:30Z</time></trkpt><trkpt lat="45.35839945162274" lon="11.89437609260037"><ele>11.0</ele><time>2026-03-22T12:01:31Z</time></trkpt><trkpt lat="45.35829404651192" lon="11.894429727513353"><ele>11.0</ele><time>2026-03-22T12:01:32Z</time></trkpt><trkpt lat="45.358176166262446" lon="11.894485928284663"><ele>11.0</ele><time>2026-03-22T12:01:33Z</time></trkpt><trkpt lat="45.35806187524562" lon="11.894538951263726"><ele>11.0</ele><time>2026-03-22T12:01:34Z</time></trkpt><trkpt lat="45.35794795035777" lon="11.89459130798193"><ele>10.75</ele><time>2026-03-22T12:01:35Z</time></trkpt><trkpt lat="45.3578322064656" lon="11.894644037995024"><ele>10.5</ele><time>2026-03-22T12:01:36Z</time></trkpt><trkpt lat="45.35772283191561" lon="11.894716578265422"><ele>10.25</ele><time>2026-03-22T12:01:37Z</time></trkpt><trkpt lat="45.35761952390455" lon="11.894759526680685"><ele>10.0</ele><time>2026-03-22T12:01:38Z</time></trkpt><trkpt lat="45.357523088079475" lon="11.894802418152011"><ele>10.0</ele><time>2026-03-22T12:01:39Z</time></trkpt><trkpt lat="45.3574146875689" lon="11.894854347984397"><ele>10.0</ele><time>2026-03-22T12:01:40Z</time></trkpt><trkpt lat="45.35729438563899" lon="11.894909545076995"><ele>10.0</ele><time>2026-03-22T12:01:41Z</time></trkpt><trkpt lat="45.35716213938526" lon="11.894973027098471"><ele>10.0</ele><time>2026-03-22T12:01:42Z</time></trkpt><trkpt lat="45.35702798157254" lon="11.895034452689638"><ele>10.25</ele><time>2026-03-22T12:01:43Z</time></trkpt><trkpt lat="45.35689476786266" lon="11.895093361077832"><ele>10.5</ele><time>2026-03-22T12:01:44Z</time></trkpt><trkpt lat="45.356758776118" lon="11.895152718760704"><ele>10.75</ele><time>2026-03-22T12:01:45Z</time></trkpt><trkpt lat="45.35662700545726" lon="11.895207074588235"><ele>11.0</ele><time>2026-03-22T12:01:46Z</time></trkpt><trkpt lat="45.356514507985935" lon="11.895270314455033"><ele>11.0</ele><time>2026-03-22T12:01:47Z</time></trkpt><trkpt lat="45.356417217482374" lon="11.89530662917038"><ele>11.0</ele><time>2026-03-22T12:01:48Z</time></trkpt><trkpt lat="45.35635132548776" lon="11.895338250127582"><ele>11.0</ele><time>2026-03-22T12:01:49Z</time></trkpt><trkpt lat="45.356291629873894" lon="11.895508644924124"><ele>11.0</ele><time>2026-03-22T12:01:52Z</time></trkpt><trkpt lat="45.3562764506523" lon="11.895692326697898"><ele>11.0</ele><time>2026-03-22T12:01:54Z</time></trkpt><trkpt lat="45.356259944663115" lon="11.895801752877572"><ele>10.600000000000001</ele><time>2026-03-22T12:01:55Z</time></trkpt><trkpt lat="45.356242665181526" lon="11.895913468361735"><ele>10.200000000000001</ele><time>2026-03-22T12:01:56Z</time></trkpt><trkpt lat="45.35621830633819" lon="11.896058632884325"><ele>9.8</ele><time>2026-03-22T12:01:57Z</time></trkpt><trkpt lat="45.35619104411799" lon="11.896221099794204"><ele>9.4</ele><time>2026-03-22T12:01:58Z</time></trkpt><trkpt lat="45.35616249705573" lon="11.896391223633065"><ele>9.0</ele><time>2026-03-22T12:01:59Z</time></trkpt><trkpt lat="45.3561364215612" lon="11.896552532816239"><ele>8.6</ele><time>2026-03-22T12:02:00Z</time></trkpt><trkpt lat="45.35611296599821" lon="11.89670134679713"><ele>8.2</ele><time>2026-03-22T12:02:01Z</time></trkpt><trkpt lat="45.35608826706402" lon="11.896859120360414"><ele>7.799999999999999</ele><time>2026-03-22T12:02:02Z</time></trkpt><trkpt lat="45.356063731795174" lon="11.897017471315039"><ele>7.3999999999999995</ele><time>2026-03-22T12:02:03Z</time></trkpt><trkpt lat="45.35603931261631" lon="11.897175072926261"><ele>7.0</ele><time>2026-03-22T12:02:04Z</time></trkpt><trkpt lat="45.356017969777994" lon="11.897312819777932"><ele>7.0</ele><time>2026-03-22T12:02:05Z</time></trkpt><trkpt lat="45.35599952983091" lon="11.89744152529576"><ele>6.999999999999999</ele><time>2026-03-22T12:02:06Z</time></trkpt><trkpt lat="45.35597955714378" lon="11.897580496462703"><ele>6.999999999999999</ele><time>2026-03-22T12:02:07Z</time></trkpt><trkpt lat="45.355957796122766" lon="11.897714651531734"><ele>7.0</ele><time>2026-03-22T12:02:08Z</time></trkpt><trkpt lat="45.35593263854582" lon="11.897836408296811"><ele>7.0</ele><time>2026-03-22T12:02:09Z</time></trkpt><trkpt lat="45.35589527545634" lon="11.897942606916661"><ele>6.833333333333334</ele><time>2026-03-22T12:02:10Z</time></trkpt><trkpt lat="45.35584764530622" lon="11.898037797476798"><ele>6.666666666666667</ele><time>2026-03-22T12:02:11Z</time></trkpt><trkpt lat="45.355794439466656" lon="11.898135227068282"><ele>6.5</ele><time>2026-03-22T12:02:12Z</time></trkpt><trkpt lat="45.355739643456815" lon="11.898222307120779"><ele>6.333333333333334</ele><time>2026-03-22T12:02:13Z</time></trkpt><trkpt lat="45.355676584785044" lon="11.89829770107801"><ele>6.166666666666667</ele><time>2026-03-22T12:02:14Z</time></trkpt><trkpt lat="45.35561502288099" lon="11.898368586860803"><ele>6.0</ele><time>2026-03-22T12:02:15Z</time></trkpt><trkpt lat="45.35555229194407" lon="11.898440818729572"><ele>6.0</ele><time>2026-03-22T12:02:16Z</time></trkpt><trkpt lat="45.355497232259715" lon="11.898505862907333"><ele>6.0</ele><time>2026-03-22T12:02:17Z</time></trkpt><trkpt lat="45.35543614524199" lon="11.898588334601294"><ele>6.0</ele><time>2026-03-22T12:02:18Z</time></trkpt><trkpt lat="45.35537609816576" lon="11.898686552434233"><ele>6.0</ele><time>2026-03-22T12:02:19Z</time></trkpt><trkpt lat="45.35532012744223" lon="11.89878003859131"><ele>6.0</ele><time>2026-03-22T12:02:20Z</time></trkpt><trkpt lat="45.355272850529175" lon="11.89886161324344"><ele>6.0</ele><time>2026-03-22T12:02:21Z</time></trkpt><trkpt lat="45.3551917398681" lon="11.898992381857747"><ele>6.0</ele><time>2026-03-22T12:02:23Z</time></trkpt><trkpt lat="45.35513905528245" lon="11.899123048539991"><ele>6.0</ele><time>2026-03-22T12:02:25Z</time></trkpt><trkpt lat="45.35522714851513" lon="11.899300754489804"><ele>6.0</ele><time>2026-03-22T12:02:27Z</time></trkpt><trkpt lat="45.35531370524548" lon="11.899356073990134"><ele>6.0</ele><time>2026-03-22T12:02:28Z</time></trkpt><trkpt lat="45.35540250542626" lon="11.89943037968003"><ele>6.199999999999999</ele><time>2026-03-22T12:02:29Z</time></trkpt><trkpt lat="45.35548048086534" lon="11.899495627503002"><ele>6.3999999999999995</ele><time>2026-03-22T12:02:30Z</time></trkpt><trkpt lat="45.35553937626468" lon="11.899555314027664"><ele>6.6</ele><time>2026-03-22T12:02:31Z</time></trkpt><trkpt lat="45.35560689781206" lon="11.899681940994611"><ele>6.8</ele><time>2026-03-22T12:02:33Z</time></trkpt><trkpt lat="45.355607303486316" lon="11.89979162245075"><ele>7.0</ele><time>2026-03-22T12:02:35Z</time></trkpt><trkpt lat="45.35557672161415" lon="11.89994303125359"><ele>7.0</ele><time>2026-03-22T12:02:37Z</time></trkpt><trkpt lat="45.3555540908397" lon="11.900057360765713"><ele>6.999999999999999</ele><time>2026-03-22T12:02:38Z</time></trkpt><trkpt lat="45.35552655250563" lon="11.900188816913104"><ele>6.999999999999999</ele><time>2026-03-22T12:02:39Z</time></trkpt><trkpt lat="45.355496064307424" lon="11.90032874472558"><ele>7.0</ele><time>2026-03-22T12:02:40Z</time></trkpt><trkpt lat="45.35546474496469" lon="11.900472487155302"><ele>7.0</ele><time>2026-03-22T12:02:41Z</time></trkpt><trkpt lat="45.3554331034102" lon="11.90061656973939"><ele>7.0</ele><time>2026-03-22T12:02:42Z</time></trkpt><trkpt lat="45.35540245479871" lon="11.900749699673646"><ele>6.999999999999999</ele><time>2026-03-22T12:02:43Z</time></trkpt><trkpt lat="45.35537172170803" lon="11.900883196547296"><ele>6.999999999999999</ele><time>2026-03-22T12:02:44Z</time></trkpt><trkpt lat="45.35533728036883" lon="11.901032801130398"><ele>7.0</ele><time>2026-03-22T12:02:45Z</time></trkpt><trkpt lat="45.355303150023936" lon="11.901189105199048"><ele>7.0</ele><time>2026-03-22T12:02:46Z</time></trkpt><trkpt lat="45.35527743357962" lon="11.901334704366377"><ele>7.0</ele><time>2026-03-22T12:02:47Z</time></trkpt><trkpt lat="45.35525469688521" lon="11.901480528520517"><ele>6.999999999999999</ele><time>2026-03-22T12:02:48Z</time></trkpt><trkpt lat="45.35523322300902" lon="11.901622967998174"><ele>6.999999999999999</ele><time>2026-03-22T12:02:49Z</time></trkpt><trkpt lat="45.355206590631056" lon="11.901775817730806"><ele>7.0</ele><time>2026-03-22T12:02:50Z</time></trkpt><trkpt lat="45.35517772952875" lon="11.901937889174508"><ele>7.0</ele><time>2026-03-22T12:02:51Z</time></trkpt><trkpt lat="45.355150853373075" lon="11.902088813985607"><ele>7.0</ele><time>2026-03-22T12:02:52Z</time></trkpt><trkpt lat="45.35512654847507" lon="11.902229362534168"><ele>6.999999999999999</ele><time>2026-03-22T12:02:53Z</time></trkpt><trkpt lat="45.355102861225696" lon="11.902371606675457"><ele>6.999999999999999</ele><time>2026-03-22T12:02:54Z</time></trkpt><trkpt lat="45.35508079964349" lon="11.902519834218804"><ele>7.0</ele><time>2026-03-22T12:02:55Z</time></trkpt><trkpt lat="45.355057310808114" lon="11.902677651224671"><ele>7.0</ele><time>2026-03-22T12:02:56Z</time></trkpt><trkpt lat="45.35503356888017" lon="11.902833640880216"><ele>7.0</ele><time>2026-03-22T12:02:57Z</time></trkpt><trkpt lat="45.355008647072665" lon="11.902996723243659"><ele>7.0</ele><time>2026-03-22T12:02:58Z</time></trkpt><trkpt lat="45.354984280027864" lon="11.903154331791498"><ele>7.0</ele><time>2026-03-22T12:02:59Z</time></trkpt><trkpt lat="45.35496008478492" lon="11.903309829123254"><ele>7.0</ele><time>2026-03-22T12:03:00Z</time></trkpt><trkpt lat="45.354936795070465" lon="11.903459506824994"><ele>7.0</ele><time>2026-03-22T12:03:01Z</time></trkpt><trkpt lat="45.354914876645815" lon="11.903600371569699"><ele>6.999999999999999</ele><time>2026-03-22T12:03:02Z</time></trkpt><trkpt lat="45.35489398110269" lon="11.903734662469176"><ele>6.999999999999999</ele><time>2026-03-22T12:03:03Z</time></trkpt><trkpt lat="45.35487313531321" lon="11.90386863360798"><ele>7.0</ele><time>2026-03-22T12:03:04Z</time></trkpt><trkpt lat="45.35485181487532" lon="11.904005655216146"><ele>7.0</ele><time>2026-03-22T12:03:05Z</time></trkpt><trkpt lat="45.354831573912016" lon="11.904132536623528"><ele>6.8</ele><time>2026-03-22T12:03:06Z</time></trkpt><trkpt lat="45.3548101756517" lon="11.904266160609486"><ele>6.6</ele><time>2026-03-22T12:03:07Z</time></trkpt><trkpt lat="45.354787975027364" lon="11.90440479505967"><ele>6.3999999999999995</ele><time>2026-03-22T12:03:08Z</time></trkpt><trkpt lat="45.35476787417189" lon="11.904530317286207"><ele>6.199999999999999</ele><time>2026-03-22T12:03:09Z</time></trkpt><trkpt lat="45.35474599673531" lon="11.904666933553452"><ele>6.0</ele><time>2026-03-22T12:03:10Z</time></trkpt><trkpt lat="45.35472250796822" lon="11.904813611954555"><ele>6.199999999999999</ele><time>2026-03-22T12:03:11Z</time></trkpt><trkpt lat="45.35469894547836" lon="11.904959875492215"><ele>6.3999999999999995</ele><time>2026-03-22T12:03:12Z</time></trkpt><trkpt lat="45.35467464026027" lon="11.905109687564714"><ele>6.6</ele><time>2026-03-22T12:03:13Z</time></trkpt><trkpt lat="45.35464951817179" lon="11.905264534563177"><ele>6.8</ele><time>2026-03-22T12:03:14Z</time></trkpt><trkpt lat="45.35462434214624" lon="11.90541971407279"><ele>7.0</ele><time>2026-03-22T12:03:15Z</time></trkpt><trkpt lat="45.35459895345809" lon="11.905576204377624"><ele>7.0</ele><time>2026-03-22T12:03:16Z</time></trkpt><trkpt lat="45.35457502399229" lon="11.905723700365256"><ele>6.999999999999999</ele><time>2026-03-22T12:03:17Z</time></trkpt><trkpt lat="45.354552430787244" lon="11.905871755996431"><ele>6.999999999999999</ele><time>2026-03-22T12:03:18Z</time></trkpt><trkpt lat="45.35453119892058" lon="11.906024940006471"><ele>7.0</ele><time>2026-03-22T12:03:19Z</time></trkpt><trkpt lat="45.35451071890236" lon="11.90618088931121"><ele>7.0</ele><time>2026-03-22T12:03:20Z</time></trkpt><trkpt lat="45.35448741050632" lon="11.906330062672858"><ele>7.0</ele><time>2026-03-22T12:03:21Z</time></trkpt><trkpt lat="45.354458882643875" lon="11.906482301243779"><ele>6.999999999999999</ele><time>2026-03-22T12:03:22Z</time></trkpt><trkpt lat="45.35442988631268" lon="11.90662935060785"><ele>6.999999999999999</ele><time>2026-03-22T12:03:23Z</time></trkpt><trkpt lat="45.35440339684616" lon="11.90676400024487"><ele>7.0</ele><time>2026-03-22T12:03:24Z</time></trkpt><trkpt lat="45.35438052681311" lon="11.90688625243351"><ele>7.0</ele><time>2026-03-22T12:03:25Z</time></trkpt><trkpt lat="45.354359267773" lon="11.906999893091179"><ele>7.0</ele><time>2026-03-22T12:03:26Z</time></trkpt><trkpt lat="45.35434145480904" lon="11.907089431424312"><ele>6.999999999999999</ele><time>2026-03-22T12:03:27Z</time></trkpt><trkpt lat="45.35430575415363" lon="11.907229470274224"><ele>6.999999999999999</ele><time>2026-03-22T12:03:29Z</time></trkpt><trkpt lat="45.35425786185318" lon="11.907313661829892"><ele>7.0</ele><time>2026-03-22T12:03:31Z</time></trkpt><trkpt lat="45.35413418131562" lon="11.907274449020457"><ele>7.0</ele><time>2026-03-22T12:03:33Z</time></trkpt><trkpt lat="45.35402118311543" lon="11.907205698001784"><ele>7.0</ele><time>2026-03-22T12:03:34Z</time></trkpt><trkpt lat="45.35390520469568" lon="11.907147075079035"><ele>7.0</ele><time>2026-03-22T12:03:35Z</time></trkpt><trkpt lat="45.35378442717356" lon="11.907092847874416"><ele>7.0</ele><time>2026-03-22T12:03:36Z</time></trkpt><trkpt lat="45.353659350597624" lon="11.90703609728285"><ele>7.0</ele><time>2026-03-22T12:03:37Z</time></trkpt><trkpt lat="45.35354047214875" lon="11.906980054961663"><ele>6.75</ele><time>2026-03-22T12:03:38Z</time></trkpt><trkpt lat="45.35341975247064" lon="11.90692430259838"><ele>6.5</ele><time>2026-03-22T12:03:39Z</time></trkpt><trkpt lat="45.3533010764664" lon="11.906870430060119"><ele>6.25</ele><time>2026-03-22T12:03:40Z</time></trkpt><trkpt lat="45.353180971997084" lon="11.906814556640017"><ele>6.0</ele><time>2026-03-22T12:03:41Z</time></trkpt><trkpt lat="45.35306265656683" lon="11.90676024344424"><ele>6.0</ele><time>2026-03-22T12:03:42Z</time></trkpt><trkpt lat="45.35294205620131" lon="11.906700375017879"><ele>6.0</ele><time>2026-03-22T12:03:43Z</time></trkpt><trkpt lat="45.35282770851104" lon="11.906641596549923"><ele>6.0</ele><time>2026-03-22T12:03:44Z</time></trkpt><trkpt lat="45.3527108713116" lon="11.90658004313371"><ele>6.0</ele><time>2026-03-22T12:03:45Z</time></trkpt><trkpt lat="45.352596459790256" lon="11.906516524273124"><ele>6.0</ele><time>2026-03-22T12:03:46Z</time></trkpt><trkpt lat="45.352485284397424" lon="11.90645544427711"><ele>6.0</ele><time>2026-03-22T12:03:47Z</time></trkpt><trkpt lat="45.35237597404017" lon="11.906389403623116"><ele>6.0</ele><time>2026-03-22T12:03:48Z</time></trkpt><trkpt lat="45.352266189929836" lon="11.906321272530166"><ele>6.0</ele><time>2026-03-22T12:03:49Z</time></trkpt><trkpt lat="45.35214810188131" lon="11.906254246961502"><ele>6.199999999999999</ele><time>2026-03-22T12:03:50Z</time></trkpt><trkpt lat="45.35203710775839" lon="11.906193353001175"><ele>6.3999999999999995</ele><time>2026-03-22T12:03:51Z</time></trkpt><trkpt lat="45.35193998314245" lon="11.906132666667801"><ele>6.6</ele><time>2026-03-22T12:03:52Z</time></trkpt><trkpt lat="45.35186039203176" lon="11.906066369273493"><ele>6.8</ele><time>2026-03-22T12:03:53Z</time></trkpt><trkpt lat="45.35180053350929" lon="11.905996891283529"><ele>7.0</ele><time>2026-03-22T12:03:54Z</time></trkpt><trkpt lat="45.351752813510494" lon="11.905931032165071"><ele>7.0</ele><time>2026-03-22T12:03:55Z</time></trkpt><trkpt lat="45.351679586494214" lon="11.905858470248232"><ele>7.0</ele><time>2026-03-22T12:03:57Z</time></trkpt><trkpt lat="45.35149139034294" lon="11.90602184671952"><ele>7.0</ele><time>2026-03-22T12:04:00Z</time></trkpt><trkpt lat="45.35140419437765" lon="11.906122901401266"><ele>7.0</ele><time>2026-03-22T12:04:01Z</time></trkpt><trkpt lat="45.351287304832056" lon="11.906197174812364"><ele>6.666666666666667</ele><time>2026-03-22T12:04:02Z</time></trkpt><trkpt lat="45.35114837778855" lon="11.906240230885377"><ele>6.333333333333334</ele><time>2026-03-22T12:04:03Z</time></trkpt><trkpt lat="45.35098009750629" lon="11.906273941360821"><ele>6.0</ele><time>2026-03-22T12:04:04Z</time></trkpt><trkpt lat="45.35081811157392" lon="11.906311534801961"><ele>6.0</ele><time>2026-03-22T12:04:05Z</time></trkpt><trkpt lat="45.35066999074432" lon="11.90640528768458"><ele>6.0</ele><time>2026-03-22T12:04:06Z</time></trkpt><trkpt lat="45.35052333250328" lon="11.90652104700682"><ele>6.0</ele><time>2026-03-22T12:04:07Z</time></trkpt><trkpt lat="45.35036362662294" lon="11.906640860090587"><ele>6.666666666666666</ele><time>2026-03-22T12:04:08Z</time></trkpt><trkpt lat="45.35021001663072" lon="11.906782166704117"><ele>7.333333333333333</ele><time>2026-03-22T12:04:09Z</time></trkpt><trkpt lat="45.3500635158399" lon="11.906937975012639"><ele>8.0</ele><time>2026-03-22T12:04:10Z</time></trkpt><trkpt lat="45.34992359069302" lon="11.907138201532586"><ele>8.0</ele><time>2026-03-22T12:04:11Z</time></trkpt><trkpt lat="45.34983484096193" lon="11.907399566324303"><ele>8.0</ele><time>2026-03-22T12:04:12Z</time></trkpt><trkpt lat="45.34972238056976" lon="11.907638106818881"><ele>8.0</ele><time>2026-03-22T12:04:13Z</time></trkpt><trkpt lat="45.34961974649502" lon="11.907864596317737"><ele>7.666666666666666</ele><time>2026-03-22T12:04:14Z</time></trkpt><trkpt lat="45.34950897715818" lon="11.908053549612227"><ele>7.333333333333334</ele><time>2026-03-22T12:04:15Z</time></trkpt><trkpt lat="45.34936019086705" lon="11.90815877522241"><ele>7.0</ele><time>2026-03-22T12:04:16Z</time></trkpt><trkpt lat="45.349214172477" lon="11.90830408378892"><ele>7.0</ele><time>2026-03-22T12:04:17Z</time></trkpt><trkpt lat="45.34906202828036" lon="11.90845170042134"><ele>7.0</ele><time>2026-03-22T12:04:18Z</time></trkpt><trkpt lat="45.34892474498666" lon="11.908591810581097"><ele>7.0</ele><time>2026-03-22T12:04:19Z</time></trkpt><trkpt lat="45.34879205747828" lon="11.908729639205921"><ele>7.0</ele><time>2026-03-22T12:04:20Z</time></trkpt><trkpt lat="45.348673676635094" lon="11.908874178148395"><ele>7.0</ele><time>2026-03-22T12:04:21Z</time></trkpt><trkpt lat="45.3485705584856" lon="11.909048696953558"><ele>7.0</ele><time>2026-03-22T12:04:22Z</time></trkpt><trkpt lat="45.34849479052924" lon="11.909248385136806"><ele>7.0</ele><time>2026-03-22T12:04:23Z</time></trkpt><trkpt lat="45.3484186042093" lon="11.909434655427416"><ele>7.0</ele><time>2026-03-22T12:04:24Z</time></trkpt><trkpt lat="45.34832666111911" lon="11.90956754810937"><ele>7.0</ele><time>2026-03-22T12:04:25Z</time></trkpt><trkpt lat="45.348219799720724" lon="11.909665825376427"><ele>7.0</ele><time>2026-03-22T12:04:26Z</time></trkpt><trkpt lat="45.3480881794775" lon="11.909761023947294"><ele>7.0</ele><time>2026-03-22T12:04:27Z</time></trkpt><trkpt lat="45.347934801538955" lon="11.909872384552418"><ele>7.0</ele><time>2026-03-22T12:04:28Z</time></trkpt><trkpt lat="45.34776278010551" lon="11.909997281405394"><ele>7.0</ele><time>2026-03-22T12:04:29Z</time></trkpt><trkpt lat="45.34757819622469" lon="11.910149250435827"><ele>7.0</ele><time>2026-03-22T12:04:30Z</time></trkpt><trkpt lat="45.34739245340411" lon="11.910316456279313"><ele>7.0</ele><time>2026-03-22T12:04:31Z</time></trkpt><trkpt lat="45.34722262813876" lon="11.910483249808566"><ele>7.0</ele><time>2026-03-22T12:04:32Z</time></trkpt><trkpt lat="45.34707959808633" lon="11.910625437950477"><ele>7.5</ele><time>2026-03-22T12:04:33Z</time></trkpt><trkpt lat="45.34695690670647" lon="11.910747813473481"><ele>8.0</ele><time>2026-03-22T12:04:34Z</time></trkpt><trkpt lat="45.34683513451677" lon="11.91087031384642"><ele>8.5</ele><time>2026-03-22T12:04:35Z</time></trkpt><trkpt lat="45.34672623273439" lon="11.910978779321082"><ele>9.0</ele><time>2026-03-22T12:04:36Z</time></trkpt><trkpt lat="45.34663040855458" lon="11.911092119251022"><ele>9.0</ele><time>2026-03-22T12:04:37Z</time></trkpt><trkpt lat="45.346552555677754" lon="11.911238314381244"><ele>9.0</ele><time>2026-03-22T12:04:38Z</time></trkpt><trkpt lat="45.34649502359775" lon="11.911413846373067"><ele>9.0</ele><time>2026-03-22T12:04:39Z</time></trkpt><trkpt lat="45.34646742949256" lon="11.911614683000613"><ele>9.0</ele><time>2026-03-22T12:04:40Z</time></trkpt><trkpt lat="45.34647737315755" lon="11.911826778262483"><ele>8.333333333333334</ele><time>2026-03-22T12:04:41Z</time></trkpt><trkpt lat="45.346498370882244" lon="11.912050003322959"><ele>7.666666666666667</ele><time>2026-03-22T12:04:42Z</time></trkpt><trkpt lat="45.34652533052044" lon="11.912309891195163"><ele>7.0</ele><time>2026-03-22T12:04:43Z</time></trkpt><trkpt lat="45.346554501054015" lon="11.912591091864462"><ele>7.0</ele><time>2026-03-22T12:04:44Z</time></trkpt><trkpt lat="45.34658600361384" lon="11.912898927608563"><ele>7.0</ele><time>2026-03-22T12:04:45Z</time></trkpt><trkpt lat="45.34661899261004" lon="11.913221981348242"><ele>7.0</ele><time>2026-03-22T12:04:46Z</time></trkpt><trkpt lat="45.34665025916599" lon="11.91353473032797"><ele>7.0</ele><time>2026-03-22T12:04:47Z</time></trkpt><trkpt lat="45.346675362806955" lon="11.913816446108726"><ele>7.0</ele><time>2026-03-22T12:04:48Z</time></trkpt><trkpt lat="45.3466830541416" lon="11.914078761813517"><ele>7.0</ele><time>2026-03-22T12:04:49Z</time></trkpt><trkpt lat="45.34665820186846" lon="11.914338861174231"><ele>7.0</ele><time>2026-03-22T12:04:50Z</time></trkpt><trkpt lat="45.34662908551993" lon="11.914609785535127"><ele>7.0</ele><time>2026-03-22T12:04:51Z</time></trkpt><trkpt lat="45.34659746228845" lon="11.914898899238038"><ele>7.0</ele><time>2026-03-22T12:04:52Z</time></trkpt><trkpt lat="45.34656542937367" lon="11.915191758483058"><ele>6.666666666666667</ele><time>2026-03-22T12:04:53Z</time></trkpt><trkpt lat="45.34653383918143" lon="11.915480664704123"><ele>6.333333333333334</ele><time>2026-03-22T12:04:54Z</time></trkpt><trkpt lat="45.34649688101183" lon="11.915771482332623"><ele>6.0</ele><time>2026-03-22T12:04:55Z</time></trkpt><trkpt lat="45.34644952199863" lon="11.916067678501777"><ele>6.0</ele><time>2026-03-22T12:04:56Z</time></trkpt><trkpt lat="45.34640147772256" lon="11.91635951104116"><ele>6.0</ele><time>2026-03-22T12:04:57Z</time></trkpt><trkpt lat="45.34635099758147" lon="11.916666294120176"><ele>6.0</ele><time>2026-03-22T12:04:58Z</time></trkpt><trkpt lat="45.346299111764424" lon="11.916965022481744"><ele>5.666666666666667</ele><time>2026-03-22T12:04:59Z</time></trkpt><trkpt lat="45.34624397737773" lon="11.917264013023772"><ele>5.333333333333334</ele><time>2026-03-22T12:05:00Z</time></trkpt><trkpt lat="45.34618976445078" lon="11.917555550003321"><ele>5.0</ele><time>2026-03-22T12:05:01Z</time></trkpt><trkpt lat="45.346132655652575" lon="11.917849467736973"><ele>5.0</ele><time>2026-03-22T12:05:02Z</time></trkpt><trkpt lat="45.34607614199632" lon="11.918141667813009"><ele>5.0</ele><time>2026-03-22T12:05:03Z</time></trkpt><trkpt lat="45.34601907971158" lon="11.918436242887058"><ele>5.0</ele><time>2026-03-22T12:05:04Z</time></trkpt><trkpt lat="45.34595973576901" lon="11.91873734168736"><ele>5.0</ele><time>2026-03-22T12:05:05Z</time></trkpt><trkpt lat="45.34590146204137" lon="11.919032271991556"><ele>5.0</ele><time>2026-03-22T12:05:06Z</time></trkpt><trkpt lat="45.34584761623508" lon="11.919299225721247"><ele>5.0</ele><time>2026-03-22T12:05:07Z</time></trkpt><trkpt lat="45.345796291303564" lon="11.91954992620142"><ele>5.0</ele><time>2026-03-22T12:05:08Z</time></trkpt><trkpt lat="45.34573829481982" lon="11.919830846173221"><ele>5.0</ele><time>2026-03-22T12:05:09Z</time></trkpt><trkpt lat="45.345675212939916" lon="11.92013619032831"><ele>5.0</ele><time>2026-03-22T12:05:10Z</time></trkpt><trkpt lat="45.345608640437696" lon="11.920456620070636"><ele>5.0</ele><time>2026-03-22T12:05:11Z</time></trkpt><trkpt lat="45.34553506327931" lon="11.920800691705027"><ele>5.0</ele><time>2026-03-22T12:05:12Z</time></trkpt><trkpt lat="45.345460692790894" lon="11.921146560957503"><ele>5.0</ele><time>2026-03-22T12:05:13Z</time></trkpt><trkpt lat="45.34538521627377" lon="11.921482827904825"><ele>5.0</ele><time>2026-03-22T12:05:14Z</time></trkpt><trkpt lat="45.34530198578576" lon="11.921819143716936"><ele>5.5</ele><time>2026-03-22T12:05:15Z</time></trkpt><trkpt lat="45.34520981786898" lon="11.922170038537924"><ele>6.0</ele><time>2026-03-22T12:05:16Z</time></trkpt><trkpt lat="45.34512762760276" lon="11.922525259229715"><ele>6.5</ele><time>2026-03-22T12:05:17Z</time></trkpt><trkpt lat="45.34506129033699" lon="11.922887388951663"><ele>7.0</ele><time>2026-03-22T12:05:18Z</time></trkpt><trkpt lat="45.34499639621123" lon="11.923248096961231"><ele>7.0</ele><time>2026-03-22T12:05:19Z</time></trkpt><trkpt lat="45.344934163439085" lon="11.92361059017305"><ele>7.0</ele><time>2026-03-22T12:05:20Z</time></trkpt><trkpt lat="45.344871681659534" lon="11.923980004811797"><ele>7.0</ele><time>2026-03-22T12:05:21Z</time></trkpt><trkpt lat="45.34481208532162" lon="11.924339294975466"><ele>7.0</ele><time>2026-03-22T12:05:22Z</time></trkpt><trkpt lat="45.344757199541576" lon="11.924670378433817"><ele>6.333333333333334</ele><time>2026-03-22T12:05:23Z</time></trkpt><trkpt lat="45.3447044031924" lon="11.924983218668855"><ele>5.666666666666667</ele><time>2026-03-22T12:05:24Z</time></trkpt><trkpt lat="45.34465484092034" lon="11.925280031232477"><ele>5.0</ele><time>2026-03-22T12:05:25Z</time></trkpt><trkpt lat="45.3446071638983" lon="11.925581787347031"><ele>5.0</ele><time>2026-03-22T12:05:26Z</time></trkpt><trkpt lat="45.34457063864829" lon="11.925889723065028"><ele>5.0</ele><time>2026-03-22T12:05:27Z</time></trkpt><trkpt lat="45.34455155446568" lon="11.926204096985883"><ele>5.0</ele><time>2026-03-22T12:05:28Z</time></trkpt><trkpt lat="45.34455853640702" lon="11.92652955814456"><ele>5.333333333333334</ele><time>2026-03-22T12:05:29Z</time></trkpt><trkpt lat="45.34457829895886" lon="11.926850010573686"><ele>5.666666666666667</ele><time>2026-03-22T12:05:30Z</time></trkpt><trkpt lat="45.34460352241149" lon="11.927141048991608"><ele>6.0</ele><time>2026-03-22T12:05:31Z</time></trkpt><trkpt lat="45.344627437506254" lon="11.927397840675203"><ele>5.75</ele><time>2026-03-22T12:05:32Z</time></trkpt><trkpt lat="45.34464792799592" lon="11.927629740074414"><ele>5.5</ele><time>2026-03-22T12:05:33Z</time></trkpt><trkpt lat="45.34465445412512" lon="11.92784256115186"><ele>5.25</ele><time>2026-03-22T12:05:34Z</time></trkpt><trkpt lat="45.34464711593149" lon="11.92801546366128"><ele>5.0</ele><time>2026-03-22T12:05:35Z</time></trkpt><trkpt lat="45.34461966723118" lon="11.928164963763866"><ele>5.0</ele><time>2026-03-22T12:05:36Z</time></trkpt><trkpt lat="45.34459814584112" lon="11.928295236072032"><ele>5.0</ele><time>2026-03-22T12:05:37Z</time></trkpt><trkpt lat="45.34458030912679" lon="11.928403205479322"><ele>5.0</ele><time>2026-03-22T12:05:38Z</time></trkpt><trkpt lat="45.34454291654426" lon="11.928513507466226"><ele>5.0</ele><time>2026-03-22T12:05:39Z</time></trkpt><trkpt lat="45.344653891052786" lon="11.928613114546287"><ele>5.0</ele><time>2026-03-22T12:05:40Z</time></trkpt><trkpt lat="45.3447313599838" lon="11.928719775220708"><ele>5.0</ele><time>2026-03-22T12:05:41Z</time></trkpt><trkpt lat="45.34479365543794" lon="11.92885313366632"><ele>5.0</ele><time>2026-03-22T12:05:42Z</time></trkpt><trkpt lat="45.34483984511378" lon="11.92902588787066"><ele>5.0</ele><time>2026-03-22T12:05:43Z</time></trkpt><trkpt lat="45.344808982269136" lon="11.929234378919563"><ele>5.0</ele><time>2026-03-22T12:05:44Z</time></trkpt><trkpt lat="45.344831346340094" lon="11.929457232306232"><ele>5.0</ele><time>2026-03-22T12:05:45Z</time></trkpt><trkpt lat="45.34485543014283" lon="11.929702695836943"><ele>5.0</ele><time>2026-03-22T12:05:46Z</time></trkpt><trkpt lat="45.3448827363505" lon="11.929984728652688"><ele>5.0</ele><time>2026-03-22T12:05:47Z</time></trkpt><trkpt lat="45.34491011796281" lon="11.930291104725812"><ele>5.0</ele><time>2026-03-22T12:05:48Z</time></trkpt><trkpt lat="45.344942941353516" lon="11.930623532365694"><ele>5.0</ele><time>2026-03-22T12:05:49Z</time></trkpt><trkpt lat="45.3449763571403" lon="11.930981744677052"><ele>5.0</ele><time>2026-03-22T12:05:50Z</time></trkpt><trkpt lat="45.34500524047363" lon="11.931300388947431"><ele>5.0</ele><time>2026-03-22T12:05:51Z</time></trkpt><trkpt lat="45.34503008941518" lon="11.931574528183146"><ele>5.0</ele><time>2026-03-22T12:05:52Z</time></trkpt><trkpt lat="45.34505281985547" lon="11.931825295628439"><ele>5.0</ele><time>2026-03-22T12:05:53Z</time></trkpt><trkpt lat="45.345076392706716" lon="11.932056550259912"><ele>5.0</ele><time>2026-03-22T12:05:54Z</time></trkpt><trkpt lat="45.34514425718042" lon="11.932260007049882"><ele>5.0</ele><time>2026-03-22T12:05:55Z</time></trkpt><trkpt lat="45.34515598270544" lon="11.932441396286285"><ele>5.0</ele><time>2026-03-22T12:05:56Z</time></trkpt><trkpt lat="45.34516361109567" lon="11.932616891477911"><ele>5.0</ele><time>2026-03-22T12:05:57Z</time></trkpt><trkpt lat="45.3451687262191" lon="11.932768799429843"><ele>5.0</ele><time>2026-03-22T12:05:58Z</time></trkpt><trkpt lat="45.34517034561095" lon="11.9329007284991"><ele>5.0</ele><time>2026-03-22T12:05:59Z</time></trkpt><trkpt lat="45.345171826254294" lon="11.933022298889618"><ele>5.0</ele><time>2026-03-22T12:06:00Z</time></trkpt><trkpt lat="45.345182014094554" lon="11.933144622042686"><ele>5.0</ele><time>2026-03-22T12:06:01Z</time></trkpt><trkpt lat="45.34519514677395" lon="11.933272401875117"><ele>5.0</ele><time>2026-03-22T12:06:02Z</time></trkpt><trkpt lat="45.345211381439164" lon="11.933398945227394"><ele>5.0</ele><time>2026-03-22T12:06:03Z</time></trkpt><trkpt lat="45.34524604135912" lon="11.933562320859135"><ele>5.0</ele><time>2026-03-22T12:06:04Z</time></trkpt><trkpt lat="45.345295255929834" lon="11.933780129863816"><ele>5.666666666666667</ele><time>2026-03-22T12:06:05Z</time></trkpt><trkpt lat="45.34533300611128" lon="11.93403965137304"><ele>6.333333333333334</ele><time>2026-03-22T12:06:06Z</time></trkpt><trkpt lat="45.34535918489451" lon="11.934301886174243"><ele>7.0</ele><time>2026-03-22T12:06:07Z</time></trkpt><trkpt lat="45.345396653475994" lon="11.934598938707728"><ele>6.5</ele><time>2026-03-22T12:06:08Z</time></trkpt><trkpt lat="45.345446058108486" lon="11.93492351228158"><ele>6.0</ele><time>2026-03-22T12:06:09Z</time></trkpt><trkpt lat="45.345494756552824" lon="11.935278829121245"><ele>6.0</ele><time>2026-03-22T12:06:10Z</time></trkpt><trkpt lat="45.3455437385608" lon="11.935658867190295"><ele>6.0</ele><time>2026-03-22T12:06:11Z</time></trkpt><trkpt lat="45.34558456010432" lon="11.935990365632238"><ele>6.0</ele><time>2026-03-22T12:06:12Z</time></trkpt><trkpt lat="45.34561919406649" lon="11.936284119552996"><ele>6.0</ele><time>2026-03-22T12:06:13Z</time></trkpt><trkpt lat="45.34566143807115" lon="11.936572482445362"><ele>6.0</ele><time>2026-03-22T12:06:14Z</time></trkpt><trkpt lat="45.34570353405862" lon="11.93683819545354"><ele>6.0</ele><time>2026-03-22T12:06:15Z</time></trkpt><trkpt lat="45.34573813328795" lon="11.937079982877226"><ele>6.0</ele><time>2026-03-22T12:06:16Z</time></trkpt><trkpt lat="45.34576573351171" lon="11.937295196096235"><ele>6.0</ele><time>2026-03-22T12:06:17Z</time></trkpt><trkpt lat="45.34579527493959" lon="11.937492600298937"><ele>5.75</ele><time>2026-03-22T12:06:18Z</time></trkpt><trkpt lat="45.345826278558924" lon="11.93766315866885"><ele>5.5</ele><time>2026-03-22T12:06:19Z</time></trkpt><trkpt lat="45.345854327784814" lon="11.9378293317612"><ele>5.25</ele><time>2026-03-22T12:06:20Z</time></trkpt><trkpt lat="45.34587166044939" lon="11.937975341235276"><ele>5.0</ele><time>2026-03-22T12:06:21Z</time></trkpt><trkpt lat="45.34588849625866" lon="11.938120597061097"><ele>5.0</ele><time>2026-03-22T12:06:22Z</time></trkpt><trkpt lat="45.34590846001576" lon="11.938253095858766"><ele>5.0</ele><time>2026-03-22T12:06:23Z</time></trkpt><trkpt lat="45.34592419815452" lon="11.938360175417102"><ele>5.0</ele><time>2026-03-22T12:06:24Z</time></trkpt><trkpt lat="45.345891941637454" lon="11.938499028674519"><ele>5.0</ele><time>2026-03-22T12:06:26Z</time></trkpt><trkpt lat="45.34582293161631" lon="11.938545190684607"><ele>5.0</ele><time>2026-03-22T12:06:27Z</time></trkpt><trkpt lat="45.345720989942244" lon="11.938590336721461"><ele>5.333333333333334</ele><time>2026-03-22T12:06:28Z</time></trkpt><trkpt lat="45.34558930400098" lon="11.93865530933488"><ele>5.666666666666667</ele><time>2026-03-22T12:06:29Z</time></trkpt><trkpt lat="45.34543743142722" lon="11.938753251418422"><ele>6.0</ele><time>2026-03-22T12:06:30Z</time></trkpt><trkpt lat="45.345277682077594" lon="11.938860880405983"><ele>6.0</ele><time>2026-03-22T12:06:31Z</time></trkpt><trkpt lat="45.34510437139563" lon="11.93897785930029"><ele>6.0</ele><time>2026-03-22T12:06:32Z</time></trkpt><trkpt lat="45.344917075962414" lon="11.939079305833289"><ele>6.0</ele><time>2026-03-22T12:06:33Z</time></trkpt><trkpt lat="45.344754834399566" lon="11.93913641300278"><ele>6.0</ele><time>2026-03-22T12:06:34Z</time></trkpt><trkpt lat="45.344605306827674" lon="11.939153443154797"><ele>6.0</ele><time>2026-03-22T12:06:35Z</time></trkpt><trkpt lat="45.34445890762514" lon="11.939157418600374"><ele>6.0</ele><time>2026-03-22T12:06:36Z</time></trkpt><trkpt lat="45.34431479187358" lon="11.939171900748986"><ele>6.0</ele><time>2026-03-22T12:06:37Z</time></trkpt><trkpt lat="45.34419099499734" lon="11.93919938261173"><ele>6.166666666666667</ele><time>2026-03-22T12:06:38Z</time></trkpt><trkpt lat="45.344085587899045" lon="11.939234105608893"><ele>6.333333333333334</ele><time>2026-03-22T12:06:39Z</time></trkpt><trkpt lat="45.344008456827815" lon="11.939266174610935"><ele>6.5</ele><time>2026-03-22T12:06:40Z</time></trkpt><trkpt lat="45.343950855005204" lon="11.939312111760326"><ele>6.666666666666667</ele><time>2026-03-22T12:06:41Z</time></trkpt><trkpt lat="45.343918913814015" lon="11.939393667706199"><ele>6.833333333333334</ele><time>2026-03-22T12:06:42Z</time></trkpt><trkpt lat="45.34392355871154" lon="11.939514637570179"><ele>7.0</ele><time>2026-03-22T12:06:43Z</time></trkpt><trkpt lat="45.343941452200355" lon="11.939682599860836"><ele>7.0</ele><time>2026-03-22T12:06:44Z</time></trkpt><trkpt lat="45.343901905531624" lon="11.939896497715504"><ele>7.0</ele><time>2026-03-22T12:06:45Z</time></trkpt><trkpt lat="45.343898010453955" lon="11.94012124405213"><ele>7.0</ele><time>2026-03-22T12:06:46Z</time></trkpt><trkpt lat="45.34389132270934" lon="11.940362312786581"><ele>6.666666666666667</ele><time>2026-03-22T12:06:47Z</time></trkpt><trkpt lat="45.34387792171253" lon="11.940628517961475"><ele>6.333333333333334</ele><time>2026-03-22T12:06:48Z</time></trkpt><trkpt lat="45.34385126990734" lon="11.940909870529714"><ele>6.0</ele><time>2026-03-22T12:06:49Z</time></trkpt><trkpt lat="45.34381993442563" lon="11.941191029704083"><ele>6.0</ele><time>2026-03-22T12:06:50Z</time></trkpt><trkpt lat="45.34378953470463" lon="11.941490723205867"><ele>6.0</ele><time>2026-03-22T12:06:51Z</time></trkpt><trkpt lat="45.34376179040448" lon="11.941811673951204"><ele>6.0</ele><time>2026-03-22T12:06:52Z</time></trkpt><trkpt lat="45.34374026214543" lon="11.942154593646494"><ele>5.5</ele><time>2026-03-22T12:06:53Z</time></trkpt><trkpt lat="45.343728702226315" lon="11.94250198239274"><ele>5.0</ele><time>2026-03-22T12:06:54Z</time></trkpt><trkpt lat="45.343720942960196" lon="11.942832620624932"><ele>5.0</ele><time>2026-03-22T12:06:55Z</time></trkpt><trkpt lat="45.34369711185802" lon="11.943162884699253"><ele>5.0</ele><time>2026-03-22T12:06:56Z</time></trkpt><trkpt lat="45.34366651089432" lon="11.943498047476508"><ele>5.0</ele><time>2026-03-22T12:06:57Z</time></trkpt><trkpt lat="45.343642400909175" lon="11.943836523128649"><ele>5.0</ele><time>2026-03-22T12:06:58Z</time></trkpt><trkpt lat="45.34363326059885" lon="11.944167742705142"><ele>5.5</ele><time>2026-03-22T12:06:59Z</time></trkpt><trkpt lat="45.34363017072066" lon="11.944501254477414"><ele>6.0</ele><time>2026-03-22T12:07:00Z</time></trkpt><trkpt lat="45.343628205105716" lon="11.944815329429552"><ele>6.0</ele><time>2026-03-22T12:07:01Z</time></trkpt><trkpt lat="45.343624726802155" lon="11.945114111781173"><ele>6.0</ele><time>2026-03-22T12:07:02Z</time></trkpt><trkpt lat="45.34361933906117" lon="11.945409347922473"><ele>6.0</ele><time>2026-03-22T12:07:03Z</time></trkpt><trkpt lat="45.34360458592502" lon="11.945696390126185"><ele>6.0</ele><time>2026-03-22T12:07:04Z</time></trkpt><trkpt lat="45.3435796861956" lon="11.94596319371798"><ele>6.0</ele><time>2026-03-22T12:07:05Z</time></trkpt><trkpt lat="45.34355059234235" lon="11.946203335073196"><ele>6.0</ele><time>2026-03-22T12:07:06Z</time></trkpt><trkpt lat="45.343519583332636" lon="11.946428415004934"><ele>6.0</ele><time>2026-03-22T12:07:07Z</time></trkpt><trkpt lat="45.34348926173695" lon="11.946633130882839"><ele>6.0</ele><time>2026-03-22T12:07:08Z</time></trkpt><trkpt lat="45.3434607011049" lon="11.946821719495238"><ele>6.0</ele><time>2026-03-22T12:07:09Z</time></trkpt><trkpt lat="45.34343367864413" lon="11.94700015140025"><ele>6.0</ele><time>2026-03-22T12:07:10Z</time></trkpt><trkpt lat="45.343412252655824" lon="11.947168619407503"><ele>5.8</ele><time>2026-03-22T12:07:11Z</time></trkpt><trkpt lat="45.34339767038747" lon="11.947329323416138"><ele>5.6</ele><time>2026-03-22T12:07:12Z</time></trkpt><trkpt lat="45.34338841390203" lon="11.947479467965703"><ele>5.4</ele><time>2026-03-22T12:07:13Z</time></trkpt><trkpt lat="45.34339556922186" lon="11.947615475385948"><ele>5.2</ele><time>2026-03-22T12:07:14Z</time></trkpt><trkpt lat="45.34342772199747" lon="11.947740912345607"><ele>5.0</ele><time>2026-03-22T12:07:15Z</time></trkpt><trkpt lat="45.34347600418318" lon="11.947879741072976"><ele>5.0</ele><time>2026-03-22T12:07:16Z</time></trkpt><trkpt lat="45.34351632012337" lon="11.948036753014074"><ele>5.0</ele><time>2026-03-22T12:07:17Z</time></trkpt><trkpt lat="45.34354240210339" lon="11.948187584698331"><ele>5.0</ele><time>2026-03-22T12:07:18Z</time></trkpt><trkpt lat="45.343551937099605" lon="11.948339555916567"><ele>5.0</ele><time>2026-03-22T12:07:19Z</time></trkpt><trkpt lat="45.343550504104826" lon="11.948521495444995"><ele>4.666666666666667</ele><time>2026-03-22T12:07:20Z</time></trkpt><trkpt lat="45.34354107191823" lon="11.948727710875666"><ele>4.333333333333333</ele><time>2026-03-22T12:07:21Z</time></trkpt><trkpt lat="45.34352467790735" lon="11.948946811312942"><ele>4.0</ele><time>2026-03-22T12:07:22Z</time></trkpt><trkpt lat="45.343501734078195" lon="11.94918031216592"><ele>4.0</ele><time>2026-03-22T12:07:23Z</time></trkpt><trkpt lat="45.34347415009" lon="11.94941772628649"><ele>4.0</ele><time>2026-03-22T12:07:24Z</time></trkpt><trkpt lat="45.34344507109592" lon="11.949667210453097"><ele>4.0</ele><time>2026-03-22T12:07:25Z</time></trkpt><trkpt lat="45.34341107524324" lon="11.94993338472685"><ele>3.333333333333333</ele><time>2026-03-22T12:07:26Z</time></trkpt><trkpt lat="45.34337811038263" lon="11.950191486556463"><ele>2.6666666666666665</ele><time>2026-03-22T12:07:27Z</time></trkpt><trkpt lat="45.34334109603103" lon="11.950442878975714"><ele>2.0</ele><time>2026-03-22T12:07:28Z</time></trkpt><trkpt lat="45.34330664347772" lon="11.950700064887116"><ele>2.0</ele><time>2026-03-22T12:07:29Z</time></trkpt><trkpt lat="45.34329102055331" lon="11.950973511903213"><ele>2.0</ele><time>2026-03-22T12:07:30Z</time></trkpt><trkpt lat="45.34331428262302" lon="11.951264397878989"><ele>2.0</ele><time>2026-03-22T12:07:31.001Z</time></trkpt><trkpt lat="45.34336026931534" lon="11.951550811015716"><ele>2.0</ele><time>2026-03-22T12:07:32.001Z</time></trkpt><trkpt lat="45.34340609509333" lon="11.95184768195744"><ele>2.0</ele><time>2026-03-22T12:07:33.001Z</time></trkpt><trkpt lat="45.34343476025349" lon="11.952159832503934"><ele>2.0</ele><time>2026-03-22T12:07:34.001Z</time></trkpt><trkpt lat="45.34344022817951" lon="11.952464366180074"><ele>3.0</ele><time>2026-03-22T12:07:35.001Z</time></trkpt><trkpt lat="45.343443493788754" lon="11.952790043442649"><ele>4.0</ele><time>2026-03-22T12:07:36.001Z</time></trkpt><trkpt lat="45.34344712154026" lon="11.953157985874881"><ele>4.0</ele><time>2026-03-22T12:07:37.001Z</time></trkpt><trkpt lat="45.34344683383186" lon="11.953543889157338"><ele>4.0</ele><time>2026-03-22T12:07:38.001Z</time></trkpt><trkpt lat="45.343429157722646" lon="11.953875020841787"><ele>4.0</ele><time>2026-03-22T12:07:39Z</time></trkpt><trkpt lat="45.343409243584986" lon="11.954176435906929"><ele>4.0</ele><time>2026-03-22T12:07:40Z</time></trkpt><trkpt lat="45.34340109062963" lon="11.954468270018065"><ele>4.0</ele><time>2026-03-22T12:07:41Z</time></trkpt><trkpt lat="45.343395357033444" lon="11.954731371189476"><ele>4.666666666666666</ele><time>2026-03-22T12:07:42Z</time></trkpt><trkpt lat="45.343383312156256" lon="11.954971497016345"><ele>5.333333333333333</ele><time>2026-03-22T12:07:43Z</time></trkpt><trkpt lat="45.34334886691929" lon="11.955183136813783"><ele>6.0</ele><time>2026-03-22T12:07:44Z</time></trkpt><trkpt lat="45.34329485564154" lon="11.955401386330092"><ele>6.25</ele><time>2026-03-22T12:07:45Z</time></trkpt><trkpt lat="45.34323686792016" lon="11.955600944634096"><ele>6.5</ele><time>2026-03-22T12:07:46Z</time></trkpt><trkpt lat="45.34320225640746" lon="11.95578282579469"><ele>6.75</ele><time>2026-03-22T12:07:47Z</time></trkpt><trkpt lat="45.3431792399039" lon="11.955961293187942"><ele>7.0</ele><time>2026-03-22T12:07:48Z</time></trkpt><trkpt lat="45.343170271490465" lon="11.956147853333182"><ele>7.0</ele><time>2026-03-22T12:07:49Z</time></trkpt><trkpt lat="45.34315846376829" lon="11.956333492625209"><ele>7.0</ele><time>2026-03-22T12:07:50Z</time></trkpt><trkpt lat="45.343149858033975" lon="11.95650284329245"><ele>7.0</ele><time>2026-03-22T12:07:51Z</time></trkpt><trkpt lat="45.34315451536321" lon="11.956663287564922"><ele>7.0</ele><time>2026-03-22T12:07:52Z</time></trkpt><trkpt lat="45.34317924498829" lon="11.956807438881631"><ele>7.000000000000001</ele><time>2026-03-22T12:07:53Z</time></trkpt><trkpt lat="45.34321153511378" lon="11.956923934596986"><ele>7.0</ele><time>2026-03-22T12:07:54Z</time></trkpt><trkpt lat="45.343196142422705" lon="11.957024744851156"><ele>7.0</ele><time>2026-03-22T12:07:55Z</time></trkpt><trkpt lat="45.34320454053708" lon="11.95712683852524"><ele>7.0</ele><time>2026-03-22T12:07:56Z</time></trkpt><trkpt lat="45.34326197951877" lon="11.957192699101125"><ele>7.000000000000001</ele><time>2026-03-22T12:07:57Z</time></trkpt><trkpt lat="45.343334650384904" lon="11.957279827841747"><ele>7.0</ele><time>2026-03-22T12:07:58Z</time></trkpt><trkpt lat="45.34347653033791" lon="11.957218921474173"><ele>7.0</ele><time>2026-03-22T12:07:59Z</time></trkpt><trkpt lat="45.34361060396581" lon="11.957201476991816"><ele>7.0</ele><time>2026-03-22T12:08:00Z</time></trkpt><trkpt lat="45.34375982674639" lon="11.957331220766207"><ele>7.0</ele><time>2026-03-22T12:08:01Z</time></trkpt><trkpt lat="45.34391267733861" lon="11.957396307558165"><ele>7.333333333333334</ele><time>2026-03-22T12:08:02Z</time></trkpt><trkpt lat="45.344094718424486" lon="11.957451610301568"><ele>7.666666666666666</ele><time>2026-03-22T12:08:03Z</time></trkpt><trkpt lat="45.3442876908522" lon="11.957510095046663"><ele>8.0</ele><time>2026-03-22T12:08:04Z</time></trkpt><trkpt lat="45.34445441581715" lon="11.957581212981813"><ele>8.0</ele><time>2026-03-22T12:08:05Z</time></trkpt><trkpt lat="45.34459868487693" lon="11.957651324991973"><ele>8.0</ele><time>2026-03-22T12:08:06Z</time></trkpt><trkpt lat="45.34472494213348" lon="11.957731808590774"><ele>8.0</ele><time>2026-03-22T12:08:07Z</time></trkpt><trkpt lat="45.34483769099421" lon="11.957813773657708"><ele>8.0</ele><time>2026-03-22T12:08:08Z</time></trkpt><trkpt lat="45.34492660819008" lon="11.957928986333963"><ele>7.800000000000001</ele><time>2026-03-22T12:08:09Z</time></trkpt><trkpt lat="45.34501475977338" lon="11.95802055011039"><ele>7.6000000000000005</ele><time>2026-03-22T12:08:10Z</time></trkpt><trkpt lat="45.34507819722418" lon="11.95812740743974"><ele>7.3999999999999995</ele><time>2026-03-22T12:08:11Z</time></trkpt><trkpt lat="45.34514013584487" lon="11.95822484459805"><ele>7.199999999999999</ele><time>2026-03-22T12:08:12Z</time></trkpt><trkpt lat="45.34513453509506" lon="11.958372432445245"><ele>7.0</ele><time>2026-03-22T12:08:13Z</time></trkpt><trkpt lat="45.34517381951206" lon="11.958484948041981"><ele>7.0</ele><time>2026-03-22T12:08:14Z</time></trkpt><trkpt lat="45.345277280614305" lon="11.958528579683554"><ele>7.0</ele><time>2026-03-22T12:08:15Z</time></trkpt><trkpt lat="45.34538459714097" lon="11.958567387506784"><ele>7.0</ele><time>2026-03-22T12:08:16Z</time></trkpt><trkpt lat="45.345506421994706" lon="11.958636190587045"><ele>7.0</ele><time>2026-03-22T12:08:17Z</time></trkpt><trkpt lat="45.34561955474454" lon="11.958758369574134"><ele>6.666666666666667</ele><time>2026-03-22T12:08:18Z</time></trkpt><trkpt lat="45.345731739743805" lon="11.958914688516973"><ele>6.333333333333334</ele><time>2026-03-22T12:08:19Z</time></trkpt><trkpt lat="45.34585215635244" lon="11.959081726585785"><ele>6.0</ele><time>2026-03-22T12:08:20Z</time></trkpt><trkpt lat="45.345964495368115" lon="11.959273130303359"><ele>6.666666666666666</ele><time>2026-03-22T12:08:21Z</time></trkpt><trkpt lat="45.34609693886595" lon="11.959450190979494"><ele>7.333333333333333</ele><time>2026-03-22T12:08:22Z</time></trkpt><trkpt lat="45.34623931851789" lon="11.959639928129093"><ele>8.0</ele><time>2026-03-22T12:08:23Z</time></trkpt><trkpt lat="45.34638426348785" lon="11.959830085126278"><ele>8.0</ele><time>2026-03-22T12:08:24Z</time></trkpt><trkpt lat="45.34653581941758" lon="11.960002990783119"><ele>8.0</ele><time>2026-03-22T12:08:25Z</time></trkpt><trkpt lat="45.34667953656372" lon="11.960157375049738"><ele>8.0</ele><time>2026-03-22T12:08:26Z</time></trkpt><trkpt lat="45.346996781905176" lon="11.960371148791943"><ele>7.666666666666666</ele><time>2026-03-22T12:08:28Z</time></trkpt><trkpt lat="45.3471580072663" lon="11.960418109206135"><ele>7.333333333333334</ele><time>2026-03-22T12:08:29Z</time></trkpt><trkpt lat="45.34731687415264" lon="11.960426506952153"><ele>7.0</ele><time>2026-03-22T12:08:30Z</time></trkpt><trkpt lat="45.347473371211855" lon="11.960363635412405"><ele>7.0</ele><time>2026-03-22T12:08:31Z</time></trkpt><trkpt lat="45.34762542642581" lon="11.960276946454652"><ele>7.0</ele><time>2026-03-22T12:08:32Z</time></trkpt><trkpt lat="45.347777010398396" lon="11.960146845348339"><ele>7.0</ele><time>2026-03-22T12:08:33Z</time></trkpt><trkpt lat="45.34792617942611" lon="11.959992002935758"><ele>7.333333333333334</ele><time>2026-03-22T12:08:34Z</time></trkpt><trkpt lat="45.34807095638002" lon="11.959798874540144"><ele>7.666666666666666</ele><time>2026-03-22T12:08:35Z</time></trkpt><trkpt lat="45.34821390626994" lon="11.959585471352776"><ele>8.0</ele><time>2026-03-22T12:08:36Z</time></trkpt><trkpt lat="45.348359430992275" lon="11.959366276853391"><ele>7.333333333333333</ele><time>2026-03-22T12:08:37Z</time></trkpt><trkpt lat="45.348490373640416" lon="11.959166701678278"><ele>6.666666666666666</ele><time>2026-03-22T12:08:38Z</time></trkpt><trkpt lat="45.34860877902257" lon="11.958986145298356"><ele>6.0</ele><time>2026-03-22T12:08:39Z</time></trkpt><trkpt lat="45.34873729470305" lon="11.95878979359427"><ele>6.0</ele><time>2026-03-22T12:08:40Z</time></trkpt><trkpt lat="45.34886982442724" lon="11.958586657181534"><ele>6.0</ele><time>2026-03-22T12:08:41Z</time></trkpt><trkpt lat="45.349005385800076" lon="11.95837954622203"><ele>6.0</ele><time>2026-03-22T12:08:42Z</time></trkpt><trkpt lat="45.349141288452444" lon="11.958172802062986"><ele>6.333333333333334</ele><time>2026-03-22T12:08:43Z</time></trkpt><trkpt lat="45.34927960704588" lon="11.95796238268928"><ele>6.666666666666667</ele><time>2026-03-22T12:08:44Z</time></trkpt><trkpt lat="45.34942251494804" lon="11.957745813293544"><ele>7.0</ele><time>2026-03-22T12:08:45Z</time></trkpt><trkpt lat="45.34956002915005" lon="11.95753879485643"><ele>7.0</ele><time>2026-03-22T12:08:46Z</time></trkpt><trkpt lat="45.34969334813399" lon="11.957337542401696"><ele>7.0</ele><time>2026-03-22T12:08:47Z</time></trkpt><trkpt lat="45.3498208793589" lon="11.95714501354091"><ele>7.0</ele><time>2026-03-22T12:08:48Z</time></trkpt><trkpt lat="45.34994279217989" lon="11.956960555822773"><ele>7.0</ele><time>2026-03-22T12:08:49Z</time></trkpt><trkpt lat="45.35005135784818" lon="11.956795825345582"><ele>7.0</ele><time>2026-03-22T12:08:50Z</time></trkpt><trkpt lat="45.35015852790727" lon="11.956633209847004"><ele>7.0</ele><time>2026-03-22T12:08:51Z</time></trkpt><trkpt lat="45.35025387545315" lon="11.95648853349357"><ele>7.333333333333334</ele><time>2026-03-22T12:08:52Z</time></trkpt><trkpt lat="45.350350254583255" lon="11.956342507630522"><ele>7.666666666666666</ele><time>2026-03-22T12:08:53Z</time></trkpt><trkpt lat="45.35045873416064" lon="11.956178382432881"><ele>8.0</ele><time>2026-03-22T12:08:54Z</time></trkpt><trkpt lat="45.35058768814075" lon="11.955981597597331"><ele>7.666666666666666</ele><time>2026-03-22T12:08:55Z</time></trkpt><trkpt lat="45.350726387189226" lon="11.955771532075415"><ele>7.333333333333334</ele><time>2026-03-22T12:08:56Z</time></trkpt><trkpt lat="45.35087937994403" lon="11.955540990219982"><ele>7.0</ele><time>2026-03-22T12:08:57Z</time></trkpt><trkpt lat="45.35103792603763" lon="11.955302378491632"><ele>7.0</ele><time>2026-03-22T12:08:58Z</time></trkpt><trkpt lat="45.351208972435266" lon="11.955031541429118"><ele>7.0</ele><time>2026-03-22T12:08:59Z</time></trkpt><trkpt lat="45.35139769052053" lon="11.9547458202889"><ele>7.0</ele><time>2026-03-22T12:09:00Z</time></trkpt><trkpt lat="45.3515942503736" lon="11.954450084824327"><ele>7.0</ele><time>2026-03-22T12:09:01Z</time></trkpt><trkpt lat="45.35176562869884" lon="11.95418940402122"><ele>6.333333333333334</ele><time>2026-03-22T12:09:02Z</time></trkpt><trkpt lat="45.351916897287644" lon="11.953954369681707"><ele>5.666666666666667</ele><time>2026-03-22T12:09:03Z</time></trkpt><trkpt lat="45.352047728450096" lon="11.953719091796929"><ele>5.0</ele><time>2026-03-22T12:09:04Z</time></trkpt><trkpt lat="45.352172925514246" lon="11.953462397542658"><ele>5.333333333333334</ele><time>2026-03-22T12:09:05Z</time></trkpt><trkpt lat="45.35227669018373" lon="11.953193286922001"><ele>5.666666666666667</ele><time>2026-03-22T12:09:06Z</time></trkpt><trkpt lat="45.35235158999542" lon="11.952915791648792"><ele>6.0</ele><time>2026-03-22T12:09:07Z</time></trkpt><trkpt lat="45.352402622482614" lon="11.952649085235954"><ele>5.666666666666667</ele><time>2026-03-22T12:09:08Z</time></trkpt><trkpt lat="45.3524406669106" lon="11.952389894034708"><ele>5.333333333333334</ele><time>2026-03-22T12:09:09Z</time></trkpt><trkpt lat="45.352468947416064" lon="11.952149517391744"><ele>5.0</ele><time>2026-03-22T12:09:10Z</time></trkpt><trkpt lat="45.35250999588107" lon="11.95191783547597"><ele>5.0</ele><time>2026-03-22T12:09:11Z</time></trkpt><trkpt lat="45.3525304878799" lon="11.951711221137113"><ele>5.0</ele><time>2026-03-22T12:09:12Z</time></trkpt><trkpt lat="45.352553861891494" lon="11.95152640662613"><ele>5.0</ele><time>2026-03-22T12:09:13Z</time></trkpt><trkpt lat="45.35255516311226" lon="11.951369896214072"><ele>5.0</ele><time>2026-03-22T12:09:14Z</time></trkpt><trkpt lat="45.352605619089395" lon="11.951215861527407"><ele>5.0</ele><time>2026-03-22T12:09:15Z</time></trkpt><trkpt lat="45.35268807351551" lon="11.951081234228665"><ele>5.0</ele><time>2026-03-22T12:09:16Z</time></trkpt><trkpt lat="45.352763297002255" lon="11.950971240128093"><ele>5.0</ele><time>2026-03-22T12:09:17Z</time></trkpt><trkpt lat="45.352966843443944" lon="11.951122238142812"><ele>5.25</ele><time>2026-03-22T12:09:18Z</time></trkpt><trkpt lat="45.35308605192535" lon="11.951147366735817"><ele>5.5</ele><time>2026-03-22T12:09:19Z</time></trkpt><trkpt lat="45.35322249081531" lon="11.951154259648293"><ele>5.75</ele><time>2026-03-22T12:09:20Z</time></trkpt><trkpt lat="45.353359557122275" lon="11.951203150862126"><ele>6.0</ele><time>2026-03-22T12:09:21Z</time></trkpt><trkpt lat="45.353477464245735" lon="11.951232991963844"><ele>6.0</ele><time>2026-03-22T12:09:22Z</time></trkpt><trkpt lat="45.353567313319935" lon="11.951252823485328"><ele>6.0</ele><time>2026-03-22T12:09:23Z</time></trkpt><trkpt lat="45.353641094048704" lon="11.951292581131836"><ele>6.0</ele><time>2026-03-22T12:09:24Z</time></trkpt><trkpt lat="45.353686226502916" lon="11.951422767689767"><ele>6.0</ele><time>2026-03-22T12:09:26Z</time></trkpt><trkpt lat="45.353732415322696" lon="11.951535607211209"><ele>6.0</ele><time>2026-03-22T12:09:31Z</time></trkpt><trkpt lat="45.353790804299756" lon="11.951602797636824"><ele>6.0</ele><time>2026-03-22T12:09:32Z</time></trkpt><trkpt lat="45.353876607147065" lon="11.951711433680384"><ele>6.0</ele><time>2026-03-22T12:09:33Z</time></trkpt><trkpt lat="45.35394957931695" lon="11.95179035065036"><ele>6.0</ele><time>2026-03-22T12:09:34Z</time></trkpt><trkpt lat="45.35403227802478" lon="11.951828070654457"><ele>6.0</ele><time>2026-03-22T12:09:35Z</time></trkpt><trkpt lat="45.35412609426651" lon="11.951855269874573"><ele>6.0</ele><time>2026-03-22T12:09:36Z</time></trkpt><trkpt lat="45.35420076432497" lon="11.951886472694813"><ele>6.0</ele><time>2026-03-22T12:09:37.001Z</time></trkpt><trkpt lat="45.354235232303985" lon="11.951977417051964"><ele>6.0</ele><time>2026-03-22T12:09:38.001Z</time></trkpt><trkpt lat="45.354339216075985" lon="11.951838978354555"><ele>6.0</ele><time>2026-03-22T12:09:39.001Z</time></trkpt><trkpt lat="45.35448120844475" lon="11.95197496269455"><ele>6.0</ele><time>2026-03-22T12:09:41.001Z</time></trkpt><trkpt lat="45.354559727505965" lon="11.952079165505495"><ele>6.0</ele><time>2026-03-22T12:09:42Z</time></trkpt><trkpt lat="45.354642229273985" lon="11.952188653974007"><ele>6.0</ele><time>2026-03-22T12:09:43Z</time></trkpt><trkpt lat="45.35470739513416" lon="11.952275135461877"><ele>7.0</ele><time>2026-03-22T12:09:44Z</time></trkpt><trkpt lat="45.354763155423335" lon="11.952349134930435"><ele>7.0</ele><time>2026-03-22T12:09:45Z</time></trkpt><trkpt lat="45.35481605680724" lon="11.952419340531875"><ele>7.0</ele><time>2026-03-22T12:09:46Z</time></trkpt><trkpt lat="45.354890910677774" lon="11.952518358758619"><ele>7.0</ele><time>2026-03-22T12:09:48Z</time></trkpt><trkpt lat="45.35493963228063" lon="11.952582444230718"><ele>6.0</ele><time>2026-03-22T12:10:13Z</time></trkpt></trkseg></trk></gpx>